# Wetter Temperatur Luftdruck Luftfeuchtigkeit Sichtweite Windgeschwindigkeit Windrichtung Zeit
1 Clear 23 1007 49 10000 5 260 06:55 11.07.2020
2 Clear 22 1007 56 10000 4 270 06:22 11.07.2020
3 Clear 21 1007 64 10000 3 270 05:22 11.07.2020
4 Clear 20 1008 72 10000 3 280 04:55 11.07.2020
5 Clear 19 1008 77 10000 2 270 04:32 11.07.2020
6 Clear 16 1008 100 10000 2 290 02:59 11.07.2020
7 Clear 15 1008 100 10000 3 290 02:37 11.07.2020
8 Clouds 14 1008 100 10000 3 280 01:32 11.07.2020
9 Clouds 14 1008 100 10000 2 320 00:59 11.07.2020
10 Clouds 14 1008 100 10000 3 280 00:40 11.07.2020
11 Clouds 14 1008 100 10000 3 280 00:21 11.07.2020
12 Clouds 15 1008 100 10000 3 300 23:57 10.07.2020
13 Clouds 15 1008 100 10000 3 320 23:39 10.07.2020
14 Clouds 15 1008 100 10000 3 320 23:18 10.07.2020
15 Clouds 15 1008 100 10000 3 300 22:43 10.07.2020
16 Clouds 16 1008 87 10000 3 330 22:20 10.07.2020
17 Clouds 16 1008 87 10000 3 310 21:55 10.07.2020
18 Clouds 17 1008 82 10000 3 310 21:36 10.07.2020
19 Clear 17 1008 82 10000 3 310 21:18 10.07.2020
20 Clear 17 1008 82 10000 3 310 21:18 10.07.2020
21 Clear 18 1008 77 10000 4 300 20:41 10.07.2020
22 Clear 18 1008 77 10000 4 300 20:22 10.07.2020
23 Clear 18 1008 77 10000 4 300 19:57 10.07.2020
24 Clear 19 1008 72 10000 4 300 19:39 10.07.2020
25 Clear 19 1008 72 10000 4 300 19:20 10.07.2020
26 Clear 20 1008 68 10000 4 300 18:41 10.07.2020
27 Clear 20 1008 68 10000 4 300 18:20 10.07.2020
28 Clear 21 1008 64 10000 4 310 17:58 10.07.2020
29 Clear 21 1008 64 10000 4 320 17:39 10.07.2020
30 Clear 21 1008 64 10000 4 320 17:20 10.07.2020
31 Clear 22 1008 56 10000 5 330 16:43 10.07.2020
32 Clear 22 1008 56 10000 6 320 16:21 10.07.2020
33 Clear 22 1008 56 10000 5 320 15:48 10.07.2020
34 Clear 22 1008 56 10000 7 330 15:26 10.07.2020
35 Clear 22 1008 56 10000 6 340 14:59 10.07.2020
36 Clear 23 1008 53 10000 7 340 14:40 10.07.2020
37 Clear 23 1008 53 10000 7 340 14:20 10.07.2020
38 Clear 23 1008 53 10000 7 340 14:20 10.07.2020
39 Clouds 23 1008 56 10000 7 330 13:57 10.07.2020
40 Clouds 23 1008 53 10000 8 340 13:38 10.07.2020
41 Clouds 23 1008 53 10000 8 340 13:20 10.07.2020
42 Clouds 23 1008 53 10000 7 330 12:56 10.07.2020
43 Clouds 23 1008 53 10000 8 320 12:37 10.07.2020
44 Clouds 23 1008 53 10000 7 340 12:19 10.07.2020
45 Clouds 22 1008 56 10000 8 330 11:39 10.07.2020
46 Clouds 22 1008 56 10000 8 330 11:20 10.07.2020
47 Clouds 21 1008 60 10000 8 340 10:56 10.07.2020
48 Clouds 21 1008 60 10000 7 340 10:38 10.07.2020
49 Clouds 21 1008 60 10000 7 340 10:18 10.07.2020
50 Clouds 21 1008 60 10000 8 330 09:40 10.07.2020
51 Clouds 21 1008 60 10000 8 330 09:22 10.07.2020
52 Clouds 20 1008 60 10000 9 340 08:58 10.07.2020
53 Clouds 20 1008 60 10000 8 330 08:40 10.07.2020
54 Clouds 20 1008 60 10000 8 330 08:21 10.07.2020
55 Clouds 19 1008 63 10000 7 340 07:44 10.07.2020
56 Clouds 19 1008 63 10000 7 340 07:23 10.07.2020
57 Clouds 18 1008 68 10000 8 330 06:52 10.07.2020
58 Clouds 18 1008 68 10000 8 330 06:52 10.07.2020
59 Clouds 17 1008 72 10000 8 330 06:27 10.07.2020
60 Clouds 17 1008 72 10000 8 330 05:20 10.07.2020
61 Clouds 16 1008 72 10000 7 330 03:43 10.07.2020
62 Clouds 16 1008 72 10000 5 340 02:53 10.07.2020
63 Clear 15 1008 77 10000 4 320 01:53 10.07.2020
64 Clear 15 1008 72 10000 5 340 00:53 10.07.2020
65 Clear 15 1008 77 10000 4 360 00:22 10.07.2020
66 Clear 15 1008 72 10000 5 10 23:55 09.07.2020
67 Clear 16 1008 67 10000 5 10 23:37 09.07.2020
68 Clear 16 1008 67 10000 5 10 23:18 09.07.2020
69 Clear 16 1008 67 10000 5 360 22:55 09.07.2020
70 Clear 16 1008 67 10000 5 10 22:36 09.07.2020
71 Clear 16 1008 67 10000 5 10 22:18 09.07.2020
72 Clear 17 1008 63 10000 5 10 21:39 09.07.2020
73 Clear 17 1008 63 10000 5 10 21:19 09.07.2020
74 Clear 17 1008 59 10000 5 10 20:58 09.07.2020
75 Clear 18 1007 59 10000 6 10 20:39 09.07.2020
76 Clouds 18 1007 59 10000 6 10 20:21 09.07.2020
77 Clouds 20 1007 56 10000 5 360 19:43 09.07.2020
78 Clouds 20 1007 56 10000 5 360 19:21 09.07.2020
79 Clouds 20 1007 64 10000 5 350 18:56 09.07.2020
80 Clouds 21 1006 60 10000 5 10 18:38 09.07.2020
81 Clouds 21 1006 64 10000 6 350 18:18 09.07.2020
82 Clouds 21 1006 64 10000 5 340 17:42 09.07.2020
83 Clouds 21 1006 64 10000 5 340 17:22 09.07.2020
84 Clouds 21 1006 73 10000 4 340 16:56 09.07.2020
85 Clouds 21 1006 94 10000 3 340 16:38 09.07.2020
86 Clouds 21 1006 94 10000 3 340 16:19 09.07.2020
87 Clouds 21 1006 100 10000 4 340 15:56 09.07.2020
88 Clouds 21 1006 100 10000 4 340 15:37 09.07.2020
89 Clouds 21 1006 100 10000 4 340 15:18 09.07.2020
90 Clouds 20 1006 100 10000 3 360 14:57 09.07.2020
91 Clouds 19 1007 100 10000 2 20 14:39 09.07.2020
92 Clouds 19 1007 100 10000 2 20 14:20 09.07.2020
93 Clouds 19 1007 100 10000 2 30 13:56 09.07.2020
94 Clouds 19 1007 100 10000 2 60 13:37 09.07.2020
95 Clouds 19 1007 100 10000 2 60 13:18 09.07.2020
96 Rain 18 1007 100 5000 4 60 12:41 09.07.2020
97 Rain 18 1007 100 5000 4 60 12:22 09.07.2020
98 Rain 22 1007 88 9000 2 90 11:56 09.07.2020
99 Rain 22 1008 78 10000 2 280 11:38 09.07.2020
100 Rain 22 1008 78 10000 2 280 11:18 09.07.2020
101 Clouds 23 1008 73 10000 3 250 10:55 09.07.2020
102 Rain 23 1009 69 10000 4 270 10:37 09.07.2020
103 Rain 23 1009 69 10000 4 270 10:18 09.07.2020
104 Clouds 25 1009 50 10000 2 30 09:41 09.07.2020
105 Clouds 25 1009 50 10000 2 30 09:22 09.07.2020
106 Clouds 25 1009 50 10000 2 30 09:22 09.07.2020
107 Clouds 25 1009 47 10000 3 290 08:49 09.07.2020
108 Clear 25 1010 47 10000 4 320 08:26 09.07.2020
109 Clear 25 1010 50 10000 4 310 07:50 09.07.2020
110 Clear 24 1010 50 10000 1 0 07:26 09.07.2020
111 Clear 24 1010 50 10000 2 10 06:57 09.07.2020
112 Clear 24 1011 53 10000 1 0 06:20 09.07.2020
113 Clear 22 1011 64 10000 3 50 05:46 09.07.2020
114 Clear 21 1011 68 10000 1 0 04:28 09.07.2020
115 Clear 19 1012 93 10000 2 70 02:33 09.07.2020
116 Clouds 19 1012 100 10000 2 40 01:40 09.07.2020
117 Clouds 19 1012 100 10000 2 70 00:56 09.07.2020
118 Clouds 19 1012 100 10000 2 50 00:25 09.07.2020
119 Clouds 20 1011 100 10000 3 40 23:58 08.07.2020
120 Clouds 20 1011 100 10000 1 40 23:39 08.07.2020
121 Clouds 20 1011 100 10000 1 40 23:21 08.07.2020
122 Clouds 21 1011 100 10000 1 60 22:54 08.07.2020
123 Clouds 21 1012 100 10000 2 330 22:36 08.07.2020
124 Clouds 21 1012 100 10000 2 330 22:36 08.07.2020
125 Clouds 21 1012 100 10000 2 330 22:18 08.07.2020
126 Rain 21 1011 100 10000 3.1 55 21:39 08.07.2020
127 Rain 21 1011 100 10000 2.64 54 21:21 08.07.2020
128 Rain 22 1011 100 9000 2 30 20:58 08.07.2020
129 Clouds 22 1011 94 10000 4 80 20:39 08.07.2020
130 Clouds 22 1011 94 10000 4 80 20:21 08.07.2020
131 Clouds 23 1010 78 10000 5 60 19:43 08.07.2020
132 Clouds 23 1010 78 10000 5 60 19:24 08.07.2020
133 Clouds 25 1010 69 10000 4 20 18:58 08.07.2020
134 Clouds 27 1010 61 10000 5 30 18:40 08.07.2020
135 Clouds 27 1010 61 10000 5 30 18:20 08.07.2020
136 Clouds 29 1009 51 10000 6 280 17:56 08.07.2020
137 Clouds 29 1009 51 10000 7 270 17:37 08.07.2020
138 Clouds 29 1009 51 10000 7 270 17:19 08.07.2020
139 Clouds 30 1009 48 10000 8 270 16:43 08.07.2020
140 Clouds 31 1009 45 10000 9 270 16:24 08.07.2020
141 Clouds 31 1009 45 10000 10 260 15:59 08.07.2020
142 Clouds 31 1010 45 10000 10 260 15:41 08.07.2020
143 Clouds 31 1010 45 10000 10 260 15:20 08.07.2020
144 Clouds 32 1010 43 10000 8 260 14:58 08.07.2020
145 Clouds 32 1010 43 10000 9 250 14:40 08.07.2020
146 Clouds 32 1010 43 10000 9 250 14:19 08.07.2020
147 Clouds 32 1011 43 10000 8 250 13:45 08.07.2020
148 Clouds 32 1011 43 10000 9 250 13:26 08.07.2020
149 Clouds 32 1011 38 10000 7 250 12:46 08.07.2020
150 Clouds 32 1011 38 10000 7 250 12:22 08.07.2020
151 Clouds 32 1011 40 10000 7 250 11:59 08.07.2020
152 Clouds 32 1012 40 10000 8 260 11:38 08.07.2020
153 Clouds 32 1012 40 10000 8 260 11:20 08.07.2020
154 Clouds 32 1012 40 10000 8 260 10:54 08.07.2020
155 Clouds 32 1012 40 10000 7 250 10:36 08.07.2020
156 Clouds 32 1012 40 10000 7 250 10:18 08.07.2020
157 Clouds 31 1012 45 10000 6 260 09:41 08.07.2020
158 Clouds 31 1012 45 10000 6 260 09:21 08.07.2020
159 Clouds 31 1013 38 10000 8 270 08:43 08.07.2020
160 Clouds 31 1013 38 10000 8 270 08:24 08.07.2020
161 Clouds 31 1013 38 10000 6 300 07:47 08.07.2020
162 Clouds 30 1013 42 10000 7 290 07:24 08.07.2020
163 Clouds 30 1013 45 10000 6 290 06:55 08.07.2020
164 Clouds 29 1013 48 10000 6 290 06:35 08.07.2020
165 Clouds 28 1013 51 10000 5 280 05:55 08.07.2020
166 Clouds 27 1013 54 10000 5 280 05:20 08.07.2020
167 Clouds 25 1013 61 10000 4 270 04:32 08.07.2020
168 Clouds 22 1013 68 10000 3 270 02:42 08.07.2020
169 Clouds 19 1012 82 10000 3 270 01:46 08.07.2020
170 Clouds 19 1012 82 10000 3 280 01:23 08.07.2020
171 Clouds 19 1012 77 10000 2 280 00:26 08.07.2020
172 Clouds 19 1012 77 10000 2 300 23:56 07.07.2020
173 Clouds 20 1012 72 10000 2 310 23:37 07.07.2020
174 Clouds 20 1012 72 10000 2 310 23:19 07.07.2020
175 Clouds 20 1011 72 10000 2 310 22:43 07.07.2020
176 Clouds 20 1011 72 10000 3 280 22:23 07.07.2020
177 Clouds 20 1011 72 10000 2 280 21:59 07.07.2020
178 Clouds 20 1011 72 10000 3 280 21:40 07.07.2020
179 Clouds 20 1011 72 10000 3 280 21:21 07.07.2020
180 Clouds 20 1011 77 10000 3 290 20:57 07.07.2020
181 Clouds 22 1011 64 10000 3 300 20:39 07.07.2020
182 Clouds 22 1011 64 10000 3 300 20:21 07.07.2020
183 Clouds 22 1010 64 10000 2 290 19:41 07.07.2020
184 Clouds 22 1010 64 10000 2 290 19:21 07.07.2020
185 Clouds 23 1010 64 10000 2 290 18:58 07.07.2020
186 Clouds 24 1010 57 10000 2 310 18:40 07.07.2020
187 Clouds 24 1010 57 10000 2 310 18:21 07.07.2020
188 Clouds 26 1010 50 10000 2 320 17:58 07.07.2020
189 Clouds 27 1010 44 10000 3 330 17:38 07.07.2020
190 Clouds 27 1010 44 10000 3 330 17:20 07.07.2020
191 Clouds 27 1010 44 10000 5 330 16:43 07.07.2020
192 Clouds 28 1009 45 10000 4 340 16:24 07.07.2020
193 Clouds 28 1009 45 10000 5 310 15:58 07.07.2020
194 Clouds 28 1009 48 10000 5 300 15:39 07.07.2020
195 Clouds 28 1009 48 10000 5 300 15:20 07.07.2020
196 Clouds 28 1009 48 10000 5 290 14:47 07.07.2020
197 Clouds 27 1009 54 10000 4 230 14:26 07.07.2020
198 Clouds 26 1009 54 10000 4 230 13:59 07.07.2020
199 Thunderstorm 25 1009 57 10000 5 240 13:38 07.07.2020
200 Thunderstorm 25 1009 57 10000 5 240 13:18 07.07.2020
201 Clouds 27 1008 44 10000 5 240 12:40 07.07.2020
202 Clouds 27 1008 44 10000 5 240 12:22 07.07.2020
203 Clouds 27 1009 47 10000 5 240 11:50 07.07.2020
204 Clouds 26 1008 41 10000 5 230 11:26 07.07.2020
205 Thunderstorm 25 1009 38 10000 8 250 10:59 07.07.2020
206 Clouds 27 1008 44 10000 5 260 10:41 07.07.2020
207 Clouds 27 1008 44 10000 5 260 10:22 07.07.2020
208 Clouds 29 1008 37 10000 4 260 09:59 07.07.2020
209 Clouds 27 1008 42 10000 5 280 09:38 07.07.2020
210 Clouds 27 1008 42 10000 5 280 09:20 07.07.2020
211 Clouds 26 1008 47 10000 4 310 08:42 07.07.2020
212 Clouds 26 1008 47 10000 4 310 08:23 07.07.2020
213 Clouds 27 1008 44 10000 5 280 07:45 07.07.2020
214 Clouds 27 1008 44 10000 5 280 07:23 07.07.2020
215 Clouds 26 1008 50 10000 4 290 06:49 07.07.2020
216 Clouds 26 1008 50 10000 4 290 06:30 07.07.2020
217 Clouds 25 1008 53 10000 4 300 05:53 07.07.2020
218 Clouds 25 1008 53 10000 4 300 05:22 07.07.2020
219 Clouds 24 1008 60 10000 3 300 04:38 07.07.2020
220 Clouds 22 1007 73 10000 3 330 03:35 07.07.2020
221 Clouds 19 1007 88 10000 3 300 02:27 07.07.2020
222 Clouds 16 1007 100 10000 3 290 01:23 07.07.2020
223 Clouds 16 1007 100 10000 3 280 00:43 07.07.2020
224 Clouds 16 1007 100 10000 3 280 00:24 07.07.2020
225 Clouds 17 1007 100 10000 3 270 23:55 06.07.2020
226 Clouds 17 1007 100 10000 3 280 23:37 06.07.2020
227 Clouds 17 1007 100 10000 3 280 23:18 06.07.2020
228 Clouds 17 1007 93 10000 3 280 22:41 06.07.2020
229 Clouds 17 1007 93 10000 3 280 22:20 06.07.2020
230 Clouds 18 1007 88 10000 3 280 21:57 06.07.2020
231 Clouds 18 1006 82 10000 3 280 21:39 06.07.2020
232 Clouds 18 1006 82 10000 3 280 21:39 06.07.2020
233 Clouds 18 1006 82 10000 3 280 21:19 06.07.2020
234 Clouds 19 1006 77 10000 2 260 20:59 06.07.2020
235 Clouds 19 1006 77 10000 3 280 20:38 06.07.2020
236 Clouds 19 1006 77 10000 3 280 20:20 06.07.2020
237 Clouds 20 1006 68 10000 2 260 19:56 06.07.2020
238 Clouds 20 1006 68 10000 3 280 19:38 06.07.2020
239 Clouds 20 1006 68 10000 3 280 19:20 06.07.2020
240 Clouds 21 1006 68 10000 3 280 18:55 06.07.2020
241 Clouds 22 1006 60 10000 2 270 18:36 06.07.2020
242 Clouds 24 1006 53 10000 2 290 18:18 06.07.2020
243 Clouds 24 1006 50 10000 3 280 17:41 06.07.2020
244 Clouds 24 1006 50 10000 3 280 17:23 06.07.2020
245 Clouds 25 1006 44 10000 3 270 16:55 06.07.2020
246 Clouds 26 1006 36 10000 3 260 16:37 06.07.2020
247 Clouds 26 1006 36 10000 3 260 16:18 06.07.2020
248 Clouds 26 1006 39 10000 2 260 15:42 06.07.2020
249 Clouds 26 1006 36 10000 2 290 15:24 06.07.2020
250 Clouds 25 1006 38 10000 3 270 14:56 06.07.2020
251 Clouds 25 1006 41 10000 3 240 14:37 06.07.2020
252 Clouds 25 1006 41 10000 3 240 14:19 06.07.2020
253 Clouds 25 1006 41 10000 2 140 13:46 06.07.2020
254 Clouds 25 1006 41 10000 2 140 13:27 06.07.2020
255 Clouds 24 1006 50 10000 2 90 12:57 06.07.2020
256 Thunderstorm 24 1006 50 10000 3 300 12:39 06.07.2020
257 Thunderstorm 24 1006 50 10000 3 300 12:18 06.07.2020
258 Clouds 26 1006 41 10000 7 280 11:57 06.07.2020
259 Clouds 27 1006 34 10000 4 280 11:37 06.07.2020
260 Clouds 27 1006 34 10000 4 280 11:18 06.07.2020
261 Clouds 24 1006 44 10000 5 240 10:42 06.07.2020
262 Clouds 24 1006 44 10000 5 240 10:42 06.07.2020
263 Clouds 24 1006 44 10000 5 240 10:21 06.07.2020
264 Thunderstorm 24 1006 50 10000 6 250 09:56 06.07.2020
265 Clouds 27 1006 39 10000 5 240 09:38 06.07.2020
266 Clouds 27 1006 39 10000 5 240 09:20 06.07.2020
267 Clouds 27 1006 39 10000 3 250 08:41 06.07.2020
268 Clear 27 1006 39 10000 3 250 08:23 06.07.2020
269 Clear 26 1006 41 10000 4 200 07:54 06.07.2020
270 Clear 26 1007 41 10000 2 240 07:36 06.07.2020
271 Clear 26 1007 41 10000 2 200 06:57 06.07.2020
272 Clear 25 1007 44 10000 2 240 06:39 06.07.2020
273 Clear 24 1007 47 10000 2 250 06:19 06.07.2020
274 Clear 24 1007 50 10000 2 270 05:29 06.07.2020
275 Clear 22 1007 60 10000 2 280 04:36 06.07.2020
276 Clear 19 1007 77 10000 1 280 02:58 06.07.2020
277 Clouds 17 1007 88 10000 1 260 02:19 06.07.2020
278 Clouds 15 1007 100 10000 1 290 00:59 06.07.2020
279 Clouds 15 1007 93 10000 0.94 227 00:32 06.07.2020
280 Clouds 16 1007 82 10000 3 280 23:59 05.07.2020
281 Clouds 16 1007 87 10000 2 280 23:40 05.07.2020
282 Clouds 16 1007 87 10000 2 280 23:22 05.07.2020
283 Clouds 15 1007 93 10000 0.97 232 22:58 05.07.2020
284 Clouds 16 1007 82 10000 1 300 22:38 05.07.2020
285 Clouds 16 1007 82 10000 1 300 22:19 05.07.2020
286 Clouds 18 1007 72 10000 2 280 21:56 05.07.2020
287 Clouds 18 1007 72 10000 2 300 21:37 05.07.2020
288 Clouds 18 1007 72 10000 2 300 21:18 05.07.2020
289 Clouds 20 1008 64 10000 2 280 20:42 05.07.2020
290 Clouds 20 1008 64 10000 2 280 20:24 05.07.2020
291 Clouds 19 1008 77 10000 0.56 238 19:58 05.07.2020
292 Clouds 20 1008 72 10000 0.56 238 19:40 05.07.2020
293 Clouds 20 1008 72 10000 0.27 288 19:20 05.07.2020
294 Clouds 21 1008 68 10000 0.27 288 18:55 05.07.2020
295 Clouds 22 1008 56 10000 1 280 18:36 05.07.2020
296 Clouds 22 1008 56 10000 1 280 18:18 05.07.2020
297 Clouds 24 1008 47 10000 1 320 17:42 05.07.2020
298 Clouds 24 1008 47 10000 1 320 17:42 05.07.2020
299 Clouds 24 1008 47 10000 1 320 17:19 05.07.2020
300 Clouds 24 1008 44 10000 2 280 16:45 05.07.2020
301 Clouds 24 1008 47 10000 3 280 16:26 05.07.2020
302 Clouds 24 1008 44 10000 2 270 15:59 05.07.2020
303 Clouds 23 1008 49 10000 3 280 15:39 05.07.2020
304 Clouds 23 1008 49 10000 3 280 15:19 05.07.2020
305 Clouds 22 1008 53 10000 4 290 14:42 05.07.2020
306 Clouds 23 1008 49 10000 6 260 14:23 05.07.2020
307 Clouds 25 1008 38 10000 3 230 13:58 05.07.2020
308 Clouds 26 1008 39 10000 3 280 13:40 05.07.2020
309 Clouds 26 1008 39 10000 3 280 13:20 05.07.2020
310 Clouds 26 1009 34 10000 2 360 12:42 05.07.2020
311 Clouds 26 1009 34 10000 2 360 12:20 05.07.2020
312 Clouds 25 1009 36 10000 2 280 11:55 05.07.2020
313 Clouds 25 1009 38 10000 3 350 11:37 05.07.2020
314 Clouds 25 1009 38 10000 3 350 11:18 05.07.2020
315 Clouds 26 1009 34 10000 3 330 10:42 05.07.2020
316 Clouds 26 1009 34 10000 3 330 10:21 05.07.2020
317 Clouds 25 1009 36 10000 4 320 09:59 05.07.2020
318 Clouds 25 1009 36 10000 3 360 09:41 05.07.2020
319 Clouds 25 1009 36 10000 3 360 09:20 05.07.2020
320 Clouds 24 1009 38 10000 4 10 08:55 05.07.2020
321 Clouds 25 1010 36 10000 3 20 08:37 05.07.2020
322 Clouds 25 1010 36 10000 3 20 07:56 05.07.2020
323 Clouds 24 1010 44 10000 4 330 07:30 05.07.2020
324 Clouds 24 1010 44 10000 3 360 06:55 05.07.2020
325 Clouds 23 1010 49 10000 4 350 06:25 05.07.2020
326 Clouds 20 1010 64 10000 3 350 03:55 05.07.2020
327 Clouds 18 1010 72 10000 3 310 02:57 05.07.2020
328 Clouds 17 1010 77 10000 3 310 02:33 05.07.2020
329 Clouds 15 1010 87 10000 3 300 01:43 05.07.2020
330 Clouds 15 1010 87 10000 3 300 01:20 05.07.2020
331 Clouds 14 1010 82 10000 3 300 00:45 05.07.2020
332 Clouds 14 1010 82 10000 3 300 00:26 05.07.2020
333 Clouds 14 1010 82 10000 3 280 23:54 04.07.2020
334 Clouds 14 1010 76 10000 2 290 23:31 04.07.2020
335 Clouds 15 1010 72 10000 2 280 22:59 04.07.2020
336 Clouds 15 1010 72 10000 3 280 22:40 04.07.2020
337 Clouds 15 1010 72 10000 3 280 22:22 04.07.2020
338 Clouds 16 1010 67 10000 4 280 21:56 04.07.2020
339 Clouds 16 1010 72 10000 3 280 21:38 04.07.2020
340 Clouds 16 1010 72 10000 3 280 21:20 04.07.2020
341 Clouds 17 1010 67 10000 2 290 20:41 04.07.2020
342 Clouds 17 1010 67 10000 2 290 20:20 04.07.2020
343 Clouds 18 1010 63 10000 2 290 19:55 04.07.2020
344 Clouds 18 1010 59 10000 3 290 19:37 04.07.2020
345 Clouds 19 1010 55 10000 2 300 19:19 04.07.2020
346 Clouds 21 1010 49 10000 2 300 18:42 04.07.2020
347 Clouds 22 1010 46 10000 2 310 18:22 04.07.2020
348 Clouds 22 1010 46 10000 2 310 17:45 04.07.2020
349 Clouds 23 1010 40 10000 3 330 17:26 04.07.2020
350 Clouds 23 1010 40 10000 4 340 16:59 04.07.2020
351 Clouds 23 1010 40 10000 5 340 16:39 04.07.2020
352 Clouds 23 1010 40 10000 5 340 16:21 04.07.2020
353 Clouds 24 1010 36 10000 6 350 15:56 04.07.2020
354 Clouds 24 1010 36 10000 6 340 15:37 04.07.2020
355 Clouds 24 1010 36 10000 6 340 15:19 04.07.2020
356 Clouds 24 1010 36 10000 6 350 14:39 04.07.2020
357 Clouds 24 1010 36 10000 6 350 14:20 04.07.2020
358 Clouds 24 1010 38 10000 6 350 13:59 04.07.2020
359 Clouds 24 1010 38 10000 7 350 13:41 04.07.2020
360 Clouds 24 1010 38 10000 7 350 13:18 04.07.2020
361 Clouds 25 1010 36 10000 6 350 12:43 04.07.2020
362 Clouds 25 1010 36 10000 6 350 12:22 04.07.2020
363 Clouds 25 1010 36 10000 6 340 11:57 04.07.2020
364 Clouds 24 1010 38 10000 7 350 11:38 04.07.2020
365 Clouds 24 1010 38 10000 7 350 11:19 04.07.2020
366 Clouds 24 1010 38 10000 7 340 10:42 04.07.2020
367 Clouds 24 1010 38 10000 7 340 10:22 04.07.2020
368 Clouds 23 1010 38 10000 6 360 09:59 04.07.2020
369 Clouds 24 1010 41 10000 5 350 09:40 04.07.2020
370 Clouds 24 1010 41 10000 5 350 09:20 04.07.2020
371 Clouds 23 1010 43 10000 6 350 08:49 04.07.2020
372 Clouds 24 1010 41 10000 5 350 08:30 04.07.2020
373 Clouds 23 1010 40 10000 5 340 07:54 04.07.2020
374 Clouds 23 1010 40 10000 7 330 07:35 04.07.2020
375 Clouds 23 1010 46 10000 6 340 06:56 04.07.2020
376 Clouds 23 1010 46 10000 6 340 06:56 04.07.2020
377 Clouds 22 1010 49 10000 6 340 06:23 04.07.2020
378 Clouds 22 1010 49 10000 4 360 05:36 04.07.2020
379 Clouds 21 1010 56 10000 4 340 04:55 04.07.2020
380 Clouds 18 1009 68 10000 4 330 03:19 04.07.2020
381 Clouds 16 1010 72 10000 3 320 02:27 04.07.2020
382 Clouds 15 1009 72 10000 3 310 01:35 04.07.2020
383 Clear 15 1009 72 10000 3 310 00:44 04.07.2020
384 Clear 15 1009 72 10000 3 310 00:26 04.07.2020
385 Clear 15 1010 72 10000 3 310 23:41 03.07.2020
386 Clear 15 1010 72 10000 3 310 23:19 03.07.2020
387 Clear 15 1010 72 10000 3 310 22:59 03.07.2020
388 Clear 15 1010 72 10000 3 310 22:39 03.07.2020
389 Clear 15 1010 72 10000 3 310 22:21 03.07.2020
390 Clear 15 1010 77 10000 3 310 21:43 03.07.2020
391 Clear 16 1010 72 10000 3 310 21:20 03.07.2020
392 Clear 16 1010 72 10000 3 310 20:58 03.07.2020
393 Clear 17 1010 67 10000 3 300 20:39 03.07.2020
394 Clear 17 1010 67 10000 3 300 20:21 03.07.2020
395 Clear 19 1010 59 10000 2 300 19:42 03.07.2020
396 Clear 19 1010 59 10000 2 300 19:21 03.07.2020
397 Clear 19 1010 59 10000 2 300 18:57 03.07.2020
398 Clear 20 1010 56 10000 2 320 18:39 03.07.2020
399 Clear 21 1010 49 10000 3 330 18:20 03.07.2020
400 Clear 22 1010 43 10000 4 340 17:44 03.07.2020
401 Clouds 22 1010 43 10000 4 340 17:22 03.07.2020
402 Clouds 22 1010 43 10000 4 340 16:47 03.07.2020
403 Clouds 23 1010 40 10000 6 340 16:29 03.07.2020
404 Clouds 23 1010 38 10000 6 320 15:57 03.07.2020
405 Clouds 23 1010 40 10000 6 320 15:38 03.07.2020
406 Clouds 23 1010 40 10000 6 320 15:20 03.07.2020
407 Clouds 24 1010 44 10000 6 330 14:41 03.07.2020
408 Clouds 24 1010 44 10000 6 330 14:22 03.07.2020
409 Clouds 23 1010 46 10000 7 320 13:59 03.07.2020
410 Clouds 23 1010 46 10000 7 320 13:40 03.07.2020
411 Clouds 23 1010 46 10000 7 320 13:21 03.07.2020
412 Clouds 23 1010 53 10000 7 330 12:40 03.07.2020
413 Clouds 23 1010 53 10000 7 330 12:21 03.07.2020
414 Clouds 23 1010 53 10000 7 320 11:44 03.07.2020
415 Clouds 22 1010 60 10000 7 340 11:25 03.07.2020
416 Clouds 22 1010 60 10000 6 350 10:59 03.07.2020
417 Clouds 22 1010 64 10000 6 340 10:41 03.07.2020
418 Clouds 22 1010 64 10000 6 340 10:21 03.07.2020
419 Clouds 21 1010 68 10000 6 340 09:58 03.07.2020
420 Clouds 21 1010 68 10000 7 330 09:39 03.07.2020
421 Clouds 21 1010 68 10000 7 330 09:19 03.07.2020
422 Clouds 21 1010 64 10000 8 320 08:56 03.07.2020
423 Clouds 20 1010 72 10000 7 330 08:37 03.07.2020
424 Clouds 20 1010 72 10000 7 330 08:18 03.07.2020
425 Clouds 21 1010 73 10000 7 330 07:43 03.07.2020
426 Clouds 21 1010 73 10000 7 330 07:21 03.07.2020
427 Clouds 20 1010 82 10000 6 330 06:29 03.07.2020
428 Clouds 19 1010 100 10000 5 340 05:34 03.07.2020
429 Clouds 18 1010 100 10000 4 340 03:59 03.07.2020
430 Clouds 17 1010 100 10000 4 340 02:52 03.07.2020
431 Clouds 17 1010 100 10000 3 340 02:30 03.07.2020
432 Clouds 16 1010 100 10000 3 340 01:41 03.07.2020
433 Clouds 16 1010 100 10000 3 340 01:20 03.07.2020
434 Clouds 16 1010 100 10000 3 330 00:40 03.07.2020
435 Clouds 16 1010 100 10000 3 320 23:53 02.07.2020
436 Clouds 16 1010 100 10000 2 320 23:22 02.07.2020
437 Clouds 16 1010 100 10000 3 320 22:59 02.07.2020
438 Clouds 17 1010 100 10000 1 340 22:41 02.07.2020
439 Clouds 17 1010 100 10000 1 340 22:21 02.07.2020
440 Clouds 17 1010 100 10000 3 330 21:58 02.07.2020
441 Clouds 17 1011 100 10000 2 340 21:39 02.07.2020
442 Clouds 17 1011 100 10000 2 340 21:19 02.07.2020
443 Clouds 17 1011 100 10000 3 300 20:58 02.07.2020
444 Clouds 17 1011 100 10000 3 320 20:39 02.07.2020
445 Clouds 17 1011 100 10000 3 320 20:19 02.07.2020
446 Clouds 18 1011 88 10000 3 310 19:42 02.07.2020
447 Clouds 18 1011 88 10000 3 310 19:24 02.07.2020
448 Clouds 18 1011 88 10000 4 320 18:58 02.07.2020
449 Clouds 18 1011 100 10000 3 310 18:40 02.07.2020
450 Clouds 18 1011 100 10000 3 310 18:21 02.07.2020
451 Rain 19 1012 82 10000 4 310 17:55 02.07.2020
452 Clouds 19 1012 82 10000 4 330 17:37 02.07.2020
453 Clouds 19 1012 82 10000 4 330 17:18 02.07.2020
454 Clouds 20 1011 77 10000 3 330 16:42 02.07.2020
455 Clouds 20 1011 77 10000 3 330 16:20 02.07.2020
456 Clouds 20 1011 77 10000 3 350 15:57 02.07.2020
457 Clouds 20 1011 77 10000 3 360 15:38 02.07.2020
458 Clouds 20 1011 77 10000 3 360 15:38 02.07.2020
459 Clouds 20 1011 77 10000 3 360 15:19 02.07.2020
460 Clouds 21 1011 73 10000 3 330 14:45 02.07.2020
461 Clouds 20 1011 77 10000 2 50 14:23 02.07.2020
462 Clouds 20 1011 77 10000 2 340 13:57 02.07.2020
463 Clouds 20 1011 77 10000 2 20 13:38 02.07.2020
464 Clouds 20 1011 77 10000 2 20 13:18 02.07.2020
465 Clouds 19 1012 77 10000 2 360 12:42 02.07.2020
466 Clouds 19 1012 77 10000 2 360 12:22 02.07.2020
467 Clouds 19 1012 77 10000 2 60 11:59 02.07.2020
468 Clouds 19 1012 77 10000 2 60 11:40 02.07.2020
469 Clouds 19 1012 77 10000 2 60 11:22 02.07.2020
470 Clouds 19 1012 77 10000 4 40 10:44 02.07.2020
471 Clouds 19 1012 77 10000 4 40 10:26 02.07.2020
472 Clouds 18 1012 82 10000 3 60 09:56 02.07.2020
473 Clouds 18 1012 82 10000 4 50 09:37 02.07.2020
474 Clouds 18 1012 82 10000 4 50 09:18 02.07.2020
475 Clouds 16 1013 100 10000 3 40 08:42 02.07.2020
476 Clouds 16 1013 100 10000 3 40 08:22 02.07.2020
477 Clouds 15 1013 100 10000 3 30 07:43 02.07.2020
478 Clouds 15 1013 100 10000 3 30 07:25 02.07.2020
479 Clouds 15 1013 100 10000 3 40 06:53 02.07.2020
480 Clouds 15 1013 100 10000 4 30 06:35 02.07.2020
481 Clouds 15 1013 100 10000 4 50 05:50 02.07.2020
482 Clouds 14 1013 100 10000 4 40 05:29 02.07.2020
483 Clouds 14 1013 100 10000 4 30 03:35 02.07.2020
484 Clouds 14 1012 100 10000 3 40 02:38 02.07.2020
485 Clouds 13 1013 93 10000 3 40 00:46 02.07.2020
486 Clouds 13 1013 93 10000 3 40 00:22 02.07.2020
487 Clouds 14 1013 87 10000 4 30 23:45 01.07.2020
488 Clouds 14 1013 87 10000 3 30 23:27 01.07.2020
489 Clouds 14 1013 87 10000 3 40 22:56 01.07.2020
490 Clouds 14 1013 87 10000 3 30 22:38 01.07.2020
491 Clouds 14 1013 87 10000 3 30 22:19 01.07.2020
492 Clouds 14 1013 87 10000 3 20 21:58 01.07.2020
493 Clouds 14 1012 87 10000 4 40 21:39 01.07.2020
494 Clouds 14 1012 87 10000 4 40 21:20 01.07.2020
495 Clouds 15 1013 82 10000 2 40 20:47 01.07.2020
496 Clouds 15 1013 82 10000 3 20 20:29 01.07.2020
497 Clouds 15 1013 82 10000 2 40 19:58 01.07.2020
498 Clouds 15 1013 82 10000 3 40 19:40 01.07.2020
499 Clouds 15 1013 82 10000 3 40 19:21 01.07.2020
500 Clouds 15 1013 82 10000 3 50 18:56 01.07.2020
501 Clouds 15 1013 82 10000 3 40 18:38 01.07.2020
502 Clouds 15 1013 82 10000 3 40 18:20 01.07.2020
503 Clouds 16 1013 72 10000 3 50 17:41 01.07.2020
504 Clouds 16 1013 72 10000 3 50 17:41 01.07.2020
505 Clouds 16 1013 72 10000 3 50 17:21 01.07.2020
506 Clouds 16 1013 72 10000 3 50 16:57 01.07.2020
507 Clouds 16 1013 72 10000 3 60 16:39 01.07.2020
508 Clouds 16 1013 72 10000 3 60 16:20 01.07.2020
509 Clouds 18 1013 59 10000 5 70 15:42 01.07.2020
510 Clouds 18 1013 59 10000 5 70 15:23 01.07.2020
511 Clouds 18 1013 63 10000 6 90 14:58 01.07.2020
512 Clouds 18 1013 63 10000 5 80 14:38 01.07.2020
513 Clouds 18 1013 63 10000 5 80 14:19 01.07.2020
514 Clouds 18 1013 59 10000 5 70 13:40 01.07.2020
515 Clouds 18 1013 59 10000 5 70 13:22 01.07.2020
516 Clouds 18 1013 59 10000 5 70 13:22 01.07.2020
517 Clouds 18 1013 59 10000 5 70 12:59 01.07.2020
518 Clouds 18 1013 59 10000 4 70 12:41 01.07.2020
519 Clouds 18 1013 59 10000 4 70 12:22 01.07.2020
520 Clouds 18 1013 55 10000 5 60 11:58 01.07.2020
521 Clouds 19 1013 55 10000 4 50 11:39 01.07.2020
522 Clouds 19 1013 55 10000 4 50 11:20 01.07.2020
523 Rain 19 1013 55 10000 5 60 10:43 01.07.2020
524 Rain 18 1013 59 10000 5 50 10:23 01.07.2020
525 Clouds 18 1013 55 10000 5 50 09:59 01.07.2020
526 Rain 18 1013 55 10000 4 50 09:38 01.07.2020
527 Rain 18 1013 55 10000 4 50 09:20 01.07.2020
528 Rain 18 1013 55 10000 4 50 09:20 01.07.2020
529 Clouds 17 1013 63 10000 5 50 08:56 01.07.2020
530 Clouds 17 1013 63 10000 5 70 08:38 01.07.2020
531 Clouds 17 1013 63 10000 5 70 08:18 01.07.2020
532 Rain 16 1014 72 10000 4 80 07:40 01.07.2020
533 Rain 16 1014 72 10000 4 80 07:21 01.07.2020
534 Rain 16 1014 72 10000 4 80 07:21 01.07.2020
535 Rain 15 1014 77 10000 4 80 06:50 01.07.2020
536 Rain 15 1014 77 10000 4 90 06:28 01.07.2020
537 Rain 14 1014 93 10000 3 60 05:28 01.07.2020
538 Clouds 12 1013 100 10000 2 60 03:48 01.07.2020
539 Clouds 11 1013 100 10000 3 60 03:28 01.07.2020
540 Clouds 10 1013 100 10000 2 70 02:41 01.07.2020
541 Clouds 11 1013 100 10000 2 50 01:49 01.07.2020
542 Clouds 9 1012 100 10000 2.55 62 00:45 01.07.2020
543 Clouds 9 1012 100 10000 2 75 00:25 01.07.2020
544 Clouds 10 1012 100 10000 1 0 23:42 30.06.2020
545 Clouds 10 1012 100 10000 1 0 23:23 30.06.2020
546 Clouds 10 1011 100 10000 1.56 70 22:59 30.06.2020
547 Clouds 10 1011 100 9000 1 30 22:40 30.06.2020
548 Clouds 10 1011 100 9000 1 30 22:18 30.06.2020
549 Mist 12 1011 100 10000 1 0 21:41 30.06.2020
550 Mist 12 1011 100 10000 1 0 21:41 30.06.2020
551 Mist 12 1011 100 10000 1 0 21:19 30.06.2020
552 Mist 12 1011 100 10000 1 0 21:19 30.06.2020
553 Clouds 12 1011 100 9000 0.45 149 20:55 30.06.2020
554 Clouds 12 1011 100 10000 1 190 20:37 30.06.2020
555 Clouds 12 1011 100 10000 1 190 20:19 30.06.2020
556 Rain 13 1010 87 9000 3 260 19:42 30.06.2020
557 Clouds 13 1010 82 10000 2 200 19:19 30.06.2020
558 Clouds 13 1010 82 10000 2 200 19:19 30.06.2020
559 Clouds 14 1010 76 10000 1 0 18:46 30.06.2020
560 Clouds 14 1010 76 10000 1 0 18:21 30.06.2020
561 Clouds 14 1009 71 10000 2 220 17:59 30.06.2020
562 Clouds 14 1009 71 10000 3 230 17:38 30.06.2020
563 Clouds 14 1009 71 10000 3 230 17:19 30.06.2020
564 Clouds 15 1009 67 10000 4 220 16:43 30.06.2020
565 Clouds 15 1008 62 10000 5 250 16:24 30.06.2020
566 Clouds 15 1008 62 10000 6 240 15:59 30.06.2020
567 Clouds 15 1008 62 10000 6 240 15:40 30.06.2020
568 Clouds 15 1008 62 10000 6 240 15:21 30.06.2020
569 Clouds 15 1007 62 10000 6 250 14:54 30.06.2020
570 Clouds 14 1007 67 10000 6 230 14:36 30.06.2020
571 Clouds 14 1007 67 10000 6 230 14:18 30.06.2020
572 Clouds 14 1006 67 10000 8 260 13:40 30.06.2020
573 Clouds 14 1006 67 10000 8 260 13:20 30.06.2020
574 Clouds 14 1006 67 10000 7 250 12:58 30.06.2020
575 Clouds 14 1006 67 10000 7 250 12:58 30.06.2020
576 Clouds 14 1005 67 10000 7 250 12:39 30.06.2020
577 Clouds 14 1005 67 10000 7 250 12:20 30.06.2020
578 Clouds 14 1005 71 10000 9 250 11:58 30.06.2020
579 Clouds 14 1004 82 10000 7 240 11:38 30.06.2020
580 Clouds 14 1004 82 10000 7 240 11:19 30.06.2020
581 Rain 12 1003 100 7000 8 240 10:56 30.06.2020
582 Mist 13 991 100 5000 4 330 16:38 28.06.2020
583 Mist 13 991 100 5000 4 330 16:19 28.06.2020
584 Clouds 12 991 100 6000 4 340 15:56 28.06.2020
585 Drizzle 12 992 100 9000 5 340 15:37 28.06.2020
586 Drizzle 12 992 100 9000 5 340 15:18 28.06.2020
587 Drizzle 12 992 100 9000 5 340 15:18 28.06.2020
588 Drizzle 13 991 100 7000 5 340 14:43 28.06.2020
589 Drizzle 13 992 100 5000 5 330 14:24 28.06.2020
590 Drizzle 13 992 100 3200 5 320 13:55 28.06.2020
591 Drizzle 13 992 100 1700 4 340 13:36 28.06.2020
592 Drizzle 13 992 100 2300 4 330 13:18 28.06.2020
593 Drizzle 13 992 100 2300 4 330 13:18 28.06.2020
594 Drizzle 13 992 100 2300 4 330 12:55 28.06.2020
595 Drizzle 13 992 100 2300 4 330 12:55 28.06.2020
596 Mist 13 992 100 4400 4 330 12:36 28.06.2020
597 Mist 13 992 100 4400 4 330 12:18 28.06.2020
598 Drizzle 13 992 100 3200 5 340 11:42 28.06.2020
599 Drizzle 13 992 100 3200 5 340 11:21 28.06.2020
600 Drizzle 13 992 100 3200 5 340 11:21 28.06.2020
601 Mist 13 992 100 4400 5 340 10:59 28.06.2020
602 Mist 13 992 100 4400 5 340 10:59 28.06.2020
603 Mist 13 992 100 3200 4 340 10:40 28.06.2020
604 Mist 13 992 100 3200 4 340 10:22 28.06.2020
605 Clouds 13 992 100 6000 4 350 09:42 28.06.2020
606 Mist 12 992 100 4000 3 10 09:23 28.06.2020
607 Rain 12 992 100 1800 3 10 08:57 28.06.2020
608 Rain 12 992 100 2100 3 350 08:38 28.06.2020
609 Rain 12 992 100 2100 3 350 08:20 28.06.2020
610 Rain 12 992 100 4700 4 360 07:33 28.06.2020
611 Rain 12 992 100 2100 4 360 06:56 28.06.2020
612 Rain 12 992 100 4700 4 340 06:32 28.06.2020
613 Rain 12 992 100 3100 5 350 05:45 28.06.2020
614 Rain 11 993 100 3500 5 340 04:27 28.06.2020
615 Rain 11 993 100 7000 4 350 02:57 28.06.2020
616 Rain 11 994 100 7000 4 360 02:20 28.06.2020
617 Rain 11 994 100 10000 3 10 01:27 28.06.2020
618 Rain 11 994 100 10000 4 10 00:55 28.06.2020
619 Clouds 12 994 100 10000 3 10 00:29 28.06.2020
620 Rain 12 995 100 10000 3 10 23:46 27.06.2020
621 Clouds 12 995 87 10000 3 350 23:24 27.06.2020
622 Clouds 12 996 87 10000 3 360 22:59 27.06.2020
623 Clouds 12 996 81 10000 3 20 22:41 27.06.2020
624 Clouds 12 996 81 10000 3 20 22:23 27.06.2020
625 Clouds 12 996 81 10000 3 10 21:58 27.06.2020
626 Clouds 12 997 81 10000 3 10 21:40 27.06.2020
627 Clouds 12 997 81 10000 3 10 21:20 27.06.2020
628 Clouds 12 997 81 10000 3 10 20:45 27.06.2020
629 Clouds 12 997 81 10000 3 10 20:20 27.06.2020
630 Clouds 12 998 81 10000 2 20 19:59 27.06.2020
631 Clouds 12 998 81 10000 2 10 19:37 27.06.2020
632 Clouds 12 998 81 10000 2 10 19:19 27.06.2020
633 Clouds 13 999 76 10000 1 50 18:48 27.06.2020
634 Clouds 13 999 76 10000 1 50 18:28 27.06.2020
635 Clouds 14 999 76 10000 2 30 17:59 27.06.2020
636 Clouds 14 999 71 10000 1 0 17:40 27.06.2020
637 Clouds 14 999 71 10000 1 0 17:20 27.06.2020
638 Clouds 14 1000 71 10000 3 60 16:56 27.06.2020
639 Clouds 15 1000 67 10000 2 40 16:38 27.06.2020
640 Clouds 15 1000 67 10000 2 40 16:18 27.06.2020
641 Clouds 15 1000 62 10000 2 20 15:42 27.06.2020
642 Clouds 15 1000 62 10000 2 30 15:23 27.06.2020
643 Clouds 15 1000 62 10000 2 80 14:54 27.06.2020
644 Clouds 15 1000 67 10000 2 90 14:36 27.06.2020
645 Clouds 15 1000 67 10000 2 90 14:18 27.06.2020
646 Clouds 15 1001 62 10000 3 110 13:39 27.06.2020
647 Clouds 15 1001 62 10000 2 60 13:20 27.06.2020
648 Clouds 15 1001 62 10000 2 60 12:58 27.06.2020
649 Clouds 15 1000 67 10000 2 100 12:40 27.06.2020
650 Clouds 15 1000 67 10000 2 100 12:21 27.06.2020
651 Clouds 14 1001 71 10000 1 0 11:55 27.06.2020
652 Clouds 14 1001 67 10000 1 0 11:37 27.06.2020
653 Clouds 14 1001 67 10000 1 0 11:18 27.06.2020
654 Clouds 13 1000 71 10000 2 280 10:39 27.06.2020
655 Clouds 13 1000 71 10000 2 280 10:19 27.06.2020
656 Clouds 13 1001 71 10000 1 0 09:54 27.06.2020
657 Clouds 13 1001 71 10000 2 180 09:36 27.06.2020
658 Clouds 13 1001 71 10000 2 180 09:18 27.06.2020
659 Clouds 13 1001 71 10000 2 250 08:40 27.06.2020
660 Clouds 13 1001 71 10000 2 250 08:22 27.06.2020
661 Clouds 11 1000 87 10000 2 230 07:46 27.06.2020
662 Clouds 11 1000 87 10000 2 230 07:24 27.06.2020
663 Clouds 11 1000 87 10000 3 290 06:50 27.06.2020
664 Clouds 11 1000 87 10000 3 290 06:29 27.06.2020
665 Clouds 10 999 100 10000 5 290 04:24 27.06.2020
666 Clouds 10 1000 100 10000 5 280 03:53 27.06.2020
667 Drizzle 10 1000 100 6000 5 280 03:23 27.06.2020
668 Clouds 11 999 100 10000 4 270 02:36 27.06.2020
669 Drizzle 10 998 100 10000 3 230 01:45 27.06.2020
670 Drizzle 10 998 100 6000 3 220 01:23 27.06.2020
671 Rain 10 998 100 9000 4 200 00:36 27.06.2020
672 Rain 10 998 100 10000 4 210 23:46 26.06.2020
673 Clouds 10 998 87 10000 5 210 23:26 26.06.2020
674 Clouds 10 998 87 10000 4 220 22:57 26.06.2020
675 Clouds 10 998 87 10000 4 200 22:38 26.06.2020
676 Clouds 10 998 87 10000 4 200 22:19 26.06.2020
677 Clouds 10 998 87 10000 4 220 21:57 26.06.2020
678 Clouds 10 998 87 10000 4 210 21:37 26.06.2020
679 Clouds 10 998 87 10000 4 210 21:19 26.06.2020
680 Clouds 10 998 87 10000 5 200 20:43 26.06.2020
681 Clouds 11 998 81 10000 5 210 20:21 26.06.2020
682 Clouds 11 998 76 10000 6 210 19:47 26.06.2020
683 Clouds 11 998 76 10000 6 210 19:23 26.06.2020
684 Clouds 12 998 71 10000 6 230 18:57 26.06.2020
685 Clouds 12 998 71 10000 5 230 18:37 26.06.2020
686 Clouds 12 998 71 10000 5 230 18:19 26.06.2020
687 Clouds 13 997 66 10000 6 230 17:44 26.06.2020
688 Clouds 13 997 66 10000 5 240 17:24 26.06.2020
689 Clouds 14 998 62 10000 7 220 16:49 26.06.2020
690 Clouds 14 997 62 10000 7 230 16:26 26.06.2020
691 Clouds 14 997 67 10000 8 230 15:55 26.06.2020
692 Clouds 14 998 62 10000 8 230 15:37 26.06.2020
693 Clouds 14 998 62 10000 8 230 15:19 26.06.2020
694 Clouds 14 997 67 10000 8 230 14:56 26.06.2020
695 Clouds 14 998 67 10000 7 230 14:38 26.06.2020
696 Clouds 14 998 67 10000 7 230 14:19 26.06.2020
697 Clouds 14 997 67 10000 8 220 13:44 26.06.2020
698 Clouds 14 997 67 10000 8 220 13:22 26.06.2020
699 Clouds 15 996 62 10000 9 230 12:43 26.06.2020
700 Clouds 15 996 62 10000 9 230 12:24 26.06.2020
701 Clouds 14 997 67 10000 7 230 11:59 26.06.2020
702 Clouds 14 996 71 10000 7 220 11:41 26.06.2020
703 Clouds 14 996 71 10000 7 220 11:23 26.06.2020
704 Clouds 14 996 71 10000 8 210 10:59 26.06.2020
705 Clouds 13 996 82 10000 7 210 10:40 26.06.2020
706 Clouds 13 996 82 10000 7 210 10:19 26.06.2020
707 Rain 12 996 100 8000 5 220 09:56 26.06.2020
708 Rain 12 996 100 6000 9 230 09:38 26.06.2020
709 Rain 12 996 100 6000 9 230 09:18 26.06.2020
710 Clouds 14 995 76 10000 7 210 08:44 26.06.2020
711 Rain 12 995 100 9000 6 190 08:25 26.06.2020
712 Clouds 13 995 82 10000 6 190 07:47 26.06.2020
713 Clouds 12 995 100 10000 7 210 07:23 26.06.2020
714 Rain 12 995 100 9000 6 200 06:49 26.06.2020
715 Rain 11 995 100 6000 5 190 06:30 26.06.2020
716 Rain 12 995 100 7000 6 200 05:52 26.06.2020
717 Rain 11 995 100 7000 7 190 04:55 26.06.2020
718 Clouds 12 995 87 10000 6 190 02:29 26.06.2020
719 Clouds 12 995 100 10000 5 190 01:34 26.06.2020
720 Clouds 12 995 100 10000 5 190 00:46 26.06.2020
721 Clouds 12 995 100 10000 5 190 00:27 26.06.2020
722 Clouds 12 995 100 10000 6 190 23:47 25.06.2020
723 Clouds 12 995 100 10000 6 190 23:22 25.06.2020
724 Clouds 12 995 100 10000 4 200 22:58 25.06.2020
725 Clouds 12 995 100 10000 4 180 22:39 25.06.2020
726 Clouds 12 995 100 10000 4 180 22:20 25.06.2020
727 Clouds 13 995 100 10000 3 180 21:57 25.06.2020
728 Clouds 13 995 100 10000 4 200 21:39 25.06.2020
729 Clouds 13 995 100 10000 4 200 21:20 25.06.2020
730 Clouds 13 996 100 10000 3 180 20:57 25.06.2020
731 Clouds 13 996 100 10000 3 180 20:37 25.06.2020
732 Clouds 13 996 100 10000 3 180 20:19 25.06.2020
733 Clouds 14 996 93 10000 2 170 19:41 25.06.2020
734 Clouds 14 996 100 10000 4 160 19:20 25.06.2020
735 Clouds 13 996 100 10000 2 150 18:59 25.06.2020
736 Clouds 13 996 100 10000 2 150 18:39 25.06.2020
737 Clouds 13 996 100 10000 2 150 18:20 25.06.2020
738 Thunderstorm 13 997 93 10000 5 150 17:44 25.06.2020
739 Clouds 15 997 93 10000 2 140 17:20 25.06.2020
740 Clouds 15 997 100 10000 3 120 16:58 25.06.2020
741 Clouds 16 997 100 10000 3 110 16:37 25.06.2020
742 Clouds 16 997 100 10000 3 110 16:19 25.06.2020
743 Clouds 16 997 100 10000 2 130 15:43 25.06.2020
744 Clouds 16 997 100 10000 3 130 15:24 25.06.2020
745 Clouds 17 997 100 10000 4 160 14:54 25.06.2020
746 Rain 16 997 100 10000 3 170 14:36 25.06.2020
747 Rain 16 997 100 10000 3 170 14:18 25.06.2020
748 Clouds 15 998 100 10000 3 170 13:41 25.06.2020
749 Clouds 15 998 100 10000 3 170 13:20 25.06.2020
750 Clouds 15 998 100 10000 3 160 12:57 25.06.2020
751 Rain 15 998 100 10000 2 180 12:39 25.06.2020
752 Clouds 16 998 100 10000 3 170 12:19 25.06.2020
753 Clouds 14 998 100 10000 2 190 11:42 25.06.2020
754 Clouds 14 998 100 10000 2 190 11:21 25.06.2020
755 Rain 14 998 100 10000 1 0 10:44 25.06.2020
756 Rain 13 998 100 9000 4.74 140 10:26 25.06.2020
757 Rain 13 998 100 1600 2 220 09:58 25.06.2020
758 Rain 14 998 100 10000 2 170 09:40 25.06.2020
759 Rain 14 998 100 10000 2 170 09:18 25.06.2020
760 Rain 14 999 100 8000 2 130 08:43 25.06.2020
761 Rain 14 999 100 8000 2 130 08:19 25.06.2020
762 Rain 14 999 100 10000 4 160 07:44 25.06.2020
763 Rain 14 999 100 10000 4 160 07:26 25.06.2020
764 Rain 14 999 100 10000 5 130 06:45 25.06.2020
765 Rain 15 1000 100 10000 4 130 06:25 25.06.2020
766 Clouds 15 1000 100 10000 4 130 05:39 25.06.2020
767 Clouds 13 1000 100 10000 3 130 03:51 25.06.2020
768 Clouds 13 1001 100 10000 2 130 02:59 25.06.2020
769 Rain 13 1001 100 9000 3 120 02:41 25.06.2020
770 Clouds 12 1001 100 10000 3 120 01:43 25.06.2020
771 Clouds 12 1002 100 10000 3 90 00:52 25.06.2020
772 Clouds 12 1002 100 10000 3 90 00:26 25.06.2020
773 Clouds 12 1002 100 10000 2 140 23:59 24.06.2020
774 Clouds 12 1002 100 10000 2 130 23:39 24.06.2020
775 Clouds 12 1002 100 10000 2 130 23:21 24.06.2020
776 Clouds 11 1003 100 10000 2 80 22:55 24.06.2020
777 Rain 11 1003 100 10000 2 70 22:36 24.06.2020
778 Clouds 11 1003 100 10000 2 70 22:18 24.06.2020
779 Clouds 11 1003 100 10000 1 0 21:54 24.06.2020
780 Clouds 11 1003 100 10000 2 70 21:36 24.06.2020
781 Clouds 11 1003 100 10000 2 70 21:18 24.06.2020
782 Rain 11 1004 100 10000 1 0 20:55 24.06.2020
783 Rain 11 1004 100 10000 2 70 20:37 24.06.2020
784 Rain 11 1004 100 10000 2 70 20:18 24.06.2020
785 Rain 12 1004 100 10000 2 70 19:39 24.06.2020
786 Clouds 12 1004 100 10000 2 70 19:21 24.06.2020
787 Clouds 13 1004 100 10000 2 110 18:59 24.06.2020
788 Clouds 14 1005 100 10000 2 70 18:40 24.06.2020
789 Clouds 14 1005 100 10000 2 70 18:22 24.06.2020
790 Clouds 15 1005 87 10000 2 130 17:56 24.06.2020
791 Clouds 15 1005 87 10000 2 180 17:38 24.06.2020
792 Clouds 15 1005 87 10000 2 180 17:19 24.06.2020
793 Clouds 14 1005 100 10000 1 160 16:56 24.06.2020
794 Clouds 14 1005 82 10000 1 0 16:38 24.06.2020
795 Clouds 14 1005 82 10000 1 0 16:20 24.06.2020
796 Rain 13 1005 100 8000 3 260 15:56 24.06.2020
797 Thunderstorm 14 1006 87 9000 7 240 15:37 24.06.2020
798 Thunderstorm 14 1006 87 9000 7 240 15:19 24.06.2020
799 Clouds 18 1005 55 10000 4 190 14:42 24.06.2020
800 Clouds 18 1005 55 10000 4 190 14:24 24.06.2020
801 Clouds 18 1005 52 10000 3 180 13:43 24.06.2020
802 Clouds 18 1005 52 10000 3 180 13:22 24.06.2020
803 Clouds 18 1005 52 10000 4 200 12:56 24.06.2020
804 Clouds 18 1005 52 10000 4 200 12:37 24.06.2020
805 Clouds 18 1005 52 10000 4 200 12:18 24.06.2020
806 Clouds 17 1006 55 10000 4 220 11:54 24.06.2020
807 Clouds 17 1006 59 10000 5 190 11:36 24.06.2020
808 Clouds 17 1006 59 10000 5 190 11:36 24.06.2020
809 Clouds 17 1006 59 10000 5 190 11:18 24.06.2020
810 Clouds 17 1006 55 10000 5 220 10:41 24.06.2020
811 Clouds 17 1006 55 10000 5 220 10:18 24.06.2020
812 Clouds 16 1006 59 10000 5 210 09:42 24.06.2020
813 Clouds 16 1006 59 10000 5 210 09:21 24.06.2020
814 Clouds 15 1006 67 10000 5 190 08:42 24.06.2020
815 Clouds 15 1006 67 10000 5 190 08:21 24.06.2020
816 Clouds 15 1006 67 10000 3 210 07:51 24.06.2020
817 Clouds 15 1006 67 10000 3 210 07:31 24.06.2020
818 Clouds 14 1006 71 10000 3 190 06:51 24.06.2020
819 Clouds 14 1006 71 10000 3 190 06:25 24.06.2020
820 Clouds 14 1006 71 10000 3 200 05:56 24.06.2020
821 Rain 12 1007 81 10000 2 190 04:46 24.06.2020
822 Rain 12 1007 81 10000 2 190 04:27 24.06.2020
823 Clouds 12 1007 81 10000 2 200 03:34 24.06.2020
824 Clouds 12 1007 81 10000 2 160 02:45 24.06.2020
825 Clouds 11 1007 87 10000 2 190 01:35 24.06.2020
826 Clouds 9 1007 100 10000 2 150 00:47 24.06.2020
827 Clouds 9 1007 100 10000 2 150 00:27 24.06.2020
828 Clouds 9 1007 100 10000 2.44 182 23:44 23.06.2020
829 Clouds 9 1007 100 10000 2.43 184 23:19 23.06.2020
830 Clouds 11 1008 100 10000 1 0 22:42 23.06.2020
831 Clouds 11 1008 100 10000 1 0 22:19 23.06.2020
832 Clouds 11 1008 93 10000 2 150 21:59 23.06.2020
833 Clouds 12 1008 81 10000 1 0 21:40 23.06.2020
834 Clouds 12 1008 81 10000 2 160 21:19 23.06.2020
835 Clouds 12 1008 81 10000 2 160 20:55 23.06.2020
836 Clouds 12 1008 81 10000 2 160 20:37 23.06.2020
837 Clouds 12 1008 81 10000 2 150 20:18 23.06.2020
838 Clouds 12 1008 81 10000 2 150 20:18 23.06.2020
839 Clouds 13 1009 71 10000 1 160 19:44 23.06.2020
840 Clouds 13 1009 71 10000 1 160 19:25 23.06.2020
841 Clouds 14 1009 67 10000 2 160 18:42 23.06.2020
842 Clouds 15 1009 58 10000 2 160 18:19 23.06.2020
843 Clouds 15 1009 58 10000 2 160 17:56 23.06.2020
844 Clouds 15 1009 62 10000 3 130 17:38 23.06.2020
845 Clouds 15 1009 62 10000 3 130 17:19 23.06.2020
846 Clouds 15 1009 58 10000 3 150 16:55 23.06.2020
847 Clouds 15 1009 58 10000 4 160 16:36 23.06.2020
848 Clouds 15 1009 58 10000 4 160 16:18 23.06.2020
849 Clouds 15 1009 58 10000 6 200 15:43 23.06.2020
850 Clouds 15 1009 58 10000 6 200 15:24 23.06.2020
851 Clouds 16 1009 48 10000 4 210 14:56 23.06.2020
852 Clouds 17 1009 42 10000 5 210 14:37 23.06.2020
853 Clouds 17 1009 39 10000 3 200 14:18 23.06.2020
854 Clouds 17 1009 39 10000 3 220 13:45 23.06.2020
855 Clouds 17 1009 39 10000 3 220 13:26 23.06.2020
856 Clouds 17 1009 39 10000 3 220 12:59 23.06.2020
857 Clouds 17 1009 42 10000 3 220 12:39 23.06.2020
858 Clouds 17 1009 42 10000 3 220 12:19 23.06.2020
859 Clouds 16 1009 48 10000 3 230 11:43 23.06.2020
860 Clouds 16 1009 48 10000 3 230 11:23 23.06.2020
861 Clouds 16 1009 48 10000 2 250 10:58 23.06.2020
862 Clouds 16 1009 44 10000 4 250 10:40 23.06.2020
863 Clouds 16 1009 44 10000 4 250 10:22 23.06.2020
864 Clouds 15 1009 51 10000 3 230 09:57 23.06.2020
865 Clouds 15 1009 54 10000 4 210 09:38 23.06.2020
866 Clouds 15 1009 54 10000 4 210 09:19 23.06.2020
867 Clouds 14 1009 58 10000 4 270 08:44 23.06.2020
868 Clouds 14 1009 58 10000 4 270 08:25 23.06.2020
869 Clouds 13 1009 62 10000 4 260 07:46 23.06.2020
870 Clouds 12 1009 66 10000 5 270 07:24 23.06.2020
871 Clouds 11 1009 76 10000 2 240 06:52 23.06.2020
872 Clouds 11 1009 76 10000 2 240 06:32 23.06.2020
873 Clouds 11 1009 76 10000 3 250 05:56 23.06.2020
874 Clouds 11 1009 87 10000 3 270 04:52 23.06.2020
875 Clouds 10 1008 100 10000 4 280 03:21 23.06.2020
876 Clouds 10 1008 100 10000 3 280 02:48 23.06.2020
877 Clouds 9 1008 100 10000 3 270 02:29 23.06.2020
878 Clouds 9 1007 100 10000 2 280 01:46 23.06.2020
879 Clouds 9 1007 100 10000 2 260 01:22 23.06.2020
880 Clouds 8 1007 100 10000 1 140 00:41 23.06.2020
881 Clouds 8 1007 100 10000 1 0 00:20 23.06.2020
882 Clouds 8 1007 100 10000 1 0 23:39 22.06.2020
883 Clouds 8 1007 100 10000 1 0 23:19 22.06.2020
884 Clouds 9 1007 100 10000 2 280 22:59 22.06.2020
885 Clouds 9 1007 100 10000 1 300 22:40 22.06.2020
886 Clouds 9 1007 100 10000 1 300 22:20 22.06.2020
887 Clouds 9 1007 100 10000 4 280 21:59 22.06.2020
888 Clouds 8 1007 100 10000 1 0 21:40 22.06.2020
889 Clouds 8 1007 100 10000 1 0 21:21 22.06.2020
890 Clouds 9 1007 100 10000 2 250 20:58 22.06.2020
891 Clouds 9 1007 100 10000 2.67 314 20:39 22.06.2020
892 Clouds 9 1007 100 10000 2.92 309 20:20 22.06.2020
893 Clouds 10 1007 100 10000 2.92 309 19:44 22.06.2020
894 Clouds 10 1007 100 10000 3.01 299 19:19 22.06.2020
895 Clouds 11 1007 87 10000 2 280 18:56 22.06.2020
896 Clouds 11 1007 87 10000 2 280 18:36 22.06.2020
897 Clouds 11 1007 87 9000 5 280 18:18 22.06.2020
898 Clouds 11 1007 87 9000 5 280 17:55 22.06.2020
899 Clouds 13 1006 71 10000 3 260 17:36 22.06.2020
900 Clouds 13 1006 71 10000 3 280 17:18 22.06.2020
901 Clouds 13 1006 76 10000 3 300 16:41 22.06.2020
902 Clouds 13 1006 71 10000 5 260 16:18 22.06.2020
903 Clouds 13 1006 71 10000 5 260 15:55 22.06.2020
904 Clouds 14 1005 67 10000 4 250 15:37 22.06.2020
905 Clouds 13 1005 82 10000 3 220 15:19 22.06.2020
906 Clouds 13 1005 87 10000 4 240 14:39 22.06.2020
907 Clouds 13 1005 87 10000 4 240 14:20 22.06.2020
908 Rain 12 1005 87 9000 7 240 13:56 22.06.2020
909 Clouds 15 1004 58 10000 5 230 13:37 22.06.2020
910 Clouds 15 1004 58 10000 6 240 13:19 22.06.2020
911 Clouds 14 1004 58 10000 7 240 12:42 22.06.2020
912 Clouds 14 1004 58 10000 7 240 12:23 22.06.2020
913 Rain 12 1004 81 10000 7 220 11:39 22.06.2020
914 Rain 12 1004 81 10000 7 220 11:20 22.06.2020
915 Clouds 15 1003 54 10000 7 250 10:57 22.06.2020
916 Clouds 15 1003 54 10000 7 250 10:57 22.06.2020
917 Clouds 15 1003 51 10000 7 230 10:39 22.06.2020
918 Clouds 15 1003 51 10000 7 230 10:19 22.06.2020
919 Clouds 15 1003 47 10000 8 240 09:59 22.06.2020
920 Clouds 15 1002 47 10000 7 240 09:41 22.06.2020
921 Clouds 15 1002 47 10000 7 240 09:20 22.06.2020
922 Clouds 15 1002 47 10000 7 240 09:20 22.06.2020
923 Clouds 14 1002 58 10000 7 240 08:58 22.06.2020
924 Clouds 14 1002 58 10000 8 260 08:38 22.06.2020
925 Clouds 14 1002 58 10000 8 260 08:20 22.06.2020
926 Clouds 14 1001 54 10000 7 240 07:50 22.06.2020
927 Clouds 14 1001 54 10000 7 240 07:31 22.06.2020
928 Rain 13 1001 66 10000 7 270 06:44 22.06.2020
929 Rain 13 1001 66 10000 7 270 06:26 22.06.2020
930 Rain 13 1000 66 10000 7 260 05:53 22.06.2020
931 Clouds 10 1000 93 10000 5 260 04:22 22.06.2020
932 Clouds 8 999 100 10000 5 270 02:54 22.06.2020
933 Rain 7 999 100 10000 2 280 01:25 22.06.2020
934 Rain 7 1000 100 10000 3 320 00:41 22.06.2020
935 Rain 7 1000 100 10000 3 300 23:58 21.06.2020
936 Clouds 8 1000 100 10000 2 280 23:39 21.06.2020
937 Clouds 8 1000 100 10000 2 280 23:21 21.06.2020
938 Clouds 8 1000 100 10000 1 70 22:57 21.06.2020
939 Clouds 8 1000 100 10000 1 0 22:37 21.06.2020
940 Clouds 8 1000 100 10000 1 0 22:19 21.06.2020
941 Clouds 8 1000 100 10000 2 60 21:57 21.06.2020
942 Clouds 9 1000 100 10000 1 0 21:39 21.06.2020
943 Clouds 9 1000 100 10000 1 0 21:39 21.06.2020
944 Clouds 9 1000 100 10000 1 0 21:21 21.06.2020
945 Clouds 9 1001 100 10000 2 70 20:58 21.06.2020
946 Clouds 9 1001 100 10000 1 0 20:37 21.06.2020
947 Clouds 9 1001 100 10000 2 340 20:18 21.06.2020
948 Clouds 9 1001 100 10000 2 340 20:18 21.06.2020
949 Clouds 9 1001 100 10000 2 340 19:55 21.06.2020
950 Thunderstorm 9 1001 100 5000 6 300 19:37 21.06.2020
951 Clouds 12 1001 81 10000 2 120 19:18 21.06.2020
952 Clouds 13 1001 76 10000 2 130 18:40 21.06.2020
953 Clouds 13 1001 76 10000 2 130 18:22 21.06.2020
954 Clouds 13 1001 76 10000 2 110 17:59 21.06.2020
955 Clouds 13 1002 71 10000 3 130 17:39 21.06.2020
956 Clouds 13 1002 71 10000 3 130 17:20 21.06.2020
957 Clouds 14 1001 67 10000 1 0 16:43 21.06.2020
958 Clouds 14 1001 67 10000 1 0 16:23 21.06.2020
959 Clouds 14 1002 67 10000 3 110 15:57 21.06.2020
960 Clouds 14 1002 62 10000 2 130 15:37 21.06.2020
961 Clouds 14 1002 62 10000 3 150 15:19 21.06.2020
962 Clouds 15 1002 58 10000 3 150 14:39 21.06.2020
963 Clouds 15 1002 58 10000 3 150 14:20 21.06.2020
964 Clouds 15 1002 51 10000 2 230 13:58 21.06.2020
965 Clouds 15 1002 51 10000 3 210 13:40 21.06.2020
966 Clouds 15 1002 51 10000 3 210 13:19 21.06.2020
967 Clouds 15 1001 54 10000 3 200 12:45 21.06.2020
968 Clouds 15 1001 54 10000 3 200 12:26 21.06.2020
969 Clouds 15 1001 47 10000 3 220 11:59 21.06.2020
970 Clouds 15 1001 47 10000 4 200 11:41 21.06.2020
971 Clouds 15 1001 47 10000 4 200 11:23 21.06.2020
972 Clouds 15 1001 47 10000 5 210 10:57 21.06.2020
973 Clouds 14 1001 50 10000 4 230 10:38 21.06.2020
974 Clouds 14 1001 50 10000 4 230 10:20 21.06.2020
975 Clouds 14 1001 47 10000 6 230 09:41 21.06.2020
976 Clouds 14 1001 47 10000 6 230 09:22 21.06.2020
977 Clouds 14 1000 50 10000 7 260 08:57 21.06.2020
978 Clouds 14 1000 50 10000 7 260 08:57 21.06.2020
979 Clouds 13 1000 58 10000 5 250 08:39 21.06.2020
980 Clouds 13 1000 58 10000 5 250 08:19 21.06.2020
981 Clouds 14 1000 54 10000 5 250 07:41 21.06.2020
982 Clouds 14 1000 54 10000 5 250 07:23 21.06.2020
983 Clouds 13 1000 66 10000 5 250 06:50 21.06.2020
984 Clouds 12 999 71 10000 5 260 06:18 21.06.2020
985 Clouds 12 999 71 10000 5 260 05:56 21.06.2020
986 Clouds 10 997 100 10000 6 270 03:53 21.06.2020
987 Rain 10 997 100 9000 7 290 03:18 21.06.2020
988 Rain 11 996 100 4100 4 200 02:20 21.06.2020
989 Rain 10 996 100 2200 4 200 01:34 21.06.2020
990 Rain 10 996 100 4300 4 190 00:57 21.06.2020
991 Rain 10 996 100 3100 5 190 00:38 21.06.2020
992 Rain 10 996 100 3100 5 190 00:19 21.06.2020
993 Rain 10 997 100 6000 4 180 23:45 20.06.2020
994 Rain 10 997 100 6000 4 180 23:22 20.06.2020
995 Rain 10 997 100 6000 5 160 22:56 20.06.2020
996 Rain 10 997 100 10000 6 160 22:38 20.06.2020
997 Rain 10 998 100 9000 6 160 22:19 20.06.2020
998 Rain 10 998 100 9000 6 160 21:56 20.06.2020
999 Rain 10 998 100 8000 5 170 21:38 20.06.2020
1000 Rain 10 998 100 8000 5 170 21:20 20.06.2020
1001 Rain 10 999 100 10000 6 170 20:57 20.06.2020
1002 Rain 10 999 100 9000 6 170 20:38 20.06.2020
1003 Rain 10 999 100 9000 6 170 20:19 20.06.2020
1004 Rain 10 1000 100 10000 5 160 19:44 20.06.2020
1005 Rain 10 1000 100 10000 5 160 19:23 20.06.2020
1006 Rain 11 1001 100 10000 5 170 18:55 20.06.2020
1007 Rain 10 1001 100 10000 6 160 18:37 20.06.2020
1008 Rain 11 1001 100 10000 5 160 18:19 20.06.2020
1009 Rain 11 1001 100 10000 5 160 17:56 20.06.2020
1010 Rain 11 1002 100 9000 4 170 17:37 20.06.2020
1011 Rain 11 1002 93 10000 5 180 17:18 20.06.2020
1012 Rain 12 1002 81 10000 6 190 16:40 20.06.2020
1013 Rain 12 1002 76 10000 6 190 16:19 20.06.2020
1014 Rain 12 1002 76 10000 6 190 15:57 20.06.2020
1015 Rain 13 1003 76 10000 5 190 15:38 20.06.2020
1016 Rain 13 1003 66 10000 7 190 15:18 20.06.2020
1017 Rain 13 1003 62 10000 6 200 14:42 20.06.2020
1018 Rain 13 1003 62 10000 6 200 14:20 20.06.2020
1019 Clouds 14 1003 62 10000 6 200 13:42 20.06.2020
1020 Clouds 14 1003 62 10000 6 200 13:20 20.06.2020
1021 Rain 13 1004 66 10000 7 220 12:56 20.06.2020
1022 Rain 14 1004 67 10000 6 230 12:38 20.06.2020
1023 Rain 13 1004 66 10000 6 230 12:19 20.06.2020
1024 Rain 15 1004 51 10000 7 210 11:40 20.06.2020
1025 Rain 15 1004 51 10000 7 210 11:21 20.06.2020
1026 Clouds 16 1004 44 10000 6 200 10:58 20.06.2020
1027 Clouds 16 1004 44 10000 6 210 10:40 20.06.2020
1028 Clouds 16 1004 44 10000 6 210 10:20 20.06.2020
1029 Clouds 16 1005 44 10000 6 210 09:43 20.06.2020
1030 Clouds 16 1005 44 10000 6 210 09:25 20.06.2020
1031 Clouds 14 1005 50 10000 5 200 08:58 20.06.2020
1032 Clouds 13 1006 50 10000 6 230 08:39 20.06.2020
1033 Clouds 13 1006 50 10000 6 230 08:21 20.06.2020
1034 Clouds 14 1006 47 10000 6 210 07:50 20.06.2020
1035 Clouds 14 1006 50 10000 4 230 07:25 20.06.2020
1036 Clouds 12 1007 54 10000 4 210 06:44 20.06.2020
1037 Clouds 12 1007 54 10000 4 210 06:20 20.06.2020
1038 Clouds 11 1008 48 10000 3 230 05:47 20.06.2020
1039 Clouds 11 1009 50 10000 4 280 03:53 20.06.2020
1040 Clouds 7 1010 75 10000 2 280 01:54 20.06.2020
1041 Clouds 6 1010 81 10000 2 280 01:36 20.06.2020
1042 Clouds 6 1010 81 10000 3 280 00:47 20.06.2020
1043 Clouds 6 1010 81 10000 3 280 00:20 20.06.2020
1044 Clouds 7 1011 81 10000 3 280 23:44 19.06.2020
1045 Clouds 7 1011 81 10000 3 280 23:20 19.06.2020
1046 Clouds 7 1011 81 10000 3 280 22:56 19.06.2020
1047 Clouds 7 1011 81 10000 3 280 22:56 19.06.2020
1048 Clouds 7 1011 81 10000 3 280 22:37 19.06.2020
1049 Clouds 7 1011 81 10000 3 280 22:19 19.06.2020
1050 Clouds 7 1011 81 10000 3 280 21:55 19.06.2020
1051 Clouds 7 1012 81 10000 3 290 21:37 19.06.2020
1052 Clouds 7 1012 75 10000 3 290 21:18 19.06.2020
1053 Clouds 7 1012 75 10000 3 290 20:56 19.06.2020
1054 Clouds 8 1012 70 10000 2 290 20:38 19.06.2020
1055 Clouds 8 1012 70 10000 2 290 20:20 19.06.2020
1056 Clouds 8 1012 70 10000 3 280 19:42 19.06.2020
1057 Clouds 8 1012 70 10000 3 280 19:23 19.06.2020
1058 Clouds 8 1012 70 10000 3 290 18:59 19.06.2020
1059 Clouds 9 1012 61 10000 3 290 18:39 19.06.2020
1060 Clouds 9 1012 61 10000 3 290 18:20 19.06.2020
1061 Clouds 9 1012 61 10000 3 290 18:20 19.06.2020
1062 Clouds 9 1012 61 10000 3 290 17:42 19.06.2020
1063 Clouds 9 1012 61 10000 3 290 17:42 19.06.2020
1064 Clouds 9 1012 61 10000 3 290 17:23 19.06.2020
1065 Clouds 10 1012 57 10000 2 320 16:58 19.06.2020
1066 Clouds 10 1013 53 10000 4 340 16:39 19.06.2020
1067 Clouds 10 1013 53 10000 4 340 16:21 19.06.2020
1068 Clouds 10 1013 53 10000 4 340 15:45 19.06.2020
1069 Clouds 10 1013 53 10000 4 340 15:26 19.06.2020
1070 Clouds 10 1013 53 10000 4 350 14:58 19.06.2020
1071 Clouds 10 1013 53 10000 4 340 14:40 19.06.2020
1072 Clouds 10 1013 53 10000 4 340 14:21 19.06.2020
1073 Clouds 10 1013 43 10000 5 360 13:58 19.06.2020
1074 Clouds 11 1013 43 10000 5 10 13:40 19.06.2020
1075 Clouds 11 1013 43 10000 5 10 13:22 19.06.2020
1076 Clouds 10 1013 43 10000 6 350 12:45 19.06.2020
1077 Clouds 10 1013 44 10000 6 350 12:21 19.06.2020
1078 Clouds 10 1013 46 10000 7 360 11:55 19.06.2020
1079 Clouds 10 1013 46 10000 6 360 11:36 19.06.2020
1080 Clouds 11 1013 43 10000 7 350 11:18 19.06.2020
1081 Clouds 10 1013 46 10000 6 360 10:41 19.06.2020
1082 Clouds 10 1013 46 10000 6 360 10:21 19.06.2020
1083 Clouds 10 1013 46 10000 6 10 09:55 19.06.2020
1084 Clouds 10 1013 46 10000 7 340 09:37 19.06.2020
1085 Clouds 9 1013 45 10000 5 350 09:18 19.06.2020
1086 Clouds 9 1013 49 10000 6 350 08:41 19.06.2020
1087 Clouds 9 1013 49 10000 6 350 08:23 19.06.2020
1088 Clouds 9 1013 49 10000 6 340 07:41 19.06.2020
1089 Clouds 9 1013 49 10000 6 340 07:22 19.06.2020
1090 Clouds 9 1013 48 10000 5 360 06:52 19.06.2020
1091 Clouds 9 1013 61 10000 4 360 06:22 19.06.2020
1092 Clouds 8 1013 65 10000 5 20 05:32 19.06.2020
1093 Clouds 8 1013 65 10000 5 20 04:21 19.06.2020
1094 Clouds 7 1012 70 10000 4 360 02:24 19.06.2020
1095 Clouds 8 1011 61 10000 4 360 00:45 19.06.2020
1096 Clouds 8 1011 61 10000 4 360 00:22 19.06.2020
1097 Clouds 8 1011 61 10000 4 10 23:58 18.06.2020
1098 Clouds 8 1011 61 10000 4 360 23:39 18.06.2020
1099 Clouds 8 1011 61 10000 4 360 23:21 18.06.2020
1100 Clouds 8 1011 65 10000 4 350 22:41 18.06.2020
1101 Clouds 8 1011 65 10000 4 350 22:21 18.06.2020
1102 Clouds 7 1011 75 10000 3 310 21:57 18.06.2020
1103 Clouds 7 1011 70 10000 3 310 21:38 18.06.2020
1104 Clouds 7 1011 70 10000 3 310 21:19 18.06.2020
1105 Clouds 8 1011 65 10000 3 360 20:43 18.06.2020
1106 Clouds 8 1011 65 10000 3 360 20:22 18.06.2020
1107 Clouds 8 1011 65 10000 4 10 19:58 18.06.2020
1108 Clouds 8 1011 65 10000 3 350 19:40 18.06.2020
1109 Clouds 8 1011 65 10000 3 350 19:20 18.06.2020
1110 Clouds 9 1010 57 10000 5 350 18:42 18.06.2020
1111 Clouds 9 1010 57 10000 5 350 18:23 18.06.2020
1112 Clouds 9 1010 57 10000 4 350 17:57 18.06.2020
1113 Clouds 9 1010 66 10000 4 330 17:39 18.06.2020
1114 Clouds 9 1010 60 10000 4 330 17:21 18.06.2020
1115 Rain 9 1010 60 10000 5 330 16:44 18.06.2020
1116 Clouds 9 1010 51 10000 5 330 16:25 18.06.2020
1117 Clouds 10 1010 46 10000 5 340 15:59 18.06.2020
1118 Clouds 10 1010 46 10000 6 340 15:40 18.06.2020
1119 Clouds 10 1010 46 10000 6 340 15:20 18.06.2020
1120 Clouds 10 1010 46 10000 6 350 14:57 18.06.2020
1121 Clouds 11 1010 48 10000 6 340 14:38 18.06.2020
1122 Clouds 11 1010 44 10000 6 340 14:20 18.06.2020
1123 Clouds 11 1009 40 10000 7 340 13:48 18.06.2020
1124 Clouds 11 1009 40 10000 7 340 13:29 18.06.2020
1125 Clouds 12 1009 37 10000 6 340 12:57 18.06.2020
1126 Clouds 12 1009 40 10000 8 340 12:39 18.06.2020
1127 Clouds 12 1009 40 10000 8 340 12:20 18.06.2020
1128 Clouds 12 1008 40 10000 6 350 11:57 18.06.2020
1129 Clouds 12 1008 38 10000 5 330 11:38 18.06.2020
1130 Clouds 12 1008 38 10000 7 340 11:19 18.06.2020
1131 Clouds 12 1008 46 10000 7 340 10:40 18.06.2020
1132 Clouds 12 1007 46 10000 7 340 10:19 18.06.2020
1133 Clouds 12 1007 46 10000 7 340 09:46 18.06.2020
1134 Clear 12 1007 46 10000 7 340 09:27 18.06.2020
1135 Clear 13 1007 43 10000 6 340 08:58 18.06.2020
1136 Clear 12 1007 46 10000 6 350 08:38 18.06.2020
1137 Clear 12 1007 46 10000 6 350 08:19 18.06.2020
1138 Clear 13 1007 43 10000 6 360 07:45 18.06.2020
1139 Clear 13 1007 43 10000 6 360 07:25 18.06.2020
1140 Clouds 10 1006 53 10000 6 350 06:42 18.06.2020
1141 Clouds 11 1006 45 10000 6 350 05:31 18.06.2020
1142 Clouds 10 1006 50 10000 5 20 04:20 18.06.2020
1143 Clear 8 1005 65 10000 6 20 01:48 18.06.2020
1144 Clear 8 1005 65 10000 6 20 01:27 18.06.2020
1145 Clear 8 1005 70 10000 5 20 00:52 18.06.2020
1146 Clear 8 1004 70 10000 4 10 00:31 18.06.2020
1147 Clear 9 1004 66 10000 5 20 23:56 17.06.2020
1148 Clear 9 1004 70 10000 3 360 23:37 17.06.2020
1149 Clear 9 1004 70 10000 4 350 23:19 17.06.2020
1150 Clear 9 1004 70 10000 4 350 22:55 17.06.2020
1151 Clear 10 1004 66 10000 4 360 22:37 17.06.2020
1152 Clear 10 1004 61 10000 4 10 22:19 17.06.2020
1153 Clear 11 1004 62 10000 4 360 21:40 17.06.2020
1154 Clouds 11 1004 62 10000 4 360 21:21 17.06.2020
1155 Clouds 11 1004 62 10000 3 10 20:56 17.06.2020
1156 Clouds 10 1004 66 10000 4 10 20:37 17.06.2020
1157 Clouds 10 1004 81 10000 3 10 20:19 17.06.2020
1158 Clouds 10 1004 81 10000 3 20 19:43 17.06.2020
1159 Clouds 10 1004 81 10000 3 20 19:22 17.06.2020
1160 Clouds 10 1004 81 10000 3 20 19:22 17.06.2020
1161 Clouds 10 1004 81 10000 3 30 18:56 17.06.2020
1162 Clouds 10 1004 87 10000 3 20 18:38 17.06.2020
1163 Clouds 10 1004 87 10000 3 20 18:38 17.06.2020
1164 Clouds 10 1004 87 10000 3 20 18:19 17.06.2020
1165 Rain 10 1004 93 10000 5 10 17:42 17.06.2020
1166 Rain 10 1004 93 10000 5 10 17:21 17.06.2020
1167 Clouds 10 1004 93 10000 3 10 16:56 17.06.2020
1168 Clouds 10 1003 93 10000 4 10 16:38 17.06.2020
1169 Clouds 10 1003 93 10000 4 10 16:20 17.06.2020
1170 Rain 10 1003 93 10000 4 30 15:40 17.06.2020
1171 Clouds 10 1003 93 10000 4 30 15:21 17.06.2020
1172 Clouds 10 1003 93 10000 4 30 14:59 17.06.2020
1173 Clouds 11 1003 87 10000 5 20 14:40 17.06.2020
1174 Clouds 11 1003 87 10000 5 20 14:21 17.06.2020
1175 Clouds 10 1002 100 10000 4 40 13:58 17.06.2020
1176 Rain 11 1002 100 10000 5 10 13:40 17.06.2020
1177 Rain 11 1002 100 10000 5 10 13:21 17.06.2020
1178 Rain 11 1001 100 10000 5 20 12:55 17.06.2020
1179 Rain 10 1001 100 10000 6 20 12:36 17.06.2020
1180 Thunderstorm 10 1001 100 10000 5 10 12:18 17.06.2020
1181 Thunderstorm 11 1001 100 10000 5 10 11:44 17.06.2020
1182 Thunderstorm 11 1001 100 10000 5 10 11:24 17.06.2020
1183 Clouds 13 1000 82 10000 6 360 10:39 17.06.2020
1184 Clouds 13 1000 82 10000 6 360 10:20 17.06.2020
1185 Clouds 13 1000 82 10000 6 360 10:20 17.06.2020
1186 Clouds 15 999 77 10000 6 360 10:00 17.06.2020
1187 Clouds 15 999 77 10000 7 350 09:41 17.06.2020
1188 Clouds 15 999 77 10000 7 350 09:21 17.06.2020
1189 Clouds 17 999 77 10000 6 10 08:56 17.06.2020
1190 Clouds 18 999 77 10000 5 360 08:38 17.06.2020
1191 Clouds 18 999 72 10000 6 360 08:18 17.06.2020
1192 Clouds 20 999 64 10000 5 280 07:43 17.06.2020
1193 Clouds 20 999 64 10000 5 280 07:21 17.06.2020
1194 Clouds 20 999 64 10000 6 280 06:56 17.06.2020
1195 Clouds 21 999 60 10000 7 260 06:37 17.06.2020
1196 Clouds 20 999 64 10000 7 250 06:19 17.06.2020
1197 Clouds 20 999 64 10000 6 220 04:58 17.06.2020
1198 Clouds 18 1000 68 10000 5 210 03:28 17.06.2020
1199 Clouds 17 1001 88 10000 3 190 01:51 17.06.2020
1200 Clouds 14 1002 100 10000 2 200 00:41 17.06.2020
1201 Clouds 14 1002 100 10000 2 200 00:23 17.06.2020
1202 Clouds 16 1003 100 10000 4.71 208 23:56 16.06.2020
1203 Clouds 16 1003 100 10000 4.71 208 23:56 16.06.2020
1204 Clouds 17 1003 82 10000 2 280 23:37 16.06.2020
1205 Clouds 18 1004 77 10000 2 240 23:19 16.06.2020
1206 Clouds 18 1004 77 10000 2 240 22:54 16.06.2020
1207 Clouds 18 1004 77 10000 5 250 22:36 16.06.2020
1208 Clouds 18 1004 72 10000 5 260 22:18 16.06.2020
1209 Clouds 19 1004 68 10000 3 250 21:45 16.06.2020
1210 Rain 19 1004 68 10000 3 250 21:23 16.06.2020
1211 Rain 19 1004 68 10000 3 220 20:57 16.06.2020
1212 Rain 19 1004 68 10000 3 220 20:39 16.06.2020
1213 Rain 19 1005 68 10000 2 210 20:19 16.06.2020
1214 Rain 19 1005 68 10000 2 210 19:56 16.06.2020
1215 Rain 19 1005 68 10000 3 210 19:38 16.06.2020
1216 Clouds 19 1005 68 10000 3 210 19:19 16.06.2020
1217 Clouds 20 1005 68 10000 3 190 18:45 16.06.2020
1218 Clouds 20 1005 68 10000 3 190 18:22 16.06.2020
1219 Clouds 19 1006 72 10000 3 190 17:59 16.06.2020
1220 Clouds 19 1006 72 10000 2 190 17:39 16.06.2020
1221 Clouds 19 1006 72 10000 2 190 17:21 16.06.2020
1222 Clouds 20 1006 64 10000 1 0 16:59 16.06.2020
1223 Clouds 20 1006 68 10000 3 320 16:40 16.06.2020
1224 Clouds 20 1006 68 10000 3 320 16:20 16.06.2020
1225 Clouds 20 1007 64 10000 4 320 15:57 16.06.2020
1226 Clouds 20 1007 64 10000 7 310 15:39 16.06.2020
1227 Clouds 20 1007 64 10000 7 310 15:21 16.06.2020
1228 Clouds 24 1007 41 10000 6 250 14:56 16.06.2020
1229 Clouds 25 1007 38 10000 8 260 14:38 16.06.2020
1230 Clouds 25 1007 38 10000 8 260 14:19 16.06.2020
1231 Clouds 25 1007 36 10000 8 250 13:45 16.06.2020
1232 Clouds 25 1007 36 10000 8 250 13:25 16.06.2020
1233 Clouds 25 1007 41 10000 7 240 12:43 16.06.2020
1234 Clouds 25 1007 41 10000 7 240 12:23 16.06.2020
1235 Clouds 25 1008 41 10000 7 230 11:59 16.06.2020
1236 Clouds 24 1008 44 10000 7 220 11:40 16.06.2020
1237 Clouds 24 1008 44 10000 7 220 11:22 16.06.2020
1238 Clouds 24 1008 44 10000 8 220 10:59 16.06.2020
1239 Clouds 24 1008 44 10000 7 220 10:40 16.06.2020
1240 Clouds 24 1008 44 10000 7 220 10:20 16.06.2020
1241 Clouds 22 1009 46 10000 8 210 09:45 16.06.2020
1242 Clouds 22 1009 46 10000 8 210 09:24 16.06.2020
1243 Clouds 21 1009 46 10000 7 220 08:55 16.06.2020
1244 Clouds 21 1010 46 10000 8 210 08:34 16.06.2020
1245 Clouds 20 1010 49 10000 7 210 07:55 16.06.2020
1246 Clouds 19 1010 52 10000 7 230 07:37 16.06.2020
1247 Clouds 19 1010 52 10000 5 210 07:19 16.06.2020
1248 Clouds 17 1011 59 10000 5 210 06:34 16.06.2020
1249 Clouds 17 1011 59 10000 5 210 05:52 16.06.2020
1250 Clouds 15 1012 62 10000 5 230 04:58 16.06.2020
1251 Clouds 14 1012 67 10000 5 230 04:25 16.06.2020
1252 Clouds 12 1012 100 10000 3 220 02:46 16.06.2020
1253 Clouds 11 1013 93 10000 3 220 01:34 16.06.2020
1254 Clouds 11 1013 93 10000 2 220 00:57 16.06.2020
1255 Clouds 10 1013 100 10000 2 210 00:25 16.06.2020
1256 Clouds 9 1013 100 10000 2 220 23:56 15.06.2020
1257 Clouds 9 1013 93 10000 1 210 23:38 15.06.2020
1258 Clouds 9 1013 100 10000 1 0 23:19 15.06.2020
1259 Clouds 8 1013 100 10000 1 230 22:42 15.06.2020
1260 Clouds 8 1013 100 10000 1 230 22:22 15.06.2020
1261 Clouds 9 1013 93 10000 3.44 229 21:58 15.06.2020
1262 Clouds 9 1013 93 10000 3.44 229 21:38 15.06.2020
1263 Clear 9 1013 93 10000 3.22 218 21:20 15.06.2020
1264 Clear 10 1014 87 10000 3.22 218 20:58 15.06.2020
1265 Clear 9 1014 93 10000 3.22 218 20:39 15.06.2020
1266 Clouds 9 1014 87 10000 2.9 224 20:19 15.06.2020
1267 Clouds 9 1014 87 10000 2.9 224 19:57 15.06.2020
1268 Clouds 9 1014 87 10000 1 240 19:39 15.06.2020
1269 Clouds 10 1014 81 10000 2.3 245 19:21 15.06.2020
1270 Clouds 10 1014 81 10000 2.3 245 18:57 15.06.2020
1271 Clouds 12 1014 71 10000 1 270 18:39 15.06.2020
1272 Clouds 13 1014 58 10000 2 310 18:19 15.06.2020
1273 Clouds 13 1014 58 10000 2 310 17:56 15.06.2020
1274 Clouds 14 1014 54 10000 3 310 17:37 15.06.2020
1275 Clouds 14 1014 50 10000 4 310 17:18 15.06.2020
1276 Clouds 15 1014 47 10000 4 310 16:41 15.06.2020
1277 Clouds 15 1014 47 10000 4 310 16:19 15.06.2020
1278 Clouds 15 1014 47 10000 4 310 15:57 15.06.2020
1279 Clouds 14 1014 50 10000 5 320 15:39 15.06.2020
1280 Clouds 15 1014 47 10000 5 310 15:19 15.06.2020
1281 Clouds 15 1014 47 10000 6 290 14:42 15.06.2020
1282 Clouds 15 1014 47 10000 6 290 14:22 15.06.2020
1283 Clouds 15 1014 44 10000 6 290 13:59 15.06.2020
1284 Clouds 15 1014 44 10000 6 290 13:59 15.06.2020
1285 Clouds 14 1014 50 10000 4 320 13:41 15.06.2020
1286 Clouds 14 1014 50 10000 4 320 13:41 15.06.2020
1287 Clouds 14 1014 50 10000 4 320 13:23 15.06.2020
1288 Clouds 14 1014 50 10000 4 320 12:58 15.06.2020
1289 Clouds 14 1015 47 10000 6 310 12:39 15.06.2020
1290 Clouds 14 1015 47 10000 6 310 12:21 15.06.2020
1291 Clouds 13 1014 47 10000 7 300 11:44 15.06.2020
1292 Clouds 13 1014 47 10000 7 300 11:25 15.06.2020
1293 Clouds 14 1014 50 10000 6 320 10:56 15.06.2020
1294 Clouds 13 1014 47 10000 7 330 10:36 15.06.2020
1295 Clouds 13 1014 50 10000 7 330 10:18 15.06.2020
1296 Clouds 12 1014 50 10000 8 330 09:41 15.06.2020
1297 Clouds 12 1014 50 10000 8 330 09:21 15.06.2020
1298 Clouds 12 1013 50 10000 9 310 08:42 15.06.2020
1299 Clouds 12 1013 50 10000 9 310 08:23 15.06.2020
1300 Clouds 11 1013 53 10000 8 330 07:48 15.06.2020
1301 Clouds 11 1013 53 10000 8 330 07:29 15.06.2020
1302 Clouds 10 1013 57 10000 7 320 06:50 15.06.2020
1303 Clouds 10 1013 57 10000 7 320 06:26 15.06.2020
1304 Clouds 10 1012 57 10000 8 300 05:47 15.06.2020
1305 Clouds 10 1012 57 10000 8 300 05:27 15.06.2020
1306 Clouds 8 1012 70 10000 6 320 04:21 15.06.2020
1307 Rain 7 1011 75 10000 4 320 03:47 15.06.2020
1308 Clouds 7 1011 75 10000 6 310 02:55 15.06.2020
1309 Clouds 7 1010 70 10000 7 310 01:59 15.06.2020
1310 Clouds 7 1010 81 10000 5 290 01:39 15.06.2020
1311 Clouds 7 1010 81 10000 5 290 01:21 15.06.2020
1312 Clouds 7 1009 81 10000 4 290 00:40 15.06.2020
1313 Clouds 7 1009 81 10000 4 290 00:20 15.06.2020
1314 Clouds 8 1009 70 10000 5 320 23:47 14.06.2020
1315 Clouds 8 1009 70 10000 5 320 23:26 14.06.2020
1316 Clouds 8 1009 75 10000 4 320 22:58 14.06.2020
1317 Clouds 8 1009 87 10000 5 330 22:40 14.06.2020
1318 Clouds 8 1008 100 10000 4 290 22:21 14.06.2020
1319 Clouds 8 1008 100 10000 4 290 21:58 14.06.2020
1320 Clouds 8 1008 93 10000 4 300 21:40 14.06.2020
1321 Clouds 8 1008 93 10000 4 290 21:19 14.06.2020
1322 Clouds 8 1008 93 10000 4 290 20:59 14.06.2020
1323 Clouds 8 1008 93 10000 5 290 20:40 14.06.2020
1324 Clouds 8 1008 93 10000 5 290 20:21 14.06.2020
1325 Clouds 8 1008 100 10000 5 290 19:59 14.06.2020
1326 Rain 8 1008 87 10000 5 330 19:40 14.06.2020
1327 Rain 8 1008 87 10000 5 330 19:40 14.06.2020
1328 Rain 9 1007 76 10000 3 280 19:20 14.06.2020
1329 Rain 9 1007 76 10000 3 280 18:58 14.06.2020
1330 Clouds 10 1007 66 10000 5 290 18:40 14.06.2020
1331 Clouds 10 1007 66 10000 5 290 18:21 14.06.2020
1332 Clouds 10 1007 71 10000 5 300 17:58 14.06.2020
1333 Clouds 10 1007 71 10000 6 290 17:39 14.06.2020
1334 Clouds 10 1007 76 10000 6 300 17:20 14.06.2020
1335 Clouds 10 1007 76 10000 6 300 16:55 14.06.2020
1336 Rain 10 1007 71 10000 9 310 16:37 14.06.2020
1337 Rain 10 1006 81 10000 5 280 16:18 14.06.2020
1338 Rain 10 1006 81 10000 6 290 15:41 14.06.2020
1339 Rain 10 1006 81 10000 6 290 15:41 14.06.2020
1340 Clouds 11 1006 66 10000 6 290 15:20 14.06.2020
1341 Clouds 11 1006 66 10000 6 290 14:59 14.06.2020
1342 Clouds 10 1006 71 10000 8 290 14:41 14.06.2020
1343 Clouds 10 1006 71 10000 8 290 14:22 14.06.2020
1344 Clouds 10 1006 76 10000 8 290 13:58 14.06.2020
1345 Rain 11 1006 66 10000 10 300 13:39 14.06.2020
1346 Rain 11 1006 66 10000 10 300 13:21 14.06.2020
1347 Rain 11 1006 66 10000 10 300 13:21 14.06.2020
1348 Clouds 12 1005 54 10000 10 290 12:57 14.06.2020
1349 Clouds 12 1005 58 10000 9 290 12:38 14.06.2020
1350 Clouds 12 1005 58 10000 10 290 12:18 14.06.2020
1351 Clouds 12 1005 58 10000 10 290 11:56 14.06.2020
1352 Clouds 11 1005 57 10000 9 290 11:38 14.06.2020
1353 Clouds 10 1005 66 10000 10 290 11:18 14.06.2020
1354 Clouds 10 1005 71 10000 9 290 10:42 14.06.2020
1355 Clouds 10 1004 76 10000 9 290 10:19 14.06.2020
1356 Rain 9 1004 93 10000 7 300 09:48 14.06.2020
1357 Rain 9 1004 93 10000 7 300 09:25 14.06.2020
1358 Rain 9 1004 81 10000 8 310 08:57 14.06.2020
1359 Clouds 10 1004 81 10000 8 310 08:39 14.06.2020
1360 Rain 9 1003 87 10000 8 310 08:18 14.06.2020
1361 Rain 9 1003 87 10000 8 310 07:50 14.06.2020
1362 Rain 9 1002 93 10000 8 310 07:32 14.06.2020
1363 Rain 8 1001 100 10000 8 310 06:31 14.06.2020
1364 Rain 8 1001 100 9000 8 320 05:43 14.06.2020
1365 Rain 8 1000 100 9000 8 320 04:55 14.06.2020
1366 Rain 8 1000 100 10000 8 320 04:30 14.06.2020
1367 Rain 8 999 100 10000 7 300 03:23 14.06.2020
1368 Rain 8 999 100 10000 6 310 02:27 14.06.2020
1369 Rain 7 999 100 9000 7 300 01:41 14.06.2020
1370 Rain 7 999 100 6000 6 300 00:56 14.06.2020
1371 Rain 8 999 100 9000 5 320 00:37 14.06.2020
1372 Clouds 8 999 100 10000 5 320 00:18 14.06.2020
1373 Rain 8 999 100 10000 4 330 23:42 13.06.2020
1374 Rain 8 999 100 10000 4 330 23:23 13.06.2020
1375 Clouds 8 999 100 10000 3 320 22:56 13.06.2020
1376 Rain 8 1000 100 10000 3 340 22:37 13.06.2020
1377 Rain 9 1000 87 9000 2 360 22:18 13.06.2020
1378 Clouds 9 1000 87 10000 4 10 21:43 13.06.2020
1379 Clouds 9 1000 87 10000 4 10 21:25 13.06.2020
1380 Clouds 9 1000 87 10000 4 20 21:00 13.06.2020
1381 Rain 9 1000 87 10000 3 10 20:41 13.06.2020
1382 Clouds 9 1000 81 10000 3 20 20:19 13.06.2020
1383 Clouds 10 1000 71 10000 4 10 19:42 13.06.2020
1384 Clouds 10 1000 71 10000 4 10 19:21 13.06.2020
1385 Clouds 10 1000 71 10000 4 10 19:21 13.06.2020
1386 Clouds 10 1000 76 10000 4 30 18:59 13.06.2020
1387 Clouds 11 1000 71 10000 3 20 18:41 13.06.2020
1388 Clouds 11 1000 71 10000 3 20 18:21 13.06.2020
1389 Clouds 11 1000 71 10000 3 20 18:21 13.06.2020
1390 Clouds 11 1000 76 10000 2 340 17:59 13.06.2020
1391 Clouds 11 1000 71 10000 3 340 17:40 13.06.2020
1392 Clouds 11 1000 71 10000 3 340 17:22 13.06.2020
1393 Clouds 11 1000 76 10000 3 20 16:56 13.06.2020
1394 Clouds 11 1000 76 10000 4 360 16:38 13.06.2020
1395 Clouds 12 1000 66 10000 4 350 16:19 13.06.2020
1396 Clouds 12 1000 71 10000 4 340 15:44 13.06.2020
1397 Clouds 12 1000 71 10000 4 340 15:26 13.06.2020
1398 Clouds 12 1000 71 10000 4 350 14:56 13.06.2020
1399 Rain 11 1000 81 10000 4 350 14:38 13.06.2020
1400 Rain 11 1000 93 8000 4 350 14:20 13.06.2020
1401 Rain 11 1000 81 9000 5 350 13:42 13.06.2020
1402 Rain 11 1000 81 9000 5 350 13:24 13.06.2020
1403 Clouds 13 999 71 10000 5 330 12:44 13.06.2020
1404 Clouds 13 999 71 10000 5 330 12:26 13.06.2020
1405 Clouds 13 999 71 10000 6 310 11:59 13.06.2020
1406 Clouds 13 999 71 10000 6 320 11:40 13.06.2020
1407 Clouds 13 998 71 10000 7 330 11:19 13.06.2020
1408 Clouds 13 998 71 10000 7 330 10:57 13.06.2020
1409 Clouds 12 998 76 10000 6 330 10:38 13.06.2020
1410 Clouds 13 998 76 10000 5 320 10:19 13.06.2020
1411 Rain 11 997 100 9000 6 340 09:45 13.06.2020
1412 Rain 11 997 100 9000 6 340 09:27 13.06.2020
1413 Clouds 12 997 87 10000 6 320 08:50 13.06.2020
1414 Rain 12 997 81 10000 7 330 08:32 13.06.2020
1415 Clouds 12 996 87 10000 5 350 07:56 13.06.2020
1416 Clouds 12 996 100 10000 6 330 07:30 13.06.2020
1417 Clouds 12 996 100 10000 6 330 07:30 13.06.2020
1418 Rain 11 996 100 7000 7 320 06:56 13.06.2020
1419 Clouds 12 995 100 10000 6 340 06:36 13.06.2020
1420 Rain 11 995 100 9000 6 320 05:53 13.06.2020
1421 Clouds 12 994 93 10000 6 320 05:25 13.06.2020
1422 Rain 11 994 100 6000 5 310 03:57 13.06.2020
1423 Rain 11 994 100 3500 5 310 02:55 13.06.2020
1424 Rain 11 994 100 8000 6 310 02:36 13.06.2020
1425 Drizzle 12 993 93 3700 6 300 01:47 13.06.2020
1426 Drizzle 12 993 93 3700 6 300 01:21 13.06.2020
1427 Clouds 12 993 100 10000 6 300 00:44 13.06.2020
1428 Clouds 12 993 100 10000 6 300 00:26 13.06.2020
1429 Clouds 13 993 100 10000 6 330 23:42 12.06.2020
1430 Rain 14 993 100 10000 6 310 23:19 12.06.2020
1431 Rain 14 993 100 10000 6 310 23:19 12.06.2020
1432 Rain 14 993 100 10000 6 310 22:59 12.06.2020
1433 Rain 16 992 100 10000 5 250 22:40 12.06.2020
1434 Clouds 17 993 100 10000 3 240 22:19 12.06.2020
1435 Rain 17 993 100 5000 3 240 21:50 12.06.2020
1436 Rain 17 993 100 5000 3 240 21:27 12.06.2020
1437 Rain 18 994 93 8000 3 230 20:59 12.06.2020
1438 Clouds 18 994 100 10000 4 200 20:41 12.06.2020
1439 Clouds 18 994 100 10000 4 200 20:22 12.06.2020
1440 Clouds 19 994 100 10000 3 200 19:57 12.06.2020
1441 Clouds 18 994 100 10000 5.76 23 19:38 12.06.2020
1442 Clouds 19 995 100 10000 1 0 19:18 12.06.2020
1443 Clouds 19 995 100 10000 1 0 18:39 12.06.2020
1444 Clouds 19 996 88 10000 2 110 18:19 12.06.2020
1445 Clouds 19 996 88 10000 2 110 17:54 12.06.2020
1446 Clouds 19 996 82 10000 3 100 17:36 12.06.2020
1447 Clouds 19 996 82 10000 3 100 17:18 12.06.2020
1448 Clouds 19 997 77 10000 3 100 16:40 12.06.2020
1449 Rain 19 997 82 10000 3 90 16:19 12.06.2020
1450 Rain 19 997 82 10000 3 30 15:47 12.06.2020
1451 Rain 19 997 82 10000 3 30 15:25 12.06.2020
1452 Clouds 19 997 82 10000 4 20 14:56 12.06.2020
1453 Rain 20 998 88 10000 2 360 14:38 12.06.2020
1454 Clouds 20 998 82 10000 3 150 14:19 12.06.2020
1455 Clouds 21 999 73 10000 2 180 13:41 12.06.2020
1456 Clouds 21 999 73 10000 2 180 13:21 12.06.2020
1457 Clouds 20 999 82 10000 2 120 12:41 12.06.2020
1458 Thunderstorm 20 1000 77 10000 4.89 17 12:20 12.06.2020
1459 Thunderstorm 20 1000 77 10000 4.89 17 11:58 12.06.2020
1460 Clouds 20 1000 72 10000 1 0 11:39 12.06.2020
1461 Clouds 20 1000 72 10000 1 0 11:21 12.06.2020
1462 Clouds 20 1000 77 10000 1 0 10:46 12.06.2020
1463 Clouds 20 1000 77 10000 1 0 10:24 12.06.2020
1464 Clouds 18 1001 100 10000 1 0 09:47 12.06.2020
1465 Clouds 18 1001 100 10000 1 0 09:21 12.06.2020
1466 Clouds 18 1001 100 10000 2 170 08:45 12.06.2020
1467 Clouds 18 1001 100 10000 2 170 08:25 12.06.2020
1468 Rain 18 1003 100 7000 1 0 07:44 12.06.2020
1469 Rain 18 1003 100 7000 1 0 07:26 12.06.2020
1470 Thunderstorm 18 1003 45 10000 1 0 06:56 12.06.2020
1471 Clouds 18 1002 100 10000 1 0 06:30 12.06.2020
1472 Rain 18 1003 93 10000 2 230 05:55 12.06.2020
1473 Rain 19 1002 82 10000 3 200 05:37 12.06.2020
1474 Thunderstorm 19 1002 88 10000 2 110 05:19 12.06.2020
1475 Clouds 16 1002 93 10000 5 120 03:24 12.06.2020
1476 Thunderstorm 19 1004 68 10000 6 360 01:56 12.06.2020
1477 Clouds 20 1003 77 10000 5 20 01:27 12.06.2020
1478 Clouds 21 1003 68 10000 2 240 00:47 12.06.2020
1479 Clouds 21 1003 68 10000 2 240 00:26 12.06.2020
1480 Thunderstorm 21 1003 64 10000 3 290 23:59 11.06.2020
1481 Thunderstorm 22 1003 56 10000 5 260 23:41 11.06.2020
1482 Thunderstorm 22 1003 56 10000 5 260 23:21 11.06.2020
1483 Clouds 23 1004 53 10000 3 250 22:59 11.06.2020
1484 Clouds 23 1004 49 10000 3 240 22:39 11.06.2020
1485 Clouds 23 1004 49 10000 3 240 22:20 11.06.2020
1486 Clouds 24 1004 50 10000 4 240 21:56 11.06.2020
1487 Clouds 24 1004 50 10000 5 230 21:38 11.06.2020
1488 Clouds 24 1004 50 10000 5 230 21:20 11.06.2020
1489 Clouds 24 1005 50 10000 5 230 20:45 11.06.2020
1490 Clouds 24 1005 50 10000 5 230 20:22 11.06.2020
1491 Clouds 25 1005 41 10000 6 200 19:55 11.06.2020
1492 Thunderstorm 26 1006 36 10000 4 200 19:37 11.06.2020
1493 Thunderstorm 26 1006 36 10000 4 200 19:37 11.06.2020
1494 Thunderstorm 27 1006 44 10000 6 220 19:18 11.06.2020
1495 Clouds 26 1006 44 10000 2 200 18:42 11.06.2020
1496 Clouds 26 1006 44 10000 2 200 18:24 11.06.2020
1497 Clouds 27 1007 42 10000 2 210 17:57 11.06.2020
1498 Clouds 28 1007 37 10000 4 230 17:38 11.06.2020
1499 Clouds 28 1007 37 10000 4 230 17:19 11.06.2020
1500 Clouds 29 1007 32 10000 4 230 16:56 11.06.2020
1501 Clouds 30 1007 30 10000 5 250 16:38 11.06.2020
1502 Clouds 30 1007 30 10000 5 250 16:20 11.06.2020
1503 Clouds 30 1008 30 10000 7 240 15:42 11.06.2020
1504 Clouds 30 1008 30 10000 7 240 15:24 11.06.2020
1505 Clouds 30 1008 30 10000 7 240 14:56 11.06.2020
1506 Clouds 30 1008 30 10000 7 240 14:56 11.06.2020
1507 Clouds 30 1009 42 10000 5 200 14:38 11.06.2020
1508 Clouds 30 1009 42 10000 5 200 14:20 11.06.2020
1509 Clouds 29 1009 48 10000 6 200 13:55 11.06.2020
1510 Clouds 29 1010 48 10000 5 200 13:37 11.06.2020
1511 Clouds 28 1010 54 10000 4 170 13:18 11.06.2020
1512 Clouds 28 1010 54 10000 4 170 12:54 11.06.2020
1513 Clouds 28 1011 51 10000 5 200 12:36 11.06.2020
1514 Clouds 28 1012 48 10000 4 210 12:18 11.06.2020
1515 Clouds 28 1012 48 10000 3 220 11:41 11.06.2020
1516 Clear 28 1012 48 10000 3 220 11:23 11.06.2020
1517 Clear 27 1012 54 10000 3 210 10:59 11.06.2020
1518 Clear 26 1013 57 10000 3 140 10:41 11.06.2020
1519 Clear 26 1013 57 10000 3 140 10:19 11.06.2020
1520 Clear 23 1013 60 10000 4 140 09:45 11.06.2020
1521 Clear 23 1013 60 10000 4 140 09:26 11.06.2020
1522 Clear 23 1014 60 10000 4 150 08:55 11.06.2020
1523 Clear 23 1014 60 10000 4 160 08:36 11.06.2020
1524 Clouds 24 1015 57 10000 2 160 08:18 11.06.2020
1525 Clouds 22 1015 60 10000 2 100 07:41 11.06.2020
1526 Clouds 22 1015 60 10000 3 100 07:22 11.06.2020
1527 Clouds 21 1015 64 10000 3 80 06:31 11.06.2020
1528 Clouds 21 1015 64 10000 3 80 06:31 11.06.2020
1529 Clouds 22 1015 60 10000 2 90 05:54 11.06.2020
1530 Clouds 20 1016 68 10000 3 50 04:37 11.06.2020
1531 Clouds 19 1015 68 10000 4 40 03:25 11.06.2020
1532 Clouds 19 1015 82 10000 4 30 02:46 11.06.2020
1533 Clouds 20 1015 82 10000 3 10 01:56 11.06.2020
1534 Clouds 20 1015 82 10000 2 330 01:35 11.06.2020
1535 Rain 20 1014 77 10000 3 330 00:56 11.06.2020
1536 Rain 20 1014 77 10000 3 330 00:38 11.06.2020
1537 Clouds 20 1014 77 10000 4 320 00:18 11.06.2020
1538 Clouds 20 1014 77 10000 3 330 23:39 10.06.2020
1539 Clouds 20 1014 77 10000 3 330 23:21 10.06.2020
1540 Clouds 20 1014 72 10000 3 310 22:40 10.06.2020
1541 Clouds 20 1014 72 10000 3 310 22:22 10.06.2020
1542 Clouds 22 1014 64 10000 2 320 21:59 10.06.2020
1543 Clouds 21 1014 68 10000 3 300 21:41 10.06.2020
1544 Clear 21 1014 68 10000 3 300 21:19 10.06.2020
1545 Clear 22 1014 64 10000 3 300 20:58 10.06.2020
1546 Clear 22 1014 60 10000 3 310 20:40 10.06.2020
1547 Clouds 22 1014 60 10000 3 310 20:21 10.06.2020
1548 Clouds 23 1014 56 10000 4 310 19:58 10.06.2020
1549 Clouds 22 1013 60 10000 4 280 19:37 10.06.2020
1550 Clear 23 1013 56 10000 4 270 19:18 10.06.2020
1551 Clear 24 1013 53 10000 4 270 18:42 10.06.2020
1552 Clear 26 1013 47 10000 4 260 18:22 10.06.2020
1553 Clear 26 1013 47 10000 4 260 17:59 10.06.2020
1554 Clear 28 1013 37 10000 4 280 17:41 10.06.2020
1555 Clear 28 1013 37 10000 4 280 17:20 10.06.2020
1556 Clear 29 1013 32 10000 5 290 16:58 10.06.2020
1557 Clear 29 1013 30 10000 6 290 16:40 10.06.2020
1558 Clouds 30 1013 30 10000 7 300 16:20 10.06.2020
1559 Clouds 30 1013 30 10000 7 300 15:56 10.06.2020
1560 Clouds 30 1013 30 10000 7 290 15:37 10.06.2020
1561 Clouds 30 1013 30 10000 7 290 15:18 10.06.2020
1562 Clouds 31 1013 27 10000 9 290 14:40 10.06.2020
1563 Clouds 31 1013 27 10000 9 290 14:21 10.06.2020
1564 Clouds 31 1014 33 10000 10 260 13:56 10.06.2020
1565 Clouds 31 1014 33 10000 8 280 13:38 10.06.2020
1566 Clouds 31 1014 38 10000 7 250 13:20 10.06.2020
1567 Clouds 31 1014 38 10000 6 280 12:41 10.06.2020
1568 Clouds 30 1014 37 10000 8 250 12:18 10.06.2020
1569 Clouds 31 1014 35 10000 9 260 11:46 10.06.2020
1570 Clouds 31 1015 38 10000 8 260 11:20 10.06.2020
1571 Clouds 31 1015 38 10000 8 260 10:59 10.06.2020
1572 Clouds 30 1015 37 10000 7 270 10:41 10.06.2020
1573 Clouds 30 1015 40 10000 7 240 10:22 10.06.2020
1574 Clouds 30 1015 37 10000 6 250 09:44 10.06.2020
1575 Clouds 30 1015 37 10000 6 250 09:26 10.06.2020
1576 Clouds 29 1016 45 10000 4 220 08:59 10.06.2020
1577 Clear 28 1016 54 10000 4 210 08:41 10.06.2020
1578 Clouds 27 1016 57 10000 4 200 08:22 10.06.2020
1579 Clouds 26 1017 61 10000 3 200 07:42 10.06.2020
1580 Clouds 26 1017 61 10000 3 210 07:23 10.06.2020
1581 Clouds 24 1017 73 10000 3 150 06:52 10.06.2020
1582 Clouds 24 1017 73 10000 3 150 06:33 10.06.2020
1583 Clouds 24 1017 73 10000 3 140 05:59 10.06.2020
1584 Clouds 24 1017 73 10000 2 150 05:31 10.06.2020
1585 Clouds 23 1017 100 10000 2 110 04:48 10.06.2020
1586 Clouds 22 1018 100 10000 2 270 04:28 10.06.2020
1587 Clouds 18 1018 100 10000 2 280 02:24 10.06.2020
1588 Clouds 16 1018 100 10000 2 280 01:41 10.06.2020
1589 Clouds 16 1018 100 10000 2 280 00:43 10.06.2020
1590 Clouds 16 1018 100 10000 2 280 00:24 10.06.2020
1591 Clouds 16 1018 100 10000 1 310 23:59 09.06.2020
1592 Clouds 16 1018 100 10000 1 300 23:41 09.06.2020
1593 Clouds 16 1018 100 10000 1 300 23:23 09.06.2020
1594 Clouds 16 1018 100 10000 1 290 22:57 09.06.2020
1595 Clouds 16 1018 100 10000 1 280 22:38 09.06.2020
1596 Rain 16 1018 100 10000 1 280 22:20 09.06.2020
1597 Rain 17 1018 100 10000 1 280 21:57 09.06.2020
1598 Clouds 17 1017 100 10000 3.69 14 21:39 09.06.2020
1599 Clouds 17 1017 100 10000 3.15 337 21:21 09.06.2020
1600 Clouds 18 1018 100 10000 1 0 20:57 09.06.2020
1601 Clouds 18 1018 100 10000 1 0 20:57 09.06.2020
1602 Thunderstorm 18 1019 100 10000 5 270 20:38 09.06.2020
1603 Thunderstorm 18 1018 93 10000 3 140 20:20 09.06.2020
1604 Thunderstorm 18 1018 93 10000 3 140 19:57 09.06.2020
1605 Thunderstorm 19 1019 82 10000 6 50 19:39 09.06.2020
1606 Thunderstorm 19 1019 82 10000 6 50 19:39 09.06.2020
1607 Thunderstorm 21 1019 77 10000 10 60 19:20 09.06.2020
1608 Thunderstorm 21 1019 77 10000 10 60 19:20 09.06.2020
1609 Thunderstorm 21 1019 77 10000 10 60 18:57 09.06.2020
1610 Thunderstorm 24 1017 60 10000 2 220 18:38 09.06.2020
1611 Thunderstorm 24 1017 60 10000 3 200 18:19 09.06.2020
1612 Thunderstorm 24 1017 60 10000 3 200 17:55 09.06.2020
1613 Clouds 24 1018 57 10000 4 200 17:36 09.06.2020
1614 Clouds 24 1018 57 10000 4 200 17:18 09.06.2020
1615 Clouds 25 1018 53 10000 3 200 16:42 09.06.2020
1616 Clouds 25 1018 53 10000 3 200 16:22 09.06.2020
1617 Clouds 25 1018 53 10000 3 200 15:55 09.06.2020
1618 Clouds 25 1019 50 10000 3 210 15:37 09.06.2020
1619 Clouds 25 1019 50 10000 3 210 15:19 09.06.2020
1620 Clouds 26 1019 47 10000 4 250 14:41 09.06.2020
1621 Clouds 26 1019 47 10000 4 250 14:21 09.06.2020
1622 Clouds 26 1019 47 10000 5 240 13:58 09.06.2020
1623 Clouds 26 1020 47 10000 4 270 13:40 09.06.2020
1624 Clouds 26 1020 47 10000 3 250 13:21 09.06.2020
1625 Clouds 25 1020 50 10000 3 200 12:44 09.06.2020
1626 Clouds 25 1020 50 10000 3 200 12:21 09.06.2020
1627 Clouds 25 1020 50 10000 3 220 11:59 09.06.2020
1628 Clouds 25 1020 47 10000 4 260 11:41 09.06.2020
1629 Clouds 25 1020 47 10000 4 260 11:20 09.06.2020
1630 Clouds 25 1020 47 10000 4 260 11:20 09.06.2020
1631 Clouds 24 1020 50 10000 5 280 10:58 09.06.2020
1632 Clouds 24 1020 47 10000 3 320 10:40 09.06.2020
1633 Clouds 24 1020 47 10000 3 320 10:22 09.06.2020
1634 Clouds 22 1021 49 10000 3 10 09:44 09.06.2020
1635 Clouds 22 1021 49 10000 3 10 09:24 09.06.2020
1636 Clouds 22 1021 53 10000 2 340 08:56 09.06.2020
1637 Clouds 21 1021 46 10000 3 340 08:38 09.06.2020
1638 Clouds 21 1021 46 10000 3 340 08:19 09.06.2020
1639 Clouds 20 1021 49 10000 1 0 07:38 09.06.2020
1640 Clouds 19 1021 52 10000 2 300 07:19 09.06.2020
1641 Clouds 19 1021 52 10000 2 300 06:53 09.06.2020
1642 Clouds 18 1021 52 10000 1 0 06:34 09.06.2020
1643 Clouds 17 1021 55 10000 2 330 05:34 09.06.2020
1644 Clear 15 1021 62 10000 2 80 03:21 09.06.2020
1645 Clouds 12 1021 87 10000 1 70 01:43 09.06.2020
1646 Clouds 11 1020 100 10000 2 60 01:19 09.06.2020
1647 Clouds 11 1020 100 10000 1 0 00:50 09.06.2020
1648 Clouds 11 1020 100 10000 2 50 00:21 09.06.2020
1649 Clouds 11 1020 100 10000 2 50 23:58 08.06.2020
1650 Clouds 12 1020 87 10000 3 70 23:38 08.06.2020
1651 Clouds 12 1020 87 10000 3 70 23:19 08.06.2020
1652 Clouds 13 1019 87 10000 4 70 22:42 08.06.2020
1653 Clear 13 1019 87 10000 4 70 22:23 08.06.2020
1654 Clear 15 1019 77 10000 3 60 21:59 08.06.2020
1655 Clear 16 1019 72 10000 3 40 21:41 08.06.2020
1656 Clear 16 1019 72 10000 3 40 21:22 08.06.2020
1657 Clear 17 1019 63 10000 3 30 20:57 08.06.2020
1658 Clear 17 1018 63 10000 3 10 20:39 08.06.2020
1659 Clear 17 1018 63 10000 3 10 20:39 08.06.2020
1660 Clouds 17 1018 63 10000 3 10 20:20 08.06.2020
1661 Clouds 18 1018 63 10000 3 30 19:55 08.06.2020
1662 Clouds 18 1018 68 10000 2 20 19:37 08.06.2020
1663 Clouds 19 1018 63 10000 2 40 19:19 08.06.2020
1664 Clouds 20 1017 60 10000 3 30 18:41 08.06.2020
1665 Clouds 21 1017 56 10000 5 30 18:18 08.06.2020
1666 Clouds 21 1017 56 10000 5 30 17:56 08.06.2020
1667 Clouds 22 1017 49 10000 5 20 17:38 08.06.2020
1668 Clouds 22 1017 49 10000 5 20 17:19 08.06.2020
1669 Clouds 23 1016 49 10000 5 20 16:45 08.06.2020
1670 Clouds 23 1016 49 10000 5 20 16:25 08.06.2020
1671 Clouds 24 1016 47 10000 5 360 15:58 08.06.2020
1672 Clouds 23 1016 49 10000 5 350 15:40 08.06.2020
1673 Clouds 23 1016 49 10000 5 350 15:20 08.06.2020
1674 Clouds 23 1016 49 10000 5 350 15:20 08.06.2020
1675 Clouds 24 1015 50 10000 7 340 14:42 08.06.2020
1676 Clouds 24 1015 50 10000 7 340 14:23 08.06.2020
1677 Clouds 24 1015 53 10000 7 340 13:57 08.06.2020
1678 Clouds 24 1015 57 10000 7 320 13:38 08.06.2020
1679 Clouds 23 1015 64 10000 7 300 13:19 08.06.2020
1680 Clouds 24 1015 53 10000 8 320 12:40 08.06.2020
1681 Clouds 24 1015 53 10000 6 330 12:19 08.06.2020
1682 Clouds 24 1015 53 10000 6 330 11:54 08.06.2020
1683 Clouds 25 1015 50 10000 6 340 11:36 08.06.2020
1684 Clouds 25 1015 50 10000 6 340 11:18 08.06.2020
1685 Clouds 25 1015 50 10000 6 350 10:55 08.06.2020
1686 Clouds 25 1015 50 10000 7 330 10:37 08.06.2020
1687 Clouds 25 1015 50 10000 7 330 10:37 08.06.2020
1688 Clouds 25 1015 50 10000 7 330 10:18 08.06.2020
1689 Clouds 24 1015 53 10000 6 350 09:43 08.06.2020
1690 Clouds 24 1015 53 10000 6 350 09:23 08.06.2020
1691 Clouds 24 1015 53 10000 6 340 08:49 08.06.2020
1692 Clouds 24 1015 53 10000 5 320 08:23 08.06.2020
1693 Clouds 23 1015 56 10000 5 300 07:56 08.06.2020
1694 Clouds 22 1015 64 10000 4 300 07:37 08.06.2020
1695 Clouds 22 1015 64 10000 5 290 07:18 08.06.2020
1696 Clouds 21 1015 68 10000 4 310 06:38 08.06.2020
1697 Clouds 21 1015 68 10000 5 310 05:54 08.06.2020
1698 Clouds 20 1015 72 10000 4 300 04:36 08.06.2020
1699 Clouds 19 1015 82 10000 3 320 03:22 08.06.2020
1700 Clouds 18 1015 88 10000 3 300 02:26 08.06.2020
1701 Rain 17 1015 93 10000 3 290 01:42 08.06.2020
1702 Clouds 18 1015 82 10000 4 290 00:45 08.06.2020
1703 Rain 18 1015 82 10000 4 290 00:23 08.06.2020
1704 Rain 18 1015 77 10000 3 280 23:38 07.06.2020
1705 Rain 18 1015 77 10000 3 280 23:18 07.06.2020
1706 Rain 18 1015 77 10000 4 280 22:56 07.06.2020
1707 Rain 18 1015 77 10000 4 270 22:36 07.06.2020
1708 Clouds 18 1015 77 10000 4 270 22:18 07.06.2020
1709 Clouds 18 1015 72 10000 4 280 21:57 07.06.2020
1710 Clouds 18 1015 72 10000 5 290 21:36 07.06.2020
1711 Clouds 18 1015 72 10000 5 290 21:18 07.06.2020
1712 Clouds 18 1016 72 10000 3 280 20:39 07.06.2020
1713 Clouds 18 1016 72 10000 3 280 20:20 07.06.2020
1714 Clouds 19 1016 68 10000 4 250 19:56 07.06.2020
1715 Clouds 19 1016 68 10000 3 240 19:38 07.06.2020
1716 Rain 20 1016 64 10000 3 240 19:19 07.06.2020
1717 Rain 20 1016 64 10000 3 240 18:56 07.06.2020
1718 Clouds 21 1016 60 10000 3 250 18:37 07.06.2020
1719 Clouds 20 1016 64 10000 2 290 18:19 07.06.2020
1720 Clouds 20 1016 64 10000 2 290 17:55 07.06.2020
1721 Clouds 21 1017 60 10000 3 290 17:37 07.06.2020
1722 Clouds 21 1017 60 10000 3 290 17:19 07.06.2020
1723 Clouds 22 1017 49 10000 4 290 16:42 07.06.2020
1724 Clouds 22 1017 49 10000 4 290 16:21 07.06.2020
1725 Clouds 24 1018 41 10000 8 280 15:40 07.06.2020
1726 Clouds 24 1018 41 10000 8 280 15:21 07.06.2020
1727 Clouds 26 1017 24 10000 5 230 14:40 07.06.2020
1728 Clouds 26 1017 24 10000 5 230 14:40 07.06.2020
1729 Clouds 26 1017 24 10000 5 230 14:21 07.06.2020
1730 Clouds 27 1017 22 10000 5 250 13:48 07.06.2020
1731 Clouds 27 1018 22 10000 5 240 13:21 07.06.2020
1732 Clouds 27 1018 24 10000 7 240 12:56 07.06.2020
1733 Clouds 27 1018 24 10000 7 240 12:37 07.06.2020
1734 Clouds 27 1018 24 10000 6 240 12:18 07.06.2020
1735 Clouds 27 1018 24 10000 6 240 11:55 07.06.2020
1736 Clouds 27 1018 24 10000 7 250 11:36 07.06.2020
1737 Clouds 27 1018 24 10000 7 250 11:18 07.06.2020
1738 Clouds 27 1018 28 10000 6 250 10:43 07.06.2020
1739 Clouds 27 1018 28 10000 6 250 10:20 07.06.2020
1740 Clouds 27 1019 30 10000 5 260 09:57 07.06.2020
1741 Clouds 26 1019 34 10000 5 240 09:38 07.06.2020
1742 Clouds 26 1019 34 10000 5 240 09:20 07.06.2020
1743 Clouds 26 1019 29 10000 3 300 08:48 07.06.2020
1744 Clouds 26 1019 31 10000 3 250 08:24 07.06.2020
1745 Clouds 26 1019 31 10000 3 250 08:24 07.06.2020
1746 Clouds 26 1019 27 10000 4 300 07:57 07.06.2020
1747 Clouds 25 1019 31 10000 3 300 07:30 07.06.2020
1748 Clouds 24 1020 36 10000 3 290 06:51 07.06.2020
1749 Clouds 23 1020 40 10000 3 320 05:50 07.06.2020
1750 Clouds 18 1020 68 10000 3 280 04:20 07.06.2020
1751 Clouds 14 1020 87 10000 3 280 02:36 07.06.2020
1752 Clouds 14 1020 82 10000 2 280 01:55 07.06.2020
1753 Clouds 14 1020 82 10000 3 290 01:25 07.06.2020
1754 Clouds 13 1020 82 10000 2.65 285 00:46 07.06.2020
1755 Clouds 13 1020 76 10000 2.32 277 00:19 07.06.2020
1756 Clouds 13 1020 76 10000 2.32 277 23:57 06.06.2020
1757 Clouds 13 1020 76 10000 2.32 277 23:37 06.06.2020
1758 Clouds 13 1020 76 10000 2.13 265 23:19 06.06.2020
1759 Clouds 13 1020 71 10000 2.13 265 22:56 06.06.2020
1760 Clouds 14 1020 67 10000 2.13 265 22:37 06.06.2020
1761 Clouds 14 1020 67 10000 1.88 266 22:18 06.06.2020
1762 Clouds 14 1020 71 10000 1.88 266 21:45 06.06.2020
1763 Clouds 14 1020 71 10000 1.52 268 21:22 06.06.2020
1764 Clouds 14 1020 71 10000 1.35 264 20:57 06.06.2020
1765 Clouds 14 1020 76 8000 1.35 264 20:38 06.06.2020
1766 Clouds 14 1020 76 8000 0.95 289 20:18 06.06.2020
1767 Clouds 15 1020 72 8000 0.95 289 19:57 06.06.2020
1768 Clouds 16 1020 67 9000 0.95 289 19:37 06.06.2020
1769 Clouds 17 1020 59 9000 1.42 270 19:19 06.06.2020
1770 Clouds 19 1020 52 10000 1 280 18:43 06.06.2020
1771 Clouds 19 1020 52 10000 1 280 18:24 06.06.2020
1772 Clouds 20 1020 49 10000 2 270 17:58 06.06.2020
1773 Clouds 21 1019 40 10000 2 280 17:39 06.06.2020
1774 Clouds 21 1019 40 10000 2 280 17:19 06.06.2020
1775 Clouds 22 1020 37 10000 2 340 16:44 06.06.2020
1776 Clouds 22 1020 37 10000 2 340 16:22 06.06.2020
1777 Clouds 23 1020 35 10000 3 360 15:56 06.06.2020
1778 Clouds 23 1020 35 10000 4 10 15:37 06.06.2020
1779 Clouds 23 1020 35 10000 4 10 15:19 06.06.2020
1780 Clouds 23 1020 38 10000 4 360 14:43 06.06.2020
1781 Clouds 23 1020 38 10000 4 360 14:24 06.06.2020
1782 Clouds 24 1020 36 10000 5 10 13:58 06.06.2020
1783 Clouds 25 1020 27 10000 6 310 13:40 06.06.2020
1784 Clouds 25 1020 31 10000 6 340 13:18 06.06.2020
1785 Clouds 24 1020 33 10000 6 310 12:43 06.06.2020
1786 Clouds 24 1020 33 10000 6 310 12:23 06.06.2020
1787 Clouds 25 1020 29 10000 6 310 11:58 06.06.2020
1788 Clouds 25 1020 33 10000 6 320 11:38 06.06.2020
1789 Clouds 25 1020 33 10000 6 320 11:20 06.06.2020
1790 Clouds 25 1020 33 10000 7 300 10:58 06.06.2020
1791 Clouds 25 1020 31 10000 6 310 10:39 06.06.2020
1792 Clouds 25 1020 31 10000 6 310 10:21 06.06.2020
1793 Clouds 25 1020 31 10000 6 300 09:46 06.06.2020
1794 Clouds 24 1020 31 10000 7 310 09:27 06.06.2020
1795 Clouds 24 1020 36 10000 6 310 08:58 06.06.2020
1796 Clouds 24 1020 36 10000 5 300 08:40 06.06.2020
1797 Clouds 24 1021 38 10000 5 320 08:19 06.06.2020
1798 Clouds 24 1021 38 10000 5 320 07:45 06.06.2020
1799 Clouds 24 1021 38 10000 5 320 07:45 06.06.2020
1800 Clouds 23 1021 40 10000 6 300 07:22 06.06.2020
1801 Clouds 23 1021 40 10000 5 290 06:46 06.06.2020
1802 Clouds 23 1021 40 10000 5 290 06:27 06.06.2020
1803 Clouds 22 1021 43 10000 4 290 05:53 06.06.2020
1804 Clouds 21 1021 49 10000 4 300 05:27 06.06.2020
1805 Clouds 19 1021 59 10000 4 290 04:43 06.06.2020
1806 Clouds 15 1021 72 10000 3 320 02:48 06.06.2020
1807 Clouds 13 1021 82 10000 3 320 01:54 06.06.2020
1808 Clouds 13 1021 82 10000 3 320 01:18 06.06.2020
1809 Clouds 13 1021 82 10000 3 320 00:43 06.06.2020
1810 Clouds 13 1021 82 10000 3 320 00:25 06.06.2020
1811 Clouds 13 1020 82 10000 4 320 23:55 05.06.2020
1812 Clouds 14 1020 76 10000 4 320 23:36 05.06.2020
1813 Clouds 14 1020 76 10000 4 320 23:18 05.06.2020
1814 Clouds 14 1020 76 10000 4 320 23:18 05.06.2020
1815 Clouds 14 1020 76 10000 4 320 22:41 05.06.2020
1816 Clouds 14 1020 76 10000 4 320 22:23 05.06.2020
1817 Clouds 14 1020 76 10000 4 320 21:58 05.06.2020
1818 Clouds 15 1020 72 10000 4 320 21:40 05.06.2020
1819 Clouds 15 1020 72 10000 4 320 21:20 05.06.2020
1820 Clouds 15 1020 72 10000 4 320 20:57 05.06.2020
1821 Clouds 15 1020 72 10000 4 310 20:38 05.06.2020
1822 Clouds 16 1020 67 10000 4 310 20:19 05.06.2020
1823 Clouds 16 1020 67 10000 3 300 19:40 05.06.2020
1824 Clouds 16 1020 67 10000 3 300 19:22 05.06.2020
1825 Clouds 16 1019 67 10000 3 300 18:54 05.06.2020
1826 Clouds 18 1020 59 10000 3 310 18:36 05.06.2020
1827 Clear 19 1019 55 10000 3 330 18:18 05.06.2020
1828 Clear 19 1019 55 10000 3 330 17:55 05.06.2020
1829 Clear 20 1019 52 10000 5 330 17:37 05.06.2020
1830 Clear 20 1019 52 10000 5 330 17:18 05.06.2020
1831 Clear 20 1019 49 10000 5 340 16:38 05.06.2020
1832 Clear 20 1019 49 10000 5 340 16:19 05.06.2020
1833 Clear 20 1019 49 10000 5 350 15:41 05.06.2020
1834 Clear 20 1019 49 10000 5 350 15:21 05.06.2020
1835 Clear 21 1019 49 10000 7 340 14:58 05.06.2020
1836 Clear 20 1019 49 10000 6 350 14:40 05.06.2020
1837 Clear 20 1019 49 10000 6 350 14:21 05.06.2020
1838 Clear 20 1019 49 10000 6 350 13:57 05.06.2020
1839 Clear 20 1019 45 10000 7 340 13:37 05.06.2020
1840 Clear 20 1019 49 10000 6 350 13:18 05.06.2020
1841 Clear 20 1019 49 10000 6 350 12:40 05.06.2020
1842 Clear 20 1019 49 10000 6 350 12:19 05.06.2020
1843 Clouds 19 1019 55 10000 7 350 11:43 05.06.2020
1844 Clouds 19 1019 55 10000 7 350 11:43 05.06.2020
1845 Clouds 19 1019 55 10000 7 350 11:25 05.06.2020
1846 Clouds 19 1019 55 10000 7 350 10:59 05.06.2020
1847 Clouds 18 1019 55 10000 7 350 10:41 05.06.2020
1848 Clouds 18 1019 55 10000 7 350 10:20 05.06.2020
1849 Clear 18 1019 55 10000 7 350 09:57 05.06.2020
1850 Clear 17 1019 51 10000 6 350 09:39 05.06.2020
1851 Clear 17 1019 51 10000 6 350 09:39 05.06.2020
1852 Clear 17 1019 51 10000 6 350 09:20 05.06.2020
1853 Clear 17 1019 51 10000 7 340 08:58 05.06.2020
1854 Clear 16 1019 51 10000 7 360 08:40 05.06.2020
1855 Clear 16 1019 51 10000 7 360 08:18 05.06.2020
1856 Clear 16 1019 51 10000 7 350 07:50 05.06.2020
1857 Clear 16 1019 51 10000 7 350 07:31 05.06.2020
1858 Clear 15 1019 54 10000 7 350 06:48 05.06.2020
1859 Clear 14 1019 58 10000 6 350 05:23 05.06.2020
1860 Clear 13 1019 66 10000 6 350 04:27 05.06.2020
1861 Clear 12 1019 66 10000 5 350 03:29 05.06.2020
1862 Clear 11 1018 71 10000 4 340 02:29 05.06.2020
1863 Clear 10 1018 76 10000 4 340 01:58 05.06.2020
1864 Clear 9 1018 81 10000 4 330 01:31 05.06.2020
1865 Clear 8 1018 81 10000 3 320 00:44 05.06.2020
1866 Clear 8 1018 87 10000 3 330 00:22 05.06.2020
1867 Clear 8 1018 87 10000 3 330 23:48 04.06.2020
1868 Clear 8 1018 87 10000 3 330 23:29 04.06.2020
1869 Clear 8 1018 81 10000 3 330 22:57 04.06.2020
1870 Clear 8 1018 81 10000 3 320 22:39 04.06.2020
1871 Clear 8 1018 81 10000 3 320 22:21 04.06.2020
1872 Clear 7 1017 87 10000 3 330 21:58 04.06.2020
1873 Clear 8 1017 75 10000 3 330 21:38 04.06.2020
1874 Clear 8 1017 75 10000 3 330 21:20 04.06.2020
1875 Clear 9 1017 70 10000 4 330 20:55 04.06.2020
1876 Clear 9 1017 70 10000 4 330 20:55 04.06.2020
1877 Clear 9 1018 70 10000 4 330 20:37 04.06.2020
1878 Clouds 9 1018 76 10000 4 320 20:19 04.06.2020
1879 Clouds 9 1018 76 10000 3 310 19:41 04.06.2020
1880 Clouds 10 1017 66 10000 3 320 19:21 04.06.2020
1881 Clouds 11 1018 62 10000 4 340 18:57 04.06.2020
1882 Clouds 11 1018 62 10000 4 340 18:38 04.06.2020
1883 Clouds 12 1018 58 10000 4 340 18:20 04.06.2020
1884 Clouds 12 1017 58 10000 3 350 17:43 04.06.2020
1885 Clouds 12 1017 58 10000 3 350 17:22 04.06.2020
1886 Clouds 12 1017 62 10000 4 340 16:57 04.06.2020
1887 Clouds 12 1017 58 10000 5 330 16:39 04.06.2020
1888 Clouds 12 1017 58 10000 5 330 16:19 04.06.2020
1889 Clouds 13 1017 54 10000 6 350 15:43 04.06.2020
1890 Clouds 13 1017 54 10000 6 350 15:25 04.06.2020
1891 Clouds 13 1017 54 10000 7 340 14:41 04.06.2020
1892 Clouds 13 1017 54 10000 7 340 14:22 04.06.2020
1893 Clouds 13 1018 54 10000 7 340 13:58 04.06.2020
1894 Clouds 12 1018 54 10000 8 330 13:40 04.06.2020
1895 Clouds 13 1018 54 10000 7 350 13:20 04.06.2020
1896 Clouds 13 1018 54 10000 7 350 12:58 04.06.2020
1897 Clouds 12 1018 54 10000 7 330 12:40 04.06.2020
1898 Clouds 12 1018 54 10000 7 340 12:21 04.06.2020
1899 Clouds 12 1018 54 10000 7 340 11:54 04.06.2020
1900 Clouds 12 1018 54 10000 7 340 11:36 04.06.2020
1901 Clouds 11 1018 57 10000 7 340 11:18 04.06.2020
1902 Clouds 11 1017 53 10000 7 340 10:40 04.06.2020
1903 Clouds 11 1017 53 10000 7 340 10:22 04.06.2020
1904 Clouds 11 1017 57 10000 7 340 09:57 04.06.2020
1905 Clouds 11 1017 57 10000 7 360 09:38 04.06.2020
1906 Clouds 11 1017 57 10000 7 360 09:19 04.06.2020
1907 Clouds 10 1018 61 10000 6 350 08:41 04.06.2020
1908 Clouds 10 1018 61 10000 6 350 08:23 04.06.2020
1909 Clouds 10 1018 61 10000 7 350 07:42 04.06.2020
1910 Clouds 8 1018 65 10000 7 340 07:21 04.06.2020
1911 Clouds 7 1018 70 10000 6 330 06:40 04.06.2020
1912 Clouds 7 1018 70 10000 7 330 06:21 04.06.2020
1913 Clouds 7 1018 70 10000 6 350 05:33 04.06.2020
1914 Clouds 7 1017 75 10000 6 360 03:51 04.06.2020
1915 Clouds 7 1017 75 10000 6 360 02:22 04.06.2020
1916 Clouds 6 1017 81 10000 4 360 01:39 04.06.2020
1917 Clouds 6 1017 81 10000 4 350 01:19 04.06.2020
1918 Clouds 6 1017 87 10000 3 350 00:20 04.06.2020
1919 Clouds 6 1017 87 10000 4 350 23:40 03.06.2020
1920 Clouds 6 1017 87 10000 4 350 23:19 03.06.2020
1921 Clouds 6 1016 87 10000 3 340 22:56 03.06.2020
1922 Clouds 7 1016 81 10000 4 350 22:38 03.06.2020
1923 Clouds 7 1016 81 10000 4 350 22:18 03.06.2020
1924 Clouds 7 1016 81 10000 4 350 21:55 03.06.2020
1925 Clouds 6 1016 87 10000 4 340 21:37 03.06.2020
1926 Clouds 6 1016 87 10000 4 340 21:19 03.06.2020
1927 Clouds 7 1016 81 10000 3 350 20:42 03.06.2020
1928 Clouds 7 1016 81 10000 3 350 20:21 03.06.2020
1929 Clouds 7 1016 75 10000 3 360 19:58 03.06.2020
1930 Clouds 7 1016 75 10000 3 10 19:39 03.06.2020
1931 Clouds 7 1016 75 10000 4 320 19:21 03.06.2020
1932 Clouds 7 1016 75 10000 4 320 18:59 03.06.2020
1933 Clouds 8 1016 65 10000 4 340 18:40 03.06.2020
1934 Clouds 9 1016 61 10000 4 360 18:19 03.06.2020
1935 Clouds 10 1015 53 10000 5 350 17:45 03.06.2020
1936 Clouds 10 1015 53 10000 5 350 17:23 03.06.2020
1937 Clouds 10 1015 53 10000 4 330 16:59 03.06.2020
1938 Clouds 10 1015 53 10000 4 340 16:41 03.06.2020
1939 Clouds 10 1015 53 10000 4 340 16:19 03.06.2020
1940 Clouds 11 1015 50 10000 7 340 15:55 03.06.2020
1941 Clouds 11 1015 50 10000 5 340 15:36 03.06.2020
1942 Clouds 11 1015 50 10000 5 340 15:18 03.06.2020
1943 Clouds 10 1015 57 10000 5 340 14:42 03.06.2020
1944 Clouds 10 1015 57 10000 5 340 14:23 03.06.2020
1945 Clouds 11 1015 53 10000 6 340 13:40 03.06.2020
1946 Clouds 11 1015 53 10000 6 340 13:21 03.06.2020
1947 Clouds 10 1015 57 10000 7 340 12:57 03.06.2020
1948 Clouds 10 1015 61 10000 5 350 12:38 03.06.2020
1949 Clouds 9 1015 70 10000 5 340 12:18 03.06.2020
1950 Clouds 8 1015 75 10000 2 40 11:43 03.06.2020
1951 Clouds 8 1015 75 10000 2 40 11:24 03.06.2020
1952 Clouds 7 1015 87 10000 4 300 10:44 03.06.2020
1953 Clouds 7 1015 87 10000 4 300 10:25 03.06.2020
1954 Clouds 8 1015 75 10000 3 10 09:55 03.06.2020
1955 Clouds 8 1015 70 10000 4 310 09:36 03.06.2020
1956 Clouds 8 1015 70 10000 4 310 09:18 03.06.2020
1957 Clouds 7 1015 75 10000 5 340 08:46 03.06.2020
1958 Rain 6 1015 81 9000 5 360 08:21 03.06.2020
1959 Clouds 9 1014 76 10000 4 340 07:46 03.06.2020
1960 Clouds 7 1014 75 10000 5 330 07:24 03.06.2020
1961 Clouds 7 1014 75 10000 5 330 06:58 03.06.2020
1962 Clouds 6 1014 87 10000 5 310 06:40 03.06.2020
1963 Clouds 6 1014 87 10000 4 330 06:21 03.06.2020
1964 Rain 5 1014 93 10000 5 310 05:42 03.06.2020
1965 Clouds 6 1013 75 10000 6 340 04:18 03.06.2020
1966 Clouds 6 1013 75 10000 5 300 03:40 03.06.2020
1967 Clouds 5 1013 80 10000 4 310 02:25 03.06.2020
1968 Clouds 4 1013 86 10000 4 320 01:26 03.06.2020
1969 Clouds 4 1013 93 10000 4 300 00:37 03.06.2020
1970 Clouds 4 1013 100 10000 4 310 00:18 03.06.2020
1971 Clouds 4 1013 93 10000 4 300 23:39 02.06.2020
1972 Clouds 4 1013 93 10000 4 300 23:21 02.06.2020
1973 Clouds 5 1013 93 10000 3 290 22:40 02.06.2020
1974 Clouds 5 1013 93 10000 3 290 22:19 02.06.2020
1975 Clouds 5 1013 86 10000 3 300 21:57 02.06.2020
1976 Clouds 4 1012 100 10000 2 300 21:39 02.06.2020
1977 Clouds 4 1012 100 10000 2 300 21:39 02.06.2020
1978 Clouds 4 1012 100 10000 2 300 21:20 02.06.2020
1979 Clouds 4 1012 100 10000 1 0 20:59 02.06.2020
1980 Clouds 5 1012 86 10000 3 320 20:40 02.06.2020
1981 Clouds 5 1012 86 10000 3 320 20:22 02.06.2020
1982 Clouds 5 1012 93 10000 3 310 19:45 02.06.2020
1983 Clouds 5 1012 93 10000 3 310 19:26 02.06.2020
1984 Clouds 5 1012 93 10000 3 300 18:59 02.06.2020
1985 Clouds 6 1012 81 10000 3 310 18:40 02.06.2020
1986 Clouds 6 1012 81 10000 3 310 18:20 02.06.2020
1987 Clouds 7 1012 87 10000 3 320 17:59 02.06.2020
1988 Rain 7 1012 87 9000 3 340 17:40 02.06.2020
1989 Rain 7 1012 87 9000 3 340 17:21 02.06.2020
1990 Rain 7 1012 87 10000 3 340 16:55 02.06.2020
1991 Clouds 9 1012 66 10000 5 340 16:37 02.06.2020
1992 Clouds 9 1012 66 10000 5 340 16:19 02.06.2020
1993 Clouds 8 1011 70 10000 4 340 15:40 02.06.2020
1994 Clouds 8 1011 70 10000 4 340 15:21 02.06.2020
1995 Clouds 8 1011 70 10000 5 320 14:48 02.06.2020
1996 Clouds 7 1011 75 10000 8 320 14:28 02.06.2020
1997 Clouds 9 1011 61 10000 8 330 13:57 02.06.2020
1998 Clouds 9 1011 66 10000 7 320 13:37 02.06.2020
1999 Clouds 9 1011 66 10000 7 320 13:37 02.06.2020
2000 Clouds 8 1010 81 10000 8 310 13:18 02.06.2020
2001 Clouds 8 1010 81 10000 8 310 12:56 02.06.2020
2002 Clouds 9 1010 76 10000 7 320 12:38 02.06.2020
2003 Clouds 9 1010 76 10000 7 320 12:19 02.06.2020
2004 Clouds 8 1010 87 10000 3 360 11:41 02.06.2020
2005 Clouds 8 1010 87 10000 3 360 11:23 02.06.2020
2006 Rain 7 1010 87 8000 5 310 10:59 02.06.2020
2007 Clouds 10 1009 61 10000 4 330 10:41 02.06.2020
2008 Clouds 10 1009 61 10000 4 330 10:21 02.06.2020
2009 Clouds 8 1010 81 10000 5 300 09:43 02.06.2020
2010 Clouds 8 1010 81 10000 5 300 09:21 02.06.2020
2011 Clouds 8 1010 87 10000 4 310 08:55 02.06.2020
2012 Rain 7 1010 87 8000 7 320 08:29 02.06.2020
2013 Clouds 10 1009 66 10000 4 310 07:59 02.06.2020
2014 Clouds 10 1009 66 10000 4 310 07:38 02.06.2020
2015 Clouds 10 1009 66 10000 4 340 07:18 02.06.2020
2016 Clouds 9 1009 70 10000 5 310 06:39 02.06.2020
2017 Clouds 10 1009 76 10000 3 320 05:38 02.06.2020
2018 Clouds 9 1009 87 10000 2 320 04:52 02.06.2020
2019 Clouds 8 1009 100 10000 1 290 03:19 02.06.2020
2020 Rain 7 1009 100 7000 3 300 02:18 02.06.2020
2021 Clouds 7 1009 93 10000 2 30 00:51 02.06.2020
2022 Clouds 7 1009 93 10000 2 30 00:22 02.06.2020
2023 Clouds 7 1009 87 10000 2 40 23:39 01.06.2020
2024 Clouds 7 1009 87 10000 2 40 23:20 01.06.2020
2025 Clouds 7 1009 81 10000 2 40 22:58 01.06.2020
2026 Clouds 8 1009 75 10000 2 20 22:39 01.06.2020
2027 Clouds 8 1009 75 10000 2 20 22:19 01.06.2020
2028 Clouds 6 1009 93 10000 2 330 21:54 01.06.2020
2029 Clouds 7 1009 81 10000 2 40 21:36 01.06.2020
2030 Clouds 7 1009 81 10000 2 40 21:18 01.06.2020
2031 Clouds 8 1009 75 10000 2 10 20:43 01.06.2020
2032 Clouds 8 1009 75 10000 2 10 20:21 01.06.2020
2033 Clouds 8 1009 75 10000 2 10 19:59 01.06.2020
2034 Clouds 8 1009 75 10000 2 20 19:41 01.06.2020
2035 Clouds 8 1009 75 10000 2 10 19:20 01.06.2020
2036 Clouds 8 1009 75 10000 2 10 18:58 01.06.2020
2037 Clouds 9 1010 76 10000 1 30 18:39 01.06.2020
2038 Clouds 9 1010 70 10000 2 40 18:19 01.06.2020
2039 Clouds 9 1010 70 10000 2 40 17:54 01.06.2020
2040 Clouds 10 1010 61 10000 2 80 17:36 01.06.2020
2041 Clouds 10 1010 61 10000 2 80 17:18 01.06.2020
2042 Clouds 11 1010 53 10000 2 70 16:39 01.06.2020
2043 Clouds 11 1010 57 10000 3 90 16:20 01.06.2020
2044 Clouds 11 1010 57 10000 3 90 15:55 01.06.2020
2045 Clouds 11 1010 57 10000 3 90 15:36 01.06.2020
2046 Clouds 11 1010 57 10000 3 90 15:18 01.06.2020
2047 Clouds 11 1010 53 10000 3 70 14:55 01.06.2020
2048 Clouds 11 1010 53 10000 3 80 14:36 01.06.2020
2049 Clouds 11 1010 53 10000 4 80 14:18 01.06.2020
2050 Clouds 11 1010 53 10000 4 80 13:41 01.06.2020
2051 Clouds 11 1010 53 10000 4 80 13:21 01.06.2020
2052 Clouds 11 1010 53 10000 3 90 12:58 01.06.2020
2053 Clouds 12 1010 50 10000 3 90 12:40 01.06.2020
2054 Clouds 12 1010 50 10000 3 90 12:21 01.06.2020
2055 Clouds 11 1010 57 10000 4 70 11:56 01.06.2020
2056 Clouds 11 1011 53 10000 3 120 11:36 01.06.2020
2057 Clouds 11 1011 53 10000 3 120 11:18 01.06.2020
2058 Clouds 10 1011 57 10000 1 0 10:40 01.06.2020
2059 Clouds 10 1011 57 10000 1 0 10:20 01.06.2020
2060 Clouds 10 1011 57 10000 1 0 09:58 01.06.2020
2061 Clouds 10 1011 61 10000 2 10 09:40 01.06.2020
2062 Clouds 10 1011 61 10000 2 10 09:20 01.06.2020
2063 Clouds 9 1011 61 10000 4 80 08:52 01.06.2020
2064 Clouds 9 1011 66 10000 4 60 08:30 01.06.2020
2065 Clouds 9 1011 66 10000 4 10 07:54 01.06.2020
2066 Clouds 9 1012 66 10000 3 20 07:36 01.06.2020
2067 Clouds 9 1012 66 10000 3 20 07:18 01.06.2020
2068 Clouds 9 1011 66 10000 3 40 06:43 01.06.2020
2069 Clouds 8 1012 70 10000 3 60 05:54 01.06.2020
2070 Clouds 8 1012 75 10000 3 50 04:46 01.06.2020
2071 Clouds 8 1011 75 10000 2 20 03:48 01.06.2020
2072 Clouds 8 1011 75 10000 2 20 03:27 01.06.2020
2073 Clouds 8 1011 75 10000 2 20 02:29 01.06.2020
2074 Clouds 7 1011 100 10000 2 20 01:34 01.06.2020
2075 Clouds 7 1011 100 10000 3 310 00:58 01.06.2020
2076 Clouds 7 1011 93 10000 2 300 00:40 01.06.2020
2077 Clouds 7 1011 93 10000 2 300 00:21 01.06.2020
2078 Clouds 6 1010 100 10000 2 320 23:56 31.05.2020
2079 Clear 6 1010 100 10000 2 300 23:38 31.05.2020
2080 Clear 6 1010 100 10000 2 300 23:20 31.05.2020
2081 Clouds 7 1011 100 10000 3 320 22:44 31.05.2020
2082 Clouds 7 1011 100 10000 3 320 22:26 31.05.2020
2083 Clouds 7 1011 100 10000 4 330 21:58 31.05.2020
2084 Clouds 7 1010 93 10000 3 320 21:40 31.05.2020
2085 Clouds 7 1010 93 10000 3 320 21:22 31.05.2020
2086 Clouds 7 1010 87 10000 3 320 20:57 31.05.2020
2087 Clouds 7 1010 87 10000 3 320 20:57 31.05.2020
2088 Clouds 7 1010 93 10000 4 320 20:38 31.05.2020
2089 Clouds 7 1010 93 10000 4 320 20:19 31.05.2020
2090 Clouds 7 1010 93 10000 4 310 19:54 31.05.2020
2091 Clouds 7 1010 93 10000 3 300 19:36 31.05.2020
2092 Clouds 8 1009 81 10000 4 300 19:18 31.05.2020
2093 Rain 9 1009 81 10000 4 320 18:43 31.05.2020
2094 Rain 9 1009 81 10000 4 320 18:25 31.05.2020
2095 Clouds 9 1009 87 10000 4 330 17:45 31.05.2020
2096 Clouds 9 1009 87 10000 4 330 17:25 31.05.2020
2097 Clouds 9 1009 87 10000 4 330 17:25 31.05.2020
2098 Rain 11 1009 66 10000 5 310 16:58 31.05.2020
2099 Clouds 11 1009 62 10000 5 320 16:40 31.05.2020
2100 Clouds 11 1009 62 10000 5 320 16:19 31.05.2020
2101 Clouds 11 1009 62 10000 8 330 15:39 31.05.2020
2102 Clouds 11 1009 62 10000 8 330 15:21 31.05.2020
2103 Clouds 11 1008 62 10000 6 340 14:47 31.05.2020
2104 Clouds 11 1008 62 10000 6 340 14:22 31.05.2020
2105 Rain 12 1008 62 10000 7 300 13:56 31.05.2020
2106 Clouds 12 1008 58 10000 8 300 13:38 31.05.2020
2107 Clouds 12 1008 58 10000 8 300 13:20 31.05.2020
2108 Clouds 13 1008 54 10000 8 310 12:57 31.05.2020
2109 Clouds 12 1008 54 10000 9 310 12:37 31.05.2020
2110 Clouds 12 1008 54 10000 9 310 12:19 31.05.2020
2111 Clouds 13 1007 50 10000 8 290 11:47 31.05.2020
2112 Clouds 13 1007 50 10000 8 290 11:23 31.05.2020
2113 Clouds 13 1007 50 10000 9 290 10:56 31.05.2020
2114 Rain 11 1008 66 10000 9 300 10:38 31.05.2020
2115 Rain 11 1008 66 10000 9 300 10:18 31.05.2020
2116 Rain 11 1007 66 10000 10 290 09:42 31.05.2020
2117 Rain 11 1007 66 10000 10 290 09:22 31.05.2020
2118 Clouds 12 1007 54 10000 8 290 08:57 31.05.2020
2119 Clouds 11 1007 71 10000 9 290 08:37 31.05.2020
2120 Clouds 11 1007 71 10000 9 290 08:19 31.05.2020
2121 Clouds 11 1007 100 10000 8 310 07:42 31.05.2020
2122 Clouds 11 1007 100 10000 8 310 07:20 31.05.2020
2123 Clouds 12 1007 93 10000 8 290 06:53 31.05.2020
2124 Clouds 11 1007 100 10000 7 290 06:31 31.05.2020
2125 Clouds 10 1007 100 10000 6 290 05:43 31.05.2020
2126 Rain 9 1007 100 10000 5 300 04:27 31.05.2020
2127 Clouds 9 1007 100 10000 4 300 03:48 31.05.2020
2128 Clouds 8 1007 100 10000 3 280 02:59 31.05.2020
2129 Clear 7 1007 100 10000 3 290 01:48 31.05.2020
2130 Clear 6 1007 100 10000 4 280 01:19 31.05.2020
2131 Clear 6 1007 100 10000 3 290 00:30 31.05.2020
2132 Clear 6 1007 100 10000 3 290 23:56 30.05.2020
2133 Clear 7 1007 100 10000 4 290 23:38 30.05.2020
2134 Clear 7 1007 100 10000 4 290 23:19 30.05.2020
2135 Clear 7 1007 100 10000 4 280 22:41 30.05.2020
2136 Clear 7 1007 100 10000 4 280 22:22 30.05.2020
2137 Clear 8 1007 100 10000 3 290 21:56 30.05.2020
2138 Clear 8 1007 100 10000 3 290 21:56 30.05.2020
2139 Clear 9 1007 93 10000 4 290 21:37 30.05.2020
2140 Clear 9 1007 93 10000 4 290 21:19 30.05.2020
2141 Clouds 9 1007 100 10000 4 290 20:56 30.05.2020
2142 Clouds 9 1007 100 10000 4 300 20:37 30.05.2020
2143 Clouds 9 1007 100 10000 4 300 20:37 30.05.2020
2144 Clouds 9 1007 100 10000 4 300 20:19 30.05.2020
2145 Clouds 10 1007 100 10000 5 300 19:42 30.05.2020
2146 Clouds 10 1007 100 10000 5 300 19:21 30.05.2020
2147 Clouds 10 1007 100 10000 5 310 18:46 30.05.2020
2148 Clouds 10 1007 100 10000 5 310 18:24 30.05.2020
2149 Clouds 10 1007 100 10000 5 310 18:24 30.05.2020
2150 Clouds 10 1006 100 10000 4 290 17:55 30.05.2020
2151 Clouds 11 1006 100 10000 3 300 17:37 30.05.2020
2152 Clouds 11 1006 100 10000 3 300 17:18 30.05.2020
2153 Rain 14 1006 67 10000 5 290 16:42 30.05.2020
2154 Rain 14 1006 67 10000 5 290 16:22 30.05.2020
2155 Clouds 14 1006 67 10000 6 290 15:49 30.05.2020
2156 Clouds 15 1006 62 10000 7 290 15:29 30.05.2020
2157 Clouds 15 1006 62 10000 6 280 14:59 30.05.2020
2158 Clouds 13 1006 71 10000 5 290 14:41 30.05.2020
2159 Clouds 13 1006 71 10000 5 290 14:18 30.05.2020
2160 Rain 14 1006 62 10000 7 290 13:41 30.05.2020
2161 Rain 14 1006 62 10000 7 290 13:18 30.05.2020
2162 Clouds 14 1007 67 10000 6 290 12:39 30.05.2020
2163 Clouds 14 1007 67 10000 6 290 12:20 30.05.2020
2164 Rain 14 1007 71 10000 7 300 11:54 30.05.2020
2165 Rain 15 1006 54 10000 9 300 11:36 30.05.2020
2166 Clouds 16 1006 51 10000 8 290 11:18 30.05.2020
2167 Clouds 16 1006 51 10000 7 300 10:39 30.05.2020
2168 Clouds 16 1006 51 10000 7 300 10:20 30.05.2020
2169 Clouds 16 1006 55 10000 7 310 09:45 30.05.2020
2170 Clouds 16 1006 55 10000 7 310 09:27 30.05.2020
2171 Clouds 15 1006 54 10000 9 310 08:46 30.05.2020
2172 Clouds 15 1006 54 10000 9 310 08:27 30.05.2020
2173 Clouds 14 1006 62 10000 9 310 07:43 30.05.2020
2174 Clouds 14 1006 62 10000 9 310 07:20 30.05.2020
2175 Clouds 13 1006 66 10000 9 320 06:31 30.05.2020
2176 Clouds 13 1006 66 10000 9 330 05:52 30.05.2020
2177 Clouds 12 1005 71 10000 9 320 05:30 30.05.2020
2178 Clouds 11 1004 81 10000 8 310 03:38 30.05.2020
2179 Rain 11 1004 81 10000 7 300 02:29 30.05.2020
2180 Clouds 10 1004 93 10000 7 300 01:40 30.05.2020
2181 Clouds 10 1003 100 10000 6 300 00:37 30.05.2020
2182 Rain 10 1003 100 10000 7 310 00:18 30.05.2020
2183 Rain 10 1003 100 10000 9 300 23:41 29.05.2020
2184 Rain 10 1003 100 10000 9 300 23:20 29.05.2020
2185 Rain 10 1003 100 10000 8 300 22:58 29.05.2020
2186 Rain 10 1003 100 10000 7 300 22:39 29.05.2020
2187 Rain 10 1003 100 10000 7 300 22:19 29.05.2020
2188 Clouds 10 1003 100 10000 8 290 21:41 29.05.2020
2189 Clouds 10 1003 100 10000 8 290 21:21 29.05.2020
2190 Clouds 10 1003 100 10000 8 290 20:59 29.05.2020
2191 Clouds 10 1003 100 10000 8 300 20:40 29.05.2020
2192 Clouds 10 1003 100 10000 8 300 20:19 29.05.2020
2193 Clouds 11 1003 100 10000 8 300 19:44 29.05.2020
2194 Clouds 11 1003 100 10000 8 300 19:26 29.05.2020
2195 Rain 11 1003 100 9000 8 290 18:55 29.05.2020
2196 Rain 11 1003 100 10000 8 290 18:37 29.05.2020
2197 Clouds 11 1003 100 10000 8 290 18:18 29.05.2020
2198 Rain 11 1003 100 10000 8 290 17:40 29.05.2020
2199 Rain 11 1003 100 10000 8 290 17:22 29.05.2020
2200 Rain 12 1003 100 10000 7 290 16:58 29.05.2020
2201 Rain 12 1003 100 10000 8 280 16:40 29.05.2020
2202 Rain 12 1003 100 10000 8 280 16:22 29.05.2020
2203 Clouds 13 1003 100 10000 9 290 15:54 29.05.2020
2204 Clouds 13 1003 100 10000 9 280 15:36 29.05.2020
2205 Clouds 13 1002 100 10000 10 280 15:18 29.05.2020
2206 Clouds 13 1002 100 10000 10 280 15:18 29.05.2020
2207 Clouds 13 1002 100 10000 9 280 14:39 29.05.2020
2208 Clouds 13 1002 100 10000 9 280 14:20 29.05.2020
2209 Rain 12 1002 100 8000 9 280 13:43 29.05.2020
2210 Rain 12 1002 100 8000 9 280 13:24 29.05.2020
2211 Clouds 14 1002 100 10000 9 260 12:58 29.05.2020
2212 Rain 12 1002 100 10000 9 260 12:39 29.05.2020
2213 Rain 12 1002 100 10000 9 260 12:21 29.05.2020
2214 Rain 12 1002 100 10000 9 250 11:44 29.05.2020
2215 Rain 12 1002 100 10000 9 250 11:25 29.05.2020
2216 Rain 13 1001 100 10000 10 260 10:55 29.05.2020
2217 Clouds 13 1001 100 10000 10 250 10:36 29.05.2020
2218 Clouds 13 1001 100 10000 10 250 10:36 29.05.2020
2219 Clouds 13 1001 100 10000 9 250 10:18 29.05.2020
2220 Clouds 12 1001 100 10000 8 250 09:42 29.05.2020
2221 Clouds 12 1001 100 10000 8 250 09:19 29.05.2020
2222 Clouds 12 1002 100 10000 6 240 08:48 29.05.2020
2223 Clouds 12 1002 100 10000 6 240 08:26 29.05.2020
2224 Rain 11 1002 100 6000 7 250 07:52 29.05.2020
2225 Rain 11 1002 100 7000 7 250 07:33 29.05.2020
2226 -273 0 0 0 0 0 06:58 29.05.2020
2227 Rain 11 1002 87 5000 7 240 06:58 29.05.2020
2228 Rain 11 1002 87 5000 6 240 06:40 29.05.2020
2229 Rain 11 1002 87 5000 6 240 06:22 29.05.2020
2230 Clouds 13 1002 66 10000 7 240 05:40 29.05.2020
2231 Clouds 14 1003 82 10000 4 250 02:35 29.05.2020
2232 Clouds 13 1003 100 10000 3 230 01:28 29.05.2020
2233 Clouds 13 1003 100 10000 4 250 00:54 29.05.2020
2234 Clouds 14 1003 100 10000 4 280 00:33 29.05.2020
2235 Clouds 15 1003 100 10000 5 250 23:58 28.05.2020
2236 Thunderstorm 15 1003 100 10000 4 230 23:39 28.05.2020
2237 Thunderstorm 15 1003 100 10000 4 230 23:18 28.05.2020
2238 Rain 14 1004 93 9000 5 210 22:42 28.05.2020
2239 Rain 14 1004 93 9000 5 210 22:24 28.05.2020
2240 Clouds 15 1005 82 10000 5 200 21:56 28.05.2020
2241 Thunderstorm 15 1005 82 10000 6 190 21:38 28.05.2020
2242 Thunderstorm 15 1005 82 10000 6 190 21:19 28.05.2020
2243 Thunderstorm 15 1005 82 10000 5 160 20:56 28.05.2020
2244 Thunderstorm 15 1006 82 10000 5 160 20:37 28.05.2020
2245 Clouds 14 1007 87 10000 5 150 20:18 28.05.2020
2246 Clouds 15 1008 82 10000 5 150 19:43 28.05.2020
2247 Clouds 15 1008 82 10000 5 150 19:43 28.05.2020
2248 Clouds 15 1008 82 10000 5 150 19:21 28.05.2020
2249 Rain 14 1009 87 10000 6 150 18:58 28.05.2020
2250 Rain 14 1009 87 10000 6 150 18:58 28.05.2020
2251 Rain 15 1010 77 10000 7 150 18:40 28.05.2020
2252 Clouds 15 1010 77 10000 7 150 18:22 28.05.2020
2253 Clouds 16 1012 67 10000 5 150 17:41 28.05.2020
2254 Clouds 16 1012 67 10000 5 150 17:22 28.05.2020
2255 Clouds 16 1012 67 10000 6 160 16:57 28.05.2020
2256 Clouds 16 1012 63 10000 6 160 16:37 28.05.2020
2257 Clouds 16 1012 63 10000 6 160 16:19 28.05.2020
2258 Clouds 17 1013 55 10000 7 150 15:42 28.05.2020
2259 Clouds 17 1013 55 10000 7 150 15:24 28.05.2020
2260 Clouds 17 1014 55 10000 6 160 14:55 28.05.2020
2261 Clouds 17 1014 51 10000 6 170 14:36 28.05.2020
2262 Clouds 17 1014 51 10000 6 170 14:18 28.05.2020
2263 Clouds 16 1015 51 10000 6 150 13:40 28.05.2020
2264 Clouds 16 1015 51 10000 6 150 13:40 28.05.2020
2265 Clouds 16 1015 51 10000 6 150 13:20 28.05.2020
2266 Clouds 16 1017 48 10000 5 160 12:42 28.05.2020
2267 Clouds 16 1017 48 10000 5 160 12:19 28.05.2020
2268 Clouds 16 1018 44 10000 4 180 11:44 28.05.2020
2269 Clouds 16 1018 44 10000 4 180 11:25 28.05.2020
2270 Clouds 16 1019 31 10000 4 170 10:57 28.05.2020
2271 Clouds 16 1019 31 10000 4 170 10:57 28.05.2020
2272 Clouds 16 1019 31 10000 4 170 10:57 28.05.2020
2273 Clouds 16 1019 38 10000 4 170 10:39 28.05.2020
2274 Clouds 16 1019 38 10000 4 170 10:19 28.05.2020
2275 Clouds 15 1020 44 10000 4 170 09:39 28.05.2020
2276 Clouds 15 1020 44 10000 4 170 09:20 28.05.2020
2277 Clouds 16 1020 36 10000 4 160 08:50 28.05.2020
2278 Clouds 16 1020 44 10000 4 160 08:26 28.05.2020
2279 Clouds 15 1021 44 10000 3 160 07:45 28.05.2020
2280 Clouds 15 1021 44 10000 3 160 07:26 28.05.2020
2281 Clouds 15 1022 51 10000 4 150 06:59 28.05.2020
2282 Clouds 14 1022 50 10000 3 160 06:37 28.05.2020
2283 Clouds 14 1022 47 10000 3 170 05:58 28.05.2020
2284 Clouds 14 1022 50 10000 2 160 05:36 28.05.2020
2285 Clouds 13 1023 66 10000 2 180 04:29 28.05.2020
2286 Clouds 11 1023 76 10000 1 0 03:46 28.05.2020
2287 Clear 10 1024 76 10000 2 110 02:45 28.05.2020
2288 Clouds 9 1024 70 10000 2 110 01:52 28.05.2020
2289 Clouds 8 1024 75 10000 2 70 00:55 28.05.2020
2290 Clouds 8 1025 75 10000 1 70 00:28 28.05.2020
2291 Clouds 9 1025 70 10000 1 0 23:58 27.05.2020
2292 Clouds 9 1025 70 10000 1 0 23:58 27.05.2020
2293 Clouds 8 1025 75 10000 1 0 23:39 27.05.2020
2294 Clouds 8 1025 75 10000 1 0 23:20 27.05.2020
2295 Clouds 9 1025 70 10000 2 60 22:56 27.05.2020
2296 Clouds 9 1025 70 10000 2.06 217 22:38 27.05.2020
2297 Clouds 7 1025 87 10000 1 100 22:19 27.05.2020
2298 Clouds 8 1025 81 10000 1 60 21:41 27.05.2020
2299 Clouds 8 1025 81 10000 1 60 21:23 27.05.2020
2300 Clouds 8 1026 81 10000 1 70 20:59 27.05.2020
2301 Clouds 8 1026 75 10000 2 60 20:41 27.05.2020
2302 Clouds 8 1026 75 10000 2 60 20:41 27.05.2020
2303 Clouds 8 1026 75 10000 2 60 20:21 27.05.2020
2304 Clouds 7 1026 81 10000 2 70 19:57 27.05.2020
2305 Clouds 8 1026 81 10000 1 40 19:39 27.05.2020
2306 Clouds 8 1026 81 10000 1 40 19:18 27.05.2020
2307 Clouds 10 1026 66 10000 2 50 18:40 27.05.2020
2308 Clouds 10 1026 66 10000 2 50 18:19 27.05.2020
2309 Clouds 12 1026 58 10000 2 50 17:46 27.05.2020
2310 Clouds 12 1026 58 10000 2 50 17:46 27.05.2020
2311 Clouds 12 1026 58 10000 2 50 17:28 27.05.2020
2312 Clouds 14 1027 47 10000 1 0 16:57 27.05.2020
2313 Clouds 14 1027 44 10000 2 30 16:39 27.05.2020
2314 Clouds 14 1027 44 10000 2 30 16:20 27.05.2020
2315 Clouds 14 1027 44 10000 2 30 15:59 27.05.2020
2316 Clouds 14 1027 44 10000 2 10 15:39 27.05.2020
2317 Clouds 14 1027 44 10000 2 10 15:21 27.05.2020
2318 Clouds 14 1028 41 10000 2 20 14:43 27.05.2020
2319 Clouds 14 1028 41 10000 2 20 14:21 27.05.2020
2320 Clouds 14 1028 36 10000 3 310 13:55 27.05.2020
2321 Clouds 15 1029 36 10000 4 320 13:36 27.05.2020
2322 Clouds 14 1029 41 10000 4 300 13:18 27.05.2020
2323 Clouds 14 1029 36 10000 4 330 12:40 27.05.2020
2324 Clouds 14 1029 36 10000 4 330 12:22 27.05.2020
2325 Clouds 14 1030 35 10000 5 320 11:39 27.05.2020
2326 Clouds 14 1030 35 10000 5 320 11:21 27.05.2020
2327 Clouds 13 1030 37 10000 5 310 10:57 27.05.2020
2328 Clouds 13 1030 43 10000 5 310 10:38 27.05.2020
2329 Clouds 13 1030 43 10000 5 310 10:19 27.05.2020
2330 Clouds 12 1030 46 10000 4 320 09:40 27.05.2020
2331 Clouds 12 1030 46 10000 4 320 09:22 27.05.2020
2332 Clouds 12 1030 46 10000 5 330 08:56 27.05.2020
2333 Clouds 11 1030 50 10000 5 330 08:36 27.05.2020
2334 Clouds 10 1030 53 10000 6 320 08:18 27.05.2020
2335 Clouds 10 1030 53 10000 6 320 07:49 27.05.2020
2336 Clouds 10 1030 53 10000 6 310 07:30 27.05.2020
2337 Clouds 9 1030 61 10000 5 330 06:47 27.05.2020
2338 Clouds 9 1030 61 10000 5 330 06:20 27.05.2020
2339 Clouds 8 1030 50 10000 5 330 05:49 27.05.2020
2340 Clouds 7 1030 65 10000 4 360 04:38 27.05.2020
2341 Clear 6 1030 75 10000 3 350 02:32 27.05.2020
2342 Clouds 5 1029 80 10000 1 340 01:53 27.05.2020
2343 Clouds 5 1029 80 10000 2 340 01:29 27.05.2020
2344 Clouds 5 1029 80 10000 2 10 00:46 27.05.2020
2345 Clouds 5 1029 80 10000 2 10 00:20 27.05.2020
2346 Clouds 6 1029 75 10000 3 360 23:55 26.05.2020
2347 Clouds 6 1029 75 10000 2 360 23:37 26.05.2020
2348 Clouds 6 1029 75 10000 2 360 23:18 26.05.2020
2349 Clouds 6 1029 75 10000 2 360 23:18 26.05.2020
2350 Clouds 6 1029 75 10000 2 360 23:18 26.05.2020
2351 Clouds 7 1028 70 10000 4 350 22:40 26.05.2020
2352 Clouds 7 1028 70 10000 4 350 22:21 26.05.2020
2353 Clouds 7 1028 70 10000 3 360 21:58 26.05.2020
2354 Clouds 7 1028 70 10000 4 350 21:40 26.05.2020
2355 Clouds 7 1028 70 10000 4 350 21:21 26.05.2020
2356 Clouds 8 1028 70 10000 5 340 20:55 26.05.2020
2357 Clouds 8 1028 70 10000 5 340 20:37 26.05.2020
2358 Clouds 8 1028 75 10000 5 340 20:18 26.05.2020
2359 Clouds 8 1028 75 10000 5 350 19:39 26.05.2020
2360 Clouds 8 1028 75 10000 5 350 19:19 26.05.2020
2361 Clouds 8 1027 75 10000 6 350 18:43 26.05.2020
2362 Clouds 8 1027 75 10000 6 350 18:24 26.05.2020
2363 Clouds 9 1027 70 10000 6 350 17:59 26.05.2020
2364 Clouds 9 1026 70 10000 6 350 17:38 26.05.2020
2365 Clouds 9 1026 70 10000 6 350 17:38 26.05.2020
2366 Clouds 9 1026 70 10000 6 350 17:20 26.05.2020
2367 Clouds 9 1026 70 10000 5 350 16:42 26.05.2020
2368 Clouds 9 1026 70 10000 5 350 16:20 26.05.2020
2369 Clouds 8 1026 87 10000 5 360 15:55 26.05.2020
2370 Rain 9 1025 76 10000 5 350 15:37 26.05.2020
2371 Rain 9 1025 76 10000 5 350 15:18 26.05.2020
2372 Clouds 9 1025 66 10000 5 350 14:43 26.05.2020
2373 Clouds 9 1025 66 10000 5 350 14:23 26.05.2020
2374 Clouds 9 1025 61 10000 5 350 13:56 26.05.2020
2375 Clouds 9 1025 66 10000 7 340 13:37 26.05.2020
2376 Clouds 9 1025 66 10000 7 340 13:18 26.05.2020
2377 Clouds 9 1024 66 10000 7 340 12:42 26.05.2020
2378 Clouds 9 1024 66 10000 7 340 12:20 26.05.2020
2379 Clouds 9 1023 66 10000 6 350 11:57 26.05.2020
2380 Clouds 9 1023 61 10000 7 350 11:39 26.05.2020
2381 Clouds 9 1023 61 10000 6 360 11:18 26.05.2020
2382 Clouds 9 1022 61 10000 7 340 10:41 26.05.2020
2383 Clouds 9 1022 61 10000 7 340 10:41 26.05.2020
2384 Clouds 9 1021 61 10000 7 10 10:19 26.05.2020
2385 Clouds 8 1021 70 10000 7 10 09:39 26.05.2020
2386 Clouds 8 1021 70 10000 7 10 09:20 26.05.2020
2387 Clouds 8 1020 65 10000 7 20 08:43 26.05.2020
2388 Clouds 8 1020 65 10000 7 20 08:22 26.05.2020
2389 Clouds 10 1018 61 10000 7 20 07:44 26.05.2020
2390 Clouds 10 1018 61 10000 7 20 07:25 26.05.2020
2391 Clouds 10 1018 61 10000 7 40 06:57 26.05.2020
2392 Clouds 10 1017 61 10000 7 30 06:39 26.05.2020
2393 Clouds 10 1017 66 10000 6 30 05:55 26.05.2020
2394 Clouds 10 1017 66 10000 7 40 05:33 26.05.2020
2395 Rain 10 1017 71 10000 6 30 04:52 26.05.2020
2396 Rain 11 1016 66 10000 5 30 04:33 26.05.2020
2397 Rain 11 1015 66 10000 4 30 03:55 26.05.2020
2398 Clouds 10 1014 81 10000 4 80 02:45 26.05.2020
2399 Clouds 10 1014 81 10000 4 100 01:48 26.05.2020
2400 Clouds 10 1014 81 10000 4 100 01:27 26.05.2020
2401 Rain 10 1015 76 10000 5 110 00:37 26.05.2020
2402 Rain 10 1015 76 10000 5 110 00:19 26.05.2020
2403 Clouds 10 1015 71 10000 4 80 23:55 25.05.2020
2404 Clouds 10 1017 71 10000 3 120 23:36 25.05.2020
2405 Clouds 11 1018 66 10000 2 70 23:18 25.05.2020
2406 Clouds 11 1018 66 10000 2 70 22:54 25.05.2020
2407 Clouds 11 1018 62 10000 3 70 22:36 25.05.2020
2408 Clouds 11 1018 62 10000 4 70 22:18 25.05.2020
2409 Clouds 11 1018 62 10000 4 70 21:54 25.05.2020
2410 Clouds 11 1018 62 10000 3 90 21:36 25.05.2020
2411 Clouds 11 1018 62 10000 4 70 21:18 25.05.2020
2412 Clouds 11 1019 66 10000 3 60 20:42 25.05.2020
2413 Clouds 11 1019 66 10000 3 60 20:21 25.05.2020
2414 Clouds 11 1020 71 10000 2 90 19:59 25.05.2020
2415 Clouds 11 1020 71 10000 2 90 19:59 25.05.2020
2416 Clouds 12 1020 66 10000 2 60 19:39 25.05.2020
2417 Clouds 12 1020 66 10000 2 50 19:18 25.05.2020
2418 Clouds 13 1020 62 10000 3 20 18:45 25.05.2020
2419 Clouds 13 1020 62 10000 3 20 18:22 25.05.2020
2420 Clouds 13 1021 66 10000 1 20 17:59 25.05.2020
2421 Clouds 14 1021 58 10000 2 320 17:40 25.05.2020
2422 Clouds 14 1021 58 10000 2 320 17:22 25.05.2020
2423 Clouds 14 1022 54 10000 2 330 16:56 25.05.2020
2424 Clouds 15 1022 47 10000 3 310 16:38 25.05.2020
2425 Clouds 15 1022 47 10000 3 310 16:19 25.05.2020
2426 Clouds 16 1023 41 10000 5 300 15:42 25.05.2020
2427 Clear 16 1023 41 10000 5 300 15:19 25.05.2020
2428 Clear 16 1023 41 10000 5 300 15:19 25.05.2020
2429 Clear 16 1023 41 10000 5 290 14:56 25.05.2020
2430 Clear 16 1023 41 10000 6 300 14:38 25.05.2020
2431 Clouds 16 1023 44 10000 4 290 14:18 25.05.2020
2432 Clouds 16 1023 41 10000 6 320 13:39 25.05.2020
2433 Clear 16 1023 41 10000 6 320 13:20 25.05.2020
2434 Clear 16 1023 41 10000 5 300 12:57 25.05.2020
2435 Clear 16 1023 41 10000 5 300 12:57 25.05.2020
2436 Clear 16 1023 38 10000 6 330 12:37 25.05.2020
2437 Clear 16 1023 38 10000 6 330 12:19 25.05.2020
2438 Clear 16 1023 36 10000 6 320 11:39 25.05.2020
2439 Clear 16 1023 36 10000 6 320 11:20 25.05.2020
2440 Clear 16 1023 36 10000 6 290 10:54 25.05.2020
2441 Clear 16 1023 41 10000 6 300 10:36 25.05.2020
2442 Clouds 15 1023 47 10000 6 330 10:18 25.05.2020
2443 Clouds 15 1023 44 10000 5 310 09:42 25.05.2020
2444 Clouds 15 1023 44 10000 5 310 09:20 25.05.2020
2445 Clouds 14 1023 47 10000 6 320 08:59 25.05.2020
2446 Clouds 13 1023 50 10000 6 320 08:38 25.05.2020
2447 Clouds 13 1023 50 10000 6 320 08:20 25.05.2020
2448 Clouds 14 1022 54 10000 5 340 07:47 25.05.2020
2449 Clouds 14 1022 54 10000 5 340 07:24 25.05.2020
2450 Clouds 14 1022 62 10000 5 340 06:55 25.05.2020
2451 Clouds 13 1022 66 10000 7 330 06:34 25.05.2020
2452 Clouds 14 1021 71 10000 4 330 04:19 25.05.2020
2453 Clear 13 1021 76 10000 5 310 03:23 25.05.2020
2454 Clear 12 1020 93 10000 3 280 02:45 25.05.2020
2455 Clouds 12 1020 93 10000 3 280 01:58 25.05.2020
2456 Clouds 12 1020 93 10000 3 280 01:30 25.05.2020
2457 Rain 13 1020 87 10000 4 280 00:45 25.05.2020
2458 Rain 13 1020 87 10000 4 280 00:23 25.05.2020
2459 Rain 13 1020 87 10000 5 280 23:57 24.05.2020
2460 Clouds 13 1020 87 10000 4 270 23:38 24.05.2020
2461 Clouds 13 1020 87 10000 4 270 23:19 24.05.2020
2462 Clouds 13 1020 87 10000 4 260 22:41 24.05.2020
2463 Clouds 13 1020 87 10000 4 260 22:19 24.05.2020
2464 Clouds 13 1020 87 10000 4 250 21:58 24.05.2020
2465 Clouds 13 1020 93 10000 4 240 21:40 24.05.2020
2466 Clouds 13 1020 93 10000 4 240 21:21 24.05.2020
2467 Rain 13 1020 87 10000 4 280 20:57 24.05.2020
2468 Rain 13 1020 87 10000 4 280 20:57 24.05.2020
2469 Clouds 15 1020 72 10000 5 280 20:38 24.05.2020
2470 Clouds 15 1020 72 10000 4 280 20:18 24.05.2020
2471 Clouds 15 1020 72 10000 4 280 19:55 24.05.2020
2472 Clouds 15 1020 72 10000 4 270 19:36 24.05.2020
2473 Clouds 15 1020 72 10000 4 250 19:18 24.05.2020
2474 Clouds 16 1020 67 10000 4 250 18:41 24.05.2020
2475 Clouds 16 1020 67 10000 4 250 18:23 24.05.2020
2476 Clouds 16 1020 67 10000 4 250 17:56 24.05.2020
2477 Clouds 16 1020 67 10000 4 250 17:37 24.05.2020
2478 Clouds 17 1020 63 10000 5 250 17:19 24.05.2020
2479 Clouds 17 1020 63 10000 5 270 16:39 24.05.2020
2480 Clouds 17 1020 63 10000 5 270 16:21 24.05.2020
2481 Clouds 17 1020 63 10000 4 250 15:59 24.05.2020
2482 Clouds 17 1020 63 10000 4 250 15:40 24.05.2020
2483 Clouds 17 1020 63 10000 4 250 15:20 24.05.2020
2484 Clouds 18 1020 59 10000 5 250 14:55 24.05.2020
2485 Clouds 18 1020 55 10000 6 260 14:37 24.05.2020
2486 Clouds 18 1020 55 10000 6 260 14:18 24.05.2020
2487 Clouds 18 1020 55 10000 6 250 13:55 24.05.2020
2488 Clouds 18 1020 55 10000 6 260 13:36 24.05.2020
2489 Clouds 18 1020 55 10000 6 260 13:36 24.05.2020
2490 Clouds 18 1020 55 10000 6 260 13:18 24.05.2020
2491 Clouds 18 1020 55 10000 6 260 12:54 24.05.2020
2492 Clouds 19 1020 52 10000 7 260 12:36 24.05.2020
2493 Clouds 19 1020 52 10000 7 260 12:36 24.05.2020
2494 Clouds 18 1021 48 10000 8 260 12:18 24.05.2020
2495 Clouds 19 1020 39 10000 7 250 11:42 24.05.2020
2496 Clouds 19 1020 39 10000 7 250 11:23 24.05.2020
2497 Clouds 19 1020 48 10000 7 240 10:59 24.05.2020
2498 Clouds 18 1020 52 10000 7 250 10:39 24.05.2020
2499 Clouds 18 1020 52 10000 7 250 10:21 24.05.2020
2500 Clouds 18 1020 52 10000 5 280 09:42 24.05.2020
2501 Clouds 18 1020 52 10000 5 280 09:19 24.05.2020
2502 Clouds 18 1020 55 10000 6 250 08:59 24.05.2020
2503 Clouds 18 1020 52 10000 6 280 08:40 24.05.2020
2504 Clouds 18 1020 52 10000 6 280 08:40 24.05.2020
2505 Clouds 18 1020 52 10000 6 280 08:22 24.05.2020
2506 Clouds 18 1020 52 10000 6 280 08:22 24.05.2020
2507 Clouds 17 1019 55 10000 6 290 07:54 24.05.2020
2508 Clouds 17 1019 55 10000 7 280 07:36 24.05.2020
2509 Clouds 17 1019 59 10000 7 290 07:18 24.05.2020
2510 Clouds 16 1019 63 10000 7 280 06:38 24.05.2020
2511 Clouds 15 1018 67 10000 7 280 05:43 24.05.2020
2512 Clear 12 1017 87 10000 6 270 03:46 24.05.2020
2513 Clear 11 1016 100 10000 5 280 02:52 24.05.2020
2514 Clear 11 1016 100 10000 6 280 02:23 24.05.2020
2515 Clear 11 1015 100 10000 5 250 00:49 24.05.2020
2516 Clear 11 1015 100 10000 3 240 00:27 24.05.2020
2517 Clear 11 1015 100 10000 3 240 00:27 24.05.2020
2518 Clear 11 1015 100 10000 3 250 23:59 23.05.2020
2519 Clear 11 1014 100 10000 3 240 23:37 23.05.2020
2520 Clear 11 1014 100 10000 3 240 23:19 23.05.2020
2521 Clear 11 1014 100 10000 3 230 22:55 23.05.2020
2522 Clear 11 1014 100 10000 3 240 22:37 23.05.2020
2523 Clear 11 1014 100 10000 3 240 22:18 23.05.2020
2524 Clear 11 1014 100 10000 3 240 21:54 23.05.2020
2525 Clear 12 1014 100 10000 4 240 21:36 23.05.2020
2526 Clear 12 1014 100 10000 3 240 21:18 23.05.2020
2527 Clear 12 1014 100 10000 4 240 20:39 23.05.2020
2528 Clouds 12 1014 100 10000 4 240 20:20 23.05.2020
2529 Clouds 12 1014 100 10000 4 240 19:59 23.05.2020
2530 Clouds 12 1014 100 10000 4 240 19:59 23.05.2020
2531 Clouds 13 1013 93 10000 4 230 19:40 23.05.2020
2532 Clouds 13 1013 93 10000 4 230 19:19 23.05.2020
2533 Clouds 13 1013 100 10000 3 210 18:41 23.05.2020
2534 Clouds 13 1013 100 10000 3 210 18:23 23.05.2020
2535 Clouds 13 1013 100 10000 1 0 17:58 23.05.2020
2536 Rain 13 1014 100 9000 2 240 17:40 23.05.2020
2537 Rain 13 1014 100 9000 2 240 17:21 23.05.2020
2538 Rain 13 1014 100 10000 4 230 16:59 23.05.2020
2539 Rain 14 1013 87 6000 7 250 16:41 23.05.2020
2540 Rain 14 1013 87 6000 7 250 16:20 23.05.2020
2541 Clouds 16 1013 67 10000 1 0 15:57 23.05.2020
2542 Thunderstorm 17 1013 59 10000 5 230 15:39 23.05.2020
2543 Thunderstorm 17 1013 59 10000 5 230 15:20 23.05.2020
2544 Clouds 19 1013 52 10000 4 160 14:42 23.05.2020
2545 Clouds 19 1013 52 10000 4 160 14:23 23.05.2020
2546 Clouds 20 1013 49 10000 4 160 13:55 23.05.2020
2547 Clouds 20 1013 45 10000 5 180 13:37 23.05.2020
2548 Clouds 21 1013 40 10000 5 200 13:18 23.05.2020
2549 Clouds 20 1014 49 10000 5 160 12:41 23.05.2020
2550 Clouds 20 1014 49 10000 5 160 12:19 23.05.2020
2551 Clouds 20 1014 49 10000 3 190 11:57 23.05.2020
2552 Clouds 20 1014 45 10000 4 170 11:37 23.05.2020
2553 Clouds 20 1015 45 10000 4 160 11:18 23.05.2020
2554 Clouds 20 1015 45 10000 4 160 10:54 23.05.2020
2555 Clouds 19 1015 48 10000 4 190 10:36 23.05.2020
2556 Clouds 19 1015 52 10000 4 200 10:18 23.05.2020
2557 Clouds 19 1015 52 10000 4 180 09:41 23.05.2020
2558 Clouds 19 1015 52 10000 4 180 09:23 23.05.2020
2559 Clouds 19 1016 52 10000 4 210 08:56 23.05.2020
2560 Clouds 19 1016 48 10000 5 180 08:37 23.05.2020
2561 Clouds 19 1016 48 10000 5 180 08:18 23.05.2020
2562 Clouds 18 1016 59 10000 4 200 07:43 23.05.2020
2563 Clouds 18 1016 59 10000 4 200 07:22 23.05.2020
2564 Clear 16 1017 67 10000 4 150 06:42 23.05.2020
2565 Clear 16 1017 67 10000 3 160 05:51 23.05.2020
2566 Clear 14 1017 76 10000 3 200 03:52 23.05.2020
2567 Clear 14 1017 71 10000 3 170 03:23 23.05.2020
2568 Clear 13 1017 76 10000 2 150 02:31 23.05.2020
2569 Clear 13 1017 71 10000 1 0 01:28 23.05.2020
2570 Clear 13 1017 71 10000 1 0 00:53 23.05.2020
2571 Clear 14 1017 67 10000 2 170 00:34 23.05.2020
2572 Clear 13 1017 71 10000 3.28 168 23:59 22.05.2020
2573 Clear 14 1017 67 10000 1 0 23:40 22.05.2020
2574 Clear 14 1017 67 10000 1 0 23:40 22.05.2020
2575 Clear 14 1017 67 10000 1 0 23:20 22.05.2020
2576 Clear 14 1017 67 10000 3 200 22:57 22.05.2020
2577 Clear 15 1017 62 10000 4 180 22:39 22.05.2020
2578 Clear 15 1017 62 10000 4 180 22:19 22.05.2020
2579 Clear 15 1017 62 10000 3 170 21:46 22.05.2020
2580 Clear 15 1017 62 10000 3 170 21:22 22.05.2020
2581 Clear 15 1017 62 10000 2 170 20:55 22.05.2020
2582 Clear 16 1017 59 10000 2 180 20:37 22.05.2020
2583 Clouds 16 1017 59 10000 2 160 20:18 22.05.2020
2584 Clouds 16 1017 59 10000 3 170 19:44 22.05.2020
2585 Clouds 16 1017 59 10000 3 170 19:25 22.05.2020
2586 Clouds 17 1017 51 10000 3 170 18:41 22.05.2020
2587 Clouds 17 1017 51 10000 3 170 18:22 22.05.2020
2588 Clouds 17 1017 51 10000 3 170 17:59 22.05.2020
2589 Clouds 18 1017 48 10000 4 170 17:39 22.05.2020
2590 Clouds 18 1017 48 10000 4 170 17:19 22.05.2020
2591 Clouds 19 1016 42 10000 4 170 16:55 22.05.2020
2592 Clouds 19 1016 42 10000 5 170 16:37 22.05.2020
2593 Clouds 19 1016 42 10000 5 170 16:18 22.05.2020
2594 Clouds 19 1016 42 10000 5 160 15:41 22.05.2020
2595 Clouds 19 1016 42 10000 5 160 15:21 22.05.2020
2596 Clouds 20 1016 37 10000 6 180 14:45 22.05.2020
2597 Clouds 20 1016 37 10000 6 180 14:25 22.05.2020
2598 Clouds 20 1016 40 10000 5 180 13:50 22.05.2020
2599 Clouds 19 1017 42 10000 7 170 13:22 22.05.2020
2600 Clouds 20 1016 40 10000 6 190 12:59 22.05.2020
2601 Clouds 20 1016 40 10000 6 190 12:39 22.05.2020
2602 Clouds 20 1016 40 10000 6 190 12:20 22.05.2020
2603 Clouds 19 1016 39 10000 6 170 11:44 22.05.2020
2604 Clouds 19 1016 39 10000 6 170 11:21 22.05.2020
2605 Clouds 19 1016 42 10000 6 180 10:56 22.05.2020
2606 Clouds 19 1016 39 10000 6 190 10:38 22.05.2020
2607 Clear 19 1016 39 10000 6 190 10:19 22.05.2020
2608 Clear 19 1016 39 10000 6 190 10:19 22.05.2020
2609 Clear 19 1016 39 10000 8 180 09:46 22.05.2020
2610 Clear 19 1016 39 10000 8 180 09:21 22.05.2020
2611 Clear 19 1016 39 10000 7 180 08:55 22.05.2020
2612 Clear 18 1016 45 10000 8 180 08:37 22.05.2020
2613 Clouds 17 1016 51 10000 7 150 08:18 22.05.2020
2614 Clouds 17 1016 51 10000 6 160 07:46 22.05.2020
2615 Clouds 17 1016 51 10000 6 160 07:22 22.05.2020
2616 Clear 16 1017 59 10000 5 150 06:43 22.05.2020
2617 Clear 16 1017 59 10000 5 150 06:25 22.05.2020
2618 Clear 15 1017 72 10000 4 150 05:35 22.05.2020
2619 Clouds 13 1016 87 10000 4 160 04:47 22.05.2020
2620 Clouds 13 1016 87 10000 4 180 03:49 22.05.2020
2621 Clear 12 1016 100 10000 3 170 03:29 22.05.2020
2622 Clouds 12 1016 100 10000 3 190 01:58 22.05.2020
2623 Clouds 12 1016 100 10000 4 200 01:31 22.05.2020
2624 Clouds 12 1015 100 10000 3 200 00:50 22.05.2020
2625 Rain 13 1015 100 10000 4 190 00:29 22.05.2020
2626 Rain 13 1015 100 10000 4 190 23:55 21.05.2020
2627 Rain 14 1014 100 9000 3 150 23:37 21.05.2020
2628 Rain 14 1014 100 9000 3 150 23:19 21.05.2020
2629 Clouds 14 1014 100 10000 4 160 22:56 21.05.2020
2630 Clouds 15 1014 77 10000 3 170 22:36 21.05.2020
2631 Clouds 15 1014 77 10000 2 190 22:18 21.05.2020
2632 Clouds 16 1014 67 10000 3 190 21:43 21.05.2020
2633 Clouds 16 1014 67 10000 3 190 21:25 21.05.2020
2634 Clouds 16 1015 67 10000 2 160 20:54 21.05.2020
2635 Clouds 16 1015 72 10000 2 190 20:36 21.05.2020
2636 Clouds 17 1014 67 10000 2 230 20:18 21.05.2020
2637 Clouds 17 1015 67 10000 5 230 19:39 21.05.2020
2638 Clouds 17 1015 67 10000 5 230 19:19 21.05.2020
2639 Clouds 19 1014 55 10000 7 110 18:40 21.05.2020
2640 Clouds 19 1014 55 10000 7 120 18:20 21.05.2020
2641 Clouds 19 1014 55 10000 7 120 17:58 21.05.2020
2642 Clouds 20 1014 52 10000 8 110 17:40 21.05.2020
2643 Clouds 20 1014 52 10000 8 110 17:22 21.05.2020
2644 Clouds 21 1014 49 10000 8 110 16:47 21.05.2020
2645 Clouds 21 1014 49 10000 8 110 16:25 21.05.2020
2646 Clouds 21 1014 49 10000 9 110 15:55 21.05.2020
2647 Clouds 22 1014 46 10000 9 110 15:37 21.05.2020
2648 Clouds 22 1014 46 10000 9 110 15:18 21.05.2020
2649 Clouds 22 1014 43 10000 10 110 14:39 21.05.2020
2650 Clouds 22 1014 43 10000 10 110 14:18 21.05.2020
2651 Clouds 23 1014 40 10000 9 120 13:41 21.05.2020
2652 Clouds 23 1014 40 10000 9 120 13:22 21.05.2020
2653 Clouds 23 1014 40 10000 9 110 12:58 21.05.2020
2654 Clouds 24 1015 38 10000 6 120 12:37 21.05.2020
2655 Clouds 24 1015 38 10000 6 120 12:19 21.05.2020
2656 Clouds 24 1014 36 10000 7 140 11:42 21.05.2020
2657 Clouds 24 1014 36 10000 7 140 11:23 21.05.2020
2658 Clouds 23 1015 35 10000 7 130 10:58 21.05.2020
2659 Clouds 23 1015 35 10000 7 140 10:39 21.05.2020
2660 Clouds 23 1015 35 10000 7 140 10:19 21.05.2020
2661 Clouds 23 1015 35 10000 7 130 09:55 21.05.2020
2662 Clouds 23 1015 38 10000 7 140 09:36 21.05.2020
2663 Clouds 22 1016 40 10000 6 140 09:18 21.05.2020
2664 Clear 22 1016 40 10000 6 140 08:45 21.05.2020
2665 Clear 22 1016 40 10000 6 140 08:26 21.05.2020
2666 Clear 20 1016 49 10000 6 140 07:46 21.05.2020
2667 Clear 20 1016 49 10000 6 140 07:27 21.05.2020
2668 Clear 20 1016 49 10000 5 140 06:52 21.05.2020
2669 Clear 20 1016 49 10000 5 140 06:52 21.05.2020
2670 Clear 18 1016 55 10000 4 140 05:58 21.05.2020
2671 Clear 18 1016 55 10000 4 140 05:22 21.05.2020
2672 Clear 15 1016 72 10000 3 140 03:22 21.05.2020
2673 Clear 15 1016 72 10000 3 140 03:22 21.05.2020
2674 Clear 12 1016 87 10000 2 150 02:45 21.05.2020
2675 Clear 12 1016 87 10000 2 150 02:25 21.05.2020
2676 Clear 11 1016 87 10000 3 140 01:45 21.05.2020
2677 Clear 11 1016 87 10000 3 130 01:19 21.05.2020
2678 Clear 11 1016 87 10000 3 130 00:51 21.05.2020
2679 Clear 12 1016 81 10000 3 120 00:23 21.05.2020
2680 Clear 12 1016 87 10000 3 130 23:43 20.05.2020
2681 Clear 12 1016 87 10000 3 130 23:20 20.05.2020
2682 Clear 12 1015 87 10000 3 120 22:58 20.05.2020
2683 Clear 12 1015 87 10000 2 130 22:39 20.05.2020
2684 Clear 12 1015 87 10000 2 130 22:20 20.05.2020
2685 Clear 12 1015 81 10000 2 120 21:40 20.05.2020
2686 Clear 12 1015 81 10000 2 120 21:22 20.05.2020
2687 Clear 13 1015 82 10000 2 130 20:45 20.05.2020
2688 Clouds 13 1015 82 10000 2 130 20:26 20.05.2020
2689 Clouds 13 1014 82 10000 3 130 19:58 20.05.2020
2690 Clouds 14 1014 76 10000 3 150 19:38 20.05.2020
2691 Clouds 14 1014 76 10000 3 150 19:20 20.05.2020
2692 Clouds 14 1014 71 10000 3 150 18:47 20.05.2020
2693 Clouds 14 1014 71 10000 3 150 18:28 20.05.2020
2694 Clouds 15 1013 67 10000 3 160 17:46 20.05.2020
2695 Clouds 15 1013 67 10000 3 160 17:24 20.05.2020
2696 Clouds 15 1013 72 10000 4 180 16:59 20.05.2020
2697 Clouds 16 1013 59 10000 4 190 16:41 20.05.2020
2698 Clouds 16 1013 59 10000 4 190 16:21 20.05.2020
2699 Clouds 16 1013 63 10000 4 200 15:55 20.05.2020
2700 Clouds 16 1012 63 10000 5 180 15:36 20.05.2020
2701 Clouds 16 1012 63 10000 5 210 15:18 20.05.2020
2702 Clouds 17 1011 55 10000 5 200 14:41 20.05.2020
2703 Clouds 17 1011 55 10000 5 200 14:20 20.05.2020
2704 Clouds 17 1011 59 10000 6 190 13:40 20.05.2020
2705 Clouds 17 1011 59 10000 6 190 13:19 20.05.2020
2706 Clouds 17 1010 67 10000 5 160 12:43 20.05.2020
2707 Clouds 17 1010 67 10000 5 160 12:21 20.05.2020
2708 Clouds 17 1010 67 10000 5 160 12:21 20.05.2020
2709 Clouds 17 1010 67 10000 6 150 11:57 20.05.2020
2710 Clouds 16 1010 72 10000 6 150 11:36 20.05.2020
2711 Rain 16 1010 77 10000 5 150 11:18 20.05.2020
2712 Rain 16 1010 77 10000 5 150 11:18 20.05.2020
2713 Rain 16 1009 72 10000 4 150 10:42 20.05.2020
2714 Rain 16 1009 72 10000 4 150 10:19 20.05.2020
2715 Clouds 18 1009 63 10000 5 180 09:44 20.05.2020
2716 Clouds 18 1009 63 10000 5 180 09:21 20.05.2020
2717 Clouds 18 1008 59 10000 6 190 08:42 20.05.2020
2718 Clouds 18 1008 59 10000 6 190 08:20 20.05.2020
2719 Clouds 18 1008 63 10000 5 190 07:55 20.05.2020
2720 Clouds 18 1008 68 10000 5 190 07:37 20.05.2020
2721 Clouds 18 1008 68 10000 5 190 07:19 20.05.2020
2722 Clouds 19 1007 68 10000 4 200 06:28 20.05.2020
2723 Clouds 20 1007 68 10000 4 180 05:18 20.05.2020
2724 Rain 19 1007 77 10000 4 160 04:19 20.05.2020
2725 Clouds 18 1006 77 10000 3 150 03:37 20.05.2020
2726 Clouds 18 1006 77 10000 4 140 01:58 20.05.2020
2727 Clouds 19 1006 72 10000 5 140 01:24 20.05.2020
2728 Clouds 18 1006 77 10000 4 130 00:42 20.05.2020
2729 Clouds 18 1006 77 10000 4 130 00:23 20.05.2020
2730 Clouds 20 1006 64 10000 4 140 23:39 19.05.2020
2731 Clouds 20 1006 64 10000 4 140 23:19 19.05.2020
2732 Clouds 19 1006 72 10000 4 130 22:55 19.05.2020
2733 Clouds 20 1006 64 10000 5 140 22:37 19.05.2020
2734 Clouds 20 1006 64 10000 5 140 22:18 19.05.2020
2735 Clouds 20 1006 64 10000 4 140 21:55 19.05.2020
2736 Clouds 20 1006 64 10000 5 140 21:36 19.05.2020
2737 Clouds 21 1006 60 10000 5 150 21:18 19.05.2020
2738 Clouds 21 1006 60 10000 5 150 20:56 19.05.2020
2739 Clouds 21 1006 60 10000 5 150 20:38 19.05.2020
2740 Clouds 21 1006 60 10000 5 150 20:19 19.05.2020
2741 Clouds 21 1006 60 10000 6 130 19:39 19.05.2020
2742 Clouds 21 1006 60 10000 6 130 19:20 19.05.2020
2743 Clouds 22 1006 56 10000 5 120 18:45 19.05.2020
2744 Clouds 22 1006 56 10000 5 120 18:24 19.05.2020
2745 Clouds 22 1006 60 10000 5 120 17:59 19.05.2020
2746 Rain 23 1006 56 10000 5 120 17:40 19.05.2020
2747 Rain 23 1006 56 10000 5 120 17:20 19.05.2020
2748 Rain 23 1006 56 10000 5 120 16:56 19.05.2020
2749 Rain 24 1006 53 10000 6 120 16:37 19.05.2020
2750 Clear 24 1006 53 10000 6 120 16:19 19.05.2020
2751 Clouds 25 1006 44 10000 6 130 15:43 19.05.2020
2752 Clouds 25 1006 44 10000 6 130 15:20 19.05.2020
2753 Clouds 25 1006 44 10000 8 140 14:55 19.05.2020
2754 Clouds 25 1006 47 10000 6 140 14:37 19.05.2020
2755 Clouds 25 1006 47 10000 6 140 14:19 19.05.2020
2756 Clouds 24 1006 50 10000 5 130 13:56 19.05.2020
2757 Clouds 24 1007 50 10000 5 140 13:37 19.05.2020
2758 Clouds 24 1007 50 10000 5 140 13:37 19.05.2020
2759 Clouds 24 1007 50 10000 5 140 13:18 19.05.2020
2760 Clouds 24 1007 47 10000 4 160 12:55 19.05.2020
2761 Clouds 25 1007 44 10000 5 160 12:36 19.05.2020
2762 Clouds 22 1007 64 10000 4 140 12:18 19.05.2020
2763 Thunderstorm 20 1007 68 9000 3 180 11:41 19.05.2020
2764 Thunderstorm 20 1007 68 9000 3 180 11:22 19.05.2020
2765 Thunderstorm 21 1008 52 10000 5 220 10:56 19.05.2020
2766 Thunderstorm 26 1007 47 10000 5 130 10:38 19.05.2020
2767 Clouds 26 1006 50 10000 6 120 10:18 19.05.2020
2768 Clouds 26 1007 50 10000 6 130 09:43 19.05.2020
2769 Clouds 26 1007 50 10000 6 130 09:24 19.05.2020
2770 Clouds 24 1007 57 10000 6 130 08:47 19.05.2020
2771 Clouds 24 1007 57 10000 6 130 08:25 19.05.2020
2772 Clouds 23 1008 56 10000 5 130 07:48 19.05.2020
2773 Clouds 23 1008 56 10000 5 130 07:27 19.05.2020
2774 Clouds 22 1008 60 10000 5 130 06:55 19.05.2020
2775 Clouds 21 1008 68 10000 4 130 06:31 19.05.2020
2776 Clouds 20 1008 72 10000 4 130 05:42 19.05.2020
2777 Clouds 20 1008 72 10000 4 130 05:19 19.05.2020
2778 Clouds 17 1009 100 10000 4 130 04:35 19.05.2020
2779 Clouds 16 1009 100 10000 3 150 02:23 19.05.2020
2780 Clouds 14 1008 87 10000 2 110 00:48 19.05.2020
2781 Clouds 14 1008 87 10000 2 110 00:29 19.05.2020
2782 -273 0 0 0 0 0 23:59 18.05.2020
2783 Clouds 15 1008 87 10000 1 0 23:40 18.05.2020
2784 Clouds 15 1008 87 10000 1 0 23:20 18.05.2020
2785 Clouds 17 1008 88 10000 3 140 22:42 18.05.2020
2786 Clouds 17 1008 88 10000 3 140 22:22 18.05.2020
2787 Clouds 17 1008 88 10000 4 150 21:59 18.05.2020
2788 Thunderstorm 15 1009 87 10000 5 100 21:40 18.05.2020
2789 Thunderstorm 15 1009 87 10000 5 100 21:20 18.05.2020
2790 Clouds 15 1008 87 10000 4 150 20:57 18.05.2020
2791 Clouds 16 1009 87 10000 4 220 20:37 18.05.2020
2792 Clouds 16 1008 93 10000 4 260 20:18 18.05.2020
2793 Clouds 15 1008 100 10000 4 90 19:41 18.05.2020
2794 Clouds 16 1008 100 10000 2 130 19:19 18.05.2020
2795 Clouds 16 1008 100 10000 2 130 19:19 18.05.2020
2796 Clouds 16 1008 100 10000 2 130 18:55 18.05.2020
2797 Clouds 15 1008 100 10000 2 100 18:36 18.05.2020
2798 Clouds 16 1008 100 10000 3 110 18:18 18.05.2020
2799 Clouds 16 1007 100 10000 2 130 17:37 18.05.2020
2800 Clouds 16 1007 100 10000 1 0 17:18 18.05.2020
2801 Clouds 16 1007 100 10000 1 0 17:18 18.05.2020
2802 Clouds 16 1007 100 10000 1 0 17:18 18.05.2020
2803 Clouds 16 1007 100 10000 1 0 16:55 18.05.2020
2804 Clouds 16 1007 100 10000 3 70 16:36 18.05.2020
2805 Clouds 16 1007 100 10000 3 60 16:18 18.05.2020
2806 Thunderstorm 17 1007 100 10000 1 0 15:42 18.05.2020
2807 Thunderstorm 17 1007 100 10000 1 0 15:23 18.05.2020
2808 Thunderstorm 19 1009 82 9000 6 190 14:58 18.05.2020
2809 Thunderstorm 21 1007 68 10000 3 110 14:39 18.05.2020
2810 Thunderstorm 21 1007 68 10000 3 110 14:20 18.05.2020
2811 Clouds 22 1007 60 10000 5 110 13:42 18.05.2020
2812 Clouds 22 1007 60 10000 5 110 13:21 18.05.2020
2813 Clouds 22 1007 60 10000 5 100 12:58 18.05.2020
2814 Clouds 22 1007 60 10000 4 110 12:40 18.05.2020
2815 Clouds 22 1007 60 10000 4 110 12:20 18.05.2020
2816 Clouds 22 1008 60 10000 3 120 11:59 18.05.2020
2817 Clouds 20 1008 64 10000 5 120 11:40 18.05.2020
2818 Clouds 20 1008 64 10000 5 120 11:22 18.05.2020
2819 Clouds 22 1008 56 10000 3 140 10:46 18.05.2020
2820 Clouds 22 1008 56 10000 3 140 10:24 18.05.2020
2821 Clouds 20 1008 64 10000 3 70 09:46 18.05.2020
2822 Clouds 20 1008 64 10000 3 70 09:27 18.05.2020
2823 Clouds 19 1009 68 10000 3 70 08:59 18.05.2020
2824 Clouds 20 1009 64 10000 1 0 08:39 18.05.2020
2825 Clouds 20 1009 64 10000 1 0 08:21 18.05.2020
2826 Clouds 18 1009 68 10000 3 140 07:43 18.05.2020
2827 Clouds 18 1009 68 10000 3 140 07:23 18.05.2020
2828 Clouds 16 1009 82 10000 3 90 06:47 18.05.2020
2829 Clouds 16 1009 82 10000 3 90 06:23 18.05.2020
2830 Clouds 15 1009 93 10000 3 90 05:43 18.05.2020
2831 Clouds 13 1008 100 10000 3 60 03:39 18.05.2020
2832 Clouds 13 1008 100 9000 2 70 02:56 18.05.2020
2833 Rain 12 1009 100 5000 1 0 01:45 18.05.2020
2834 Rain 12 1009 100 7000 1 0 00:45 18.05.2020
2835 Rain 12 1009 100 7000 1 0 00:19 18.05.2020
2836 Rain 13 1009 93 8000 1 0 23:55 17.05.2020
2837 Rain 12 1009 100 10000 1.43 208 23:36 17.05.2020
2838 Clouds 12 1009 100 9000 2 70 23:18 17.05.2020
2839 Clouds 12 1009 100 8000 2.4 183 22:40 17.05.2020
2840 Clouds 12 1009 100 8000 2.4 183 22:40 17.05.2020
2841 Clouds 12 1009 100 8000 2.08 166 22:21 17.05.2020
2842 Clouds 12 1009 100 8000 2.08 166 21:59 17.05.2020
2843 Clouds 12 1009 100 8000 2.08 166 21:41 17.05.2020
2844 Clouds 12 1009 100 8000 1.92 159 21:19 17.05.2020
2845 Clouds 13 1009 100 8000 1.92 159 20:55 17.05.2020
2846 Clouds 13 1009 93 8000 1.92 159 20:37 17.05.2020
2847 Clouds 12 1009 100 10000 1 0 20:18 17.05.2020
2848 Clouds 13 1009 100 10000 1.27 154 19:42 17.05.2020
2849 Clouds 13 1009 100 10000 1.27 154 19:42 17.05.2020
2850 Clouds 13 1009 100 10000 1.12 164 19:23 17.05.2020
2851 Clouds 13 1009 100 10000 1.12 164 18:56 17.05.2020
2852 Rain 14 1008 93 10000 3 60 18:38 17.05.2020
2853 Rain 14 1008 93 10000 3 60 18:19 17.05.2020
2854 Rain 14 1009 100 10000 3 180 17:40 17.05.2020
2855 Rain 14 1009 100 10000 3 180 17:22 17.05.2020
2856 Rain 17 1009 72 9000 3 200 16:57 17.05.2020
2857 Clouds 17 1008 63 10000 1 310 16:38 17.05.2020
2858 Clouds 17 1008 63 10000 1 310 16:19 17.05.2020
2859 Clouds 17 1008 63 10000 1 310 16:19 17.05.2020
2860 Clouds 17 1008 63 10000 1 310 16:19 17.05.2020
2861 Clouds 17 1008 63 10000 1 310 16:19 17.05.2020
2862 Clouds 18 1008 59 10000 3 280 15:46 17.05.2020
2863 Clouds 18 1008 59 10000 3 280 15:24 17.05.2020
2864 Clouds 18 1008 55 10000 7 250 14:58 17.05.2020
2865 Clouds 20 1008 45 10000 4 250 14:39 17.05.2020
2866 Clouds 20 1008 45 10000 4 250 14:20 17.05.2020
2867 Clouds 21 1007 43 10000 4 240 13:42 17.05.2020
2868 Clouds 21 1007 43 10000 4 240 13:20 17.05.2020
2869 Clouds 16 1007 59 10000 4 160 05:25 17.05.2020
2870 Clouds 12 1006 76 10000 2 180 03:34 17.05.2020
2871 Clouds 12 1006 76 10000 2 180 02:27 17.05.2020
2872 Clouds 11 1006 81 10000 2 190 01:54 17.05.2020
2873 Clouds 12 1006 76 10000 2 180 00:53 17.05.2020
2874 Clouds 12 1006 76 10000 2 170 00:31 17.05.2020
2875 Clouds 11 1006 81 10000 2 160 23:56 16.05.2020
2876 Clouds 11 1006 81 10000 2 160 23:38 16.05.2020
2877 Clouds 11 1006 81 10000 2 160 23:19 16.05.2020
2878 Clouds 11 1006 100 10000 2 160 22:42 16.05.2020
2879 Clouds 11 1006 100 10000 2 160 22:23 16.05.2020
2880 Clouds 11 1006 100 10000 2 160 22:23 16.05.2020
2881 Clouds 11 1006 100 10000 2 180 21:59 16.05.2020
2882 Clouds 10 1006 100 10000 1 0 21:41 16.05.2020
2883 Clouds 10 1006 100 10000 1 0 21:21 16.05.2020
2884 Clouds 9 1005 100 10000 2.49 199 20:57 16.05.2020
2885 Clouds 9 1005 100 10000 2.49 199 20:38 16.05.2020
2886 Clouds 9 1005 100 10000 2.4 209 20:20 16.05.2020
2887 Clouds 10 1005 100 7000 2.4 209 19:43 16.05.2020
2888 Clouds 10 1005 100 7000 2.49 221 19:23 16.05.2020
2889 Clouds 10 1005 100 6000 2 230 18:59 16.05.2020
2890 Clouds 11 1005 100 8000 2 230 18:41 16.05.2020
2891 Clouds 11 1005 100 8000 2 230 18:22 16.05.2020
2892 Clouds 13 1004 100 10000 3 230 17:42 16.05.2020
2893 Clear 13 1004 100 10000 3 230 17:22 16.05.2020
2894 Clear 14 1004 93 10000 3 240 16:59 16.05.2020
2895 Clear 14 1004 100 10000 4 250 16:39 16.05.2020
2896 Clear 14 1004 100 10000 4 250 16:19 16.05.2020
2897 Clear 14 1004 100 10000 5 250 15:54 16.05.2020
2898 Clear 15 1004 100 10000 6 260 15:36 16.05.2020
2899 Clear 15 1004 93 10000 7 250 15:18 16.05.2020
2900 Clear 15 1003 100 10000 6 250 14:42 16.05.2020
2901 Clouds 15 1003 100 10000 6 250 14:20 16.05.2020
2902 Clouds 15 1003 100 10000 6 250 13:56 16.05.2020
2903 Clouds 15 1003 100 10000 6 250 13:36 16.05.2020
2904 Clouds 16 1002 93 10000 6 250 13:18 16.05.2020
2905 Clouds 16 1002 100 10000 6 260 12:43 16.05.2020
2906 Clouds 16 1002 100 10000 6 260 12:20 16.05.2020
2907 Clouds 16 1002 100 10000 6 260 12:20 16.05.2020
2908 Clouds 16 1002 93 10000 8 260 11:43 16.05.2020
2909 Clouds 16 1002 93 10000 8 260 11:24 16.05.2020
2910 Clouds 15 1001 100 10000 7 290 10:59 16.05.2020
2911 Clouds 15 1001 100 10000 7 290 10:40 16.05.2020
2912 Clouds 15 1001 100 10000 7 290 10:22 16.05.2020
2913 Clouds 14 1001 100 10000 7 290 09:58 16.05.2020
2914 Clouds 14 1001 100 10000 7 280 09:38 16.05.2020
2915 Clouds 13 1000 100 10000 8 290 09:18 16.05.2020
2916 Clouds 13 1000 100 10000 8 290 09:18 16.05.2020
2917 Clouds 13 1000 100 10000 7 280 08:42 16.05.2020
2918 Clouds 13 1000 100 10000 7 280 08:21 16.05.2020
2919 Clouds 11 999 100 10000 7 300 07:43 16.05.2020
2920 Clouds 11 999 100 10000 7 300 07:25 16.05.2020
2921 Clouds 10 1000 100 10000 7 290 06:57 16.05.2020
2922 Clouds 10 999 100 10000 6 300 06:36 16.05.2020
2923 Clouds 9 999 100 10000 7 300 06:18 16.05.2020
2924 Clouds 8 999 100 10000 6 300 05:31 16.05.2020
2925 Clouds 9 998 100 10000 7 290 03:35 16.05.2020
2926 Clouds 9 998 100 10000 6 290 02:59 16.05.2020
2927 Clouds 10 997 93 10000 6 290 02:20 16.05.2020
2928 Clouds 11 997 100 10000 5 300 01:45 16.05.2020
2929 Clouds 11 997 100 10000 5 300 01:22 16.05.2020
2930 Clouds 12 996 93 10000 6 300 00:44 16.05.2020
2931 Clouds 12 996 93 10000 6 300 00:21 16.05.2020
2932 Clouds 13 996 93 10000 6 310 23:41 15.05.2020
2933 Clouds 13 996 93 10000 6 310 23:20 15.05.2020
2934 Clouds 13 996 93 10000 6 310 23:20 15.05.2020
2935 Clouds 13 996 100 10000 4 310 22:57 15.05.2020
2936 Clouds 13 996 100 10000 4 310 22:38 15.05.2020
2937 Clouds 13 996 100 10000 5 300 22:18 15.05.2020
2938 Clouds 13 996 100 10000 4 320 21:40 15.05.2020
2939 Clouds 13 996 100 10000 4 320 21:21 15.05.2020
2940 Clouds 13 996 100 10000 3 330 20:58 15.05.2020
2941 Clouds 14 996 93 10000 4 310 20:40 15.05.2020
2942 Clouds 14 996 93 10000 4 310 20:22 15.05.2020
2943 Clouds 14 995 100 10000 5 310 19:55 15.05.2020
2944 Clouds 14 996 100 10000 3 280 19:37 15.05.2020
2945 Clouds 15 996 100 10000 4 270 19:18 15.05.2020
2946 Clouds 15 996 100 10000 5 270 18:42 15.05.2020
2947 Clouds 15 996 100 10000 5 270 18:23 15.05.2020
2948 Clouds 15 996 100 10000 4 260 17:39 15.05.2020
2949 Clouds 15 996 100 10000 4 260 17:19 15.05.2020
2950 Rain 16 996 93 10000 5 270 16:57 15.05.2020
2951 Clouds 16 996 100 10000 6 280 16:38 15.05.2020
2952 Clouds 16 996 100 10000 6 280 16:19 15.05.2020
2953 Rain 17 995 100 9000 4 230 15:42 15.05.2020
2954 Rain 17 995 100 9000 4 230 15:24 15.05.2020
2955 Rain 17 996 100 7000 2 230 14:59 15.05.2020
2956 Rain 17 996 100 9000 2 240 14:41 15.05.2020
2957 Rain 17 996 100 9000 2 240 14:23 15.05.2020
2958 Clouds 17 996 100 10000 1 0 13:58 15.05.2020
2959 Rain 17 996 33 9000 1 0 13:39 15.05.2020
2960 Rain 17 996 100 10000 1 0 13:19 15.05.2020
2961 Rain 17 996 93 10000 2 140 12:39 15.05.2020
2962 Rain 17 996 88 10000 3 130 12:18 15.05.2020
2963 Rain 17 996 88 10000 3 130 11:57 15.05.2020
2964 Clouds 18 996 77 10000 4 130 11:38 15.05.2020
2965 Clouds 18 996 77 10000 4 130 11:19 15.05.2020
2966 Clouds 19 997 72 10000 4 120 10:57 15.05.2020
2967 Clouds 19 997 72 10000 5 130 10:38 15.05.2020
2968 Clouds 19 997 72 10000 5 130 10:38 15.05.2020
2969 Clouds 19 997 72 10000 5 130 10:20 15.05.2020
2970 Clouds 18 997 72 10000 5 120 09:57 15.05.2020
2971 Clouds 17 997 77 10000 6 120 09:36 15.05.2020
2972 Clouds 18 998 72 10000 8 100 09:18 15.05.2020
2973 Clouds 18 998 72 10000 7 90 08:38 15.05.2020
2974 Clouds 18 998 72 10000 7 90 08:20 15.05.2020
2975 Clouds 18 998 72 10000 7 90 08:20 15.05.2020
2976 Clouds 17 999 72 10000 6 80 07:47 15.05.2020
2977 Clouds 17 999 72 10000 6 80 07:28 15.05.2020
2978 Rain 16 999 77 10000 6 60 06:59 15.05.2020
2979 Clouds 17 999 72 10000 7 70 06:28 15.05.2020
2980 Clouds 16 1001 77 10000 4 330 05:33 15.05.2020
2981 Clouds 14 1001 82 10000 5 110 03:51 15.05.2020
2982 Clouds 13 1002 87 10000 4 100 02:58 15.05.2020
2983 Clouds 13 1003 87 10000 4 110 01:37 15.05.2020
2984 Clouds 13 1004 87 10000 3 90 01:18 15.05.2020
2985 Clouds 13 1004 87 10000 3 90 00:41 15.05.2020
2986 Clouds 13 1004 87 10000 4 90 00:22 15.05.2020
2987 Clouds 13 1005 87 10000 3 90 23:41 14.05.2020
2988 Clouds 13 1005 87 10000 4 100 23:19 14.05.2020
2989 Clouds 13 1005 87 10000 4 100 22:55 14.05.2020
2990 Clouds 13 1005 87 10000 3 100 22:37 14.05.2020
2991 Clouds 13 1006 87 10000 3 100 22:18 14.05.2020
2992 Clouds 13 1006 87 10000 3 90 21:41 14.05.2020
2993 Clouds 13 1006 87 10000 3 90 21:20 14.05.2020
2994 Clouds 13 1007 87 10000 3 90 20:57 14.05.2020
2995 Clouds 13 1007 87 10000 2 80 20:39 14.05.2020
2996 Clouds 13 1007 87 10000 2 80 20:19 14.05.2020
2997 Clouds 13 1007 87 10000 2 80 20:19 14.05.2020
2998 Clouds 13 1007 82 10000 3 100 19:57 14.05.2020
2999 Clouds 13 1007 82 10000 3 120 19:38 14.05.2020
3000 Clouds 14 1007 76 10000 3 80 19:19 14.05.2020
3001 Clouds 14 1007 76 10000 3 80 18:56 14.05.2020
3002 Clouds 14 1007 76 10000 3 70 18:38 14.05.2020
3003 Clouds 14 1007 76 10000 3 70 18:38 14.05.2020
3004 Clouds 14 1007 76 10000 3 70 18:19 14.05.2020
3005 Clouds 15 1007 72 10000 3 130 17:56 14.05.2020
3006 Clouds 16 1007 67 10000 3 130 17:37 14.05.2020
3007 Clouds 16 1007 67 10000 3 130 17:18 14.05.2020
3008 Clouds 18 1008 59 10000 4 120 16:39 14.05.2020
3009 Clouds 18 1008 59 10000 4 120 16:21 14.05.2020
3010 Clouds 18 1008 59 10000 4 120 15:58 14.05.2020
3011 Clouds 18 1008 59 10000 4 110 15:40 14.05.2020
3012 Clouds 18 1008 59 10000 4 110 15:20 14.05.2020
3013 Clouds 19 1008 55 10000 5 130 14:56 14.05.2020
3014 Clouds 18 1009 59 10000 5 120 14:38 14.05.2020
3015 Clouds 18 1009 59 10000 5 120 14:20 14.05.2020
3016 Clouds 18 1009 59 10000 5 120 13:56 14.05.2020
3017 Clouds 18 1009 59 10000 5 120 13:38 14.05.2020
3018 Clouds 18 1009 59 10000 6 110 13:18 14.05.2020
3019 Clouds 18 1009 59 10000 6 110 12:57 14.05.2020
3020 Clouds 18 1009 59 10000 6 110 12:37 14.05.2020
3021 Clouds 17 1009 63 10000 6 120 12:18 14.05.2020
3022 Clouds 17 1009 63 10000 6 120 12:18 14.05.2020
3023 Clouds 17 1009 63 10000 6 120 11:55 14.05.2020
3024 Clouds 17 1009 63 10000 6 110 11:37 14.05.2020
3025 Clouds 17 1009 63 10000 6 110 11:19 14.05.2020
3026 Clouds 16 1010 67 10000 6 110 10:41 14.05.2020
3027 Clouds 16 1010 67 10000 6 110 10:23 14.05.2020
3028 Clouds 16 1010 67 10000 6 120 09:45 14.05.2020
3029 Clouds 16 1010 67 10000 6 120 09:25 14.05.2020
3030 Clouds 16 1010 67 10000 7 110 08:59 14.05.2020
3031 Clouds 15 1010 72 10000 7 120 08:37 14.05.2020
3032 Clouds 15 1010 72 10000 7 120 08:18 14.05.2020
3033 Clouds 15 1010 67 10000 7 120 07:44 14.05.2020
3034 Clouds 15 1010 67 10000 7 120 07:21 14.05.2020
3035 Clouds 15 1011 67 10000 5 130 06:43 14.05.2020
3036 Clouds 15 1011 67 10000 5 130 06:24 14.05.2020
3037 Clouds 15 1011 67 10000 7 130 05:42 14.05.2020
3038 Clouds 15 1011 67 10000 8 130 04:45 14.05.2020
3039 Clouds 14 1010 71 10000 6 130 03:39 14.05.2020
3040 Clouds 14 1010 71 10000 6 130 03:19 14.05.2020
3041 Clouds 14 1010 76 10000 6 130 02:35 14.05.2020
3042 Clouds 14 1010 76 10000 6 120 01:49 14.05.2020
3043 Clouds 14 1010 76 10000 7 100 00:53 14.05.2020
3044 Clouds 15 1010 72 10000 7 90 00:27 14.05.2020
3045 Clouds 16 1010 67 10000 6 100 23:45 13.05.2020
3046 Clouds 16 1010 67 10000 6 100 23:24 13.05.2020
3047 Clouds 16 1010 67 10000 7 110 22:59 13.05.2020
3048 Clouds 17 1010 63 10000 5 120 22:41 13.05.2020
3049 Clouds 17 1010 63 10000 5 120 22:21 13.05.2020
3050 Clouds 17 1010 59 10000 6 120 21:58 13.05.2020
3051 Clouds 17 1010 59 10000 7 110 21:39 13.05.2020
3052 Clouds 17 1010 59 10000 7 110 21:19 13.05.2020
3053 Clouds 18 1010 55 10000 7 100 20:55 13.05.2020
3054 Clouds 18 1010 55 10000 7 100 20:55 13.05.2020
3055 Clouds 18 1010 55 10000 6 100 20:37 13.05.2020
3056 Clouds 19 1010 55 10000 6 100 20:18 13.05.2020
3057 Clouds 19 1009 52 10000 6 100 19:41 13.05.2020
3058 Clouds 19 1009 52 10000 6 100 19:22 13.05.2020
3059 Clouds 20 1009 49 10000 6 100 18:43 13.05.2020
3060 Clouds 20 1009 49 10000 6 100 18:22 13.05.2020
3061 Clouds 20 1009 49 10000 6 100 18:22 13.05.2020
3062 Clouds 20 1009 52 10000 6 100 17:57 13.05.2020
3063 Clouds 21 1009 49 10000 7 100 17:37 13.05.2020
3064 Clouds 22 1009 49 10000 6 90 17:18 13.05.2020
3065 Clouds 22 1009 49 10000 6 90 17:18 13.05.2020
3066 Clouds 22 1009 56 10000 5 90 16:40 13.05.2020
3067 Rain 22 1009 56 10000 5 90 16:19 13.05.2020
3068 Rain 23 1009 56 10000 6 100 15:55 13.05.2020
3069 Rain 23 1009 56 10000 6 100 15:55 13.05.2020
3070 Rain 23 1009 56 10000 7 100 15:36 13.05.2020
3071 Rain 23 1009 56 10000 7 100 15:36 13.05.2020
3072 Rain 24 1009 57 10000 7 90 15:18 13.05.2020
3073 Rain 24 1008 57 10000 7 100 14:42 13.05.2020
3074 Rain 24 1008 57 10000 7 100 14:42 13.05.2020
3075 Clear 24 1008 57 10000 7 100 14:22 13.05.2020
3076 Clouds 24 1008 60 10000 7 100 13:58 13.05.2020
3077 Clouds 25 1008 53 10000 7 100 13:40 13.05.2020
3078 Clouds 25 1008 53 10000 7 100 13:21 13.05.2020
3079 Clouds 25 1008 53 10000 7 100 13:21 13.05.2020
3080 Clear 26 1008 54 10000 6 100 12:57 13.05.2020
3081 Clear 26 1009 47 10000 5 100 12:39 13.05.2020
3082 Clear 25 1009 50 10000 5 110 12:18 13.05.2020
3083 Clear 25 1009 50 10000 5 110 11:56 13.05.2020
3084 Clear 25 1009 50 10000 4 100 11:36 13.05.2020
3085 Clear 25 1009 50 10000 4 120 11:18 13.05.2020
3086 Clear 25 1009 50 10000 4 120 10:56 13.05.2020
3087 Clear 24 1009 53 10000 6 110 10:38 13.05.2020
3088 Clouds 24 1010 53 10000 6 110 10:18 13.05.2020
3089 Clouds 23 1010 64 10000 5 120 09:43 13.05.2020
3090 Clouds 23 1010 64 10000 5 120 09:23 13.05.2020
3091 Clouds 23 1010 64 10000 5 120 09:23 13.05.2020
3092 Clouds 23 1010 69 10000 4 120 08:57 13.05.2020
3093 Rain 22 1010 68 10000 5 120 08:37 13.05.2020
3094 Clouds 24 1010 60 10000 5 120 08:18 13.05.2020
3095 Clouds 23 1009 60 10000 6 110 07:43 13.05.2020
3096 Clouds 23 1009 60 10000 6 110 07:24 13.05.2020
3097 Thunderstorm 21 1009 68 10000 6 80 06:47 13.05.2020
3098 Thunderstorm 21 1009 68 10000 6 80 06:27 13.05.2020
3099 Clouds 22 1009 68 10000 2 70 04:50 13.05.2020
3100 Rain 18 1009 88 10000 2 90 03:27 13.05.2020
3101 Rain 17 1009 88 10000 0.87 340 02:32 13.05.2020
3102 Rain 15 1009 100 10000 0.72 245 01:37 13.05.2020
3103 Rain 15 1009 87 10000 1.5 185 00:50 13.05.2020
3104 Rain 15 1009 93 10000 1.38 189 00:20 13.05.2020
3105 Rain 15 1009 93 10000 1.38 189 23:40 12.05.2020
3106 Rain 15 1009 93 10000 1.38 189 23:40 12.05.2020
3107 Rain 15 1009 93 10000 1.38 189 23:40 12.05.2020
3108 Rain 15 1009 93 10000 1.48 194 23:21 12.05.2020
3109 Rain 15 1009 93 10000 1.48 194 22:58 12.05.2020
3110 Rain 16 1009 87 10000 1.48 194 22:40 12.05.2020
3111 Clouds 16 1009 87 10000 1.17 183 22:21 12.05.2020
3112 Clouds 16 1009 87 10000 1.17 183 21:55 12.05.2020
3113 Clouds 16 1009 93 10000 1.17 183 21:37 12.05.2020
3114 Clouds 16 1009 93 10000 0.48 3 21:18 12.05.2020
3115 Clouds 17 1009 82 10000 0.48 3 20:57 12.05.2020
3116 Clouds 18 1009 82 10000 0.48 3 20:38 12.05.2020
3117 Rain 18 1009 82 10000 0.66 261 20:20 12.05.2020
3118 Rain 18 1009 77 10000 0.66 261 19:56 12.05.2020
3119 Rain 18 1009 82 10000 0.66 261 19:37 12.05.2020
3120 Clouds 20 1009 68 10000 0.37 184 19:19 12.05.2020
3121 Clouds 21 1009 68 10000 0.37 184 18:42 12.05.2020
3122 Clouds 21 1009 68 10000 0.97 281 18:24 12.05.2020
3123 Clouds 21 1009 68 10000 0.97 281 17:58 12.05.2020
3124 Clouds 23 1009 60 10000 0.97 281 17:39 12.05.2020
3125 Clouds 23 1009 60 10000 1.71 267 17:21 12.05.2020
3126 Clouds 26 1009 44 10000 2 300 16:43 12.05.2020
3127 Clouds 26 1009 44 10000 2 300 16:23 12.05.2020
3128 Clouds 27 1009 42 10000 3 260 15:56 12.05.2020
3129 Clouds 27 1009 42 10000 4 280 15:37 12.05.2020
3130 Clouds 27 1009 42 10000 4 250 15:18 12.05.2020
3131 Clouds 27 1009 42 10000 4 250 15:18 12.05.2020
3132 Clouds 27 1009 42 10000 4 250 14:55 12.05.2020
3133 Clouds 28 1009 37 10000 5 230 14:36 12.05.2020
3134 Clouds 27 1009 39 10000 4 240 14:18 12.05.2020
3135 Clouds 27 1009 39 10000 4 240 13:55 12.05.2020
3136 Clouds 28 1010 39 10000 5 240 13:37 12.05.2020
3137 Clouds 27 1009 42 10000 5 260 13:18 12.05.2020
3138 Clouds 27 1009 42 10000 5 260 12:56 12.05.2020
3139 Clouds 28 1010 37 10000 6 240 12:38 12.05.2020
3140 Clouds 28 1010 37 10000 6 240 12:20 12.05.2020
3141 Clouds 28 1009 37 10000 6 260 11:57 12.05.2020
3142 Clouds 28 1009 37 10000 6 230 11:37 12.05.2020
3143 Clouds 28 1009 37 10000 6 230 11:19 12.05.2020
3144 Clouds 28 1009 34 10000 6 210 10:55 12.05.2020
3145 Clouds 29 1009 28 10000 5 210 10:37 12.05.2020
3146 Clouds 28 1009 30 10000 5 190 10:18 12.05.2020
3147 Clouds 28 1009 30 10000 5 190 09:55 12.05.2020
3148 Clouds 27 1010 32 10000 4 140 09:37 12.05.2020
3149 Clouds 27 1010 32 10000 4 140 09:19 12.05.2020
3150 Clouds 26 1010 39 10000 4 150 08:39 12.05.2020
3151 Clouds 26 1010 39 10000 4 150 08:21 12.05.2020
3152 Clouds 24 1010 44 10000 3 150 07:45 12.05.2020
3153 Clouds 24 1010 44 10000 3 150 07:27 12.05.2020
3154 Clouds 24 1010 44 10000 3 140 06:56 12.05.2020
3155 Clouds 22 1010 46 10000 3 150 06:37 12.05.2020
3156 Clouds 22 1010 46 10000 3 130 06:18 12.05.2020
3157 Clouds 21 1011 49 10000 3 150 05:44 12.05.2020
3158 Clouds 19 1011 55 10000 3 130 03:49 12.05.2020
3159 Clouds 16 1011 67 10000 3 110 02:58 12.05.2020
3160 Clouds 16 1011 67 10000 4 100 02:26 12.05.2020
3161 Clouds 16 1011 67 10000 4 100 01:33 12.05.2020
3162 Clouds 16 1011 67 10000 4 100 00:40 12.05.2020
3163 Clouds 16 1011 67 10000 4 100 00:21 12.05.2020
3164 Clouds 16 1011 67 10000 4 90 23:54 11.05.2020
3165 Clouds 18 1011 52 10000 3 140 23:36 11.05.2020
3166 Clouds 18 1011 55 10000 2 140 23:18 11.05.2020
3167 Clouds 18 1011 55 10000 2 140 22:54 11.05.2020
3168 Clouds 16 1011 63 10000 2 110 22:36 11.05.2020
3169 Clouds 17 1011 63 10000 2 110 22:18 11.05.2020
3170 Clouds 17 1011 63 10000 2 110 21:54 11.05.2020
3171 Clouds 17 1011 63 10000 2 120 21:36 11.05.2020
3172 Clouds 16 1011 67 10000 3 110 21:18 11.05.2020
3173 Clouds 17 1011 63 10000 3 110 20:42 11.05.2020
3174 Clouds 17 1011 63 10000 3 110 20:21 11.05.2020
3175 Clouds 17 1011 63 10000 3 100 19:58 11.05.2020
3176 Clouds 18 1011 59 10000 3 110 19:40 11.05.2020
3177 Clouds 18 1011 59 10000 3 110 19:21 11.05.2020
3178 Clouds 19 1011 55 10000 2 100 18:56 11.05.2020
3179 Clouds 19 1011 55 10000 2 80 18:38 11.05.2020
3180 Clouds 21 1011 52 10000 2 90 18:18 11.05.2020
3181 Clouds 21 1011 52 10000 2 90 17:55 11.05.2020
3182 Clouds 22 1011 46 10000 2 80 17:37 11.05.2020
3183 Clouds 22 1011 46 10000 2 80 17:19 11.05.2020
3184 Clouds 24 1011 44 10000 2 70 16:42 11.05.2020
3185 Clouds 24 1011 44 10000 2 70 16:23 11.05.2020
3186 Clouds 24 1011 41 10000 2 80 15:59 11.05.2020
3187 Clouds 25 1011 33 10000 1 60 15:40 11.05.2020
3188 Clouds 25 1011 33 10000 1 60 15:19 11.05.2020
3189 Clouds 26 1011 29 10000 1 20 14:56 11.05.2020
3190 Clouds 27 1011 26 10000 2 20 14:38 11.05.2020
3191 Clouds 27 1011 26 10000 2 20 14:19 11.05.2020
3192 Clouds 27 1011 26 10000 0.96 280 13:42 11.05.2020
3193 Clear 27 1011 26 10000 1.67 257 13:22 11.05.2020
3194 Clear 27 1011 26 10000 2 310 12:58 11.05.2020
3195 Clear 27 1011 24 10000 4 280 12:40 11.05.2020
3196 Clear 27 1011 24 10000 4 280 12:22 11.05.2020
3197 Clear 27 1011 24 10000 4 260 11:57 11.05.2020
3198 Clear 27 1011 24 10000 4 260 11:57 11.05.2020
3199 Clear 27 1011 24 10000 4 210 11:38 11.05.2020
3200 Clear 27 1011 24 10000 4 210 11:38 11.05.2020
3201 Clear 27 1011 24 10000 4 210 11:20 11.05.2020
3202 Clear 26 1011 27 10000 4 200 10:56 11.05.2020
3203 Clear 27 1011 24 10000 4 240 10:38 11.05.2020
3204 Clear 27 1011 24 10000 4 240 10:20 11.05.2020
3205 Clear 27 1011 26 10000 5 220 09:56 11.05.2020
3206 Clear 26 1011 29 10000 4 200 09:37 11.05.2020
3207 Clear 26 1011 29 10000 4 190 09:18 11.05.2020
3208 Clear 25 1011 31 10000 3 220 08:42 11.05.2020
3209 Clouds 25 1011 31 10000 3 220 08:23 11.05.2020
3210 Clouds 25 1011 33 10000 3 180 07:56 11.05.2020
3211 Clouds 24 1011 33 10000 3 200 07:38 11.05.2020
3212 Clouds 24 1011 33 10000 3 200 07:19 11.05.2020
3213 Clouds 21 1011 43 10000 3 210 06:34 11.05.2020
3214 Clouds 20 1011 45 10000 2 220 05:51 11.05.2020
3215 Clouds 20 1011 45 10000 3 200 05:21 11.05.2020
3216 Clouds 18 1011 52 10000 2 200 03:52 11.05.2020
3217 Clouds 16 1011 59 10000 2 190 02:36 11.05.2020
3218 Clouds 15 1011 58 10000 2 190 01:55 11.05.2020
3219 Clouds 15 1011 58 10000 3 190 00:56 11.05.2020
3220 Clouds 15 1011 58 10000 2 190 00:38 11.05.2020
3221 Clouds 17 1011 51 10000 2 190 00:18 11.05.2020
3222 Clouds 18 1012 45 10000 2 180 23:39 10.05.2020
3223 Clouds 18 1012 45 10000 2 190 23:19 10.05.2020
3224 Clouds 18 1012 45 10000 2 190 22:54 10.05.2020
3225 Clouds 19 1012 42 10000 2 190 22:36 10.05.2020
3226 Clouds 19 1012 42 10000 2 190 22:18 10.05.2020
3227 Clouds 19 1012 42 10000 2 190 21:41 10.05.2020
3228 Clouds 19 1012 42 10000 2 180 21:18 10.05.2020
3229 Clouds 19 1012 42 10000 2 170 20:42 10.05.2020
3230 Clouds 19 1012 42 10000 2 170 20:24 10.05.2020
3231 Clouds 21 1012 32 10000 3 190 19:56 10.05.2020
3232 Clouds 21 1012 32 10000 2 210 19:38 10.05.2020
3233 Clouds 22 1012 30 10000 3 200 19:20 10.05.2020
3234 Clouds 21 1012 32 10000 2 210 19:20 10.05.2020
3235 Clouds 22 1012 30 10000 3 200 18:55 10.05.2020
3236 Clouds 22 1012 30 10000 3 190 18:36 10.05.2020
3237 Clouds 23 1012 28 10000 3 200 18:18 10.05.2020
3238 Clouds 23 1012 28 10000 3 200 17:57 10.05.2020
3239 Clouds 23 1012 31 10000 2 200 17:37 10.05.2020
3240 Clouds 23 1012 31 10000 2 200 17:19 10.05.2020
3241 Clouds 25 1012 25 10000 3 200 16:43 10.05.2020
3242 Clouds 25 1012 25 10000 3 200 16:21 10.05.2020
3243 Clouds 26 1012 22 10000 3 200 15:58 10.05.2020
3244 Clouds 27 1013 19 10000 4 230 15:39 10.05.2020
3245 Clouds 27 1013 19 10000 4 230 15:39 10.05.2020
3246 Clouds 27 1013 19 10000 4 230 15:20 10.05.2020
3247 Clouds 27 1013 19 10000 5 220 14:55 10.05.2020
3248 Clouds 27 1013 21 10000 7 220 14:37 10.05.2020
3249 Clouds 28 1013 18 10000 6 230 14:18 10.05.2020
3250 Clouds 28 1013 18 10000 6 230 13:56 10.05.2020
3251 Clouds 28 1013 18 10000 6 220 13:36 10.05.2020
3252 Clouds 28 1013 18 10000 6 220 13:36 10.05.2020
3253 Clouds 28 1013 18 10000 6 220 13:36 10.05.2020
3254 Clouds 28 1014 20 10000 6 220 13:18 10.05.2020
3255 Clouds 28 1014 20 10000 6 220 12:42 10.05.2020
3256 Clouds 28 1014 20 10000 6 220 12:22 10.05.2020
3257 Clouds 27 1014 22 10000 7 210 11:58 10.05.2020
3258 Clouds 28 1014 21 10000 7 220 11:40 10.05.2020
3259 Clouds 28 1014 21 10000 7 220 11:21 10.05.2020
3260 Clouds 27 1014 22 10000 7 220 10:54 10.05.2020
3261 Clouds 27 1014 24 10000 8 230 10:36 10.05.2020
3262 Clouds 27 1015 24 10000 9 230 10:18 10.05.2020
3263 Clouds 27 1015 26 10000 8 230 09:41 10.05.2020
3264 Clear 27 1015 26 10000 8 230 09:23 10.05.2020
3265 Clear 26 1015 27 10000 8 220 08:55 10.05.2020
3266 Clear 26 1015 27 10000 6 220 08:37 10.05.2020
3267 Clear 26 1015 27 10000 6 220 08:19 10.05.2020
3268 Clear 26 1015 27 10000 5 210 07:38 10.05.2020
3269 Clouds 26 1015 27 10000 5 210 07:19 10.05.2020
3270 Clouds 25 1015 29 10000 5 200 06:50 10.05.2020
3271 Clouds 24 1015 29 10000 5 200 06:23 10.05.2020
3272 Clouds 22 1016 35 10000 4 220 05:45 10.05.2020
3273 Clouds 20 1016 42 10000 2 160 04:45 10.05.2020
3274 Clouds 20 1016 42 10000 2 160 04:25 10.05.2020
3275 Clouds 17 1016 55 10000 2 160 03:44 10.05.2020
3276 Clouds 15 1017 62 10000 1 0 02:59 10.05.2020
3277 Clear 14 1017 67 10000 2.58 186 02:25 10.05.2020
3278 Clear 13 1017 71 10000 2.58 186 01:57 10.05.2020
3279 Clear 13 1017 76 10000 1 160 01:39 10.05.2020
3280 Clear 12 1017 100 9000 1 180 01:18 10.05.2020
3281 Clear 12 1017 100 9000 1 180 00:52 10.05.2020
3282 Clear 11 1017 93 9000 2 180 00:20 10.05.2020
3283 Clear 11 1017 81 10000 1.88 183 23:40 09.05.2020
3284 Clear 11 1017 81 10000 0.91 193 23:21 09.05.2020
3285 Clear 11 1017 81 10000 0.91 193 22:58 09.05.2020
3286 Clear 12 1016 71 10000 0.91 193 22:39 09.05.2020
3287 Clear 12 1016 71 10000 0.02 27 22:21 09.05.2020
3288 Clear 13 1017 71 10000 0.02 27 21:56 09.05.2020
3289 Clear 14 1016 67 10000 0.02 27 21:38 09.05.2020
3290 Clear 14 1016 67 10000 0.86 55 21:19 09.05.2020
3291 Clear 14 1016 71 9000 0.86 55 20:56 09.05.2020
3292 Clear 14 1016 67 9000 0.86 55 20:37 09.05.2020
3293 Clouds 15 1016 67 9000 0.81 21 20:18 09.05.2020
3294 Clouds 16 1016 59 8000 0.81 21 19:40 09.05.2020
3295 Clouds 16 1016 59 8000 0.46 266 19:20 09.05.2020
3296 Clouds 16 1016 59 9000 0.46 266 18:58 09.05.2020
3297 Clouds 18 1016 52 10000 0.46 266 18:40 09.05.2020
3298 Clouds 18 1016 52 10000 1.32 254 18:19 09.05.2020
3299 Clouds 22 1016 35 10000 1 0 17:44 09.05.2020
3300 Clouds 22 1016 35 10000 1 0 17:23 09.05.2020
3301 Clouds 25 1016 27 10000 3 250 16:55 09.05.2020
3302 Clouds 25 1015 29 10000 5 270 16:37 09.05.2020
3303 Clear 26 1015 24 10000 6 260 16:18 09.05.2020
3304 Clear 26 1015 24 10000 6 260 16:18 09.05.2020
3305 Clear 27 1015 22 10000 6 260 15:40 09.05.2020
3306 Clear 27 1015 22 10000 6 260 15:21 09.05.2020
3307 Clear 27 1015 22 10000 7 250 14:43 09.05.2020
3308 Clouds 27 1015 22 10000 7 250 14:20 09.05.2020
3309 Clouds 28 1015 21 10000 7 260 13:59 09.05.2020
3310 Clouds 27 1015 21 10000 9 250 13:41 09.05.2020
3311 Clouds 27 1015 21 10000 9 250 13:21 09.05.2020
3312 Clouds 28 1015 18 10000 9 240 12:57 09.05.2020
3313 Clouds 28 1015 18 10000 9 240 12:57 09.05.2020
3314 Clouds 27 1015 19 10000 8 240 12:39 09.05.2020
3315 Clouds 27 1015 19 10000 8 240 12:21 09.05.2020
3316 Clouds 28 1014 18 10000 9 240 11:43 09.05.2020
3317 Clouds 28 1014 18 10000 9 240 11:20 09.05.2020
3318 Clouds 27 1015 22 10000 8 250 10:48 09.05.2020
3319 Clouds 27 1015 22 10000 8 250 10:27 09.05.2020
3320 Clouds 26 1014 24 10000 8 240 09:59 09.05.2020
3321 Clouds 26 1015 26 10000 8 230 09:40 09.05.2020
3322 Clouds 26 1015 26 10000 8 230 09:19 09.05.2020
3323 Clouds 25 1014 27 10000 7 240 08:52 09.05.2020
3324 Clouds 24 1015 27 10000 7 230 08:33 09.05.2020
3325 Clouds 24 1015 27 10000 7 230 08:33 09.05.2020
3326 Clouds 24 1015 29 10000 7 220 07:55 09.05.2020
3327 Clouds 23 1014 31 10000 7 220 07:36 09.05.2020
3328 Clouds 22 1015 33 10000 6 220 07:18 09.05.2020
3329 Clouds 21 1015 35 10000 6 230 06:26 09.05.2020
3330 Clouds 20 1015 37 10000 6 220 05:49 09.05.2020
3331 Clouds 18 1015 42 10000 5 220 04:58 09.05.2020
3332 Clouds 17 1015 42 10000 5 230 03:39 09.05.2020
3333 Clouds 17 1015 42 10000 4 220 02:53 09.05.2020
3334 Clouds 17 1015 42 10000 4 220 02:23 09.05.2020
3335 Clouds 17 1015 42 10000 4 220 01:47 09.05.2020
3336 Clouds 17 1015 42 10000 4 220 01:20 09.05.2020
3337 Clouds 17 1015 42 10000 4 220 00:40 09.05.2020
3338 Clouds 17 1015 42 10000 4 230 23:58 08.05.2020
3339 Clouds 17 1015 42 10000 4 230 23:58 08.05.2020
3340 Clouds 18 1015 39 10000 4 220 23:39 08.05.2020
3341 Clouds 17 1015 45 10000 4 220 23:19 08.05.2020
3342 Clouds 17 1015 45 10000 4 220 22:54 08.05.2020
3343 Clouds 18 1015 42 10000 4 210 22:36 08.05.2020
3344 Clouds 18 1015 42 10000 4 220 22:18 08.05.2020
3345 Clouds 18 1015 42 10000 4 220 22:18 08.05.2020
3346 Clouds 19 1015 39 10000 3 210 21:42 08.05.2020
3347 Clouds 19 1015 39 10000 3 210 21:19 08.05.2020
3348 Clouds 19 1015 39 10000 3 210 21:19 08.05.2020
3349 Clouds 19 1015 39 10000 4 230 20:59 08.05.2020
3350 Clouds 20 1015 37 10000 4 220 20:41 08.05.2020
3351 Clouds 20 1015 37 10000 4 220 20:23 08.05.2020
3352 Clouds 20 1015 37 10000 3 220 19:55 08.05.2020
3353 Clouds 20 1015 37 10000 4 220 19:37 08.05.2020
3354 Clouds 20 1015 37 10000 3 210 19:19 08.05.2020
3355 Clouds 21 1015 35 10000 3 220 18:43 08.05.2020
3356 Clouds 21 1015 35 10000 3 220 18:25 08.05.2020
3357 Clouds 22 1015 33 10000 2 220 17:42 08.05.2020
3358 Clouds 23 1015 31 10000 3 230 17:20 08.05.2020
3359 Clouds 23 1015 31 10000 3 230 16:54 08.05.2020
3360 Clouds 24 1015 29 10000 3 240 16:36 08.05.2020
3361 Clouds 25 1015 27 10000 4 240 16:18 08.05.2020
3362 Clouds 25 1015 25 10000 6 240 15:42 08.05.2020
3363 Clouds 25 1015 25 10000 6 240 15:20 08.05.2020
3364 Clouds 26 1015 24 10000 6 250 14:55 08.05.2020
3365 Clouds 26 1015 22 10000 9 250 14:37 08.05.2020
3366 Clouds 27 1015 21 10000 7 240 14:18 08.05.2020
3367 Clouds 27 1015 19 10000 8 250 13:41 08.05.2020
3368 Clouds 27 1015 21 10000 8 240 13:20 08.05.2020
3369 Clouds 27 1015 21 10000 8 240 12:55 08.05.2020
3370 Clouds 27 1015 22 10000 9 250 12:37 08.05.2020
3371 Clouds 27 1015 21 10000 8 240 12:18 08.05.2020
3372 Clouds 27 1016 21 10000 8 240 11:44 08.05.2020
3373 Clouds 27 1016 21 10000 8 240 11:23 08.05.2020
3374 Clouds 27 1016 21 10000 8 240 10:58 08.05.2020
3375 Clouds 27 1015 22 10000 5 230 10:40 08.05.2020
3376 Clouds 26 1015 24 10000 6 230 10:19 08.05.2020
3377 Clouds 26 1015 24 10000 6 230 09:54 08.05.2020
3378 Clouds 26 1016 26 10000 5 220 09:36 08.05.2020
3379 Clouds 25 1016 27 10000 5 220 09:18 08.05.2020
3380 Clouds 25 1016 27 10000 5 220 08:40 08.05.2020
3381 Clouds 25 1016 27 10000 5 220 08:21 08.05.2020
3382 Clouds 23 1016 31 10000 5 220 07:41 08.05.2020
3383 Clouds 23 1016 31 10000 5 220 07:23 08.05.2020
3384 Clouds 22 1017 37 10000 5 230 06:49 08.05.2020
3385 Clouds 22 1017 37 10000 5 230 06:20 08.05.2020
3386 Clouds 19 1017 45 10000 4 220 05:36 08.05.2020
3387 Clouds 17 1017 55 10000 4 210 04:21 08.05.2020
3388 Clouds 12 1017 81 10000 1 0 02:32 08.05.2020
3389 Clouds 13 1017 76 10000 2 200 01:44 08.05.2020
3390 Clouds 13 1017 76 10000 2 200 01:21 08.05.2020
3391 Clouds 13 1017 71 10000 2 200 00:48 08.05.2020
3392 Clouds 13 1017 71 10000 2 200 00:28 08.05.2020
3393 Clouds 13 1017 71 10000 3 210 23:57 07.05.2020
3394 Clouds 14 1017 71 10000 2 190 23:39 07.05.2020
3395 Clouds 14 1017 71 10000 2 190 23:21 07.05.2020
3396 Clouds 14 1018 67 10000 3 170 22:42 07.05.2020
3397 Clouds 14 1018 67 10000 3 170 22:21 07.05.2020
3398 Clouds 14 1018 67 10000 2 150 21:58 07.05.2020
3399 Clouds 14 1018 62 10000 2 150 21:39 07.05.2020
3400 Clouds 14 1018 62 10000 2 150 21:20 07.05.2020
3401 Clouds 14 1018 67 10000 3 130 20:59 07.05.2020
3402 Clouds 14 1018 67 10000 2 150 20:41 07.05.2020
3403 Clouds 14 1018 67 10000 2 150 20:20 07.05.2020
3404 Clouds 14 1018 67 10000 2 150 20:20 07.05.2020
3405 Clouds 14 1018 67 10000 2 140 19:50 07.05.2020
3406 Clouds 15 1018 58 10000 2 150 19:24 07.05.2020
3407 Clouds 15 1018 58 10000 2 140 18:59 07.05.2020
3408 Clouds 15 1018 58 10000 3 150 18:40 07.05.2020
3409 Clouds 15 1018 58 10000 3 150 18:21 07.05.2020
3410 Clouds 16 1018 55 10000 3 110 17:43 07.05.2020
3411 Clouds 16 1018 55 10000 3 110 17:21 07.05.2020
3412 Clouds 17 1018 51 10000 3 140 16:43 07.05.2020
3413 Clear 18 1018 48 10000 4 130 16:20 07.05.2020
3414 Clear 18 1018 48 10000 4 130 15:58 07.05.2020
3415 Clear 18 1019 45 10000 4 140 15:39 07.05.2020
3416 Clouds 18 1019 45 10000 4 140 15:19 07.05.2020
3417 Clouds 17 1019 48 10000 4 140 14:59 07.05.2020
3418 Clouds 17 1019 45 10000 4 120 14:41 07.05.2020
3419 Clouds 17 1019 45 10000 4 120 14:19 07.05.2020
3420 Clouds 16 1020 44 10000 4 140 13:42 07.05.2020
3421 Clouds 16 1020 44 10000 4 140 13:24 07.05.2020
3422 Clouds 16 1020 48 10000 4 140 12:44 07.05.2020
3423 Clouds 16 1020 48 10000 4 140 12:20 07.05.2020
3424 Clouds 15 1021 47 10000 3 110 11:58 07.05.2020
3425 Clouds 15 1021 44 10000 3 130 11:38 07.05.2020
3426 Clouds 15 1021 44 10000 3 130 11:20 07.05.2020
3427 Clouds 14 1021 50 10000 3 110 10:41 07.05.2020
3428 Clouds 14 1021 50 10000 3 110 10:22 07.05.2020
3429 Clouds 12 1021 54 10000 3 120 09:41 07.05.2020
3430 Clouds 12 1021 54 10000 3 120 09:20 07.05.2020
3431 Clouds 12 1021 50 10000 4 160 08:57 07.05.2020
3432 Clouds 12 1021 50 10000 3 160 08:38 07.05.2020
3433 Clouds 12 1021 50 10000 3 160 08:20 07.05.2020
3434 Clouds 11 1022 57 10000 2 120 07:44 07.05.2020
3435 Clouds 11 1022 57 10000 2 120 07:25 07.05.2020
3436 Clouds 10 1022 57 10000 2 140 06:48 07.05.2020
3437 Clouds 10 1022 57 10000 2 140 06:24 07.05.2020
3438 Clouds 9 1022 66 10000 2 100 05:30 07.05.2020
3439 Clouds 7 1021 75 10000 3 80 03:55 07.05.2020
3440 Clouds 6 1021 81 10000 3 90 03:25 07.05.2020
3441 Clouds 4 1020 100 10000 2 90 02:42 07.05.2020
3442 Clouds 5 1019 100 10000 3 50 01:44 07.05.2020
3443 Clouds 5 1019 100 10000 3 50 01:23 07.05.2020
3444 Clouds 6 1019 100 10000 3 10 00:45 07.05.2020
3445 Clouds 6 1019 100 10000 3 10 00:27 07.05.2020
3446 Clouds 6 1019 100 10000 2 300 23:47 06.05.2020
3447 Clouds 6 1019 100 10000 2 300 23:25 06.05.2020
3448 Clouds 7 1018 93 10000 2 300 22:58 06.05.2020
3449 Clouds 7 1018 93 10000 2 300 22:58 06.05.2020
3450 Clouds 7 1018 100 10000 2 280 22:39 06.05.2020
3451 Clouds 7 1018 100 10000 2 280 22:19 06.05.2020
3452 Clouds 7 1018 100 10000 2 280 22:19 06.05.2020
3453 Clouds 7 1018 100 10000 2 260 21:56 06.05.2020
3454 Clouds 8 1018 100 10000 3 240 21:38 06.05.2020
3455 Clouds 8 1018 100 10000 3 240 21:19 06.05.2020
3456 Clouds 8 1017 87 10000 3 260 20:42 06.05.2020
3457 Clouds 8 1017 87 10000 3 260 20:24 06.05.2020
3458 Clouds 9 1017 81 10000 2 250 19:58 06.05.2020
3459 Clouds 9 1017 81 10000 2 250 19:58 06.05.2020
3460 Clouds 9 1017 81 10000 3 250 19:39 06.05.2020
3461 Clouds 9 1017 81 10000 3 250 19:20 06.05.2020
3462 Clouds 10 1017 81 8000 2 240 18:59 06.05.2020
3463 Clouds 9 1017 93 9000 1 240 18:40 06.05.2020
3464 Clouds 9 1017 93 9000 1 240 18:40 06.05.2020
3465 Clouds 9 1017 93 9000 1 240 18:21 06.05.2020
3466 Clouds 10 1017 81 10000 2 260 17:59 06.05.2020
3467 Clouds 10 1016 87 10000 2 270 17:39 06.05.2020
3468 Clouds 10 1016 87 10000 2 270 17:21 06.05.2020
3469 Clouds 10 1016 87 10000 2 270 17:21 06.05.2020
3470 Clouds 11 1016 81 10000 1.22 32 16:58 06.05.2020
3471 Clouds 11 1016 81 10000 1.22 32 16:40 06.05.2020
3472 Clouds 11 1016 81 10000 2.05 14 16:21 06.05.2020
3473 Clouds 12 1016 71 10000 2 280 15:58 06.05.2020
3474 Clouds 12 1016 71 10000 2 290 15:40 06.05.2020
3475 Clouds 12 1016 71 10000 2 290 15:21 06.05.2020
3476 Clouds 12 1016 71 10000 2 280 14:55 06.05.2020
3477 Clouds 12 1016 66 10000 3 300 14:36 06.05.2020
3478 Clouds 12 1016 71 10000 4 320 14:18 06.05.2020
3479 Clouds 12 1015 71 10000 5 310 13:43 06.05.2020
3480 Clouds 12 1015 71 10000 5 310 13:24 06.05.2020
3481 Rain 12 1015 76 10000 4 320 12:56 06.05.2020
3482 Rain 12 1015 76 10000 5 310 12:37 06.05.2020
3483 Rain 12 1015 76 10000 5 310 12:19 06.05.2020
3484 Clouds 13 1014 76 10000 6 300 11:40 06.05.2020
3485 Clouds 13 1014 76 10000 6 300 11:21 06.05.2020
3486 Rain 13 1014 82 10000 5 330 10:57 06.05.2020
3487 Rain 14 1014 76 10000 4 310 10:38 06.05.2020
3488 Rain 14 1014 76 10000 4 310 10:19 06.05.2020
3489 Rain 14 1013 82 10000 3 340 09:44 06.05.2020
3490 Rain 14 1013 82 10000 3 340 09:23 06.05.2020
3491 Rain 16 1013 67 10000 4 260 08:49 06.05.2020
3492 Rain 15 1013 72 10000 2 280 08:23 06.05.2020
3493 Rain 15 1013 72 10000 2 260 07:59 06.05.2020
3494 Rain 14 1013 76 10000 2 280 07:39 06.05.2020
3495 Rain 14 1013 76 10000 2 280 07:20 06.05.2020
3496 Rain 13 1013 87 10000 2 300 06:51 06.05.2020
3497 Clouds 11 1014 93 10000 2 240 06:22 06.05.2020
3498 Clouds 11 1014 93 10000 4 200 05:54 06.05.2020
3499 Rain 10 1014 100 10000 3 200 05:36 06.05.2020
3500 Clouds 9 1015 100 10000 1 0 04:31 06.05.2020
3501 Clouds 7 1015 100 10000 1 190 03:38 06.05.2020
3502 Clouds 7 1016 100 8000 1 0 03:19 06.05.2020
3503 Rain 7 1016 100 10000 2.73 220 02:30 06.05.2020
3504 Clouds 7 1016 100 10000 2 210 01:54 06.05.2020
3505 Clouds 7 1016 100 10000 2 210 01:54 06.05.2020
3506 Clouds 7 1017 100 10000 1 0 01:30 06.05.2020
3507 Rain 7 1017 100 10000 2 240 00:53 06.05.2020
3508 Clouds 7 1017 93 10000 2 250 00:23 06.05.2020
3509 Clouds 7 1017 93 10000 2 320 23:56 05.05.2020
3510 Clouds 7 1017 87 10000 2 320 23:37 05.05.2020
3511 Clouds 8 1017 81 10000 3 310 23:18 05.05.2020
3512 Clouds 8 1017 81 10000 3 310 22:41 05.05.2020
3513 Clouds 8 1017 81 10000 3 310 22:19 05.05.2020
3514 Clouds 9 1016 76 10000 4 330 21:57 05.05.2020
3515 Clouds 10 1016 71 10000 4 330 21:38 05.05.2020
3516 Clouds 10 1016 71 10000 4 330 21:19 05.05.2020
3517 Clouds 11 1016 66 10000 4 320 20:56 05.05.2020
3518 Clouds 11 1016 66 10000 6 300 20:38 05.05.2020
3519 Clouds 10 1016 71 10000 4 280 20:18 05.05.2020
3520 Clouds 11 1015 62 10000 3 260 19:42 05.05.2020
3521 Clouds 11 1015 62 10000 3 260 19:24 05.05.2020
3522 Clouds 11 1015 62 10000 3 250 18:58 05.05.2020
3523 Clouds 12 1015 58 10000 4 220 18:40 05.05.2020
3524 Clouds 12 1015 58 10000 4 220 18:20 05.05.2020
3525 Clouds 12 1015 58 10000 4 220 18:20 05.05.2020
3526 Clouds 11 1015 66 10000 3 200 17:58 05.05.2020
3527 Clouds 11 1016 62 10000 3 180 17:39 05.05.2020
3528 Clouds 11 1016 62 10000 3 180 17:21 05.05.2020
3529 Rain 11 1016 62 10000 3 190 16:56 05.05.2020
3530 Rain 11 1016 66 10000 4 190 16:36 05.05.2020
3531 Rain 12 1017 54 10000 4 190 16:18 05.05.2020
3532 Rain 12 1017 54 10000 4 190 16:18 05.05.2020
3533 Clouds 12 1017 54 10000 4 200 15:41 05.05.2020
3534 Clouds 12 1017 54 10000 4 200 15:22 05.05.2020
3535 Clouds 12 1017 54 10000 5 210 14:57 05.05.2020
3536 Rain 12 1018 58 10000 5 220 14:38 05.05.2020
3537 Rain 12 1018 58 10000 5 220 14:20 05.05.2020
3538 Rain 13 1018 50 10000 5 210 13:58 05.05.2020
3539 Clouds 13 1018 43 10000 3 220 13:39 05.05.2020
3540 Clouds 13 1018 43 10000 3 220 13:20 05.05.2020
3541 Clouds 13 1019 43 10000 5 210 12:58 05.05.2020
3542 Rain 13 1019 71 10000 5 210 12:38 05.05.2020
3543 Clouds 13 1019 45 10000 5 210 12:19 05.05.2020
3544 Clouds 12 1020 40 10000 6 220 11:42 05.05.2020
3545 Clouds 12 1020 40 10000 6 220 11:20 05.05.2020
3546 Clouds 13 1020 37 10000 6 220 10:59 05.05.2020
3547 Clouds 12 1021 37 10000 5 240 10:38 05.05.2020
3548 Clouds 12 1021 37 10000 5 240 10:19 05.05.2020
3549 Clouds 11 1021 37 10000 6 240 09:57 05.05.2020
3550 Clouds 11 1021 37 10000 5 230 09:39 05.05.2020
3551 Clouds 11 1021 37 10000 5 230 09:20 05.05.2020
3552 Clouds 8 1022 42 10000 4 220 08:41 05.05.2020
3553 Clouds 8 1022 42 10000 4 220 08:20 05.05.2020
3554 Clouds 8 1022 39 10000 4 210 07:57 05.05.2020
3555 Clouds 7 1023 42 10000 3 220 07:38 05.05.2020
3556 Clouds 7 1023 42 10000 2 230 07:18 05.05.2020
3557 Clouds 6 1023 41 10000 3 270 06:42 05.05.2020
3558 Clouds 6 1023 41 10000 3 270 06:20 05.05.2020
3559 Clouds 4 1023 48 10000 2 250 05:34 05.05.2020
3560 Clear 1 1023 74 10000 2 320 03:24 05.05.2020
3561 Clear -2 1022 92 10000 2 300 01:25 05.05.2020
3562 Clear -2 1022 86 10000 2 300 00:50 05.05.2020
3563 Clear -2 1022 86 10000 2 290 00:19 05.05.2020
3564 Clear -1 1022 80 10000 2 290 23:43 04.05.2020
3565 Clear -1 1022 80 10000 2 290 23:43 04.05.2020
3566 Clear -1 1022 80 10000 2 290 23:21 04.05.2020
3567 Clear -1 1022 80 10000 2 300 22:56 04.05.2020
3568 Clear -1 1022 80 10000 2 300 22:56 04.05.2020
3569 Clear 0 1022 96 10000 2 310 22:37 04.05.2020
3570 Clear 0 1022 96 10000 2 310 22:19 04.05.2020
3571 Clear 0 1021 96 10000 3 330 21:53 04.05.2020
3572 Clear 0 1021 96 10000 3 330 21:52 04.05.2020
3573 Clear 0 1021 96 10000 3 330 21:52 04.05.2020
3574 Clear 0 1021 96 10000 3 330 21:52 04.05.2020
3575 Clear 0 1021 96 10000 3 330 21:52 04.05.2020
3576 Clear 1 1021 64 10000 3 330 21:30 04.05.2020
3577 Clear 1 1021 64 10000 3 330 21:30 04.05.2020
3578 Clear 1 1021 64 10000 3 330 21:30 04.05.2020
3579 Clear 1 1021 64 10000 3 330 21:30 04.05.2020
3580 Clear 1 1021 64 10000 3 330 21:30 04.05.2020
3581 Clear 2 1021 59 10000 4 330 20:44 04.05.2020
3582 Clouds 2 1021 59 10000 4 330 20:23 04.05.2020
3583 Clouds 3 1021 55 10000 4 330 19:59 04.05.2020
3584 Clouds 3 1021 59 10000 4 330 19:40 04.05.2020
3585 Clouds 3 1021 59 10000 4 330 19:20 04.05.2020
3586 Clouds 3 1021 59 10000 4 330 18:55 04.05.2020
3587 Clouds 2 1021 64 10000 4 330 18:36 04.05.2020
3588 Clouds 3 1021 59 10000 4 330 18:18 04.05.2020
3589 Clouds 3 1021 59 10000 4 330 17:54 04.05.2020
3590 Clouds 3 1020 59 10000 4 330 17:36 04.05.2020
3591 Clouds 3 1020 59 10000 4 330 17:18 04.05.2020
3592 Clouds 4 1020 55 10000 6 330 16:41 04.05.2020
3593 Clouds 4 1020 55 10000 6 330 16:20 04.05.2020
3594 Clouds 5 1019 56 10000 6 340 15:45 04.05.2020
3595 Clouds 5 1019 56 10000 6 340 15:24 04.05.2020
3596 Clouds 5 1019 52 10000 6 340 14:55 04.05.2020
3597 Clouds 5 1019 56 10000 6 340 14:35 04.05.2020
3598 Clouds 5 1019 56 10000 6 340 14:35 04.05.2020
3599 Clouds 5 1019 56 10000 6 340 14:35 04.05.2020
3600 Clouds 5 1019 56 10000 6 340 14:35 04.05.2020
3601 Clouds 5 1019 56 10000 6 340 14:35 04.05.2020
3602 Clouds 5 1018 56 10000 7 320 13:40 04.05.2020
3603 Clouds 5 1018 56 10000 6 340 12:45 04.05.2020
3604 Clouds 5 1018 56 10000 6 340 12:45 04.05.2020
3605 Clouds 5 1018 56 10000 6 340 12:45 04.05.2020
3606 Clouds 5 1017 56 10000 6 320 11:39 04.05.2020
3607 Clouds 5 1017 56 10000 6 320 11:39 04.05.2020
3608 Clouds 5 1017 56 10000 6 320 11:39 04.05.2020
3609 Clouds 5 1017 56 10000 6 320 11:38 04.05.2020
3610 Clouds 5 1017 56 10000 6 320 11:38 04.05.2020
3611 Clouds 3 1016 59 10000 7 310 09:32 04.05.2020
3612 Clouds 3 1016 59 10000 7 310 09:32 04.05.2020
3613 Clouds 3 1016 59 10000 7 310 09:32 04.05.2020
3614 Clouds 3 1016 59 10000 7 310 09:32 04.05.2020
3615 Clouds 3 1016 55 10000 7 320 08:26 04.05.2020
3616 Clouds 3 1016 55 10000 7 320 08:26 04.05.2020
3617 Clouds 2 1016 59 10000 8 310 07:42 04.05.2020
3618 Clouds 1 1015 64 10000 6 310 06:36 04.05.2020
3619 Clouds 1 1015 64 10000 6 310 06:36 04.05.2020
3620 Clouds 1 1015 64 10000 6 310 06:36 04.05.2020
3621 Clouds 1 1015 64 10000 6 310 06:36 04.05.2020
3622 Clouds 1 1015 64 10000 6 310 06:36 04.05.2020
3623 Clouds 1 1014 69 10000 7 320 04:55 04.05.2020
3624 Clouds 0 1013 92 10000 5 330 03:18 04.05.2020
3625 Clouds 0 1013 92 10000 5 330 03:18 04.05.2020
3626 Clouds 0 1013 92 10000 5 330 02:30 04.05.2020
3627 Clouds 1 1012 94 10000 5 330 00:36 04.05.2020
3628 Rain 2 1011 100 10000 5 320 23:45 03.05.2020
3629 Rain 2 1011 100 10000 5 320 23:24 03.05.2020
3630 Rain 2 1011 100 10000 4 320 22:56 03.05.2020
3631 Rain 1 1011 100 7000 5 330 22:38 03.05.2020
3632 Rain 1 1011 100 5000 5 320 22:18 03.05.2020
3633 Rain 1 1011 100 6000 5 320 21:41 03.05.2020
3634 Rain 1 1011 100 6000 5 320 21:20 03.05.2020
3635 Rain 2 1010 100 5000 5 300 20:47 03.05.2020
3636 Rain 2 1010 100 5000 5 300 20:22 03.05.2020
3637 Rain 2 1010 100 6000 5 300 19:55 03.05.2020
3638 Rain 2 1010 100 6000 5 300 19:55 03.05.2020
3639 Rain 2 1010 100 6000 5 300 19:55 03.05.2020
3640 Rain 2 1010 100 8000 6 300 19:36 03.05.2020
3641 Rain 2 1010 100 8000 6 300 19:36 03.05.2020
3642 Rain 2 1010 100 10000 4 290 19:18 03.05.2020
3643 Rain 2 1010 100 10000 5 280 18:39 03.05.2020
3644 Rain 2 1010 100 10000 5 280 18:39 03.05.2020
3645 Rain 2 1010 100 10000 5 280 18:39 03.05.2020
3646 Rain 2 1010 100 10000 5 280 18:19 03.05.2020
3647 Rain 2 1010 100 10000 5 290 17:42 03.05.2020
3648 Rain 2 1010 100 10000 5 290 17:22 03.05.2020
3649 Rain 2 1010 100 10000 5 290 17:22 03.05.2020
3650 Clouds 3 1010 86 10000 5 290 16:56 03.05.2020
3651 Clouds 3 1010 86 10000 5 290 16:56 03.05.2020
3652 Clouds 3 1010 78 10000 6 310 16:37 03.05.2020
3653 Rain 4 1010 74 10000 6 290 16:18 03.05.2020
3654 Rain 4 1010 74 10000 6 290 15:55 03.05.2020
3655 Clouds 4 1010 74 10000 5 300 15:36 03.05.2020
3656 Rain 3 1010 86 10000 4 310 15:18 03.05.2020
3657 Rain 3 1010 86 10000 4 310 15:18 03.05.2020
3658 Rain 3 1010 93 10000 4 310 14:41 03.05.2020
3659 Rain 3 1010 93 10000 4 310 14:22 03.05.2020
3660 Clouds 4 1010 80 10000 6 280 13:56 03.05.2020
3661 Rain 3 1010 93 10000 4 290 13:33 03.05.2020
3662 Rain 3 1010 93 10000 4 290 13:33 03.05.2020
3663 Rain 3 1010 93 10000 4 290 13:33 03.05.2020
3664 Rain 3 1010 93 10000 4 290 13:33 03.05.2020
3665 Rain 3 1010 93 10000 4 290 13:33 03.05.2020
3666 Clouds 4 1009 69 10000 8 290 12:47 03.05.2020
3667 Clouds 4 1009 69 10000 8 290 12:20 03.05.2020
3668 Clouds 5 1009 65 10000 8 280 11:57 03.05.2020
3669 Clouds 5 1009 65 10000 8 280 11:57 03.05.2020
3670 Clouds 4 1009 69 10000 7 290 11:39 03.05.2020
3671 Clouds 4 1009 69 10000 7 290 11:19 03.05.2020
3672 Clouds 4 1009 69 10000 7 300 10:49 03.05.2020
3673 Clouds 4 1009 69 10000 7 300 10:49 03.05.2020
3674 Rain 3 1008 86 10000 5 290 10:01 03.05.2020
3675 Rain 3 1008 86 10000 5 290 10:01 03.05.2020
3676 Rain 3 1008 86 10000 5 290 10:01 03.05.2020
3677 Rain 3 1008 86 10000 5 290 10:01 03.05.2020
3678 Clouds 4 1008 69 10000 6 290 09:39 03.05.2020
3679 Clouds 4 1008 69 10000 6 310 08:57 03.05.2020
3680 Clouds 4 1008 69 10000 6 310 08:57 03.05.2020
3681 Clouds 4 1008 69 10000 6 310 08:57 03.05.2020
3682 Clouds 3 1008 81 10000 5 310 08:27 03.05.2020
3683 Rain 3 1008 86 10000 5 290 07:40 03.05.2020
3684 Rain 3 1008 86 10000 5 290 07:40 03.05.2020
3685 Rain 3 1007 86 10000 6 310 06:31 03.05.2020
3686 Rain 3 1007 86 10000 6 310 06:31 03.05.2020
3687 Rain 3 1007 86 10000 6 310 06:31 03.05.2020
3688 Clouds 3 1007 86 10000 5 300 05:49 03.05.2020
3689 Clouds 3 1007 86 10000 4 310 05:29 03.05.2020
3690 Clouds 3 1007 93 10000 4 320 04:27 03.05.2020
3691 Clouds 3 1007 93 10000 4 320 04:27 03.05.2020
3692 Rain 2 1006 100 10000 3 350 03:29 03.05.2020
3693 Clouds 2 1006 100 10000 3 340 02:30 03.05.2020
3694 Clouds 3 1006 86 10000 2 350 01:46 03.05.2020
3695 Clouds 3 1006 86 10000 2 350 01:27 03.05.2020
3696 Clouds 3 1007 86 10000 1 360 00:56 03.05.2020
3697 Clouds 3 1006 86 10000 1 10 00:38 03.05.2020
3698 Clouds 3 1006 86 10000 1 10 00:19 03.05.2020
3699 Clouds 3 1007 86 10000 2 10 23:44 02.05.2020
3700 Clouds 3 1007 86 10000 2 10 23:25 02.05.2020
3701 Clouds 3 1007 86 10000 2 30 22:44 02.05.2020
3702 Clouds 3 1007 86 10000 2 30 22:24 02.05.2020
3703 Clouds 3 1007 86 10000 1 20 21:58 02.05.2020
3704 Clouds 3 1007 86 10000 1 0 21:40 02.05.2020
3705 Clouds 3 1007 86 10000 1 0 21:19 02.05.2020
3706 Clouds 4 1007 80 10000 2 70 20:57 02.05.2020
3707 Clouds 4 1008 80 10000 2 60 20:37 02.05.2020
3708 Clouds 4 1008 80 10000 2 60 20:19 02.05.2020
3709 Clouds 4 1008 80 10000 2 60 19:57 02.05.2020
3710 Clouds 4 1008 80 10000 2 40 19:38 02.05.2020
3711 Clouds 4 1008 80 10000 2 40 19:38 02.05.2020
3712 Clouds 4 1008 80 10000 2 30 19:19 02.05.2020
3713 Clouds 4 1008 80 10000 2 30 18:55 02.05.2020
3714 Clouds 4 1008 80 10000 2 40 18:36 02.05.2020
3715 Clouds 4 1009 80 10000 2 40 18:18 02.05.2020
3716 Clouds 5 1009 75 10000 3 30 17:39 02.05.2020
3717 Clouds 5 1009 75 10000 3 30 17:20 02.05.2020
3718 Clouds 5 1009 75 10000 3 20 16:59 02.05.2020
3719 Clouds 5 1009 75 10000 3 10 16:39 02.05.2020
3720 Clouds 5 1009 75 10000 3 10 16:21 02.05.2020
3721 Clouds 6 1009 70 10000 3 10 15:43 02.05.2020
3722 Clouds 6 1009 70 10000 3 10 15:20 02.05.2020
3723 Clouds 6 1009 70 10000 3 10 15:20 02.05.2020
3724 Clouds 6 1009 70 10000 3 10 14:58 02.05.2020
3725 Clouds 7 1009 65 10000 3 360 14:39 02.05.2020
3726 Clouds 7 1009 65 10000 3 360 14:20 02.05.2020
3727 Clouds 6 1009 70 10000 3 340 13:40 02.05.2020
3728 Clouds 6 1009 70 10000 3 340 13:22 02.05.2020
3729 Clouds 7 1009 65 10000 4 310 12:44 02.05.2020
3730 Clouds 7 1009 65 10000 4 310 12:25 02.05.2020
3731 Clouds 6 1009 70 10000 4 330 11:59 02.05.2020
3732 Clouds 7 1009 65 10000 5 280 11:41 02.05.2020
3733 Clouds 7 1009 65 10000 5 280 11:22 02.05.2020
3734 Clouds 6 1009 70 10000 5 280 10:58 02.05.2020
3735 Clouds 6 1009 70 10000 4 290 10:38 02.05.2020
3736 Clouds 6 1009 70 10000 4 290 10:20 02.05.2020
3737 Clouds 6 1009 70 10000 4 290 10:20 02.05.2020
3738 Clouds 5 1009 75 10000 5 300 09:57 02.05.2020
3739 Clouds 5 1009 75 10000 5 280 09:38 02.05.2020
3740 Clouds 5 1009 75 10000 5 280 09:20 02.05.2020
3741 Clouds 5 1009 67 10000 5 280 08:46 02.05.2020
3742 Clouds 5 1009 68 10000 5 280 08:27 02.05.2020
3743 Clouds 4 1009 68 10000 5 280 07:48 02.05.2020
3744 Clouds 4 1009 73 10000 5 280 07:29 02.05.2020
3745 Clouds 3 1009 86 10000 4 290 06:51 02.05.2020
3746 Rain 3 1009 93 10000 4 300 05:30 02.05.2020
3747 Clouds 3 1009 86 10000 4 300 04:59 02.05.2020
3748 Clouds 2 1009 100 10000 4 290 04:25 02.05.2020
3749 Clouds 2 1008 93 10000 4 310 02:44 02.05.2020
3750 Clouds 2 1008 93 10000 4 310 02:26 02.05.2020
3751 Clouds 2 1008 93 10000 3 320 01:50 02.05.2020
3752 Clouds 2 1008 100 10000 4 310 00:49 02.05.2020
3753 Clouds 2 1007 93 10000 4 310 00:29 02.05.2020
3754 Clouds 2 1007 100 10000 4 300 23:58 01.05.2020
3755 Clouds 2 1007 100 10000 4 310 23:39 01.05.2020
3756 Clouds 2 1007 100 10000 4 310 23:20 01.05.2020
3757 Clouds 2 1007 100 10000 3 310 22:55 01.05.2020
3758 Clouds 2 1007 100 10000 3 310 22:55 01.05.2020
3759 Clouds 2 1007 100 10000 4 310 22:37 01.05.2020
3760 Clouds 2 1007 100 10000 4 310 22:18 01.05.2020
3761 Clouds 2 1007 100 10000 4 310 22:18 01.05.2020
3762 Clouds 2 1007 100 10000 4 310 21:55 01.05.2020
3763 Clouds 2 1007 100 10000 3 330 21:36 01.05.2020
3764 Clouds 2 1007 100 10000 3 330 21:18 01.05.2020
3765 Clouds 2 1007 100 10000 3 330 20:54 01.05.2020
3766 Clouds 2 1007 100 10000 3 340 20:36 01.05.2020
3767 Clouds 2 1007 100 10000 4 350 20:18 01.05.2020
3768 Clouds 2 1007 100 10000 4 350 19:41 01.05.2020
3769 Clouds 2 1007 100 10000 4 350 19:22 01.05.2020
3770 Clouds 2 1007 100 10000 3 340 18:57 01.05.2020
3771 Clouds 3 1007 93 10000 4 340 18:38 01.05.2020
3772 Clouds 3 1007 93 10000 4 340 18:19 01.05.2020
3773 Clouds 3 1006 93 10000 3 350 17:56 01.05.2020
3774 Clouds 3 1006 93 10000 3 350 17:37 01.05.2020
3775 Clouds 3 1006 93 10000 3 350 17:37 01.05.2020
3776 Clouds 3 1006 93 10000 3 350 17:19 01.05.2020
3777 Clouds 3 1006 93 10000 3 360 16:55 01.05.2020
3778 Clouds 4 1006 86 10000 2 360 16:37 01.05.2020
3779 Clouds 4 1005 80 10000 3 30 16:18 01.05.2020
3780 Clouds 4 1005 86 10000 3 30 15:42 01.05.2020
3781 Clouds 4 1005 86 10000 3 30 15:23 01.05.2020
3782 Clouds 4 1005 86 10000 3 30 14:54 01.05.2020
3783 Clouds 4 1005 86 10000 3 40 14:36 01.05.2020
3784 Clouds 4 1005 86 10000 3 40 14:18 01.05.2020
3785 Clouds 4 1005 100 10000 4 70 13:40 01.05.2020
3786 Clouds 4 1005 100 10000 4 70 13:22 01.05.2020
3787 Clouds 4 1005 100 10000 4 50 12:56 01.05.2020
3788 Clouds 4 1004 100 10000 4 50 12:37 01.05.2020
3789 Clouds 5 1004 100 10000 4 70 12:19 01.05.2020
3790 Clouds 5 1004 93 10000 4 50 11:47 01.05.2020
3791 Clouds 5 1004 93 10000 4 50 11:26 01.05.2020
3792 Clouds 5 1004 100 10000 4 40 10:59 01.05.2020
3793 Clouds 6 1004 87 10000 3 20 10:40 01.05.2020
3794 Clouds 6 1004 87 10000 2 360 10:20 01.05.2020
3795 Clouds 6 1003 87 10000 3 20 09:44 01.05.2020
3796 Clouds 6 1003 87 10000 3 20 09:21 01.05.2020
3797 Clouds 6 1004 87 10000 2 20 08:59 01.05.2020
3798 Clouds 5 1004 100 10000 2 360 08:41 01.05.2020
3799 Clouds 5 1004 100 10000 2 360 08:22 01.05.2020
3800 Drizzle 4 1004 100 6000 2 350 07:46 01.05.2020
3801 Drizzle 4 1004 100 6000 2 350 07:23 01.05.2020
3802 Drizzle 4 1004 100 9000 2 20 06:51 01.05.2020
3803 Clouds 3 1004 100 10000 2 10 05:36 01.05.2020
3804 Clouds 2 1004 100 10000 3 330 04:49 01.05.2020
3805 Clouds 1 1005 100 10000 2 310 03:31 01.05.2020
3806 Clouds 1 1004 100 10000 3 300 02:45 01.05.2020
3807 Clouds 1 1004 100 10000 3 300 02:25 01.05.2020
3808 Clouds 1 1004 100 10000 4 320 01:29 01.05.2020
3809 Clouds 2 1004 100 10000 3 300 00:59 01.05.2020
3810 Clouds 2 1004 100 10000 4 330 00:37 01.05.2020
3811 Clouds 2 1004 100 10000 4 330 00:37 01.05.2020
3812 Clouds 2 1004 100 10000 4 330 00:19 01.05.2020
3813 Clouds 2 1004 100 10000 4 310 23:55 30.04.2020
3814 Clouds 2 1004 100 10000 4 310 23:55 30.04.2020
3815 Clouds 2 1004 100 10000 4 320 23:37 30.04.2020
3816 Clouds 2 1004 100 10000 4 320 23:18 30.04.2020
3817 Clouds 3 1003 100 10000 3 310 22:41 30.04.2020
3818 Clouds 3 1003 100 10000 3 310 22:21 30.04.2020
3819 Clouds 3 1003 100 10000 3 320 21:56 30.04.2020
3820 Clouds 3 1003 100 10000 2 340 21:38 30.04.2020
3821 Clouds 3 1003 100 10000 2 340 21:19 30.04.2020
3822 Clouds 3 1003 100 10000 3 310 20:54 30.04.2020
3823 Clouds 3 1003 100 10000 3 310 20:36 30.04.2020
3824 Clouds 4 1003 93 10000 3 310 20:18 30.04.2020
3825 Clouds 5 1003 86 10000 3 320 19:42 30.04.2020
3826 Clouds 5 1003 86 10000 3 320 19:23 30.04.2020
3827 Clouds 5 1003 86 10000 3 300 18:56 30.04.2020
3828 Clouds 6 1003 75 10000 4 290 18:37 30.04.2020
3829 Clouds 6 1003 75 10000 4 290 18:19 30.04.2020
3830 Clouds 6 1003 81 10000 3 290 17:56 30.04.2020
3831 Clouds 6 1003 87 10000 4 290 17:37 30.04.2020
3832 Clouds 6 1003 81 10000 4 290 17:19 30.04.2020
3833 Clouds 6 1003 81 10000 4 290 16:54 30.04.2020
3834 Clouds 7 1002 75 10000 5 300 16:36 30.04.2020
3835 Clouds 7 1002 81 10000 4 320 16:18 30.04.2020
3836 Clouds 8 1002 75 10000 4 330 15:44 30.04.2020
3837 Clouds 8 1002 75 10000 4 330 15:21 30.04.2020
3838 Clouds 8 1002 81 10000 6 330 14:42 30.04.2020
3839 Clouds 8 1002 81 10000 6 330 14:22 30.04.2020
3840 Clouds 9 1002 76 10000 6 320 13:59 30.04.2020
3841 Clouds 10 1001 76 10000 5 340 13:40 30.04.2020
3842 Clouds 10 1001 76 10000 5 340 13:22 30.04.2020
3843 Clouds 10 1001 71 10000 4 320 12:59 30.04.2020
3844 Clouds 10 1001 71 10000 5 300 12:40 30.04.2020
3845 Clouds 10 1001 71 10000 4 280 12:19 30.04.2020
3846 Clouds 10 1001 71 10000 6 280 11:38 30.04.2020
3847 Clouds 10 1001 71 10000 6 280 11:19 30.04.2020
3848 Clouds 10 1001 76 10000 5 280 10:58 30.04.2020
3849 Clouds 9 1001 81 10000 6 280 10:38 30.04.2020
3850 Clouds 9 1001 81 10000 6 280 10:20 30.04.2020
3851 Clouds 8 1001 93 10000 4 250 09:55 30.04.2020
3852 Clouds 8 1001 100 10000 5 250 09:37 30.04.2020
3853 Clouds 8 1000 100 10000 6 250 09:18 30.04.2020
3854 Clouds 8 1000 100 10000 5 260 08:43 30.04.2020
3855 Clouds 8 1000 100 10000 5 260 08:23 30.04.2020
3856 Clouds 7 1000 100 10000 6 280 07:43 30.04.2020
3857 Clouds 7 1000 100 10000 6 280 07:25 30.04.2020
3858 Clouds 7 1000 100 10000 6 250 06:51 30.04.2020
3859 Rain 7 999 100 10000 5 250 05:56 30.04.2020
3860 Rain 7 999 100 10000 5 240 05:36 30.04.2020
3861 Rain 7 998 100 10000 5 240 04:33 30.04.2020
3862 Rain 8 998 100 10000 6 240 03:57 30.04.2020
3863 Rain 8 996 100 8000 5 240 02:46 30.04.2020
3864 Rain 8 996 100 8000 5 240 02:24 30.04.2020
3865 Rain 9 996 100 9000 4 220 01:35 30.04.2020
3866 Rain 9 996 100 10000 3 220 00:42 30.04.2020
3867 Rain 9 996 100 10000 3 220 00:19 30.04.2020
3868 Rain 8 996 100 7000 2 100 23:57 29.04.2020
3869 Rain 8 996 100 8000 3 90 23:37 29.04.2020
3870 Rain 8 996 100 9000 4 110 23:18 29.04.2020
3871 Rain 8 996 100 9000 6 110 22:40 29.04.2020
3872 Rain 8 996 100 9000 6 110 22:21 29.04.2020
3873 Rain 8 997 100 9000 5 110 21:57 29.04.2020
3874 Rain 8 997 100 9000 5 90 21:37 29.04.2020
3875 Rain 8 997 100 10000 6 110 21:18 29.04.2020
3876 Rain 8 997 100 10000 6 110 20:55 29.04.2020
3877 Rain 8 997 100 9000 5 120 20:36 29.04.2020
3878 Rain 8 998 100 10000 5 120 20:18 29.04.2020
3879 Rain 8 998 100 10000 6 130 19:42 29.04.2020
3880 Rain 8 998 100 10000 6 130 19:20 29.04.2020
3881 Clouds 10 997 76 10000 5 120 18:43 29.04.2020
3882 Clouds 10 997 76 10000 5 120 18:25 29.04.2020
3883 Clouds 10 998 76 10000 6 110 17:58 29.04.2020
3884 Clouds 10 998 76 10000 6 110 17:40 29.04.2020
3885 Clouds 10 998 76 10000 6 110 17:21 29.04.2020
3886 Clouds 10 998 81 10000 4 100 16:39 29.04.2020
3887 Clouds 10 998 81 10000 4 100 16:20 29.04.2020
3888 Clouds 10 997 81 10000 5 90 15:58 29.04.2020
3889 Clouds 10 997 81 10000 5 80 15:39 29.04.2020
3890 Clouds 10 997 81 10000 5 80 15:21 29.04.2020
3891 Clouds 9 997 93 10000 5 90 14:57 29.04.2020
3892 Clouds 10 997 81 10000 4 70 14:39 29.04.2020
3893 Clouds 10 997 81 10000 4 70 14:20 29.04.2020
3894 Clouds 11 997 71 10000 4 90 13:42 29.04.2020
3895 Clouds 11 997 71 10000 4 90 13:21 29.04.2020
3896 Clouds 11 997 66 10000 4 90 12:59 29.04.2020
3897 Clouds 12 997 66 10000 5 90 12:40 29.04.2020
3898 Clouds 12 997 66 10000 5 90 12:19 29.04.2020
3899 Clouds 12 996 62 10000 7 100 11:58 29.04.2020
3900 Clouds 13 996 58 10000 5 90 11:36 29.04.2020
3901 Clouds 13 996 62 10000 6 90 11:18 29.04.2020
3902 Clouds 13 996 62 10000 9 100 10:37 29.04.2020
3903 Clouds 12 997 66 10000 6 90 10:19 29.04.2020
3904 Clouds 12 997 66 10000 6 90 09:57 29.04.2020
3905 Clouds 12 997 66 10000 6 90 09:38 29.04.2020
3906 Clouds 12 997 66 10000 5 90 09:18 29.04.2020
3907 Clouds 12 997 62 10000 6 90 08:43 29.04.2020
3908 Clouds 12 997 62 10000 6 90 08:24 29.04.2020
3909 Clouds 10 997 71 10000 6 90 07:48 29.04.2020
3910 Clouds 10 997 71 10000 6 90 07:25 29.04.2020
3911 Clouds 10 998 76 10000 6 90 06:52 29.04.2020
3912 Clouds 9 998 81 10000 5 90 06:31 29.04.2020
3913 Clouds 9 998 81 10000 4 100 05:22 29.04.2020
3914 Clouds 8 999 87 10000 5 110 04:47 29.04.2020
3915 Clouds 8 999 87 10000 5 110 04:19 29.04.2020
3916 Clouds 7 1000 93 10000 4 120 02:49 29.04.2020
3917 Clouds 6 1000 100 10000 5 100 01:44 29.04.2020
3918 Clouds 6 1000 100 10000 5 100 01:26 29.04.2020
3919 Clouds 6 1001 100 10000 5 100 00:50 29.04.2020
3920 Clouds 6 1001 100 10000 4 100 00:20 29.04.2020
3921 Clouds 6 1001 100 10000 4 100 23:56 28.04.2020
3922 Clouds 6 1001 100 10000 4 100 23:37 28.04.2020
3923 Clouds 7 1002 93 10000 4 100 23:18 28.04.2020
3924 Clouds 7 1002 87 10000 3 110 22:37 28.04.2020
3925 Clouds 7 1002 87 10000 3 110 22:19 28.04.2020
3926 Clouds 7 1002 87 10000 4 110 21:57 28.04.2020
3927 Clouds 8 1002 81 10000 6 110 21:39 28.04.2020
3928 Clouds 8 1002 81 10000 6 110 21:21 28.04.2020
3929 Clouds 8 1002 81 10000 5 100 20:55 28.04.2020
3930 Clouds 8 1003 81 10000 5 100 20:37 28.04.2020
3931 Clouds 8 1003 81 10000 6 90 20:19 28.04.2020
3932 Clouds 8 1003 81 10000 5 90 19:43 28.04.2020
3933 Clouds 8 1003 81 10000 5 90 19:22 28.04.2020
3934 -273 0 0 0 0 0 18:59 28.04.2020
3935 -273 0 0 0 0 0 18:59 28.04.2020
3936 Clouds 8 1004 81 10000 6 90 18:40 28.04.2020
3937 Clouds 8 1004 81 10000 6 90 18:19 28.04.2020
3938 Clouds 8 1004 81 10000 5 90 17:58 28.04.2020
3939 Clouds 8 1004 81 10000 5 90 17:37 28.04.2020
3940 Clouds 9 1004 76 10000 4 90 17:18 28.04.2020
3941 Clouds 9 1004 76 10000 4 90 16:43 28.04.2020
3942 Rain 9 1004 76 10000 4 90 16:24 28.04.2020
3943 Rain 9 1004 76 10000 5 90 15:58 28.04.2020
3944 Rain 10 1004 71 10000 4 80 15:39 28.04.2020
3945 Rain 10 1004 71 10000 4 80 15:39 28.04.2020
3946 Rain 10 1004 71 10000 4 80 15:21 28.04.2020
3947 Rain 10 1004 71 10000 4 80 14:59 28.04.2020
3948 Rain 10 1004 71 10000 6 90 14:41 28.04.2020
3949 Rain 10 1004 71 10000 6 90 14:21 28.04.2020
3950 Rain 11 1004 71 10000 6 80 13:58 28.04.2020
3951 Rain 11 1005 71 10000 4 80 13:38 28.04.2020
3952 Clouds 11 1005 71 10000 4 80 13:19 28.04.2020
3953 Clouds 11 1005 66 10000 4 70 12:46 28.04.2020
3954 Clouds 11 1005 66 10000 4 70 12:25 28.04.2020
3955 Clouds 12 1005 66 10000 6 90 11:46 28.04.2020
3956 Clouds 12 1005 66 10000 6 90 11:26 28.04.2020
3957 Clouds 12 1005 66 10000 5 90 11:00 28.04.2020
3958 Clouds 12 1005 66 10000 5 90 10:39 28.04.2020
3959 Rain 12 1005 66 10000 5 90 10:19 28.04.2020
3960 Rain 12 1005 66 10000 5 100 09:58 28.04.2020
3961 Rain 13 1005 62 10000 5 90 09:39 28.04.2020
3962 Rain 13 1005 62 10000 5 90 09:20 28.04.2020
3963 Rain 12 1005 62 10000 5 70 08:46 28.04.2020
3964 Rain 12 1005 62 10000 5 70 08:26 28.04.2020
3965 Rain 11 1006 66 10000 5 60 07:45 28.04.2020
3966 Clouds 11 1006 66 10000 5 60 07:20 28.04.2020
3967 Clouds 10 1006 71 10000 5 60 06:54 28.04.2020
3968 Clouds 10 1006 66 10000 4 90 06:22 28.04.2020
3969 Clouds 8 1006 75 10000 5 90 05:41 28.04.2020
3970 Clouds 8 1006 75 10000 5 90 05:20 28.04.2020
3971 Clouds 5 1006 93 10000 3 70 03:00 28.04.2020
3972 Clouds 5 1007 93 10000 3 80 02:33 28.04.2020
3973 Rain 5 1007 86 10000 4 100 01:23 28.04.2020
3974 Rain 5 1007 86 10000 4 100 00:56 28.04.2020
3975 Clouds 5 1007 86 10000 4 90 00:23 28.04.2020
3976 Clouds 4 1008 100 10000 4 60 23:47 27.04.2020
3977 Clouds 4 1008 100 10000 4 60 23:24 27.04.2020
3978 Clouds 5 1008 93 10000 4 50 22:55 27.04.2020
3979 Clouds 5 1008 93 10000 4 70 22:37 27.04.2020
3980 Clouds 5 1008 86 10000 3 60 22:19 27.04.2020
3981 Clouds 5 1008 86 10000 3 60 21:56 27.04.2020
3982 Clouds 5 1008 93 10000 2 70 21:38 27.04.2020
3983 Clouds 5 1008 93 10000 2 70 21:38 27.04.2020
3984 Clouds 5 1008 86 10000 3 60 21:18 27.04.2020
3985 Clouds 6 1008 81 10000 3 80 20:43 27.04.2020
3986 Clouds 6 1008 81 10000 3 80 20:22 27.04.2020
3987 Clouds 6 1008 81 10000 3 80 20:22 27.04.2020
3988 Clouds 6 1009 81 10000 3 70 19:58 27.04.2020
3989 Clouds 6 1009 81 10000 3 60 19:39 27.04.2020
3990 Clouds 6 1009 81 10000 3 60 19:20 27.04.2020
3991 Clouds 7 1009 81 10000 4 80 18:58 27.04.2020
3992 Clouds 8 1009 75 10000 3 70 18:40 27.04.2020
3993 Clouds 8 1009 75 10000 4 70 18:19 27.04.2020
3994 Clouds 10 1009 71 10000 3 30 17:43 27.04.2020
3995 Clouds 10 1009 71 10000 3 30 17:24 27.04.2020
3996 Clouds 10 1008 71 10000 3 10 16:58 27.04.2020
3997 Clouds 10 1008 71 10000 5 350 16:39 27.04.2020
3998 Clouds 10 1008 71 10000 5 350 16:21 27.04.2020
3999 Clouds 11 1008 66 10000 4 350 15:56 27.04.2020
4000 Clouds 13 1008 58 10000 3 360 15:38 27.04.2020
4001 Clouds 13 1008 58 10000 5 350 15:18 27.04.2020
4002 Clouds 14 1008 50 10000 5 360 14:42 27.04.2020
4003 Clouds 14 1008 50 10000 5 360 14:23 27.04.2020
4004 Clouds 19 1008 20 10000 7 250 13:59 27.04.2020
4005 Clouds 19 1008 20 10000 7 250 13:59 27.04.2020
4006 Clouds 19 1008 24 10000 7 230 13:41 27.04.2020
4007 Clouds 19 1008 24 10000 7 230 13:20 27.04.2020
4008 Clouds 19 1008 24 10000 9 240 12:56 27.04.2020
4009 Clouds 19 1008 24 10000 9 220 12:38 27.04.2020
4010 Clouds 19 1008 24 10000 9 230 12:18 27.04.2020
4011 Clouds 19 1008 24 10000 10 220 11:41 27.04.2020
4012 Clouds 19 1008 24 10000 9 230 11:19 27.04.2020
4013 Clouds 19 1008 24 10000 9 230 10:56 27.04.2020
4014 Clouds 19 1008 24 10000 8 220 10:38 27.04.2020
4015 Clouds 19 1008 24 10000 8 210 10:19 27.04.2020
4016 Clouds 18 1008 27 10000 8 220 09:43 27.04.2020
4017 Clouds 18 1008 45 10000 7 220 09:19 27.04.2020
4018 Clouds 18 1008 45 10000 7 220 08:56 27.04.2020
4019 Clouds 17 1008 45 10000 6 200 08:36 27.04.2020
4020 Clouds 16 1008 45 10000 6 200 08:18 27.04.2020
4021 Clouds 15 1008 45 10000 5 220 07:44 27.04.2020
4022 Clouds 15 1008 45 10000 5 220 07:19 27.04.2020
4023 Clouds 14 1009 35 10000 7 220 06:44 27.04.2020
4024 Clouds 14 1009 35 10000 7 220 06:24 27.04.2020
4025 Clouds 12 1009 40 10000 6 220 05:49 27.04.2020
4026 Clouds 12 1009 58 10000 5 220 04:41 27.04.2020
4027 Clouds 11 1009 58 10000 5 220 03:49 27.04.2020
4028 Clouds 11 1008 50 10000 5 220 02:42 27.04.2020
4029 Clouds 11 1008 50 10000 6 210 01:31 27.04.2020
4030 Clouds 12 1008 50 10000 5 210 00:47 27.04.2020
4031 Clouds 12 1008 50 10000 5 210 00:19 27.04.2020
4032 Clouds 12 1008 50 10000 5 200 23:55 26.04.2020
4033 Clouds 12 1008 50 10000 6 200 23:37 26.04.2020
4034 Clouds 12 1008 50 10000 5 200 23:19 26.04.2020
4035 Clouds 12 1008 50 10000 5 200 22:56 26.04.2020
4036 Clouds 12 1008 50 10000 5 220 22:37 26.04.2020
4037 Clouds 12 1008 50 10000 5 210 22:19 26.04.2020
4038 Clouds 12 1008 50 10000 5 210 21:56 26.04.2020
4039 Clouds 12 1008 50 10000 6 200 21:37 26.04.2020
4040 Clouds 11 1008 53 10000 6 200 21:18 26.04.2020
4041 Clouds 11 1008 53 10000 6 190 20:39 26.04.2020
4042 Clouds 11 1008 53 10000 6 190 20:20 26.04.2020
4043 Clouds 12 1008 50 10000 6 190 19:59 26.04.2020
4044 Clouds 12 1009 50 10000 6 190 19:38 26.04.2020
4045 Clouds 12 1009 50 10000 6 190 19:20 26.04.2020
4046 Clouds 11 1009 57 10000 4 180 18:45 26.04.2020
4047 Clouds 11 1009 57 10000 4 180 18:25 26.04.2020
4048 Clouds 11 1009 57 10000 2 150 17:58 26.04.2020
4049 Clouds 11 1009 53 10000 2 140 17:39 26.04.2020
4050 Clouds 11 1009 53 10000 2 140 17:21 26.04.2020
4051 Clouds 12 1010 46 10000 2 170 16:42 26.04.2020
4052 Clouds 12 1010 46 10000 2 170 16:24 26.04.2020
4053 Clouds 13 1010 43 10000 2 200 15:59 26.04.2020
4054 Clouds 13 1010 43 10000 2 200 15:59 26.04.2020
4055 Clouds 13 1010 71 10000 2 200 15:41 26.04.2020
4056 Clouds 13 1010 54 10000 2 200 15:22 26.04.2020
4057 Clouds 13 1010 54 10000 3 230 14:57 26.04.2020
4058 Clouds 13 1011 46 10000 6 250 14:38 26.04.2020
4059 Clouds 13 1011 37 10000 6 240 14:18 26.04.2020
4060 Clouds 13 1011 37 10000 6 240 13:56 26.04.2020
4061 Clouds 13 1011 43 10000 7 270 13:38 26.04.2020
4062 Clouds 12 1011 46 10000 8 260 13:19 26.04.2020
4063 Clouds 12 1011 46 10000 9 260 12:41 26.04.2020
4064 Clouds 12 1011 46 10000 9 260 12:41 26.04.2020
4065 Rain 12 1011 46 10000 9 260 12:22 26.04.2020
4066 Clouds 12 1010 46 10000 8 250 11:59 26.04.2020
4067 Clouds 11 1010 50 10000 11 240 11:40 26.04.2020
4068 Clouds 11 1010 50 10000 11 240 11:22 26.04.2020
4069 Clouds 11 1010 53 10000 10 260 10:57 26.04.2020
4070 Clouds 11 1009 53 10000 10 240 10:39 26.04.2020
4071 Clouds 11 1009 53 10000 10 240 10:21 26.04.2020
4072 Clouds 9 1008 66 10000 12 260 09:41 26.04.2020
4073 Clouds 9 1008 66 10000 12 260 09:41 26.04.2020
4074 Clouds 9 1008 66 10000 12 260 09:22 26.04.2020
4075 Clouds 9 1007 66 10000 10 250 08:59 26.04.2020
4076 Clouds 9 1006 70 10000 11 250 08:40 26.04.2020
4077 Clouds 9 1006 70 10000 11 250 08:20 26.04.2020
4078 Clouds 8 1005 65 10000 8 230 07:47 26.04.2020
4079 Clouds 8 1005 65 10000 8 230 07:21 26.04.2020
4080 Rain 4 1004 80 10000 5 200 06:45 26.04.2020
4081 Rain 3 1004 86 10000 5 190 05:59 26.04.2020
4082 Snow 2 1004 100 10000 4 160 05:41 26.04.2020
4083 Snow 2 1004 100 10000 4 160 05:22 26.04.2020
4084 Snow 1 1005 100 10000 4 120 04:24 26.04.2020
4085 Snow 0 1007 87 800 4 150 03:32 26.04.2020
4086 Snow 2 1008 74 10000 4 110 02:32 26.04.2020
4087 Snow 2 1009 74 8000 5 150 01:52 26.04.2020
4088 Clouds 3 1010 59 10000 5 150 01:27 26.04.2020
4089 Snow 2 1011 64 10000 2 130 00:40 26.04.2020
4090 Clouds 2 1011 64 10000 2 130 00:19 26.04.2020
4091 Clouds 2 1011 55 10000 5 180 23:39 25.04.2020
4092 Clouds 2 1011 55 10000 5 180 23:21 25.04.2020
4093 Clouds 2 1012 55 10000 5 180 22:58 25.04.2020
4094 Clouds 2 1012 51 10000 4 190 22:40 25.04.2020
4095 Clouds 2 1012 51 10000 4 190 22:19 25.04.2020
4096 Clouds 2 1012 51 10000 4 190 21:56 25.04.2020
4097 Clouds 2 1012 55 10000 4 190 21:36 25.04.2020
4098 Clouds 2 1013 55 10000 3 190 21:18 25.04.2020
4099 Clouds 2 1013 59 10000 3 190 20:42 25.04.2020
4100 Clouds 2 1013 59 10000 3 190 20:22 25.04.2020
4101 Clouds 1 1013 64 10000 4 190 19:56 25.04.2020
4102 Clouds 1 1012 69 10000 3 190 19:38 25.04.2020
4103 Clouds 0 1012 80 10000 3 190 19:19 25.04.2020
4104 Clouds 0 1012 80 10000 2 190 18:42 25.04.2020
4105 Clouds 0 1012 74 10000 2 190 18:21 25.04.2020
4106 Clouds 2 1012 59 10000 4 250 17:58 25.04.2020
4107 Clouds 2 1012 55 10000 7 270 17:39 25.04.2020
4108 Clouds 2 1012 55 10000 7 270 17:20 25.04.2020
4109 Clouds 3 1011 51 10000 4 240 16:58 25.04.2020
4110 Clouds 4 1011 41 10000 6 230 16:40 25.04.2020
4111 Clouds 4 1011 41 10000 6 230 16:21 25.04.2020
4112 Clouds 4 1010 41 10000 7 250 15:42 25.04.2020
4113 Clouds 4 1010 41 10000 7 250 15:21 25.04.2020
4114 Clouds 5 1009 38 10000 7 240 14:58 25.04.2020
4115 Snow 3 1009 51 9000 8 240 14:39 25.04.2020
4116 Snow 3 1009 51 9000 8 240 14:20 25.04.2020
4117 Clouds 4 1009 41 10000 6 230 13:55 25.04.2020
4118 Clouds 4 1009 41 10000 6 230 13:55 25.04.2020
4119 Clouds 4 1008 44 10000 6 230 13:37 25.04.2020
4120 Clouds 5 1008 38 10000 9 260 13:18 25.04.2020
4121 Clouds 5 1008 38 10000 9 260 12:54 25.04.2020
4122 Clouds 5 1007 44 10000 7 240 12:36 25.04.2020
4123 Clouds 4 1007 48 10000 8 260 12:18 25.04.2020
4124 Clouds 5 1006 41 10000 9 250 11:41 25.04.2020
4125 Clouds 5 1006 41 10000 9 250 11:23 25.04.2020
4126 Snow 5 1006 38 10000 8 240 10:54 25.04.2020
4127 Clouds 5 1006 35 10000 8 240 10:36 25.04.2020
4128 Clouds 5 1006 35 10000 8 240 10:18 25.04.2020
4129 Clouds 4 1005 38 10000 8 240 09:41 25.04.2020
4130 Clouds 4 1005 38 10000 8 240 09:21 25.04.2020
4131 Clouds 4 1005 44 10000 8 240 08:41 25.04.2020
4132 Clouds 4 1005 44 10000 8 240 08:22 25.04.2020
4133 Clouds 4 1004 44 10000 8 250 07:59 25.04.2020
4134 Clouds 4 1004 48 10000 7 240 07:41 25.04.2020
4135 Clouds 3 1004 55 10000 8 240 06:57 25.04.2020
4136 Clouds 3 1004 55 10000 7 240 06:38 25.04.2020
4137 Clouds 2 1003 69 10000 6 250 05:42 25.04.2020
4138 Clouds 2 1003 69 10000 6 250 05:24 25.04.2020
4139 Clouds 0 1002 78 10000 7 240 03:56 25.04.2020
4140 Snow 0 1001 94 10000 4 240 02:36 25.04.2020
4141 Clouds 0 1001 95 10000 4 240 01:56 25.04.2020
4142 Clouds 0 1001 95 10000 2 230 01:38 25.04.2020
4143 Clouds 1 1001 100 10000 3 240 01:19 25.04.2020
4144 Clouds 1 1001 100 10000 4 230 00:39 25.04.2020
4145 Clouds 1 1000 100 10000 1 0 00:18 25.04.2020
4146 Clouds 2 1000 93 10000 3 220 23:40 24.04.2020
4147 Clouds 2 1000 93 10000 3 220 23:20 24.04.2020
4148 Clouds 2 1000 100 10000 2 150 22:41 24.04.2020
4149 Clouds 2 1000 100 10000 2 150 22:20 24.04.2020
4150 Clouds 2 1000 100 10000 3 140 21:58 24.04.2020
4151 Clouds 2 1000 100 10000 2 130 21:40 24.04.2020
4152 Clouds 2 1000 100 10000 2 130 21:22 24.04.2020
4153 Clouds 2 1001 100 10000 2 130 20:57 24.04.2020
4154 Clouds 2 1001 100 10000 2 130 20:57 24.04.2020
4155 Clouds 2 1001 100 10000 2 130 20:57 24.04.2020
4156 Clouds 2 1001 100 10000 2 140 20:38 24.04.2020
4157 Clouds 1 1001 100 10000 2 130 20:18 24.04.2020
4158 Clouds 1 1002 100 10000 2 110 19:44 24.04.2020
4159 Clouds 1 1002 100 10000 2 110 19:25 24.04.2020
4160 Clouds 1 1002 100 10000 2 100 18:56 24.04.2020
4161 Clouds 0 1002 85 10000 2 70 18:38 24.04.2020
4162 Clouds 0 1002 85 10000 2 70 18:38 24.04.2020
4163 Snow 0 1002 76 10000 2 70 18:19 24.04.2020
4164 Clouds 2 1002 93 10000 2 70 17:42 24.04.2020
4165 Clouds 2 1002 93 10000 2 70 17:23 24.04.2020
4166 Clouds 3 1002 86 10000 2 100 16:59 24.04.2020
4167 Clouds 4 1003 69 10000 1 0 16:40 24.04.2020
4168 Clouds 4 1003 69 10000 1 0 16:40 24.04.2020
4169 Clouds 4 1003 69 10000 1 0 16:40 24.04.2020
4170 Clouds 5 1003 76 10000 2 220 16:22 24.04.2020
4171 Clouds 5 1003 76 10000 2 220 15:59 24.04.2020
4172 Clouds 4 1003 76 10000 4 250 15:37 24.04.2020
4173 Clouds 5 1003 68 10000 4 210 15:18 24.04.2020
4174 Snow 5 1003 75 9000 3 220 14:40 24.04.2020
4175 Snow 5 1003 75 9000 3 220 14:20 24.04.2020
4176 Clouds 5 1003 80 10000 3 180 13:56 24.04.2020
4177 Clouds 4 1003 100 10000 2 160 13:38 24.04.2020
4178 Clouds 3 1003 100 10000 2 150 13:18 24.04.2020
4179 Snow 3 1003 100 9000 3 210 12:41 24.04.2020
4180 Snow 3 1003 100 9000 3 210 12:22 24.04.2020
4181 Rain 5 1003 65 10000 5 180 11:58 24.04.2020
4182 Clouds 5 1002 65 10000 4 190 11:37 24.04.2020
4183 Clouds 4 1003 64 10000 5 200 11:19 24.04.2020
4184 Clouds 4 1003 64 10000 5 200 10:54 24.04.2020
4185 Clouds 4 1002 64 10000 5 210 10:36 24.04.2020
4186 Clouds 4 1002 60 10000 4 200 10:18 24.04.2020
4187 Clouds 4 1002 55 10000 5 220 09:44 24.04.2020
4188 Clouds 4 1002 55 10000 5 220 09:24 24.04.2020
4189 Clouds 4 1002 55 10000 5 220 08:55 24.04.2020
4190 Clouds 3 1002 59 10000 4 250 08:37 24.04.2020
4191 Clouds 3 1002 59 10000 5 240 08:18 24.04.2020
4192 Clouds 3 1001 69 10000 4 260 07:44 24.04.2020
4193 Clouds 3 1001 69 10000 4 260 07:26 24.04.2020
4194 Snow 2 1001 74 10000 5 250 06:50 24.04.2020
4195 Snow 2 1001 80 10000 4 260 06:31 24.04.2020
4196 Clouds 1 1000 92 10000 4 270 05:42 24.04.2020
4197 Clouds 1 1000 92 10000 4 270 05:42 24.04.2020
4198 Clouds 1 999 100 10000 3 250 04:25 24.04.2020
4199 Clouds 1 997 100 10000 3 310 02:58 24.04.2020
4200 Clouds 1 997 100 10000 4 290 02:37 24.04.2020
4201 Snow 1 997 100 10000 5 290 01:57 24.04.2020
4202 Rain 2 996 100 10000 5 260 00:58 24.04.2020
4203 Clouds 3 996 100 10000 4 270 00:21 24.04.2020
4204 Clouds 3 996 100 10000 4 270 00:21 24.04.2020
4205 Clouds 4 995 86 10000 2 240 23:54 23.04.2020
4206 Clouds 4 995 86 10000 3 250 23:36 23.04.2020
4207 Rain 5 995 80 10000 3 250 23:18 23.04.2020
4208 Rain 5 995 80 10000 3 250 22:54 23.04.2020
4209 Clouds 5 995 80 10000 4 230 22:36 23.04.2020
4210 Clouds 5 994 80 10000 5 210 22:18 23.04.2020
4211 Clouds 5 994 80 10000 5 210 21:54 23.04.2020
4212 Rain 6 994 75 10000 6 210 21:36 23.04.2020
4213 Rain 6 994 75 10000 6 210 21:18 23.04.2020
4214 Rain 6 994 75 10000 6 200 20:41 23.04.2020
4215 Rain 6 994 75 10000 6 200 20:21 23.04.2020
4216 Rain 6 994 70 10000 5 200 19:56 23.04.2020
4217 Rain 7 994 65 10000 6 210 19:38 23.04.2020
4218 Rain 7 994 65 10000 6 210 19:20 23.04.2020
4219 Rain 7 993 65 10000 7 210 18:55 23.04.2020
4220 Rain 7 993 65 10000 6 200 18:36 23.04.2020
4221 Clouds 7 993 65 10000 6 200 18:18 23.04.2020
4222 Clouds 7 993 65 10000 5 200 17:40 23.04.2020
4223 Clouds 7 993 65 10000 5 200 17:22 23.04.2020
4224 Clouds 8 992 65 10000 7 200 16:57 23.04.2020
4225 Clouds 8 992 70 10000 5 220 16:38 23.04.2020
4226 Clouds 7 992 81 10000 4 200 16:19 23.04.2020
4227 Clouds 9 991 76 10000 5 180 15:42 23.04.2020
4228 Clouds 9 991 76 10000 5 180 15:23 23.04.2020
4229 Clouds 9 991 76 10000 4 190 14:57 23.04.2020
4230 Clouds 8 990 75 10000 6 190 14:38 23.04.2020
4231 Clouds 8 990 75 10000 6 190 14:19 23.04.2020
4232 Clouds 7 990 81 10000 5 190 13:55 23.04.2020
4233 Clouds 7 990 87 10000 3 190 13:36 23.04.2020
4234 Rain 7 991 87 2100 8 210 13:18 23.04.2020
4235 Clouds 8 990 87 10000 7 170 12:42 23.04.2020
4236 Clouds 8 990 87 10000 7 170 12:24 23.04.2020
4237 Clouds 8 990 100 10000 6 180 11:56 23.04.2020
4238 Clouds 7 990 100 10000 7 180 11:38 23.04.2020
4239 Clouds 7 990 100 10000 5 170 11:18 23.04.2020
4240 Clouds 6 990 100 10000 6 150 10:41 23.04.2020
4241 Clouds 6 990 100 10000 6 150 10:21 23.04.2020
4242 Rain 6 991 100 9000 5 160 09:41 23.04.2020
4243 Rain 6 991 100 9000 5 160 09:20 23.04.2020
4244 Rain 6 991 100 9000 4 180 08:59 23.04.2020
4245 Rain 6 991 100 9000 4 180 08:59 23.04.2020
4246 Rain 6 991 100 9000 4 180 08:40 23.04.2020
4247 Rain 6 991 100 9000 4 180 08:21 23.04.2020
4248 Rain 7 991 93 8000 3 220 07:42 23.04.2020
4249 Rain 7 991 93 8000 3 220 07:23 23.04.2020
4250 Rain 8 992 75 9000 7 220 06:48 23.04.2020
4251 Rain 8 992 75 9000 7 220 06:22 23.04.2020
4252 Rain 10 991 87 10000 4 200 05:23 23.04.2020
4253 Rain 10 991 87 10000 4 200 04:51 23.04.2020
4254 Rain 14 990 47 10000 4 190 02:24 23.04.2020
4255 Rain 14 990 50 10000 6 180 01:46 23.04.2020
4256 Rain 14 990 50 10000 6 180 01:24 23.04.2020
4257 Rain 14 990 50 10000 5 160 00:45 23.04.2020
4258 Clouds 14 990 50 10000 5 160 00:18 23.04.2020
4259 Clouds 14 991 50 10000 6 150 23:48 22.04.2020
4260 Clouds 14 991 50 10000 6 150 23:23 22.04.2020
4261 Clouds 13 992 58 10000 5 150 22:55 22.04.2020
4262 Clouds 12 992 62 10000 6 140 22:36 22.04.2020
4263 Clouds 12 993 66 10000 7 140 22:18 22.04.2020
4264 Clouds 12 993 66 10000 7 140 21:55 22.04.2020
4265 Clouds 12 994 66 10000 7 140 21:37 22.04.2020
4266 Clouds 12 995 66 10000 8 140 21:18 22.04.2020
4267 Clouds 11 996 66 10000 7 140 20:43 22.04.2020
4268 Clouds 11 997 66 10000 6 140 20:19 22.04.2020
4269 Clouds 11 997 66 10000 6 140 19:57 22.04.2020
4270 Clouds 11 997 66 10000 6 140 19:38 22.04.2020
4271 Clouds 11 999 66 10000 7 140 19:19 22.04.2020
4272 Clouds 11 999 66 10000 7 140 18:58 22.04.2020
4273 Clouds 11 999 66 10000 7 140 18:40 22.04.2020
4274 Clouds 11 999 66 10000 7 140 18:22 22.04.2020
4275 Clouds 11 1000 62 10000 6 130 17:56 22.04.2020
4276 Clouds 11 1001 62 10000 6 130 17:37 22.04.2020
4277 Clouds 12 1001 58 10000 6 130 17:19 22.04.2020
4278 Clouds 13 1002 54 10000 6 140 16:42 22.04.2020
4279 Clouds 13 1002 54 10000 6 140 16:23 22.04.2020
4280 Clouds 13 1003 50 10000 7 140 15:43 22.04.2020
4281 Clouds 13 1003 50 10000 7 140 15:25 22.04.2020
4282 Clouds 14 1004 47 10000 8 140 14:59 22.04.2020
4283 Clouds 14 1004 47 10000 7 140 14:40 22.04.2020
4284 Clouds 14 1004 47 10000 7 140 14:20 22.04.2020
4285 Clouds 14 1005 47 10000 7 140 13:56 22.04.2020
4286 Clouds 14 1006 44 10000 8 140 13:38 22.04.2020
4287 Clouds 14 1006 44 10000 7 140 13:19 22.04.2020
4288 Clouds 14 1007 44 10000 7 140 12:41 22.04.2020
4289 Clouds 14 1007 44 10000 7 140 12:23 22.04.2020
4290 Clouds 13 1008 47 10000 6 140 11:57 22.04.2020
4291 Clouds 13 1009 50 10000 7 140 11:36 22.04.2020
4292 Clouds 11 1010 53 10000 6 140 11:18 22.04.2020
4293 Clouds 11 1010 57 10000 7 150 10:41 22.04.2020
4294 Clouds 11 1010 57 10000 7 150 10:21 22.04.2020
4295 Clouds 9 1012 66 10000 7 130 09:41 22.04.2020
4296 Clouds 9 1012 66 10000 7 130 09:23 22.04.2020
4297 Clouds 9 1012 70 10000 6 140 08:59 22.04.2020
4298 Clouds 9 1013 76 10000 5 150 08:40 22.04.2020
4299 Clouds 9 1013 76 10000 5 150 08:22 22.04.2020
4300 Clouds 10 1013 71 10000 5 150 07:53 22.04.2020
4301 Clouds 9 1014 70 10000 6 150 07:33 22.04.2020
4302 Clouds 9 1014 70 10000 5 150 06:53 22.04.2020
4303 Clouds 8 1014 75 10000 4 150 06:23 22.04.2020
4304 Clouds 6 1015 93 10000 4 150 05:37 22.04.2020
4305 Clouds 5 1016 100 10000 4 180 04:32 22.04.2020
4306 Clouds 4 1016 100 10000 3 190 02:51 22.04.2020
4307 Clouds 3 1016 100 10000 2 190 01:53 22.04.2020
4308 Clouds 3 1016 100 10000 2 200 01:27 22.04.2020
4309 Clouds 3 1016 100 10000 2 210 00:59 22.04.2020
4310 Clouds 3 1016 100 10000 3 220 00:41 22.04.2020
4311 Clouds 3 1016 100 10000 3 220 00:19 22.04.2020
4312 Clouds 3 1016 100 10000 3 210 23:41 21.04.2020
4313 Clouds 3 1016 100 10000 3 210 23:19 21.04.2020
4314 Clouds 3 1016 100 10000 3 210 22:41 21.04.2020
4315 Clouds 3 1016 100 10000 3 210 22:22 21.04.2020
4316 -273 0 0 0 0 0 21:59 21.04.2020
4317 -273 0 0 0 0 0 21:59 21.04.2020
4318 Clouds 4 1016 100 10000 3 190 21:41 21.04.2020
4319 Clouds 4 1016 100 10000 3 190 21:23 21.04.2020
4320 Clouds 4 1016 100 10000 3 190 20:57 21.04.2020
4321 Clouds 4 1017 100 10000 4 190 20:39 21.04.2020
4322 Clouds 4 1017 100 10000 4 190 20:21 21.04.2020
4323 Clouds 4 1017 100 10000 3 190 19:41 21.04.2020
4324 Clouds 4 1017 100 10000 3 190 19:20 21.04.2020
4325 Clouds 4 1017 100 10000 3 190 18:58 21.04.2020
4326 Clouds 4 1017 100 10000 2 180 18:39 21.04.2020
4327 Clouds 4 1017 100 10000 2 180 18:39 21.04.2020
4328 Clouds 3 1017 100 10000 2 170 18:19 21.04.2020
4329 Clouds 3 1017 100 10000 2 170 17:57 21.04.2020
4330 Clouds 4 1017 100 10000 1 190 17:38 21.04.2020
4331 Clouds 4 1017 100 10000 1 170 17:18 21.04.2020
4332 Clouds 5 1018 100 10000 2 190 16:39 21.04.2020
4333 Clouds 5 1018 100 10000 2 190 16:19 21.04.2020
4334 Clouds 5 1018 100 10000 2 200 15:58 21.04.2020
4335 Clouds 5 1018 100 10000 2 190 15:39 21.04.2020
4336 Clouds 5 1018 100 10000 2 190 15:21 21.04.2020
4337 Clouds 4 1017 100 10000 1 230 14:57 21.04.2020
4338 Clouds 4 1017 100 10000 1 0 14:39 21.04.2020
4339 Clouds 4 1017 100 10000 1 0 14:21 21.04.2020
4340 Clouds 4 1017 100 10000 1.09 178 13:42 21.04.2020
4341 Clouds 4 1017 100 10000 1.09 178 13:42 21.04.2020
4342 Clouds 4 1017 100 10000 1.09 178 13:23 21.04.2020
4343 Clouds 5 1017 93 10000 1 0 12:57 21.04.2020
4344 Clouds 4 1017 100 10000 3 80 12:37 21.04.2020
4345 Clouds 4 1017 100 10000 2 110 12:18 21.04.2020
4346 Clouds 4 1017 100 10000 2 110 11:55 21.04.2020
4347 Clouds 4 1017 100 10000 2 110 11:55 21.04.2020
4348 Clouds 4 1017 100 9000 3 100 11:36 21.04.2020
4349 Mist 4 1017 100 3200 2 70 11:18 21.04.2020
4350 Mist 4 1017 100 3200 2 70 10:56 21.04.2020
4351 Mist 4 1017 100 3700 2 100 10:38 21.04.2020
4352 Mist 4 1017 100 5000 2 110 10:19 21.04.2020
4353 Rain 4 1017 100 7000 5 100 09:37 21.04.2020
4354 Rain 4 1017 100 10000 5 90 09:19 21.04.2020
4355 Rain 4 1017 100 10000 5 90 08:57 21.04.2020
4356 Clouds 4 1017 100 10000 6 90 08:38 21.04.2020
4357 Clouds 4 1018 100 10000 7 100 08:19 21.04.2020
4358 Clouds 4 1018 100 10000 6 90 07:43 21.04.2020
4359 Clouds 4 1018 100 10000 6 90 07:22 21.04.2020
4360 Rain 4 1019 100 10000 4 90 06:47 21.04.2020
4361 Rain 4 1019 100 10000 4 90 06:20 21.04.2020
4362 Rain 5 1021 100 9000 3 120 05:48 21.04.2020
4363 Rain 6 1022 75 10000 4 200 04:19 21.04.2020
4364 Rain 6 1022 60 10000 4 160 03:42 21.04.2020
4365 Clouds 6 1023 56 10000 3 110 01:46 21.04.2020
4366 Clouds 6 1023 56 10000 3 130 00:58 21.04.2020
4367 Clouds 6 1023 56 10000 3 130 00:33 21.04.2020
4368 Clouds 6 1024 56 10000 4 130 23:44 20.04.2020
4369 Clouds 6 1024 56 10000 4 130 23:25 20.04.2020
4370 Clouds 6 1024 56 10000 3 130 22:57 20.04.2020
4371 Clouds 5 1025 65 10000 3 130 22:38 20.04.2020
4372 Clouds 5 1025 65 10000 3 130 22:19 20.04.2020
4373 Clouds 7 1025 52 10000 3 130 21:57 20.04.2020
4374 Clouds 7 1026 52 10000 3 130 21:38 20.04.2020
4375 Clouds 7 1026 52 10000 3 140 21:19 20.04.2020
4376 Clouds 7 1026 52 10000 3 140 20:56 20.04.2020
4377 Clouds 7 1026 52 10000 3 140 20:37 20.04.2020
4378 Clouds 7 1026 52 10000 3 140 20:18 20.04.2020
4379 Clouds 7 1026 52 10000 3 140 19:55 20.04.2020
4380 Clouds 8 1026 52 10000 2 140 19:37 20.04.2020
4381 Clouds 8 1026 49 10000 3 150 19:18 20.04.2020
4382 Clouds 9 1026 45 10000 3 160 18:42 20.04.2020
4383 Clouds 9 1026 45 10000 3 160 18:22 20.04.2020
4384 Clouds 9 1026 45 10000 3 160 18:22 20.04.2020
4385 Clouds 9 1026 45 10000 3 160 17:55 20.04.2020
4386 Clouds 10 1026 43 10000 3 160 17:37 20.04.2020
4387 Clouds 10 1026 43 10000 3 160 17:19 20.04.2020
4388 Clouds 11 1026 37 10000 3 150 16:43 20.04.2020
4389 Clouds 11 1026 37 10000 3 150 16:21 20.04.2020
4390 Clouds 11 1026 37 10000 3 150 15:58 20.04.2020
4391 Clouds 12 1026 34 10000 3 190 15:39 20.04.2020
4392 Clouds 12 1026 34 10000 3 190 15:21 20.04.2020
4393 Clouds 12 1026 32 10000 3 190 14:55 20.04.2020
4394 Clouds 12 1026 32 10000 3 190 14:55 20.04.2020
4395 Clouds 12 1027 32 10000 3 200 14:36 20.04.2020
4396 Clouds 13 1026 32 10000 4 210 14:18 20.04.2020
4397 Clouds 12 1026 32 10000 3 190 13:41 20.04.2020
4398 Clouds 12 1026 32 10000 3 190 13:22 20.04.2020
4399 Clouds 12 1026 32 10000 4 210 12:45 20.04.2020
4400 Clear 12 1026 32 10000 4 210 12:26 20.04.2020
4401 Clear 13 1026 32 10000 4 220 11:59 20.04.2020
4402 Clear 13 1026 32 10000 4 220 11:59 20.04.2020
4403 Clear 12 1026 34 10000 5 230 11:39 20.04.2020
4404 Clear 12 1026 34 10000 5 230 11:21 20.04.2020
4405 Clear 12 1026 34 10000 5 230 10:56 20.04.2020
4406 Clear 12 1026 37 10000 5 240 10:38 20.04.2020
4407 Clear 11 1026 40 10000 6 230 10:19 20.04.2020
4408 Clear 11 1026 40 10000 6 230 09:55 20.04.2020
4409 Clear 11 1025 37 10000 6 250 09:36 20.04.2020
4410 Clear 10 1025 48 10000 6 230 09:18 20.04.2020
4411 Clouds 11 1025 48 10000 6 220 08:41 20.04.2020
4412 Clouds 11 1025 48 10000 6 220 08:19 20.04.2020
4413 Clear 10 1025 57 10000 5 210 07:52 20.04.2020
4414 Clear 9 1025 57 10000 5 230 07:29 20.04.2020
4415 Clear 9 1025 57 10000 5 230 07:29 20.04.2020
4416 Clear 9 1025 61 10000 4 220 06:55 20.04.2020
4417 Clear 7 1025 65 10000 4 200 06:35 20.04.2020
4418 Clear 6 1024 70 10000 3 220 05:38 20.04.2020
4419 Clear 3 1023 69 10000 2 230 03:45 20.04.2020
4420 Clear 2 1022 93 10000 2 230 02:44 20.04.2020
4421 Clear 2 1022 100 10000 2 210 01:32 20.04.2020
4422 Clear 2 1022 100 9000 2 190 00:59 20.04.2020
4423 Clear 3 1021 100 9000 2 170 00:34 20.04.2020
4424 Clear 3 1021 100 9000 2 160 23:56 19.04.2020
4425 Clear 2 1020 100 9000 1 140 23:37 19.04.2020
4426 Clear 2 1020 100 9000 2.49 205 23:19 19.04.2020
4427 Clear 2 1020 100 9000 2.49 205 22:40 19.04.2020
4428 Clear 2 1020 100 9000 2.49 205 22:21 19.04.2020
4429 Clear 3 1020 100 9000 2.49 205 21:57 19.04.2020
4430 Clear 3 1020 100 10000 2.46 207 21:38 19.04.2020
4431 Clouds 3 1020 100 10000 1.06 237 21:20 19.04.2020
4432 Clouds 4 1019 100 10000 1.06 237 20:41 19.04.2020
4433 Clouds 4 1019 100 10000 1.06 237 20:21 19.04.2020
4434 Clouds 4 1019 100 10000 1.06 237 19:59 19.04.2020
4435 Clouds 4 1019 100 10000 1.06 237 19:41 19.04.2020
4436 Clouds 4 1019 100 10000 1.06 237 19:22 19.04.2020
4437 Clouds 6 1018 100 10000 1.06 237 18:58 19.04.2020
4438 Clouds 6 1018 100 10000 1 0 18:39 19.04.2020
4439 Clouds 6 1018 100 10000 1 0 18:20 19.04.2020
4440 Clouds 6 1018 100 10000 2 230 17:57 19.04.2020
4441 Clouds 7 1017 93 10000 2 180 17:39 19.04.2020
4442 Clouds 7 1017 93 10000 2 180 17:21 19.04.2020
4443 Clouds 7 1017 87 10000 3 180 16:58 19.04.2020
4444 Rain 7 1017 87 10000 3 180 16:38 19.04.2020
4445 Rain 7 1017 87 10000 3 180 16:20 19.04.2020
4446 Rain 7 1016 87 10000 3 190 15:43 19.04.2020
4447 Rain 7 1016 87 10000 3 190 15:22 19.04.2020
4448 Rain 8 1016 75 10000 5 180 14:56 19.04.2020
4449 Rain 8 1016 81 10000 4 180 14:37 19.04.2020
4450 Rain 8 1016 81 10000 4 180 14:19 19.04.2020
4451 Clouds 8 1016 81 10000 3 180 13:40 19.04.2020
4452 Clouds 8 1016 81 10000 3 180 13:21 19.04.2020
4453 Rain 8 1016 87 10000 3 200 12:50 19.04.2020
4454 Rain 9 1016 70 10000 5 210 12:25 19.04.2020
4455 Rain 9 1015 70 9000 7 210 11:59 19.04.2020
4456 Clouds 12 1014 50 10000 5 200 11:37 19.04.2020
4457 Clouds 12 1014 50 10000 5 190 11:19 19.04.2020
4458 Clouds 12 1014 50 10000 5 190 10:56 19.04.2020
4459 Clouds 12 1014 50 10000 6 190 10:38 19.04.2020
4460 Clouds 13 1014 47 10000 5 210 10:19 19.04.2020
4461 Clouds 12 1013 50 10000 5 190 09:45 19.04.2020
4462 Rain 12 1013 50 10000 5 190 09:27 19.04.2020
4463 Clouds 12 1013 50 10000 6 210 08:41 19.04.2020
4464 Clouds 12 1013 50 10000 6 210 08:23 19.04.2020
4465 Clouds 11 1013 57 10000 6 200 07:59 19.04.2020
4466 Clouds 11 1013 57 10000 6 190 07:41 19.04.2020
4467 Clouds 11 1013 57 10000 6 190 07:22 19.04.2020
4468 Clouds 10 1013 61 10000 4 190 06:29 19.04.2020
4469 Clouds 9 1012 66 10000 4 190 05:55 19.04.2020
4470 Clouds 8 1012 70 10000 4 180 04:43 19.04.2020
4471 Clouds 8 1011 65 10000 4 190 02:59 19.04.2020
4472 Clouds 8 1011 65 10000 5 190 02:21 19.04.2020
4473 Clouds 8 1011 65 10000 5 190 01:38 19.04.2020
4474 Clouds 9 1010 61 10000 5 190 00:48 19.04.2020
4475 Clouds 9 1010 61 10000 5 190 00:25 19.04.2020
4476 Clouds 9 1010 66 10000 2 150 23:48 18.04.2020
4477 Clouds 9 1010 66 10000 2 150 23:22 18.04.2020
4478 Clouds 9 1010 66 10000 3 120 22:59 18.04.2020
4479 Clouds 7 1010 81 10000 2 120 22:40 18.04.2020
4480 Clouds 7 1010 81 10000 2 120 22:21 18.04.2020
4481 Clouds 8 1010 75 10000 1 140 21:56 18.04.2020
4482 Clouds 9 1010 66 10000 2 160 21:37 18.04.2020
4483 Clouds 9 1010 66 10000 2 160 21:37 18.04.2020
4484 Clouds 10 1010 61 10000 3 140 21:19 18.04.2020
4485 Clouds 9 1010 66 10000 2 120 20:42 18.04.2020
4486 Clouds 9 1010 66 10000 2 120 20:22 18.04.2020
4487 Clouds 9 1010 66 10000 2 120 19:56 18.04.2020
4488 Clouds 9 1010 66 10000 2 120 19:56 18.04.2020
4489 Clouds 8 1011 65 10000 2 110 19:37 18.04.2020
4490 Clouds 9 1010 61 10000 2 130 19:19 18.04.2020
4491 Clouds 11 1011 53 10000 3 210 18:38 18.04.2020
4492 Rain 13 1010 47 10000 5 190 18:19 18.04.2020
4493 Rain 11 1011 53 10000 3 210 18:19 18.04.2020
4494 Rain 13 1010 50 10000 4 180 17:43 18.04.2020
4495 Rain 13 1010 50 10000 4 180 17:21 18.04.2020
4496 Rain 13 1010 50 10000 4 180 16:58 18.04.2020
4497 Rain 14 1009 47 10000 5 180 16:38 18.04.2020
4498 Rain 14 1009 47 10000 5 180 16:20 18.04.2020
4499 Rain 14 1009 50 10000 4 180 15:40 18.04.2020
4500 Rain 14 1009 50 10000 4 180 15:22 18.04.2020
4501 Rain 14 1009 50 10000 5 190 14:47 18.04.2020
4502 Rain 14 1009 50 10000 5 190 14:47 18.04.2020
4503 Rain 14 1009 50 10000 5 190 14:29 18.04.2020
4504 Rain 15 1009 47 10000 6 190 13:59 18.04.2020
4505 Rain 15 1009 51 10000 6 190 13:41 18.04.2020
4506 Rain 15 1009 51 10000 6 190 13:20 18.04.2020
4507 Rain 13 1008 58 10000 7 170 12:42 18.04.2020
4508 Rain 13 1008 58 10000 7 170 12:24 18.04.2020
4509 Clouds 11 1009 71 10000 5 160 11:56 18.04.2020
4510 Clouds 11 1009 71 10000 5 170 11:37 18.04.2020
4511 Clouds 11 1009 71 10000 5 170 11:19 18.04.2020
4512 Rain 9 1010 81 9000 3 150 10:41 18.04.2020
4513 Rain 9 1010 81 9000 3 150 10:19 18.04.2020
4514 Rain 10 1010 66 10000 2 190 09:58 18.04.2020
4515 Rain 11 1010 57 10000 3 170 09:38 18.04.2020
4516 Rain 11 1010 57 10000 3 170 09:20 18.04.2020
4517 Rain 11 1010 53 10000 3 170 08:42 18.04.2020
4518 Rain 11 1010 53 10000 3 170 08:21 18.04.2020
4519 Clouds 11 1009 53 10000 4 150 07:42 18.04.2020
4520 Clouds 11 1009 53 10000 4 150 07:20 18.04.2020
4521 Rain 10 1009 53 10000 5 160 06:39 18.04.2020
4522 Clouds 10 1010 53 10000 5 150 05:48 18.04.2020
4523 Clouds 10 1010 72 10000 5 150 04:54 18.04.2020
4524 Clouds 10 1010 53 10000 6 160 04:29 18.04.2020
4525 Clouds 9 1010 57 10000 4 160 02:58 18.04.2020
4526 Clouds 9 1010 57 10000 5 160 02:40 18.04.2020
4527 Clouds 9 1011 57 10000 5 160 02:19 18.04.2020
4528 Clouds 9 1010 57 10000 4 160 01:37 18.04.2020
4529 Clouds 9 1011 57 10000 4 160 00:54 18.04.2020
4530 Clouds 10 1010 53 10000 5 160 00:24 18.04.2020
4531 Clouds 10 1010 53 10000 5 160 23:57 17.04.2020
4532 Clouds 10 1010 53 10000 5 160 23:57 17.04.2020
4533 Clouds 10 1010 53 10000 6 160 23:39 17.04.2020
4534 Clouds 11 1010 50 10000 5 160 23:19 17.04.2020
4535 Clouds 11 1010 50 10000 5 160 22:56 17.04.2020
4536 Clouds 11 1010 50 10000 5 160 22:38 17.04.2020
4537 Clouds 11 1011 50 10000 4 150 22:19 17.04.2020
4538 Clouds 11 1011 50 10000 5 150 21:44 17.04.2020
4539 Clouds 11 1011 50 10000 5 150 21:22 17.04.2020
4540 Clouds 11 1011 50 10000 5 150 20:59 17.04.2020
4541 Clouds 11 1011 50 10000 5 160 20:38 17.04.2020
4542 Clouds 11 1011 50 10000 5 160 20:19 17.04.2020
4543 Clouds 11 1012 50 10000 6 150 19:59 17.04.2020
4544 Clouds 11 1012 50 10000 5 150 19:41 17.04.2020
4545 Clouds 11 1012 50 10000 5 150 19:22 17.04.2020
4546 Clouds 12 1012 46 10000 6 160 18:44 17.04.2020
4547 Clouds 12 1012 46 10000 6 160 18:24 17.04.2020
4548 Clouds 12 1012 46 10000 6 160 18:24 17.04.2020
4549 Clouds 12 1012 46 10000 6 160 17:56 17.04.2020
4550 Clouds 12 1012 46 10000 6 160 17:37 17.04.2020
4551 Clouds 12 1012 46 10000 5 160 17:18 17.04.2020
4552 Clouds 13 1012 43 10000 5 150 16:42 17.04.2020
4553 Clouds 13 1012 43 10000 5 150 16:23 17.04.2020
4554 Clouds 13 1011 47 10000 6 150 15:42 17.04.2020
4555 Clouds 13 1011 47 10000 6 150 15:24 17.04.2020
4556 Clouds 13 1011 47 10000 5 150 14:57 17.04.2020
4557 Clouds 14 1011 44 10000 5 150 14:38 17.04.2020
4558 Clouds 14 1011 44 10000 5 150 14:20 17.04.2020
4559 Clouds 14 1012 41 10000 5 150 13:41 17.04.2020
4560 Clouds 14 1012 41 10000 5 150 13:22 17.04.2020
4561 Clouds 14 1012 41 10000 5 150 13:22 17.04.2020
4562 Clouds 14 1012 41 10000 5 160 12:59 17.04.2020
4563 Clouds 14 1012 41 10000 5 160 12:41 17.04.2020
4564 Clouds 14 1012 41 10000 5 160 12:22 17.04.2020
4565 Clouds 13 1012 47 10000 5 170 11:40 17.04.2020
4566 Clouds 12 1012 50 10000 6 160 11:19 17.04.2020
4567 Clouds 12 1012 50 10000 6 160 10:55 17.04.2020
4568 Clouds 12 1012 50 10000 4 160 10:37 17.04.2020
4569 Clouds 11 1012 53 10000 5 160 10:18 17.04.2020
4570 Clouds 11 1012 50 10000 5 150 09:40 17.04.2020
4571 Clouds 11 1012 50 10000 5 150 09:20 17.04.2020
4572 Clouds 10 1013 53 10000 5 150 08:56 17.04.2020
4573 Clouds 10 1013 53 10000 5 150 08:37 17.04.2020
4574 Clouds 10 1013 53 10000 5 150 08:18 17.04.2020
4575 Clouds 9 1013 57 10000 5 150 07:43 17.04.2020
4576 Clouds 8 1013 61 10000 5 150 07:20 17.04.2020
4577 Clouds 7 1014 65 10000 5 150 06:45 17.04.2020
4578 Clouds 6 1014 70 10000 4 150 06:22 17.04.2020
4579 Clouds 5 1014 91 10000 4 160 04:27 17.04.2020
4580 Clouds 5 1014 86 10000 4 150 03:19 17.04.2020
4581 Clouds 4 1015 80 10000 4 140 01:58 17.04.2020
4582 Clouds 3 1015 86 10000 3 140 01:24 17.04.2020
4583 Clouds 4 1015 86 10000 4 150 00:30 17.04.2020
4584 Clouds 4 1015 86 10000 4 150 23:56 16.04.2020
4585 Clouds 4 1016 86 10000 4 160 23:38 16.04.2020
4586 Clouds 4 1016 86 10000 4 160 23:19 16.04.2020
4587 Clouds 4 1016 86 10000 4 160 22:56 16.04.2020
4588 Clouds 3 1016 100 10000 3 150 22:37 16.04.2020
4589 Clouds 3 1016 100 10000 3 150 22:37 16.04.2020
4590 Clouds 3 1016 100 10000 3 150 22:19 16.04.2020
4591 Clouds 2 1016 100 10000 2 110 21:41 16.04.2020
4592 Clouds 2 1016 100 10000 2 110 21:20 16.04.2020
4593 Clouds 2 1016 100 10000 2 100 20:57 16.04.2020
4594 Clouds 2 1016 100 10000 2 110 20:38 16.04.2020
4595 Clouds 2 1017 100 10000 1 80 20:19 16.04.2020
4596 Clouds 2 1016 93 10000 3.24 137 19:40 16.04.2020
4597 Clouds 2 1016 100 10000 2 110 19:20 16.04.2020
4598 Clouds 2 1016 100 10000 2 110 18:58 16.04.2020
4599 Clouds 2 1016 93 10000 1 0 18:39 16.04.2020
4600 Clouds 2 1016 96 10000 2 250 18:21 16.04.2020
4601 Clouds 2 1016 96 10000 2 250 17:55 16.04.2020
4602 Clouds 4 1016 96 10000 1 70 17:37 16.04.2020
4603 Clouds 4 1016 96 10000 1 70 17:18 16.04.2020
4604 Clouds 7 1016 65 10000 1 210 16:41 16.04.2020
4605 Clouds 7 1016 65 10000 1 210 16:20 16.04.2020
4606 Clouds 8 1016 61 10000 3 260 15:45 16.04.2020
4607 Clouds 9 1016 96 10000 2 290 15:19 16.04.2020
4608 Clouds 9 1016 96 10000 2 290 14:58 16.04.2020
4609 Clouds 9 1016 96 10000 3 280 14:39 16.04.2020
4610 Clouds 9 1016 57 10000 4 290 14:20 16.04.2020
4611 Clouds 9 1016 57 10000 4 290 13:57 16.04.2020
4612 Clouds 9 1016 96 10000 4 280 13:37 16.04.2020
4613 Clouds 9 1016 96 10000 4 280 13:37 16.04.2020
4614 Clouds 9 1016 96 10000 4 280 13:37 16.04.2020
4615 Clouds 9 1015 96 10000 4 280 13:19 16.04.2020
4616 Clouds 9 1015 96 10000 4 280 12:56 16.04.2020
4617 Clouds 9 1015 96 10000 4 280 12:56 16.04.2020
4618 Clouds 8 1015 96 10000 3 280 12:38 16.04.2020
4619 Clouds 8 1015 96 10000 3 290 12:19 16.04.2020
4620 Clouds 8 1015 96 10000 3 290 12:18 16.04.2020
4621 Clouds 8 1015 96 10000 3 290 11:55 16.04.2020
4622 Clouds 7 1015 96 10000 3 320 11:36 16.04.2020
4623 Clouds 7 1015 96 10000 3 320 11:18 16.04.2020
4624 Clouds 7 1015 96 10000 3 320 11:18 16.04.2020
4625 Clouds 7 1015 96 10000 4 300 10:40 16.04.2020
4626 Clouds 7 1015 96 10000 4 300 10:19 16.04.2020
4627 Clouds 7 1014 96 10000 4 320 09:58 16.04.2020
4628 Clouds 6 1014 96 10000 5 280 09:38 16.04.2020
4629 Rain 6 1014 96 10000 5 280 09:19 16.04.2020
4630 Rain 6 1014 92 10000 5 280 09:19 16.04.2020
4631 Rain 5 1014 92 10000 4 310 08:42 16.04.2020
4632 Rain 5 1014 92 10000 4 310 08:23 16.04.2020
4633 Rain 4 1014 92 10000 5 300 07:46 16.04.2020
4634 Rain 4 1014 92 10000 5 300 07:27 16.04.2020
4635 Rain 3 1013 96 10000 4 300 06:45 16.04.2020
4636 Rain 3 1013 96 10000 4 300 06:26 16.04.2020
4637 Rain 3 1013 96 10000 4 300 05:37 16.04.2020
4638 Rain 3 1012 74 10000 2 360 04:28 16.04.2020
4639 Rain 3 1012 74 10000 4 300 03:24 16.04.2020
4640 Rain 3 1011 74 10000 4 300 02:49 16.04.2020
4641 Rain 3 1011 74 10000 3 320 02:31 16.04.2020
4642 Rain 3 1011 96 10000 4 290 01:19 16.04.2020
4643 Clouds 3 1011 96 10000 4 290 00:37 16.04.2020
4644 Clouds 4 1011 97 10000 4 300 23:59 15.04.2020
4645 Rain 3 1011 86 10000 3 300 23:41 15.04.2020
4646 Rain 3 1011 86 10000 3 300 23:22 15.04.2020
4647 Rain 4 1011 69 10000 3 30 22:41 15.04.2020
4648 Rain 4 1011 69 10000 3 30 22:22 15.04.2020
4649 Rain 4 1011 69 10000 3 30 22:22 15.04.2020
4650 Rain 4 1011 69 10000 3 360 21:59 15.04.2020
4651 Rain 3 1011 74 10000 4 350 21:41 15.04.2020
4652 Rain 3 1011 74 10000 4 350 21:23 15.04.2020
4653 Rain 3 1011 74 10000 4 360 20:58 15.04.2020
4654 Rain 3 1011 74 10000 2 20 20:40 15.04.2020
4655 Rain 3 1011 74 10000 2 20 20:22 15.04.2020
4656 Rain 3 1011 74 10000 2 20 20:22 15.04.2020
4657 Rain 4 1011 69 10000 6 320 19:46 15.04.2020
4658 Rain 4 1011 69 10000 6 320 19:46 15.04.2020
4659 Rain 3 1012 74 10000 3 330 19:21 15.04.2020
4660 Rain 3 1012 74 10000 3 290 18:57 15.04.2020
4661 Rain 3 1012 74 10000 3 290 18:39 15.04.2020
4662 Clouds 3 1012 74 10000 4 300 18:21 15.04.2020
4663 Clouds 3 1012 74 10000 4 300 17:55 15.04.2020
4664 Clouds 4 1012 69 10000 2 280 17:36 15.04.2020
4665 Clouds 4 1012 69 10000 2 280 17:36 15.04.2020
4666 Clouds 4 1012 69 10000 2 280 17:18 15.04.2020
4667 Clouds 4 1012 69 10000 2 280 17:18 15.04.2020
4668 Clouds 4 1012 69 10000 3 300 16:54 15.04.2020
4669 Clouds 5 1012 65 10000 3 280 16:36 15.04.2020
4670 Clouds 5 1012 65 10000 3 280 16:18 15.04.2020
4671 Clouds 5 1012 60 10000 4 280 15:55 15.04.2020
4672 Clouds 6 1011 60 10000 4 260 15:36 15.04.2020
4673 Clouds 6 1011 60 10000 4 260 15:18 15.04.2020
4674 Clouds 9 1011 42 10000 3 120 14:41 15.04.2020
4675 Rain 9 1011 42 10000 3 120 14:23 15.04.2020
4676 Rain 9 1011 42 10000 4 120 13:59 15.04.2020
4677 Rain 9 1011 39 10000 4 110 13:40 15.04.2020
4678 Rain 9 1011 42 10000 3 130 13:21 15.04.2020
4679 Rain 9 1011 42 10000 3 130 12:58 15.04.2020
4680 Rain 9 1011 42 10000 4 110 12:39 15.04.2020
4681 Rain 9 1012 42 10000 3 130 12:21 15.04.2020
4682 Rain 9 1012 42 10000 3 130 11:57 15.04.2020
4683 Rain 9 1012 45 10000 4 110 11:38 15.04.2020
4684 Rain 9 1012 45 10000 4 110 11:20 15.04.2020
4685 Rain 8 1012 45 10000 3 120 10:38 15.04.2020
4686 Rain 8 1012 45 10000 3 120 10:19 15.04.2020
4687 Rain 8 1012 45 10000 4 120 09:56 15.04.2020
4688 Rain 8 1012 45 10000 5 110 09:38 15.04.2020
4689 Rain 8 1012 45 10000 5 110 09:19 15.04.2020
4690 Rain 7 1013 48 10000 5 120 08:42 15.04.2020
4691 Rain 7 1013 48 10000 5 120 08:23 15.04.2020
4692 Rain 7 1013 45 10000 5 120 07:59 15.04.2020
4693 Rain 6 1013 48 10000 5 120 07:40 15.04.2020
4694 Rain 5 1013 52 10000 5 120 06:59 15.04.2020
4695 Clouds 5 1013 52 10000 6 110 06:24 15.04.2020
4696 Clouds 5 1014 52 10000 5 110 05:34 15.04.2020
4697 Clouds 4 1014 55 10000 6 100 04:47 15.04.2020
4698 Clouds 4 1014 55 10000 6 100 04:18 15.04.2020
4699 Clouds 4 1014 55 10000 4 100 03:22 15.04.2020
4700 Clouds 4 1014 60 10000 6 90 02:45 15.04.2020
4701 Clouds 4 1014 55 10000 6 100 01:51 15.04.2020
4702 Clouds 4 1015 60 10000 5 90 01:25 15.04.2020
4703 Clouds 5 1015 52 10000 6 110 00:47 15.04.2020
4704 Clouds 5 1015 52 10000 6 110 00:24 15.04.2020
4705 Clouds 5 1015 52 10000 5 100 23:55 14.04.2020
4706 Clouds 5 1015 52 10000 5 110 23:37 14.04.2020
4707 Clouds 5 1015 52 10000 5 110 23:19 14.04.2020
4708 Clouds 5 1015 52 10000 5 110 22:56 14.04.2020
4709 Clouds 5 1016 52 10000 6 110 22:38 14.04.2020
4710 Clouds 5 1016 52 10000 6 110 22:20 14.04.2020
4711 Clouds 5 1016 52 10000 6 110 21:56 14.04.2020
4712 Clouds 5 1016 52 10000 6 110 21:56 14.04.2020
4713 Clouds 5 1016 52 10000 6 120 21:37 14.04.2020
4714 Clouds 5 1016 52 10000 6 120 21:19 14.04.2020
4715 Clouds 6 1016 48 10000 6 110 20:41 14.04.2020
4716 Clouds 6 1016 48 10000 6 110 20:23 14.04.2020
4717 Clouds 6 1016 48 10000 6 120 19:59 14.04.2020
4718 Clouds 6 1016 48 10000 6 110 19:40 14.04.2020
4719 Clouds 6 1016 48 10000 6 110 19:21 14.04.2020
4720 Clouds 6 1016 52 10000 6 100 18:57 14.04.2020
4721 Clouds 6 1017 48 10000 5 110 18:39 14.04.2020
4722 Clouds 6 1017 48 10000 5 110 18:39 14.04.2020
4723 Clouds 6 1017 48 10000 5 110 18:20 14.04.2020
4724 Clouds 6 1017 52 10000 6 100 17:56 14.04.2020
4725 Clouds 6 1017 52 10000 6 100 17:37 14.04.2020
4726 Clouds 7 1016 48 10000 7 100 17:19 14.04.2020
4727 Clouds 8 1017 45 10000 7 110 16:43 14.04.2020
4728 Clouds 8 1017 45 10000 7 110 16:24 14.04.2020
4729 Clouds 9 1017 42 10000 7 100 15:58 14.04.2020
4730 Clouds 9 1017 42 10000 7 100 15:58 14.04.2020
4731 Clouds 9 1017 42 10000 7 100 15:58 14.04.2020
4732 Clouds 9 1017 42 10000 7 100 15:40 14.04.2020
4733 Clouds 9 1017 42 10000 7 100 15:21 14.04.2020
4734 Clouds 9 1017 42 10000 8 100 14:59 14.04.2020
4735 Clouds 10 1017 39 10000 7 100 14:40 14.04.2020
4736 Clouds 10 1017 39 10000 7 100 14:40 14.04.2020
4737 Clouds 10 1017 39 10000 7 100 14:21 14.04.2020
4738 Clouds 10 1017 39 10000 7 100 13:56 14.04.2020
4739 Clouds 9 1017 42 10000 7 110 13:38 14.04.2020
4740 Clouds 9 1017 45 10000 7 90 13:20 14.04.2020
4741 Clouds 9 1017 45 10000 7 90 12:42 14.04.2020
4742 Clouds 9 1017 45 10000 7 90 12:21 14.04.2020
4743 Clouds 10 1017 43 10000 7 100 11:55 14.04.2020
4744 Clouds 10 1017 39 10000 6 120 11:37 14.04.2020
4745 Clouds 10 1017 39 10000 6 120 11:18 14.04.2020
4746 Clouds 9 1017 45 10000 6 80 10:44 14.04.2020
4747 Clouds 9 1017 45 10000 6 80 10:24 14.04.2020
4748 Clouds 10 1017 39 10000 6 110 09:55 14.04.2020
4749 Clouds 8 1017 49 10000 5 120 09:37 14.04.2020
4750 Clouds 8 1017 49 10000 5 120 09:18 14.04.2020
4751 Clouds 7 1017 52 10000 5 100 08:41 14.04.2020
4752 Clouds 3 1018 95 0 3.72 98 08:22 14.04.2020
4753 Clouds 3 1018 95 0 3.72 98 07:53 14.04.2020
4754 Clouds 3 1018 95 0 3.72 98 07:30 14.04.2020
4755 Clouds 6 1017 48 10000 4 130 06:49 14.04.2020
4756 Clouds 6 1017 52 10000 3 110 06:18 14.04.2020
4757 Clouds 1 1017 74 10000 4 90 03:52 14.04.2020
4758 Clouds 2 1018 96 0 3.37 87 02:54 14.04.2020
4759 Clouds 0 1016 96 10000 3 90 01:39 14.04.2020
4760 Clouds 0 1016 96 10000 3 90 01:18 14.04.2020
4761 Clouds -1 1016 86 10000 3 90 00:38 14.04.2020
4762 Clouds 0 1016 95 10000 2 90 00:18 14.04.2020
4763 Clouds 0 1016 95 10000 2 90 23:40 13.04.2020
4764 Clouds 0 1016 95 10000 2 90 23:22 13.04.2020
4765 Clouds 0 1016 95 10000 3 90 22:57 13.04.2020
4766 Clouds 1 1016 74 10000 3 90 22:39 13.04.2020
4767 Clouds 1 1016 74 10000 3 90 22:20 13.04.2020
4768 Clouds 1 1016 74 10000 4 90 21:55 13.04.2020
4769 Clouds 1 1016 74 10000 3 90 21:37 13.04.2020
4770 Clouds 1 1016 74 10000 3 90 21:18 13.04.2020
4771 Clouds 2 1015 69 10000 3 90 20:41 13.04.2020
4772 Clouds 2 1015 69 10000 3 90 20:20 13.04.2020
4773 Clouds 2 1015 69 10000 2 90 19:59 13.04.2020
4774 Clouds 2 1015 74 10000 2 90 19:38 13.04.2020
4775 Clouds 3 1015 69 10000 3 100 19:19 13.04.2020
4776 Clouds 3 1015 69 10000 3 100 19:19 13.04.2020
4777 Clouds 3 1015 69 10000 3 100 18:58 13.04.2020
4778 Clouds 3 1015 69 10000 3 90 18:39 13.04.2020
4779 Clouds 5 1015 60 10000 3 90 18:20 13.04.2020
4780 Clouds 5 1015 60 10000 3 90 17:58 13.04.2020
4781 Clouds 5 1015 60 10000 3 90 17:58 13.04.2020
4782 Clouds 5 1015 60 10000 3 90 17:38 13.04.2020
4783 Clouds 5 1015 60 10000 3 90 17:19 13.04.2020
4784 Clouds 6 1015 56 10000 4 90 16:58 13.04.2020
4785 Clouds 6 1015 56 10000 4 90 16:58 13.04.2020
4786 Clouds 7 1014 52 10000 4 80 16:40 13.04.2020
4787 Clouds 7 1014 52 10000 4 80 16:20 13.04.2020
4788 Clouds 10 1014 37 10000 2 110 15:57 13.04.2020
4789 Clouds 11 1014 34 10000 2 140 15:38 13.04.2020
4790 Clouds 11 1014 34 10000 2 140 15:20 13.04.2020
4791 Clouds 11 1014 37 10000 3 160 14:43 13.04.2020
4792 Clouds 11 1014 37 10000 3 160 14:24 13.04.2020
4793 Clouds 11 1014 37 10000 4 140 13:57 13.04.2020
4794 Clouds 11 1014 40 10000 3 170 13:39 13.04.2020
4795 Clouds 11 1014 40 10000 3 170 13:21 13.04.2020
4796 Clouds 11 1014 40 10000 3 160 12:59 13.04.2020
4797 Clouds 11 1014 40 10000 4 150 12:40 13.04.2020
4798 Clouds 11 1014 40 10000 3 150 12:20 13.04.2020
4799 Clouds 11 1014 40 10000 3 150 11:58 13.04.2020
4800 Clouds 11 1014 43 10000 4 150 11:40 13.04.2020
4801 Clouds 11 1014 43 10000 4 150 11:18 13.04.2020
4802 Clouds 10 1014 46 10000 3 160 10:55 13.04.2020
4803 Clouds 10 1014 46 10000 4 150 10:37 13.04.2020
4804 Clouds 10 1014 46 10000 4 150 10:18 13.04.2020
4805 Clouds 8 1014 52 10000 4 150 09:44 13.04.2020
4806 Clouds 8 1014 52 10000 4 150 09:26 13.04.2020
4807 Clouds 8 1014 52 10000 4 130 08:48 13.04.2020
4808 Clouds 8 1014 52 10000 4 150 08:29 13.04.2020
4809 Clouds 8 1014 52 10000 4 150 07:58 13.04.2020
4810 Clouds 8 1014 52 10000 3 70 07:38 13.04.2020
4811 Clouds 7 1014 56 10000 3 120 07:19 13.04.2020
4812 Clouds 6 1015 60 10000 3 140 06:46 13.04.2020
4813 Clouds 6 1015 60 10000 3 130 05:53 13.04.2020
4814 Clouds 6 1015 60 10000 3 140 05:27 13.04.2020
4815 Clouds 6 1015 60 10000 3 130 04:50 13.04.2020
4816 Clouds 5 1015 65 10000 3 120 04:20 13.04.2020
4817 Clouds 5 1015 65 10000 3 140 03:44 13.04.2020
4818 Clouds 6 1015 60 10000 4 150 02:48 13.04.2020
4819 Clouds 6 1015 60 10000 4 150 01:48 13.04.2020
4820 Clouds 6 1016 60 10000 3 150 01:30 13.04.2020
4821 Clouds 6 1016 60 10000 3 150 00:53 13.04.2020
4822 Clouds 6 1016 60 10000 2 140 00:31 13.04.2020
4823 Clouds 6 1016 60 10000 3 130 23:58 12.04.2020
4824 Clouds 5 1016 65 10000 3 120 23:40 12.04.2020
4825 Clouds 5 1016 65 10000 3 120 23:21 12.04.2020
4826 Clouds 6 1016 60 10000 3 140 22:55 12.04.2020
4827 Clouds 6 1016 60 10000 3 150 22:36 12.04.2020
4828 Clouds 6 1016 60 10000 3 150 22:36 12.04.2020
4829 Clouds 6 1016 60 10000 3 150 22:18 12.04.2020
4830 Clouds 5 1016 60 10000 2 110 21:38 12.04.2020
4831 Clouds 5 1016 60 10000 2 110 21:20 12.04.2020
4832 Clouds 4 1017 64 10000 2 100 20:44 12.04.2020
4833 Clouds 4 1017 64 10000 2 100 20:44 12.04.2020
4834 Clouds 4 1017 64 10000 2 100 20:24 12.04.2020
4835 Clouds 5 1017 60 10000 2 100 19:59 12.04.2020
4836 Clouds 5 1017 56 10000 1 60 19:41 12.04.2020
4837 Clouds 6 1017 52 10000 2 70 19:20 12.04.2020
4838 Clouds 6 1018 52 10000 2 70 18:58 12.04.2020
4839 Clouds 6 1018 52 10000 2 70 18:39 12.04.2020
4840 Clouds 7 1018 48 10000 2 70 18:19 12.04.2020
4841 Clouds 7 1018 48 10000 2 70 17:55 12.04.2020
4842 Clouds 8 1018 42 10000 2 100 17:37 12.04.2020
4843 Clouds 8 1018 42 10000 2 100 17:37 12.04.2020
4844 Clouds 8 1018 42 10000 2 100 17:18 12.04.2020
4845 Clouds 9 1018 42 10000 2 110 16:41 12.04.2020
4846 Clouds 9 1018 42 10000 2 110 16:22 12.04.2020
4847 Clouds 12 1018 32 10000 2 110 15:53 12.04.2020
4848 Clouds 12 1018 34 10000 2 120 15:35 12.04.2020
4849 Clouds 14 1018 26 10000 2 210 14:58 12.04.2020
4850 Clouds 14 1018 28 10000 2 230 14:39 12.04.2020
4851 Clouds 14 1018 28 10000 2 230 14:20 12.04.2020
4852 Clouds 14 1018 26 10000 2 210 13:56 12.04.2020
4853 Clouds 14 1018 28 10000 3 210 13:36 12.04.2020
4854 Clouds 14 1019 30 10000 4 220 13:18 12.04.2020
4855 Clouds 14 1019 28 10000 4 220 12:45 12.04.2020
4856 Clouds 14 1019 28 10000 4 220 12:21 12.04.2020
4857 Clouds 14 1019 30 10000 4 210 11:58 12.04.2020
4858 Clouds 13 1019 32 10000 4 200 11:37 12.04.2020
4859 Clouds 13 1019 32 10000 4 200 11:18 12.04.2020
4860 Clouds 13 1019 32 10000 5 190 10:55 12.04.2020
4861 Clouds 13 1019 32 10000 4 200 10:37 12.04.2020
4862 Clouds 13 1019 32 10000 4 200 10:19 12.04.2020
4863 Clouds 12 1019 37 10000 4 180 09:55 12.04.2020
4864 Clouds 12 1019 37 10000 5 200 09:37 12.04.2020
4865 Clouds 12 1019 37 10000 5 200 09:19 12.04.2020
4866 Clouds 11 1019 43 10000 4 170 08:47 12.04.2020
4867 Clouds 10 1019 46 10000 4 180 08:28 12.04.2020
4868 Clouds 8 1020 49 10000 3 170 07:46 12.04.2020
4869 Clouds 8 1020 49 10000 3 200 07:19 12.04.2020
4870 Clouds 7 1020 52 10000 2 220 06:37 12.04.2020
4871 -273 0 0 0 0 0 06:00 12.04.2020
4872 Clouds 6 1019 56 10000 3 200 05:41 12.04.2020
4873 Clouds 4 1019 69 10000 2 190 03:48 12.04.2020
4874 Clouds 4 1019 69 10000 3 180 03:25 12.04.2020
4875 Clouds 3 1019 74 10000 3 180 02:35 12.04.2020
4876 Clouds 3 1019 74 10000 3 170 01:53 12.04.2020
4877 Clouds 3 1019 93 10000 2 160 01:21 12.04.2020
4878 Clouds 3 1018 93 10000 3 160 00:42 12.04.2020
4879 Clouds 3 1018 91 10000 3 160 00:20 12.04.2020
4880 Clouds 4 1018 91 10000 2 160 23:47 11.04.2020
4881 Clouds 4 1018 91 10000 2 160 23:26 11.04.2020
4882 Clouds 4 1018 91 10000 2 160 22:57 11.04.2020
4883 Clouds 5 1018 91 10000 3 190 22:36 11.04.2020
4884 Clouds 5 1018 91 10000 3 190 22:18 11.04.2020
4885 Clouds 6 1018 91 10000 3 190 21:54 11.04.2020
4886 Clouds 7 1018 91 10000 3 200 21:36 11.04.2020
4887 Clouds 7 1018 93 10000 3 200 21:18 11.04.2020
4888 Clouds 7 1018 93 10000 3 190 20:54 11.04.2020
4889 Clouds 7 1018 65 10000 3 200 20:36 11.04.2020
4890 Clouds 7 1018 65 10000 3 200 20:18 11.04.2020
4891 Clouds 7 1018 93 10000 4 200 19:54 11.04.2020
4892 Clouds 8 1018 61 10000 4 200 19:36 11.04.2020
4893 Clouds 8 1018 61 10000 4 200 19:18 11.04.2020
4894 Clouds 8 1018 61 10000 4 200 18:54 11.04.2020
4895 Clouds 8 1018 61 10000 4 200 18:54 11.04.2020
4896 Clouds 9 1018 57 10000 5 190 18:36 11.04.2020
4897 Clouds 9 1018 57 10000 4 190 18:18 11.04.2020
4898 Clouds 9 1018 57 10000 4 190 18:18 11.04.2020
4899 Clouds 9 1018 57 10000 4 190 17:55 11.04.2020
4900 Clouds 9 1017 57 10000 4 190 17:36 11.04.2020
4901 Clouds 9 1017 57 10000 4 190 17:18 11.04.2020
4902 Clouds 10 1017 53 10000 4 190 16:41 11.04.2020
4903 Clouds 10 1017 53 10000 4 190 16:21 11.04.2020
4904 Clouds 11 1017 94 10000 4 190 15:40 11.04.2020
4905 Clouds 11 1017 94 10000 4 190 15:40 11.04.2020
4906 Clouds 11 1017 96 10000 4 190 15:20 11.04.2020
4907 Clouds 12 1017 96 10000 4 190 14:57 11.04.2020
4908 Clouds 12 1017 96 10000 5 200 14:39 11.04.2020
4909 Clouds 12 1017 96 10000 5 200 14:20 11.04.2020
4910 Clouds 12 1017 96 10000 5 200 13:41 11.04.2020
4911 Clouds 12 1017 96 10000 5 200 13:23 11.04.2020
4912 Clouds 12 1017 46 10000 6 200 12:57 11.04.2020
4913 Clouds 12 1017 46 10000 5 200 12:37 11.04.2020
4914 Clouds 12 1017 46 10000 5 190 12:18 11.04.2020
4915 Clouds 11 1017 50 10000 6 190 11:41 11.04.2020
4916 Clouds 11 1017 50 10000 6 190 11:20 11.04.2020
4917 Clouds 11 1016 50 10000 6 200 10:56 11.04.2020
4918 Clouds 11 1016 50 10000 6 190 10:37 11.04.2020
4919 Clouds 11 1016 50 10000 6 190 10:18 11.04.2020
4920 Clouds 10 1016 96 10000 6 190 09:55 11.04.2020
4921 Clouds 10 1016 53 10000 5 170 09:37 11.04.2020
4922 Clouds 10 1016 53 10000 5 170 09:18 11.04.2020
4923 Clouds 8 1017 94 10000 5 170 08:42 11.04.2020
4924 Clouds 8 1017 94 10000 5 170 08:23 11.04.2020
4925 Clouds 5 1017 65 10000 5 150 07:43 11.04.2020
4926 Clouds 5 1017 65 10000 5 150 07:24 11.04.2020
4927 Clouds 4 1017 69 10000 4 140 06:37 11.04.2020
4928 Clouds 4 1017 69 10000 4 160 05:58 11.04.2020
4929 Clouds 2 1017 80 10000 6 190 04:26 11.04.2020
4930 Clouds 1 1017 80 10000 4 170 02:53 11.04.2020
4931 Clouds 1 1017 80 10000 4 180 01:41 11.04.2020
4932 Clouds 1 1017 80 10000 4 170 01:18 11.04.2020
4933 Clouds 2 1017 80 10000 4 170 00:42 11.04.2020
4934 Clouds 2 1017 74 10000 4 190 00:18 11.04.2020
4935 Clouds 2 1017 80 10000 5 190 23:43 10.04.2020
4936 Clouds 2 1017 80 10000 5 190 23:19 10.04.2020
4937 Clouds 2 1018 74 10000 4 190 22:58 10.04.2020
4938 Clouds 2 1018 74 10000 4 190 22:39 10.04.2020
4939 Clouds 2 1018 74 10000 4 190 22:20 10.04.2020
4940 Clouds 3 1017 69 10000 5 190 21:42 10.04.2020
4941 Clouds 3 1017 69 10000 5 190 21:42 10.04.2020
4942 Clouds 3 1017 69 10000 5 190 21:22 10.04.2020
4943 Clouds 3 1018 69 10000 5 190 20:59 10.04.2020
4944 Clouds 3 1018 64 10000 5 190 20:40 10.04.2020
4945 Clouds 3 1018 64 10000 5 190 20:21 10.04.2020
4946 Clouds 4 1017 60 10000 5 190 19:56 10.04.2020
4947 Clouds 4 1017 60 10000 5 190 19:56 10.04.2020
4948 Clouds 4 1017 60 10000 5 190 19:38 10.04.2020
4949 Clouds 4 1017 60 10000 5 190 19:38 10.04.2020
4950 Clouds 4 1017 60 10000 5 190 19:19 10.04.2020
4951 Clouds 4 1017 60 10000 5 190 18:56 10.04.2020
4952 Clouds 4 1017 55 10000 5 190 18:38 10.04.2020
4953 Clouds 5 1017 52 10000 6 190 18:20 10.04.2020
4954 Clouds 5 1017 52 10000 6 190 17:57 10.04.2020
4955 Clouds 5 1017 52 10000 6 190 17:57 10.04.2020
4956 Clouds 5 1017 56 10000 5 180 17:39 10.04.2020
4957 Clouds 5 1017 56 10000 5 180 17:19 10.04.2020
4958 Clouds 5 1017 52 10000 5 190 16:46 10.04.2020
4959 Clouds 5 1017 52 10000 5 190 16:24 10.04.2020
4960 Clouds 6 1017 48 10000 5 190 15:59 10.04.2020
4961 Clouds 6 1017 48 10000 6 180 15:40 10.04.2020
4962 Clouds 6 1017 48 10000 6 180 15:21 10.04.2020
4963 Clouds 7 1017 45 10000 5 190 14:59 10.04.2020
4964 Clouds 7 1017 45 10000 6 200 14:41 10.04.2020
4965 Clouds 7 1017 45 10000 6 200 14:23 10.04.2020
4966 Clouds 7 1017 45 10000 6 200 13:56 10.04.2020
4967 Clouds 7 1016 45 10000 7 190 13:38 10.04.2020
4968 Clouds 7 1016 42 10000 7 190 13:20 10.04.2020
4969 Clouds 7 1016 42 10000 7 190 12:42 10.04.2020
4970 Clouds 6 1016 45 10000 7 190 12:21 10.04.2020
4971 Clouds 6 1016 45 10000 7 190 11:54 10.04.2020
4972 Clouds 6 1016 45 10000 8 190 11:36 10.04.2020
4973 Clouds 6 1016 45 10000 8 190 11:18 10.04.2020
4974 Clouds 6 1016 41 10000 9 200 10:41 10.04.2020
4975 Clouds 6 1016 41 10000 9 200 10:22 10.04.2020
4976 Clouds 5 1016 48 10000 7 200 09:44 10.04.2020
4977 Clouds 5 1016 48 10000 7 200 09:25 10.04.2020
4978 Clouds 5 1016 44 10000 8 200 08:55 10.04.2020
4979 Clouds 4 1016 48 10000 9 200 08:37 10.04.2020
4980 Clouds 4 1016 48 10000 9 200 08:18 10.04.2020
4981 Clouds 4 1016 48 10000 9 200 08:18 10.04.2020
4982 Clouds 3 1016 55 10000 7 190 07:42 10.04.2020
4983 Clouds 3 1016 51 10000 6 190 07:21 10.04.2020
4984 Clouds 1 1016 59 10000 5 190 06:45 10.04.2020
4985 Clouds 1 1016 59 10000 5 190 06:25 10.04.2020
4986 Clouds 0 1016 95 10000 6 180 05:38 10.04.2020
4987 Clouds -1 1016 58 10000 5 190 04:57 10.04.2020
4988 Clouds -3 1016 68 10000 5 190 03:37 10.04.2020
4989 Clear -3 1016 68 10000 5 190 02:59 10.04.2020
4990 Clear -2 1016 63 10000 5 200 02:38 10.04.2020
4991 Clear -2 1016 63 10000 5 200 02:19 10.04.2020
4992 Clear -2 1016 63 10000 4 200 01:29 10.04.2020
4993 Clear -2 1016 63 10000 5 200 00:49 10.04.2020
4994 Clear -2 1016 63 10000 5 200 00:22 10.04.2020
4995 Clear -2 1016 63 10000 5 200 23:44 09.04.2020
4996 Clear -2 1016 63 10000 5 200 23:26 09.04.2020
4997 Clear -2 1016 63 10000 4 200 22:59 09.04.2020
4998 Clear -1 1016 58 10000 4 200 22:40 09.04.2020
4999 Clear -1 1016 58 10000 4 200 22:40 09.04.2020
5000 Clear -1 1016 58 10000 4 200 22:22 09.04.2020
5001 Clear -1 1015 63 10000 5 200 21:43 09.04.2020
5002 Clear -1 1015 63 10000 5 200 21:25 09.04.2020
5003 Clear -1 1015 63 10000 5 200 20:56 09.04.2020
5004 Clear -1 1016 63 10000 5 200 20:38 09.04.2020
5005 Clear -1 1016 63 10000 5 200 20:19 09.04.2020
5006 Clear -1 1016 63 10000 5 210 19:40 09.04.2020
5007 Clear -1 1015 63 10000 4 210 19:22 09.04.2020
5008 Clear -1 1015 63 10000 5 210 18:43 09.04.2020
5009 Clear -1 1015 63 10000 5 210 18:22 09.04.2020
5010 Clear 0 1015 96 10000 5 210 17:59 09.04.2020
5011 Clear -1 1015 63 10000 4 210 17:39 09.04.2020
5012 Clear -1 1015 63 10000 4 210 17:21 09.04.2020
5013 Clear 0 1014 96 10000 4 220 16:41 09.04.2020
5014 Clear 0 1014 96 10000 4 220 16:20 09.04.2020
5015 Clear 0 1013 96 10000 4 230 15:57 09.04.2020
5016 Clear 1 1013 55 10000 6 230 15:39 09.04.2020
5017 Clouds 1 1013 55 10000 6 230 15:20 09.04.2020
5018 Clouds 1 1013 59 10000 6 240 14:56 09.04.2020
5019 Clouds 0 1012 93 10000 7 240 14:38 09.04.2020
5020 Clouds 0 1012 93 10000 7 240 14:20 09.04.2020
5021 Clouds 0 1012 93 10000 7 240 14:20 09.04.2020
5022 Clouds 0 1012 93 10000 7 240 14:20 09.04.2020
5023 Clouds 0 1011 93 10000 9 250 13:42 09.04.2020
5024 Clouds 0 1011 93 10000 9 250 13:24 09.04.2020
5025 Clouds 0 1010 93 10000 9 250 12:58 09.04.2020
5026 Clouds 0 1010 93 10000 9 250 12:38 09.04.2020
5027 Clouds -1 1009 68 10000 9 250 12:20 09.04.2020
5028 Clouds -1 1008 68 10000 10 250 11:44 09.04.2020
5029 Clouds -1 1008 68 10000 10 250 11:20 09.04.2020
5030 Clouds -1 1007 68 10000 9 240 10:59 09.04.2020
5031 Clouds -1 1006 68 10000 10 240 10:41 09.04.2020
5032 Clouds -1 1006 68 10000 10 240 10:22 09.04.2020
5033 Clouds -2 1005 79 10000 8 240 09:57 09.04.2020
5034 Clouds -2 1005 74 10000 9 250 09:39 09.04.2020
5035 Clouds -2 1005 74 10000 9 250 09:20 09.04.2020
5036 Snow -2 1003 74 10000 9 250 08:44 09.04.2020
5037 Snow -2 1003 74 10000 9 250 08:24 09.04.2020
5038 Snow -3 1002 86 7000 8 240 07:59 09.04.2020
5039 Snow -3 1001 79 10000 8 250 07:37 09.04.2020
5040 Snow -3 1001 73 6000 8 240 07:18 09.04.2020
5041 Snow -3 1000 79 6000 7 240 06:28 09.04.2020
5042 Snow -4 999 92 2500 7 230 05:47 09.04.2020
5043 Snow -4 998 85 2600 8 230 05:20 09.04.2020
5044 Snow -4 995 85 3900 8 220 02:35 09.04.2020
5045 Snow -4 994 85 8000 8 210 01:45 09.04.2020
5046 Snow -4 994 85 8000 8 210 01:27 09.04.2020
5047 Clouds -4 994 79 10000 8 210 00:45 09.04.2020
5048 Clouds -4 993 79 10000 8 220 00:20 09.04.2020
5049 Clouds -4 993 79 10000 8 220 23:59 08.04.2020
5050 Clouds -4 993 79 10000 8 220 23:41 08.04.2020
5051 Clouds -4 993 79 10000 8 220 23:41 08.04.2020
5052 Clouds -4 993 79 10000 10 210 23:22 08.04.2020
5053 Snow -4 993 79 9000 8 210 22:44 08.04.2020
5054 Snow -4 992 85 7000 9 200 22:24 08.04.2020
5055 Snow -4 992 85 3400 8 200 21:57 08.04.2020
5056 Snow -4 992 85 3400 8 200 21:39 08.04.2020
5057 Snow -4 992 85 3400 8 200 21:21 08.04.2020
5058 Snow -4 992 85 2300 8 200 20:59 08.04.2020
5059 Snow -4 992 85 2300 8 200 20:40 08.04.2020
5060 Snow -4 992 85 2400 9 200 20:20 08.04.2020
5061 Snow -4 992 85 2400 9 200 19:58 08.04.2020
5062 Snow -4 991 85 4200 10 200 19:38 08.04.2020
5063 Snow -4 991 85 3900 9 190 19:20 08.04.2020
5064 Snow -4 991 85 2000 10 190 18:44 08.04.2020
5065 Snow -4 991 85 2000 10 190 18:25 08.04.2020
5066 Snow -4 991 79 2500 9 190 17:56 08.04.2020
5067 Clouds -3 991 68 10000 10 190 17:38 08.04.2020
5068 Clouds -3 990 68 10000 9 190 17:19 08.04.2020
5069 Snow -3 990 68 8000 11 190 16:42 08.04.2020
5070 Snow -4 990 79 3300 10 190 16:23 08.04.2020
5071 Snow -4 989 100 600 9 190 15:58 08.04.2020
5072 Snow -4 989 100 600 9 190 15:38 08.04.2020
5073 Snow -4 989 100 600 9 190 15:20 08.04.2020
5074 Snow -4 989 92 900 10 190 14:45 08.04.2020
5075 Snow -4 989 92 900 10 190 14:25 08.04.2020
5076 Snow -4 988 92 1100 10 190 13:56 08.04.2020
5077 Snow -3 988 86 1400 9 180 13:37 08.04.2020
5078 Snow -3 987 92 2300 10 190 13:19 08.04.2020
5079 Snow -2 986 79 6000 10 200 12:42 08.04.2020
5080 Snow -2 985 79 4400 10 190 12:18 08.04.2020
5081 Snow -2 985 79 4400 10 190 11:58 08.04.2020
5082 Snow -2 985 86 2200 10 190 11:39 08.04.2020
5083 Snow -2 985 86 2200 10 190 11:21 08.04.2020
5084 Snow -1 983 92 2800 9 180 10:56 08.04.2020
5085 Snow -1 983 92 2800 9 180 10:56 08.04.2020
5086 Snow -1 983 92 2800 9 180 10:37 08.04.2020
5087 Snow -1 983 92 2800 9 180 10:18 08.04.2020
5088 Snow 0 982 96 7000 8 170 09:55 08.04.2020
5089 Snow 0 982 97 1500 6 170 09:36 08.04.2020
5090 Snow 0 982 97 1500 6 170 09:18 08.04.2020
5091 Snow 0 981 97 10000 7 170 08:42 08.04.2020
5092 Snow 0 981 97 10000 7 170 08:22 08.04.2020
5093 Snow 0 981 97 5000 8 150 07:44 08.04.2020
5094 Snow 0 981 97 5000 8 150 07:25 08.04.2020
5095 Snow 0 981 97 9000 6 150 06:55 08.04.2020
5096 Snow 0 981 94 3300 5 160 05:56 08.04.2020
5097 Clouds 2 981 100 10000 6 130 03:49 08.04.2020
5098 Clouds 2 982 100 10000 5 120 02:49 08.04.2020
5099 Clouds 2 982 100 10000 5 120 02:19 08.04.2020
5100 Rain 3 983 93 10000 4 140 01:43 08.04.2020
5101 Rain 3 983 93 10000 4 140 01:22 08.04.2020
5102 Rain 3 983 100 10000 10 110 00:41 08.04.2020
5103 Rain 3 983 100 10000 10 110 00:21 08.04.2020
5104 Rain 3 985 100 7000 11 110 23:39 07.04.2020
5105 Rain 3 985 100 7000 11 110 23:20 07.04.2020
5106 Rain 3 985 100 9000 11 100 22:57 07.04.2020
5107 Rain 3 985 100 9000 11 100 22:57 07.04.2020
5108 Rain 3 986 100 8000 11 100 22:39 07.04.2020
5109 Rain 3 986 100 8000 11 100 22:19 07.04.2020
5110 Rain 3 988 100 7000 10 110 21:56 07.04.2020
5111 Rain 3 988 100 8000 11 100 21:38 07.04.2020
5112 Rain 3 988 100 8000 11 100 21:19 07.04.2020
5113 Rain 3 991 100 8000 10 90 20:55 07.04.2020
5114 Rain 3 991 100 8000 10 90 20:55 07.04.2020
5115 Rain 3 991 100 8000 10 90 20:36 07.04.2020
5116 Rain 3 992 100 10000 9 90 20:18 07.04.2020
5117 Rain 3 992 100 10000 9 90 20:18 07.04.2020
5118 Rain 2 994 100 9000 8 80 19:55 07.04.2020
5119 Rain 3 995 100 9000 7 90 19:36 07.04.2020
5120 Rain 3 995 100 9000 7 90 19:18 07.04.2020
5121 Rain 3 995 100 9000 7 90 19:18 07.04.2020
5122 Rain 3 996 100 10000 6 90 18:41 07.04.2020
5123 Rain 3 996 100 10000 6 90 18:21 07.04.2020
5124 Rain 3 997 93 10000 4 110 17:59 07.04.2020
5125 Clouds 3 997 93 10000 5 110 17:40 07.04.2020
5126 Clouds 3 997 93 10000 5 110 17:20 07.04.2020
5127 Rain 3 998 100 10000 5 60 16:45 07.04.2020
5128 Rain 3 998 100 10000 5 60 16:26 07.04.2020
5129 Clouds 2 1000 100 10000 6 40 15:47 07.04.2020
5130 Clouds 3 1000 100 8000 5 40 15:27 07.04.2020
5131 Clouds 3 1000 100 8000 5 40 14:58 07.04.2020
5132 Rain 2 1001 100 9000 3 30 14:39 07.04.2020
5133 Rain 2 1001 100 9000 3 30 14:20 07.04.2020
5134 Clouds 3 1002 100 10000 3 20 13:43 07.04.2020
5135 Clouds 3 1002 100 10000 3 20 13:20 07.04.2020
5136 Clouds 3 1002 100 10000 3.55 71 12:58 07.04.2020
5137 Rain 2 1003 100 10000 1 0 12:39 07.04.2020
5138 Rain 2 1003 100 10000 1 0 12:21 07.04.2020
5139 Rain 3 1003 100 10000 2 190 11:58 07.04.2020
5140 Rain 3 1003 100 10000 3 200 11:40 07.04.2020
5141 Rain 3 1003 100 10000 3 200 11:21 07.04.2020
5142 Rain 3 1003 100 9000 3 210 10:54 07.04.2020
5143 Rain 3 1003 100 10000 3 210 10:36 07.04.2020
5144 Rain 3 1003 100 9000 4 200 10:18 07.04.2020
5145 Rain 3 1003 100 9000 4 190 09:40 07.04.2020
5146 Rain 3 1003 100 9000 4 190 09:18 07.04.2020
5147 Rain 3 1003 100 9000 4 180 08:40 07.04.2020
5148 Rain 3 1003 100 9000 4 180 08:22 07.04.2020
5149 Rain 3 1003 100 9000 4 180 07:55 07.04.2020
5150 Rain 3 1002 100 6000 4 170 07:37 07.04.2020
5151 Rain 3 1003 100 9000 5 190 07:18 07.04.2020
5152 Rain 2 1003 100 7000 4 180 06:39 07.04.2020
5153 Rain 2 1002 100 8000 3 170 06:18 07.04.2020
5154 Rain 2 1002 100 9000 4 180 05:26 07.04.2020
5155 Rain 2 1002 100 10000 5 170 04:31 07.04.2020
5156 Rain 3 1003 93 10000 4 160 03:23 07.04.2020
5157 Clouds 2 1003 100 10000 5 130 02:47 07.04.2020
5158 Clouds 3 1004 100 10000 3 170 01:43 07.04.2020
5159 Clouds 3 1004 100 10000 3 170 01:22 07.04.2020
5160 Clouds 3 1005 100 10000 4 170 00:26 07.04.2020
5161 Rain 3 1005 100 10000 5 160 23:44 06.04.2020
5162 Rain 3 1005 100 10000 5 160 23:23 06.04.2020
5163 Rain 3 1005 100 10000 5 160 22:56 06.04.2020
5164 Clouds 3 1005 100 10000 5 150 22:37 06.04.2020
5165 Clouds 3 1005 100 10000 5 150 22:19 06.04.2020
5166 Clouds 2 1006 100 10000 5 150 21:56 06.04.2020
5167 Clouds 2 1006 100 9000 5 150 21:37 06.04.2020
5168 Clouds 2 1006 100 9000 5 150 21:18 06.04.2020
5169 Clouds 2 1006 100 10000 6 120 20:41 06.04.2020
5170 Clouds 2 1006 100 10000 6 120 20:21 06.04.2020
5171 Clouds 2 1007 100 10000 6 140 19:58 06.04.2020
5172 Clouds 2 1007 100 10000 6 140 19:39 06.04.2020
5173 Clouds 2 1008 100 10000 6 150 19:20 06.04.2020
5174 Clouds 2 1008 100 10000 6 150 18:45 06.04.2020
5175 Clouds 2 1008 100 10000 5 140 18:24 06.04.2020
5176 Clouds 2 1008 100 10000 5 140 17:59 06.04.2020
5177 Clouds 1 1008 100 10000 4 110 17:41 06.04.2020
5178 Clouds 1 1008 100 10000 4 110 17:19 06.04.2020
5179 Clouds 2 1009 100 10000 4 130 16:49 06.04.2020
5180 Clouds 2 1009 100 10000 4 140 16:30 06.04.2020
5181 Clouds 1 1009 100 10000 3 180 15:00 06.04.2020
5182 Clouds 1 1009 100 10000 1 0 13:45 06.04.2020
5183 Clouds 1 1009 100 10000 1 0 13:45 06.04.2020
5184 Clouds 1 1008 100 10000 2 200 13:23 06.04.2020
5185 Clouds 1 1008 100 10000 2 240 12:48 06.04.2020
5186 Clouds 1 1008 100 10000 2 240 12:47 06.04.2020
5187 Clouds 1 1008 100 10000 2 240 12:47 06.04.2020
5188 Clouds 1 1008 100 10000 2 240 12:47 06.04.2020
5189 Clouds 1 1008 100 10000 2 240 12:47 06.04.2020
5190 Clouds 2 1008 100 10000 3 220 12:20 06.04.2020
5191 -273 0 0 0 0 0 11:50 06.04.2020
5192 Clouds 1 1008 100 10000 3 280 11:50 06.04.2020
5193 Clouds 1 1008 100 10000 3 280 11:50 06.04.2020
5194 Clouds 1 1008 100 10000 3 280 11:48 06.04.2020
5195 Clouds 2 1008 100 10000 3 250 11:28 06.04.2020
5196 Clouds 2 1008 100 10000 3 250 11:28 06.04.2020
5197 Clouds 2 1008 100 10000 3 250 11:28 06.04.2020
5198 Clouds 2 1008 100 10000 3 250 11:28 06.04.2020
5199 Clouds 2 1008 100 10000 3 250 11:28 06.04.2020
5200 Clouds 2 1007 100 10000 4 260 10:46 06.04.2020
5201 Clouds 2 1007 100 10000 4 260 10:46 06.04.2020
5202 Clouds 2 1007 100 10000 4 260 10:46 06.04.2020
5203 Clouds 2 1007 100 10000 4 260 10:46 06.04.2020
5204 Clouds 2 1007 100 10000 4 260 10:46 06.04.2020
5205 Clouds 1 1007 100 10000 4 270 10:21 06.04.2020
5206 Clouds 1 1007 100 10000 4 270 10:21 06.04.2020
5207 Clouds 1 1007 100 10000 4 270 10:21 06.04.2020
5208 Clouds 1 1006 100 10000 4 280 09:42 06.04.2020
5209 Clouds 1 1006 100 10000 4 280 09:42 06.04.2020
5210 Clouds 1 1006 100 10000 4 280 09:42 06.04.2020
5211 Clouds 1 1006 100 10000 4 280 09:42 06.04.2020
5212 Clouds 1 1006 100 10000 4 280 09:42 06.04.2020
5213 Clouds 1 1006 100 10000 5 280 09:20 06.04.2020
5214 Clouds 1 1006 100 10000 6 280 08:49 06.04.2020
5215 Clouds 1 1005 100 10000 6 280 08:29 06.04.2020
5216 Clouds 1 1005 100 10000 6 280 08:29 06.04.2020
5217 Clouds 1 1005 100 10000 6 280 08:29 06.04.2020
5218 Clouds 1 1005 100 10000 5 290 07:24 06.04.2020
5219 Clouds 1 1005 100 10000 5 290 07:24 06.04.2020
5220 Clouds 1 1004 100 10000 5 280 06:28 06.04.2020
5221 Clouds 1 1003 100 10000 5 280 05:57 06.04.2020
5222 Clouds 1 1003 100 10000 5 280 05:57 06.04.2020
5223 Clouds 1 1003 100 10000 5 280 05:57 06.04.2020
5224 Snow 1 1003 100 2000 2 240 04:18 06.04.2020
5225 Clouds 1 1003 100 4500 2 200 02:54 06.04.2020
5226 Clouds 1 1003 100 10000 3 190 01:56 06.04.2020
5227 Clouds 2 1003 100 10000 4 190 00:58 06.04.2020
5228 Clouds 2 1003 100 10000 3 180 00:28 06.04.2020
5229 Clouds 2 1003 100 9000 3 190 23:55 05.04.2020
5230 Rain 3 1004 93 9000 4 190 23:37 05.04.2020
5231 Rain 3 1004 93 9000 4 190 23:19 05.04.2020
5232 Clouds 3 1004 100 10000 2 160 22:54 05.04.2020
5233 Clouds 2 1004 100 10000 2 100 22:36 05.04.2020
5234 Clouds 2 1004 100 10000 2 100 22:18 05.04.2020
5235 Clouds 3 1004 100 10000 2 150 21:41 05.04.2020
5236 Clouds 3 1005 100 10000 2 170 21:23 05.04.2020
5237 Clouds 3 1006 100 10000 3 210 20:24 05.04.2020
5238 Clouds 3 1006 100 10000 3 210 20:24 05.04.2020
5239 Clouds 3 1006 100 10000 4 230 19:43 05.04.2020
5240 Rain 2 1007 100 7000 6 220 19:24 05.04.2020
5241 Clouds 6 1006 48 10000 6 210 18:48 05.04.2020
5242 Clouds 6 1006 48 10000 4 170 18:18 05.04.2020
5243 Clouds 6 1006 48 10000 4 170 18:18 05.04.2020
5244 Clouds 6 1006 48 10000 5 160 17:47 05.04.2020
5245 Clouds 6 1006 48 10000 5 160 17:47 05.04.2020
5246 Clouds 6 1006 48 10000 5 160 17:47 05.04.2020
5247 Clouds 6 1006 48 10000 5 160 17:47 05.04.2020
5248 Clouds 6 1007 48 10000 5 160 17:22 05.04.2020
5249 Clouds 7 1007 45 10000 5 160 16:47 05.04.2020
5250 Clouds 7 1008 42 10000 5 160 16:19 05.04.2020
5251 Clouds 7 1008 42 10000 5 160 16:19 05.04.2020
5252 Clouds 7 1008 42 10000 5 160 15:45 05.04.2020
5253 Clouds 7 1008 45 10000 5 170 15:26 05.04.2020
5254 Clouds 7 1008 45 10000 5 170 15:26 05.04.2020
5255 Rain 8 1008 42 10000 5 170 14:48 05.04.2020
5256 Rain 8 1008 42 10000 5 170 14:48 05.04.2020
5257 Rain 8 1008 42 10000 5 170 14:48 05.04.2020
5258 Rain 8 1008 42 10000 5 170 14:48 05.04.2020
5259 Rain 8 1009 45 10000 5 160 13:59 05.04.2020
5260 Rain 8 1009 45 10000 5 160 13:40 05.04.2020
5261 Rain 8 1009 45 10000 5 160 13:40 05.04.2020
5262 Rain 8 1009 45 10000 5 160 13:40 05.04.2020
5263 Rain 8 1009 45 10000 5 160 13:40 05.04.2020
5264 Rain 8 1009 45 10000 5 160 13:40 05.04.2020
5265 Rain 8 1010 45 10000 6 160 12:20 05.04.2020
5266 Rain 8 1010 45 10000 6 160 12:20 05.04.2020
5267 Rain 8 1010 45 10000 6 160 12:20 05.04.2020
5268 Rain 8 1010 45 10000 6 160 12:20 05.04.2020
5269 Rain 8 1010 45 10000 6 160 11:39 05.04.2020
5270 Rain 8 1010 45 10000 6 160 11:19 05.04.2020
5271 Rain 8 1010 45 10000 6 160 10:47 05.04.2020
5272 Rain 8 1011 45 10000 6 160 10:23 05.04.2020
5273 Rain 8 1011 45 10000 7 160 09:53 05.04.2020
5274 Rain 7 1012 45 10000 7 160 09:27 05.04.2020
5275 Rain 7 1012 45 10000 7 160 09:27 05.04.2020
5276 Rain 7 1012 45 10000 7 160 09:27 05.04.2020
5277 Clouds 5 1013 52 10000 7 160 08:31 05.04.2020
5278 Clouds 5 1013 52 10000 7 160 08:31 05.04.2020
5279 Clouds 5 1013 52 10000 7 160 08:31 05.04.2020
5280 Clouds 5 1013 52 10000 7 160 08:31 05.04.2020
5281 Clouds 5 1013 52 10000 7 160 08:31 05.04.2020
5282 Clouds 3 1015 69 10000 6 150 07:02 05.04.2020
5283 Clouds 3 1015 69 10000 6 150 07:01 05.04.2020
5284 Clouds 3 1015 69 10000 6 150 07:00 05.04.2020
5285 Clouds 3 1015 69 10000 6 150 07:00 05.04.2020
5286 Clouds 3 1015 69 10000 6 150 06:59 05.04.2020
5287 Clouds 1 1018 100 10000 4 150 04:31 05.04.2020
5288 Rain 1 1018 100 9000 4 150 03:28 05.04.2020
5289 Rain 2 1019 100 5000 5 180 02:19 05.04.2020
5290 Rain 2 1019 93 8000 4 180 01:42 05.04.2020
5291 Rain 3 1019 74 10000 5 180 01:22 05.04.2020
5292 Clouds 4 1019 60 10000 6 180 00:37 05.04.2020
5293 Clouds 4 1019 60 10000 6 180 00:18 05.04.2020
5294 Clouds 4 1020 60 10000 6 170 23:41 04.04.2020
5295 Clouds 4 1020 60 10000 6 180 23:22 04.04.2020
5296 Clouds 4 1020 60 10000 5 180 22:57 04.04.2020
5297 Clouds 4 1020 60 10000 5 180 22:39 04.04.2020
5298 Clouds 4 1021 60 10000 5 180 22:20 04.04.2020
5299 Clouds 5 1021 52 10000 6 190 21:57 04.04.2020
5300 Clouds 5 1021 52 10000 6 190 21:39 04.04.2020
5301 Clouds 4 1021 55 10000 6 180 21:19 04.04.2020
5302 Clouds 4 1021 55 10000 6 180 20:55 04.04.2020
5303 Clouds 5 1022 48 10000 6 180 20:36 04.04.2020
5304 Clouds 5 1022 48 10000 6 180 20:18 04.04.2020
5305 Clouds 5 1022 48 10000 6 180 19:42 04.04.2020
5306 Clouds 5 1022 48 10000 5 180 19:21 04.04.2020
5307 Clouds 5 1023 48 10000 5 180 18:59 04.04.2020
5308 Clouds 5 1023 48 10000 6 190 18:39 04.04.2020
5309 Clouds 5 1023 48 10000 6 190 18:21 04.04.2020
5310 Clouds 5 1023 48 10000 6 190 18:21 04.04.2020
5311 Clouds 6 1023 45 10000 6 190 17:58 04.04.2020
5312 Clouds 6 1023 45 10000 6 190 17:39 04.04.2020
5313 Clouds 6 1023 45 10000 6 190 17:19 04.04.2020
5314 Clouds 6 1023 48 10000 5 190 16:45 04.04.2020
5315 Clouds 6 1024 48 10000 5 190 16:27 04.04.2020
5316 Clouds 7 1023 45 10000 6 190 15:59 04.04.2020
5317 Clouds 7 1023 45 10000 6 190 15:39 04.04.2020
5318 Clear 7 1023 45 10000 5 190 15:19 04.04.2020
5319 Clear 7 1024 45 10000 6 190 14:55 04.04.2020
5320 Clear 8 1024 39 10000 5 190 14:37 04.04.2020
5321 Clear 8 1024 39 10000 5 190 14:18 04.04.2020
5322 Clear 8 1024 42 10000 5 200 13:42 04.04.2020
5323 Clear 8 1024 39 10000 5 200 13:22 04.04.2020
5324 Clear 8 1024 39 10000 6 200 12:58 04.04.2020
5325 Clear 8 1025 39 10000 7 210 12:40 04.04.2020
5326 Clear 8 1025 39 10000 7 210 12:21 04.04.2020
5327 Clear 8 1025 39 10000 7 210 11:42 04.04.2020
5328 Clear 8 1025 36 10000 7 210 11:23 04.04.2020
5329 Clear 8 1025 39 10000 6 210 10:59 04.04.2020
5330 Clear 8 1025 39 10000 6 210 10:41 04.04.2020
5331 Clear 8 1025 39 10000 8 210 10:23 04.04.2020
5332 Clear 8 1025 39 10000 8 210 09:57 04.04.2020
5333 Clear 8 1025 39 10000 8 210 09:39 04.04.2020
5334 Clear 7 1026 42 10000 8 210 09:21 04.04.2020
5335 Clear 7 1026 42 10000 6 210 08:45 04.04.2020
5336 Clear 7 1026 42 10000 7 200 08:25 04.04.2020
5337 Clear 6 1026 48 10000 5 200 07:59 04.04.2020
5338 Clear 6 1026 45 10000 5 200 07:40 04.04.2020
5339 Clear 6 1026 45 10000 5 200 07:21 04.04.2020
5340 Clear 4 1026 51 10000 5 200 06:40 04.04.2020
5341 Clear 3 1026 55 10000 4 210 05:52 04.04.2020
5342 Clear 3 1026 55 10000 4 210 05:52 04.04.2020
5343 Clear 2 1026 59 10000 5 220 05:33 04.04.2020
5344 Clear 1 1025 64 10000 4 210 04:34 04.04.2020
5345 Clear 0 1025 94 10000 4 200 03:57 04.04.2020
5346 Clear 0 1025 94 10000 4 200 03:37 04.04.2020
5347 Clear -1 1024 74 10000 4 200 02:48 04.04.2020
5348 Clear -1 1024 74 10000 4 200 02:29 04.04.2020
5349 Clear -1 1024 74 10000 4 200 01:46 04.04.2020
5350 Clear 0 1023 97 10000 5 210 01:20 04.04.2020
5351 Clear 0 1023 97 10000 5 210 00:43 04.04.2020
5352 Clear 0 1023 97 10000 4 210 00:23 04.04.2020
5353 Clear 0 1023 97 10000 4 210 23:38 03.04.2020
5354 Clear 0 1023 97 10000 4 210 23:19 03.04.2020
5355 Clear 0 1022 97 10000 4 210 22:41 03.04.2020
5356 Clear 0 1022 97 10000 4 210 22:20 03.04.2020
5357 Clear 0 1022 97 10000 4 210 21:59 03.04.2020
5358 Clear 0 1022 97 10000 4 210 21:40 03.04.2020
5359 Clouds 1 1021 64 10000 4 210 21:21 03.04.2020
5360 Clouds 1 1021 69 10000 4 220 20:56 03.04.2020
5361 Clouds 1 1021 69 10000 4 220 20:36 03.04.2020
5362 Clouds 1 1021 69 10000 4 220 20:36 03.04.2020
5363 Clouds 1 1021 69 10000 4 220 20:18 03.04.2020
5364 Clouds 2 1020 64 10000 4 220 19:56 03.04.2020
5365 Clouds 2 1020 64 10000 4 210 19:37 03.04.2020
5366 Clouds 2 1020 64 10000 4 210 19:19 03.04.2020
5367 Clouds 2 1020 64 10000 4 210 18:57 03.04.2020
5368 Clouds 2 1019 64 10000 4 210 18:39 03.04.2020
5369 Clouds 2 1019 64 10000 4 210 18:21 03.04.2020
5370 Snow 2 1019 64 10000 3 210 17:42 03.04.2020
5371 Snow 2 1019 64 10000 3 230 17:20 03.04.2020
5372 Snow 2 1018 64 10000 4 230 16:56 03.04.2020
5373 Snow 3 1018 59 10000 4 240 16:37 03.04.2020
5374 Snow 3 1018 59 10000 4 240 16:19 03.04.2020
5375 Snow 3 1017 55 10000 5 250 15:56 03.04.2020
5376 Snow 4 1017 51 10000 5 250 15:37 03.04.2020
5377 Snow 4 1016 51 10000 8 250 15:19 03.04.2020
5378 Snow 1 1018 88 0 5.64 235 14:40 03.04.2020
5379 Clouds 4 1015 51 10000 9 250 14:22 03.04.2020
5380 Clouds 4 1015 51 10000 9 250 13:54 03.04.2020
5381 Clouds 4 1015 51 10000 9 250 13:36 03.04.2020
5382 Clouds 4 1015 51 10000 9 250 13:18 03.04.2020
5383 Clouds 4 1014 51 10000 8 240 12:42 03.04.2020
5384 Clouds 4 1014 51 10000 8 240 12:20 03.04.2020
5385 Clouds 3 1013 55 10000 9 250 11:56 03.04.2020
5386 Clouds 3 1013 55 10000 8 240 11:37 03.04.2020
5387 Clouds 3 1013 55 10000 8 240 11:18 03.04.2020
5388 Clouds 3 1012 55 10000 9 240 10:57 03.04.2020
5389 Clouds 2 1012 59 10000 8 250 10:38 03.04.2020
5390 Clouds 2 1012 59 10000 8 250 10:20 03.04.2020
5391 Clouds 2 1012 59 10000 8 250 10:20 03.04.2020
5392 Clouds 2 1011 59 10000 8 240 09:57 03.04.2020
5393 Clouds 2 1011 59 10000 8 240 09:38 03.04.2020
5394 Clouds 1 1011 64 10000 7 250 09:20 03.04.2020
5395 Clouds 1 1010 64 10000 6 240 08:45 03.04.2020
5396 Clouds 1 1010 64 10000 7 240 08:25 03.04.2020
5397 Clouds 0 1009 95 10000 9 240 07:59 03.04.2020
5398 Clouds 0 1009 95 10000 9 240 07:40 03.04.2020
5399 Clouds 0 1009 95 10000 9 240 07:22 03.04.2020
5400 Clouds -1 1007 68 10000 8 240 06:29 03.04.2020
5401 Clouds -1 1007 68 10000 7 240 05:43 03.04.2020
5402 Clouds -2 1005 74 10000 6 240 04:30 03.04.2020
5403 Clouds -3 1004 79 10000 5 240 03:35 03.04.2020
5404 Clouds -3 1003 79 10000 5 240 02:40 03.04.2020
5405 Clouds -3 1002 79 10000 6 240 01:25 03.04.2020
5406 Clouds -3 1001 86 10000 7 250 00:52 03.04.2020
5407 Snow -3 1000 86 6000 9 270 00:33 03.04.2020
5408 Clouds -3 999 86 10000 10 260 23:55 02.04.2020
5409 Clouds -2 999 79 10000 9 270 23:37 02.04.2020
5410 Clouds -2 999 79 10000 9 270 23:18 02.04.2020
5411 Clouds -2 999 79 10000 9 270 23:18 02.04.2020
5412 Snow -2 998 79 9000 8 260 22:41 02.04.2020
5413 Snow -2 997 86 7000 9 250 22:22 02.04.2020
5414 Snow -2 996 92 750 9 250 21:58 02.04.2020
5415 Clouds -1 995 86 10000 8 250 21:37 02.04.2020
5416 Clouds -1 995 86 10000 8 250 21:18 02.04.2020
5417 Snow -1 995 86 9000 10 270 20:45 02.04.2020
5418 Snow 0 994 97 2200 9 260 20:25 02.04.2020
5419 Snow 0 994 97 2500 8 250 19:57 02.04.2020
5420 Snow 1 993 100 8000 9 250 19:39 02.04.2020
5421 Snow 1 993 100 8000 9 250 19:20 02.04.2020
5422 Snow 1 992 100 10000 9 250 18:55 02.04.2020
5423 Snow 1 992 100 9000 6 240 18:36 02.04.2020
5424 Snow 1 992 100 9000 6 240 18:18 02.04.2020
5425 Snow 1 992 100 9000 6 240 18:18 02.04.2020
5426 Snow 2 991 100 10000 8 240 17:42 02.04.2020
5427 Snow 2 991 100 10000 7 230 17:24 02.04.2020
5428 Clouds 2 990 100 10000 6 230 16:58 02.04.2020
5429 Clouds 2 990 100 10000 6 230 16:39 02.04.2020
5430 Clouds 2 990 100 10000 7 230 16:21 02.04.2020
5431 Rain 2 989 100 10000 5 220 15:56 02.04.2020
5432 Rain 3 989 100 9000 6 220 15:38 02.04.2020
5433 Rain 3 989 100 9000 6 220 15:18 02.04.2020
5434 Rain 3 989 100 10000 5 200 14:55 02.04.2020
5435 Rain 3 989 100 10000 5 200 14:37 02.04.2020
5436 Rain 4 989 93 10000 6 200 14:18 02.04.2020
5437 Rain 4 989 93 9000 6 220 13:40 02.04.2020
5438 Clouds 4 989 86 10000 3 230 13:21 02.04.2020
5439 Rain 4 989 86 10000 3 230 12:59 02.04.2020
5440 Rain 4 989 86 9000 3 200 12:41 02.04.2020
5441 Rain 4 989 86 9000 3 200 12:19 02.04.2020
5442 Rain 5 989 75 9000 3 190 11:57 02.04.2020
5443 Rain 5 989 75 9000 3 190 11:38 02.04.2020
5444 Rain 7 989 56 10000 3 180 11:19 02.04.2020
5445 Rain 7 990 56 10000 4 190 10:55 02.04.2020
5446 Rain 7 990 52 10000 5 180 10:37 02.04.2020
5447 Rain 7 990 52 10000 5 180 10:19 02.04.2020
5448 Rain 6 991 56 10000 5 190 09:56 02.04.2020
5449 Rain 6 991 56 10000 5 190 09:38 02.04.2020
5450 Snow 6 991 56 10000 5 170 09:19 02.04.2020
5451 Snow 5 991 60 10000 4 170 08:46 02.04.2020
5452 Snow 5 992 60 10000 5 160 08:26 02.04.2020
5453 Snow 4 992 64 10000 5 150 07:45 02.04.2020
5454 Snow 4 992 64 10000 4 150 07:21 02.04.2020
5455 Snow 4 993 64 10000 4 150 06:58 02.04.2020
5456 Snow 3 994 69 10000 5 150 06:22 02.04.2020
5457 Clouds 3 994 69 10000 5 150 05:45 02.04.2020
5458 Clouds 3 995 69 10000 5 150 04:46 02.04.2020
5459 Clouds 3 998 64 10000 5 150 01:54 02.04.2020
5460 Clouds 3 999 59 10000 4 160 00:51 02.04.2020
5461 Clouds 4 999 55 10000 5 160 00:29 02.04.2020
5462 Clouds 4 1000 55 10000 4 150 23:57 01.04.2020
5463 Clouds 4 1000 55 10000 5 150 23:37 01.04.2020
5464 Clouds 4 1000 55 10000 5 150 23:37 01.04.2020
5465 Clouds 4 1000 55 10000 5 150 23:18 01.04.2020
5466 Clouds 4 1001 55 10000 4 160 22:41 01.04.2020
5467 Clouds 4 1001 55 10000 4 150 22:22 01.04.2020
5468 Clouds 4 1001 60 10000 4 150 21:57 01.04.2020
5469 Clouds 4 1001 60 10000 4 150 21:39 01.04.2020
5470 Clouds 4 1002 60 10000 4 150 21:18 01.04.2020
5471 Clouds 5 1002 52 10000 4 150 20:55 01.04.2020
5472 Clouds 5 1002 52 10000 4 150 20:55 01.04.2020
5473 Clouds 5 1002 52 10000 4 150 20:37 01.04.2020
5474 Clouds 5 1003 52 10000 4 150 20:18 01.04.2020
5475 Clouds 5 1003 52 10000 4 150 20:18 01.04.2020
5476 Clouds 5 1003 52 10000 3 150 19:43 01.04.2020
5477 Clouds 5 1004 52 10000 3 150 19:22 01.04.2020
5478 Clouds 5 1004 52 10000 3 140 18:59 01.04.2020
5479 Clouds 5 1004 52 10000 3 140 18:59 01.04.2020
5480 Clouds 5 1004 52 10000 3 140 18:59 01.04.2020
5481 Clouds 5 1005 56 10000 3 150 18:40 01.04.2020
5482 Clouds 5 1005 56 10000 3 150 18:21 01.04.2020
5483 Clouds 5 1005 56 10000 2 150 17:56 01.04.2020
5484 Clouds 5 1005 56 10000 2 150 17:56 01.04.2020
5485 Clouds 5 1005 56 10000 3 150 17:36 01.04.2020
5486 Clouds 5 1005 56 10000 3 150 17:18 01.04.2020
5487 Clouds 5 1006 60 10000 3 150 16:43 01.04.2020
5488 Clouds 5 1006 60 10000 3 150 16:43 01.04.2020
5489 Clouds 6 1006 56 10000 2 150 16:25 01.04.2020
5490 Clouds 7 1006 52 10000 3 180 15:59 01.04.2020
5491 Clouds 7 1006 52 10000 3 180 15:41 01.04.2020
5492 Clouds 7 1006 56 10000 3 180 15:22 01.04.2020
5493 Clouds 7 1006 56 10000 3 180 14:58 01.04.2020
5494 Clouds 7 1006 56 10000 3 180 14:39 01.04.2020
5495 Clouds 8 1007 52 10000 4 190 14:20 01.04.2020
5496 Clouds 8 1007 52 10000 4 190 13:58 01.04.2020
5497 Clouds 8 1007 52 10000 4 200 13:38 01.04.2020
5498 Clouds 8 1007 52 10000 4 200 13:38 01.04.2020
5499 Clouds 8 1007 52 10000 4 200 13:19 01.04.2020
5500 Clouds 8 1007 52 10000 4 180 12:56 01.04.2020
5501 Clouds 8 1007 52 10000 4 190 12:37 01.04.2020
5502 Clouds 8 1007 52 10000 4 190 12:18 01.04.2020
5503 Clouds 8 1007 52 10000 4 190 11:54 01.04.2020
5504 Clouds 8 1007 52 10000 4 190 11:36 01.04.2020
5505 Clouds 8 1007 52 10000 4 190 11:18 01.04.2020
5506 Clouds 7 1007 56 10000 4 180 10:38 01.04.2020
5507 Clouds 7 1007 56 10000 4 180 10:20 01.04.2020
5508 Clouds 6 1007 60 10000 3 180 09:57 01.04.2020
5509 Clouds 6 1007 60 10000 3 180 09:39 01.04.2020
5510 Clouds 6 1007 60 10000 4 200 09:19 01.04.2020
5511 Clouds 5 1007 60 10000 4 200 08:42 01.04.2020
5512 Clouds 5 1007 60 10000 4 220 08:18 01.04.2020
5513 Clouds 4 1007 64 10000 3 220 07:46 01.04.2020
5514 Clouds 4 1007 64 10000 4 230 07:21 01.04.2020
5515 Clouds 4 1007 69 10000 4 230 06:52 01.04.2020
5516 Clouds 3 1007 69 10000 3 240 06:27 01.04.2020
5517 Clouds 2 1007 74 10000 3 240 05:59 01.04.2020
5518 Clouds 0 1006 95 10000 2 220 04:36 01.04.2020
5519 Clouds 0 1006 95 10000 1 0 03:33 01.04.2020
5520 Clouds -1 1006 92 10000 2 220 02:57 01.04.2020
5521 Clouds -3 1006 100 10000 2 170 01:59 01.04.2020
5522 Clouds -3 1006 100 10000 2 170 01:40 01.04.2020
5523 Clouds -3 1007 100 10000 2 150 01:20 01.04.2020
5524 Clouds -3 1007 92 10000 2 120 00:46 01.04.2020
5525 Clouds -2 1007 86 10000 2 120 00:21 01.04.2020
5526 Clouds -2 1007 86 10000 3 100 23:48 31.03.2020
5527 Clouds -2 1008 86 10000 3 130 23:28 31.03.2020
5528 Clouds -2 1008 86 10000 4 130 22:59 31.03.2020
5529 Clouds -2 1009 86 10000 4 130 22:37 31.03.2020
5530 Clouds -2 1009 86 10000 4 120 22:19 31.03.2020
5531 Clouds -2 1009 86 10000 4 120 21:57 31.03.2020
5532 Clouds -2 1009 86 10000 3 120 21:39 31.03.2020
5533 Rain -2 1009 86 10000 3 120 21:20 31.03.2020
5534 Rain -2 1010 86 10000 5 100 20:55 31.03.2020
5535 Rain -2 1010 86 10000 5 100 20:36 31.03.2020
5536 Rain -2 1010 86 10000 5 100 20:36 31.03.2020
5537 Rain -2 1010 86 10000 5 100 20:36 31.03.2020
5538 Rain -2 1010 86 10000 5 100 20:18 31.03.2020
5539 Rain -2 1011 86 10000 4 90 19:42 31.03.2020
5540 Rain -2 1011 86 10000 4 90 19:24 31.03.2020
5541 Rain -2 1012 86 10000 5 80 18:59 31.03.2020
5542 Rain -2 1012 86 10000 5 80 18:59 31.03.2020
5543 Rain -2 1012 86 10000 4 90 18:40 31.03.2020
5544 Rain -2 1012 86 10000 4 90 18:19 31.03.2020
5545 Rain -2 1012 86 10000 4 90 17:55 31.03.2020
5546 Rain -2 1012 86 10000 4 90 17:37 31.03.2020
5547 Rain -2 1012 86 10000 4 90 17:19 31.03.2020
5548 Clouds -1 1012 86 10000 4 80 16:41 31.03.2020
5549 Clouds -1 1013 86 10000 5 70 16:20 31.03.2020
5550 Clouds -1 1013 80 10000 4 70 15:58 31.03.2020
5551 Clouds -1 1013 80 10000 4 70 15:40 31.03.2020
5552 Rain -1 1013 80 10000 3 70 15:22 31.03.2020
5553 Snow -1 1013 80 10000 3 60 14:58 31.03.2020
5554 Snow -1 1013 80 10000 3 60 14:58 31.03.2020
5555 Snow -1 1013 80 10000 3 60 14:39 31.03.2020
5556 Clouds -1 1013 80 10000 4 70 14:21 31.03.2020
5557 Clouds -1 1014 74 10000 4 40 13:43 31.03.2020
5558 Clouds -1 1014 74 10000 4 50 13:20 31.03.2020
5559 Clouds -1 1014 74 10000 3 60 12:59 31.03.2020
5560 Clouds -1 1014 74 10000 2 10 12:40 31.03.2020
5561 Clouds -1 1014 74 10000 2 10 12:19 31.03.2020
5562 Clouds -1 1014 74 10000 2 10 12:19 31.03.2020
5563 Clouds -1 1014 74 10000 3 10 11:41 31.03.2020
5564 Clouds -1 1014 74 10000 4 360 11:20 31.03.2020
5565 Snow 0 1014 96 10000 4 350 10:59 31.03.2020
5566 Snow 0 1014 96 10000 4 350 10:41 31.03.2020
5567 Snow 0 1014 96 10000 3 10 10:22 31.03.2020
5568 Snow 0 1013 96 10000 3 360 09:59 31.03.2020
5569 Snow 0 1013 96 10000 3 360 09:41 31.03.2020
5570 Snow 0 1013 98 10000 4 360 09:22 31.03.2020
5571 Snow 0 1013 97 10000 4 340 08:57 31.03.2020
5572 Snow 0 1013 97 10000 4 340 08:38 31.03.2020
5573 Clouds 0 1013 97 10000 4 310 08:19 31.03.2020
5574 Clouds 0 1013 97 10000 4 310 08:19 31.03.2020
5575 Clouds 0 1013 97 10000 4 330 07:56 31.03.2020
5576 Clouds 0 1012 97 10000 4 290 07:37 31.03.2020
5577 Clouds 0 1012 97 10000 4 290 07:18 31.03.2020
5578 Clouds 0 1012 97 10000 4 320 06:45 31.03.2020
5579 Clouds 0 1011 97 10000 4 330 06:18 31.03.2020
5580 Clouds 0 1011 97 10000 5 330 05:39 31.03.2020
5581 Clouds 2 1008 93 10000 7 310 03:34 31.03.2020
5582 Clouds 2 1007 94 10000 4 270 01:54 31.03.2020
5583 Clouds 3 1007 94 10000 3 240 01:34 31.03.2020
5584 Clouds 3 1007 94 10000 3 230 00:47 31.03.2020
5585 Clouds 4 1006 94 10000 3 240 00:25 31.03.2020
5586 Clouds 4 1007 95 10000 4 240 23:42 30.03.2020
5587 Clouds 4 1006 95 10000 4 240 23:20 30.03.2020
5588 Clouds 4 1007 95 10000 5 230 22:58 30.03.2020
5589 Clouds 4 1007 95 10000 5 230 22:39 30.03.2020
5590 Clouds 4 1007 95 10000 5 230 22:21 30.03.2020
5591 Clouds 4 1006 95 10000 4 220 21:58 30.03.2020
5592 Clouds 4 1006 95 10000 4 220 21:39 30.03.2020
5593 Clouds 4 1007 93 10000 4 220 21:21 30.03.2020
5594 Rain 4 1007 80 10000 5 230 20:59 30.03.2020
5595 Rain 4 1007 80 10000 5 230 20:39 30.03.2020
5596 Rain 4 1007 94 10000 3 200 20:20 30.03.2020
5597 Rain 4 1007 94 10000 4 220 19:57 30.03.2020
5598 Rain 4 1007 94 10000 4 220 19:39 30.03.2020
5599 Clouds 4 1008 69 10000 4 210 19:20 30.03.2020
5600 Clouds 4 1007 94 10000 3 180 18:44 30.03.2020
5601 Clouds 4 1008 94 10000 2 200 18:26 30.03.2020
5602 Clouds 3 1008 93 10000 2 190 17:58 30.03.2020
5603 Clouds 3 1008 93 10000 2 190 17:58 30.03.2020
5604 Clouds 3 1008 93 10000 2 200 17:40 30.03.2020
5605 Clouds 3 1008 93 10000 2 200 17:22 30.03.2020
5606 Clouds 4 1008 93 10000 3 250 16:59 30.03.2020
5607 Clouds 4 1008 93 10000 3 250 16:40 30.03.2020
5608 Clouds 4 1009 93 10000 2 230 16:21 30.03.2020
5609 Clouds 4 1008 93 10000 3 260 15:56 30.03.2020
5610 Clouds 4 1008 93 10000 3 260 15:56 30.03.2020
5611 Clouds 4 1008 93 10000 3 260 15:38 30.03.2020
5612 Clouds 4 1008 94 10000 3 280 15:20 30.03.2020
5613 Clouds 4 1008 94 10000 4 270 14:56 30.03.2020
5614 Clouds 4 1008 94 10000 5 280 14:37 30.03.2020
5615 Clouds 4 1008 94 10000 5 280 14:18 30.03.2020
5616 Clouds 4 1008 94 10000 5 280 14:18 30.03.2020
5617 Clouds 4 1008 94 10000 5 270 13:56 30.03.2020
5618 Clouds 4 1008 94 10000 4 280 13:37 30.03.2020
5619 Clouds 4 1008 94 10000 4 280 13:19 30.03.2020
5620 Clouds 5 1008 94 10000 6 250 12:44 30.03.2020
5621 Clouds 4 1008 94 10000 5 270 12:21 30.03.2020
5622 Clouds 4 1007 95 10000 6 280 11:58 30.03.2020
5623 Clouds 4 1007 95 10000 6 280 11:39 30.03.2020
5624 Clouds 6 1007 95 10000 5 250 11:21 30.03.2020
5625 Clouds 6 1007 95 10000 6 250 10:42 30.03.2020
5626 Clouds 6 1007 95 10000 5 240 10:23 30.03.2020
5627 Clouds 6 1007 95 10000 6 240 09:59 30.03.2020
5628 Clouds 6 1007 95 10000 6 240 09:40 30.03.2020
5629 Clouds 6 1007 97 10000 6 240 09:19 30.03.2020
5630 Clouds 5 1007 96 10000 8 250 08:54 30.03.2020
5631 Rain 5 1006 96 10000 6 240 08:36 30.03.2020
5632 Rain 5 1006 96 10000 6 240 08:18 30.03.2020
5633 Rain 5 1006 96 10000 7 250 07:41 30.03.2020
5634 Rain 5 1006 96 10000 5 240 07:20 30.03.2020
5635 Rain 4 1006 96 10000 4 230 06:42 30.03.2020
5636 Rain 4 1006 96 10000 4 230 06:23 30.03.2020
5637 Rain 4 1006 97 10000 5 230 05:39 30.03.2020
5638 Rain 3 1006 74 10000 4 220 04:29 30.03.2020
5639 Rain 3 1006 74 10000 4 220 03:53 30.03.2020
5640 Rain 2 1006 80 10000 4 210 02:44 30.03.2020
5641 Rain 2 1006 80 10000 3 240 01:55 30.03.2020
5642 Rain 2 1006 80 10000 3 230 00:57 30.03.2020
5643 Rain 2 1006 80 10000 3 230 00:27 30.03.2020
5644 Clouds 3 1006 69 10000 3 230 23:55 29.03.2020
5645 Clouds 3 1006 69 10000 4 240 23:36 29.03.2020
5646 Clouds 3 1006 69 10000 4 240 23:18 29.03.2020
5647 Clouds 3 1006 69 10000 4 230 22:40 29.03.2020
5648 Clouds 3 1006 69 10000 3 220 22:20 29.03.2020
5649 Clouds 3 1006 69 10000 3 240 21:59 29.03.2020
5650 Clouds 3 1006 69 10000 3 240 21:38 29.03.2020
5651 Clouds 3 1006 69 10000 4 240 21:20 29.03.2020
5652 Clouds 3 1006 69 10000 4 240 20:55 29.03.2020
5653 Clouds 3 1006 69 10000 4 240 20:55 29.03.2020
5654 Clouds 4 1006 64 10000 5 240 20:37 29.03.2020
5655 Clouds 4 1006 64 10000 5 240 20:18 29.03.2020
5656 Clouds 4 1006 64 10000 4 240 19:56 29.03.2020
5657 Clouds 4 1006 64 10000 5 240 19:38 29.03.2020
5658 Clouds 4 1006 64 10000 5 240 19:19 29.03.2020
5659 Clouds 4 1006 64 10000 5 240 18:55 29.03.2020
5660 Clouds 4 1006 64 10000 5 240 18:55 29.03.2020
5661 Clouds 5 1006 60 10000 5 240 18:37 29.03.2020
5662 Clouds 5 1005 60 10000 6 240 18:18 29.03.2020
5663 Clouds 5 1005 60 10000 6 240 17:55 29.03.2020
5664 Clouds 5 1005 60 10000 5 240 17:36 29.03.2020
5665 Clouds 5 1005 60 10000 5 240 17:18 29.03.2020
5666 Clouds 5 1005 60 10000 5 240 16:55 29.03.2020
5667 Clouds 5 1005 60 10000 6 240 16:36 29.03.2020
5668 Clouds 5 1005 60 10000 6 240 16:36 29.03.2020
5669 Clouds 5 1005 60 10000 6 240 16:36 29.03.2020
5670 Clouds 5 1005 60 10000 6 240 16:18 29.03.2020
5671 Clouds 6 1005 56 10000 6 240 15:41 29.03.2020
5672 Clouds 7 1004 52 10000 5 240 15:22 29.03.2020
5673 Rain 6 1004 56 10000 5 230 14:57 29.03.2020
5674 Rain 6 1004 56 10000 5 230 14:39 29.03.2020
5675 Rain 7 1005 52 10000 6 230 14:19 29.03.2020
5676 Rain 7 1005 52 10000 6 230 13:56 29.03.2020
5677 Rain 7 1005 48 10000 6 220 13:38 29.03.2020
5678 Rain 7 1005 48 10000 6 230 13:19 29.03.2020
5679 Rain 7 1005 48 10000 6 230 12:55 29.03.2020
5680 Rain 7 1005 48 10000 7 230 12:37 29.03.2020
5681 Clouds 7 1005 48 10000 7 230 12:18 29.03.2020
5682 Clouds 7 1005 48 10000 7 230 12:18 29.03.2020
5683 Clouds 6 1006 52 10000 7 220 11:39 29.03.2020
5684 Clouds 6 1006 52 10000 7 220 11:21 29.03.2020
5685 Clouds 5 1007 56 10000 6 220 10:59 29.03.2020
5686 Clouds 5 1007 56 10000 7 220 10:37 29.03.2020
5687 Clouds 5 1007 56 10000 7 220 10:18 29.03.2020
5688 Clouds 5 1007 56 10000 6 220 09:40 29.03.2020
5689 Snow 4 1008 55 10000 5 220 09:19 29.03.2020
5690 Snow 4 1008 55 10000 6 230 08:53 29.03.2020
5691 Snow 3 1008 59 10000 7 240 08:28 29.03.2020
5692 Snow 3 1008 59 10000 7 240 08:28 29.03.2020
5693 Snow 3 1008 59 10000 6 230 07:58 29.03.2020
5694 Snow 3 1008 59 10000 6 230 07:58 29.03.2020
5695 Snow 2 1009 64 10000 6 220 07:39 29.03.2020
5696 Snow 2 1009 64 10000 6 220 07:20 29.03.2020
5697 Snow -2 1009 74 10000 4 210 04:59 29.03.2020
5698 Snow -2 1009 74 10000 4 210 04:59 29.03.2020
5699 Snow -3 1010 79 10000 3 230 03:55 29.03.2020
5700 Snow -3 1010 79 10000 3 220 03:26 29.03.2020
5701 Clouds -4 1010 85 10000 3 240 01:51 29.03.2020
5702 Clouds -4 1010 85 10000 3 250 01:23 29.03.2020
5703 Clouds -4 1010 85 10000 3 240 00:55 29.03.2020
5704 Clouds -4 1010 85 10000 2 240 00:31 29.03.2020
5705 Clouds -3 1010 79 10000 3 250 23:43 28.03.2020
5706 Clouds -3 1010 79 10000 3 250 23:23 28.03.2020
5707 Clouds -5 1010 85 10000 3 250 22:58 28.03.2020
5708 Clouds -3 1010 73 10000 4 250 22:38 28.03.2020
5709 Clouds -3 1010 73 10000 4 250 22:20 28.03.2020
5710 Clouds -2 1010 74 10000 4 250 21:43 28.03.2020
5711 Clouds -2 1010 74 10000 3 250 21:24 28.03.2020
5712 Clouds -2 1010 74 10000 3 250 20:59 28.03.2020
5713 Clouds -2 1010 74 10000 3 250 20:41 28.03.2020
5714 Clouds -1 1010 74 10000 4 240 20:23 28.03.2020
5715 Snow -1 1010 74 10000 4 250 19:57 28.03.2020
5716 Snow 0 1011 97 10000 4 250 19:38 28.03.2020
5717 Snow 0 1011 97 10000 4 250 19:20 28.03.2020
5718 Snow 0 1011 97 10000 4 250 18:56 28.03.2020
5719 Snow 0 1011 97 10000 4 250 18:38 28.03.2020
5720 Snow 0 1011 97 10000 4 250 18:38 28.03.2020
5721 Snow 1 1011 64 10000 4 240 18:19 28.03.2020
5722 Snow 1 1011 64 10000 4 250 17:38 28.03.2020
5723 Snow 0 1011 97 10000 3 240 17:20 28.03.2020
5724 Snow 1 1011 64 10000 4 250 16:42 28.03.2020
5725 Snow 1 1011 64 10000 4 250 16:20 28.03.2020
5726 Snow 1 1011 64 10000 4 250 15:56 28.03.2020
5727 Snow 1 1011 69 10000 4 250 15:38 28.03.2020
5728 Snow 1 1011 69 10000 4 250 15:19 28.03.2020
5729 Snow 2 1010 59 10000 4 250 14:43 28.03.2020
5730 Snow 2 1010 64 10000 4 230 14:23 28.03.2020
5731 Clouds 2 1010 64 10000 6 270 13:59 28.03.2020
5732 Clouds 2 1010 64 10000 6 260 13:38 28.03.2020
5733 Clouds 2 1010 64 10000 6 260 13:19 28.03.2020
5734 Snow 2 1010 64 10000 8 280 12:39 28.03.2020
5735 Snow 2 1010 64 10000 8 280 12:21 28.03.2020
5736 Snow 2 1010 59 10000 9 260 11:42 28.03.2020
5737 Snow 2 1010 59 10000 9 260 11:21 28.03.2020
5738 Clouds 2 1010 59 10000 9 260 10:56 28.03.2020
5739 Clouds 2 1009 59 10000 9 270 10:37 28.03.2020
5740 Clouds 2 1009 59 10000 9 270 10:18 28.03.2020
5741 Clouds 2 1009 59 10000 7 240 09:41 28.03.2020
5742 Clouds 1 1010 64 10000 7 240 09:22 28.03.2020
5743 Clouds 1 1010 64 10000 6 230 08:45 28.03.2020
5744 Clouds 1 1010 64 10000 6 240 08:27 28.03.2020
5745 Clouds 0 1010 97 10000 6 240 07:59 28.03.2020
5746 Clouds 0 1010 97 10000 6 230 07:41 28.03.2020
5747 Clouds 1 1010 64 10000 5 270 06:55 28.03.2020
5748 Clouds 0 1010 97 10000 6 270 06:32 28.03.2020
5749 Clouds -1 1010 68 10000 7 280 05:39 28.03.2020
5750 Clouds -2 1010 74 10000 6 280 05:19 28.03.2020
5751 Clouds -2 1010 74 10000 7 280 04:39 28.03.2020
5752 Clouds -5 1010 79 10000 4 280 02:55 28.03.2020
5753 Clouds -4 1009 73 10000 6 280 01:48 28.03.2020
5754 Clear -3 1009 73 10000 6 280 01:24 28.03.2020
5755 Clear -4 1009 73 10000 5 280 00:52 28.03.2020
5756 Clear -3 1009 68 10000 5 290 00:33 28.03.2020
5757 Clear -2 1009 63 10000 6 290 23:45 27.03.2020
5758 Clear -2 1009 63 10000 6 290 23:26 27.03.2020
5759 Clouds -2 1009 63 10000 6 290 22:58 27.03.2020
5760 Clouds -3 1009 68 10000 7 290 22:39 27.03.2020
5761 Clouds -3 1009 68 10000 7 290 22:21 27.03.2020
5762 Clouds -3 1008 68 10000 7 290 21:59 27.03.2020
5763 Clouds -3 1008 68 10000 7 290 21:40 27.03.2020
5764 Clouds -3 1008 68 10000 7 300 21:22 27.03.2020
5765 Clouds -2 1008 68 10000 7 290 20:57 27.03.2020
5766 Clouds -1 1008 63 10000 7 300 20:39 27.03.2020
5767 Clouds -1 1008 63 10000 7 300 20:19 27.03.2020
5768 Clouds -1 1008 63 10000 7 300 20:19 27.03.2020
5769 Clouds -1 1008 68 10000 6 300 19:55 27.03.2020
5770 Clouds -1 1008 68 10000 6 300 19:55 27.03.2020
5771 Clouds -1 1008 68 10000 8 310 19:36 27.03.2020
5772 Clouds -1 1008 68 10000 8 310 19:18 27.03.2020
5773 Clouds 0 1007 95 10000 8 290 18:42 27.03.2020
5774 Clouds 0 1007 95 10000 8 290 18:22 27.03.2020
5775 Clouds 0 1007 95 10000 7 290 17:54 27.03.2020
5776 Clouds 1 1007 69 10000 8 300 17:36 27.03.2020
5777 Snow 1 1007 69 10000 8 290 17:18 27.03.2020
5778 Snow 1 1006 69 10000 7 280 16:41 27.03.2020
5779 Snow 1 1006 69 10000 7 280 16:23 27.03.2020
5780 Snow 1 1006 69 10000 8 280 15:43 27.03.2020
5781 Snow 0 1006 97 10000 7 280 15:25 27.03.2020
5782 Clouds 1 1006 74 10000 7 280 14:48 27.03.2020
5783 Clouds 1 1006 74 10000 7 280 14:27 27.03.2020
5784 Snow 1 1006 74 10000 7 280 13:58 27.03.2020
5785 Snow 1 1006 74 10000 7 280 13:40 27.03.2020
5786 Clouds 1 1005 74 10000 9 290 13:21 27.03.2020
5787 Clouds 1 1005 74 10000 10 290 12:57 27.03.2020
5788 Snow 1 1005 74 9000 9 290 12:39 27.03.2020
5789 Clouds 1 1005 74 10000 8 280 12:19 27.03.2020
5790 Snow 0 1005 97 5000 8 290 11:41 27.03.2020
5791 Snow 0 1005 97 5000 8 290 11:23 27.03.2020
5792 Clouds 1 1005 69 10000 8 290 10:55 27.03.2020
5793 Clouds 0 1004 97 10000 10 290 10:37 27.03.2020
5794 Clouds 0 1004 97 10000 10 290 10:19 27.03.2020
5795 Clouds 0 1004 97 10000 8 290 09:57 27.03.2020
5796 Clouds 0 1004 97 10000 8 290 09:37 27.03.2020
5797 Clouds 0 1004 97 10000 8 290 09:18 27.03.2020
5798 Clouds 0 1003 97 10000 9 290 08:56 27.03.2020
5799 Clouds 0 1003 97 10000 9 280 08:38 27.03.2020
5800 Clouds 0 1003 96 10000 9 280 08:20 27.03.2020
5801 Clouds 0 1003 96 10000 9 290 07:50 27.03.2020
5802 Clouds 0 1003 96 10000 9 290 07:24 27.03.2020
5803 Clouds 0 1003 96 10000 9 290 06:53 27.03.2020
5804 Clouds 0 1002 96 10000 8 280 06:35 27.03.2020
5805 Snow -1 1002 92 10000 7 270 04:24 27.03.2020
5806 Snow -1 1002 100 1700 6 280 02:36 27.03.2020
5807 Clouds -1 1001 100 10000 7 280 01:23 27.03.2020
5808 Clouds -1 1001 100 10000 6 270 00:50 27.03.2020
5809 Clouds -1 1001 100 10000 6 280 00:24 27.03.2020
5810 Clouds -1 1001 100 10000 6 270 23:44 26.03.2020
5811 Clouds 0 1000 97 10000 6 270 23:22 26.03.2020
5812 Clouds 0 1000 98 10000 6 270 22:59 26.03.2020
5813 Snow 0 1000 98 10000 6 280 22:38 26.03.2020
5814 Snow 0 1000 98 10000 6 280 22:19 26.03.2020
5815 Snow 0 1000 98 8000 6 280 21:56 26.03.2020
5816 Snow -1 1000 100 2400 6 280 21:37 26.03.2020
5817 Snow -1 1000 100 2400 6 280 21:18 26.03.2020
5818 Snow -1 1000 100 2400 5 280 20:56 26.03.2020
5819 Snow -1 1000 100 2100 5 270 20:37 26.03.2020
5820 Snow -1 1000 100 2100 5 270 20:19 26.03.2020
5821 Snow -1 1000 100 2400 6 260 19:54 26.03.2020
5822 Snow -1 1000 100 2100 5 250 19:36 26.03.2020
5823 Snow -1 1000 100 2100 5 250 19:18 26.03.2020
5824 Snow -1 1000 100 1500 6 250 18:41 26.03.2020
5825 Snow -1 1000 100 1500 6 250 18:23 26.03.2020
5826 Snow -1 1001 100 1500 6 240 17:55 26.03.2020
5827 Snow -1 1001 100 1800 6 230 17:37 26.03.2020
5828 Snow -1 1001 100 1100 6 230 17:18 26.03.2020
5829 Snow -1 1001 100 1300 6 230 16:39 26.03.2020
5830 Snow -1 1001 100 1300 6 230 16:21 26.03.2020
5831 Snow -1 1002 100 1100 6 230 15:57 26.03.2020
5832 Snow -1 1002 100 1100 7 230 15:38 26.03.2020
5833 Snow -1 1002 100 1100 7 230 15:38 26.03.2020
5834 Snow -1 1002 100 1100 7 230 15:20 26.03.2020
5835 Snow -1 1002 100 1100 6 230 14:44 26.03.2020
5836 Snow -1 1003 100 800 6 230 14:26 26.03.2020
5837 Snow 0 1003 98 900 7 220 13:59 26.03.2020
5838 Snow 0 1003 98 900 7 220 13:40 26.03.2020
5839 Snow -1 1003 100 1100 7 210 13:21 26.03.2020
5840 Snow -1 1004 100 1300 7 210 12:54 26.03.2020
5841 Snow -1 1004 100 1300 7 210 12:36 26.03.2020
5842 Snow 0 1005 98 2500 8 220 12:18 26.03.2020
5843 Snow 0 1005 98 1800 8 210 11:43 26.03.2020
5844 Snow 0 1005 95 1800 8 210 11:19 26.03.2020
5845 Snow 0 1006 95 3300 8 220 10:42 26.03.2020
5846 Snow 0 1006 95 3300 8 220 10:42 26.03.2020
5847 Snow 0 1006 95 3300 8 220 10:20 26.03.2020
5848 Snow 1 1006 74 4500 10 220 09:55 26.03.2020
5849 Snow 1 1006 74 4500 10 220 09:55 26.03.2020
5850 Snow 0 1006 95 10000 8 220 09:37 26.03.2020
5851 Snow 0 1006 95 10000 8 220 09:19 26.03.2020
5852 Snow 0 1007 95 10000 8 220 08:42 26.03.2020
5853 Snow 0 1008 95 7000 7 220 08:24 26.03.2020
5854 Snow 0 1008 96 6000 7 230 07:56 26.03.2020
5855 Snow 0 1008 96 7000 8 220 07:38 26.03.2020
5856 Snow 0 1008 96 7000 8 220 07:38 26.03.2020
5857 Snow 0 1008 96 7000 8 220 07:19 26.03.2020
5858 Clouds 0 1009 96 10000 8 210 06:33 26.03.2020
5859 Snow 0 1010 96 8000 7 220 05:48 26.03.2020
5860 Snow 0 1012 97 8000 7 220 03:46 26.03.2020
5861 Snow 0 1013 97 3800 7 220 02:58 26.03.2020
5862 Snow 0 1014 95 2000 7 220 01:51 26.03.2020
5863 Snow 0 1014 95 3200 5 210 01:18 26.03.2020
5864 Snow 1 1015 86 5000 6 220 00:32 26.03.2020
5865 Clouds 2 1016 74 10000 6 220 23:44 25.03.2020
5866 Clouds 2 1016 74 10000 6 220 23:24 25.03.2020
5867 Snow 2 1016 80 10000 7 230 22:54 25.03.2020
5868 Clouds 2 1016 74 10000 7 230 22:36 25.03.2020
5869 Clouds 2 1016 74 10000 7 230 22:18 25.03.2020
5870 Clouds 2 1017 74 10000 7 210 21:42 25.03.2020
5871 Clouds 2 1017 74 10000 6 210 21:23 25.03.2020
5872 Clouds 2 1018 80 10000 6 210 20:58 25.03.2020
5873 Clouds 2 1018 95 10000 6 220 20:38 25.03.2020
5874 Clouds 2 1018 95 10000 6 220 20:19 25.03.2020
5875 Snow 2 1019 80 10000 6 240 19:55 25.03.2020
5876 Snow 2 1019 74 10000 6 230 19:36 25.03.2020
5877 Snow 2 1019 74 10000 6 230 19:18 25.03.2020
5878 Snow 2 1020 74 10000 6 220 18:42 25.03.2020
5879 Snow 3 1020 69 10000 6 220 18:24 25.03.2020
5880 Snow 3 1020 69 10000 6 220 17:58 25.03.2020
5881 Snow 3 1020 69 10000 6 220 17:58 25.03.2020
5882 Snow 3 1021 69 10000 6 210 17:40 25.03.2020
5883 Snow 3 1021 64 10000 5 210 17:21 25.03.2020
5884 Clouds 3 1021 64 10000 5 210 16:56 25.03.2020
5885 Clouds 3 1021 64 10000 6 230 16:38 25.03.2020
5886 Clouds 3 1021 64 10000 6 230 16:20 25.03.2020
5887 Clouds 3 1022 64 10000 6 230 15:42 25.03.2020
5888 Clouds 3 1022 64 10000 6 220 15:20 25.03.2020
5889 Clouds 3 1022 64 10000 6 220 14:56 25.03.2020
5890 Clouds 3 1022 64 10000 6 220 14:37 25.03.2020
5891 Clouds 3 1022 64 10000 6 220 14:19 25.03.2020
5892 Clouds 3 1023 64 10000 6 210 13:44 25.03.2020
5893 Clouds 3 1023 64 10000 6 220 13:22 25.03.2020
5894 Clouds 3 1024 59 10000 6 220 12:39 25.03.2020
5895 Clouds 3 1024 59 10000 6 220 12:20 25.03.2020
5896 Clouds 4 1024 55 10000 6 230 11:57 25.03.2020
5897 Clouds 4 1024 51 10000 7 230 11:39 25.03.2020
5898 Clouds 4 1024 51 10000 7 230 11:20 25.03.2020
5899 Clouds 3 1024 51 10000 6 240 10:57 25.03.2020
5900 Clouds 3 1025 47 10000 8 250 10:39 25.03.2020
5901 Clouds 3 1025 47 10000 8 250 10:18 25.03.2020
5902 Clouds 2 1025 47 10000 6 240 09:43 25.03.2020
5903 Clouds 2 1025 47 10000 6 240 09:25 25.03.2020
5904 Clouds 1 1026 47 10000 6 230 08:58 25.03.2020
5905 Clouds 1 1026 47 10000 6 230 08:39 25.03.2020
5906 Clouds 1 1026 47 10000 6 230 08:20 25.03.2020
5907 Clouds -1 1026 50 10000 7 240 07:44 25.03.2020
5908 Clouds -1 1026 50 10000 7 240 07:24 25.03.2020
5909 Clouds -2 1027 50 10000 8 250 06:57 25.03.2020
5910 Clouds -2 1027 50 10000 6 240 06:37 25.03.2020
5911 Clouds -2 1027 50 10000 5 240 06:19 25.03.2020
5912 Clouds -3 1027 53 10000 5 240 05:42 25.03.2020
5913 Clouds -4 1027 58 10000 5 240 04:41 25.03.2020
5914 Clouds -5 1027 62 10000 5 250 03:53 25.03.2020
5915 Clouds -5 1027 62 10000 5 250 03:29 25.03.2020
5916 Clouds -5 1027 67 10000 5 250 01:39 25.03.2020
5917 Clouds -4 1027 62 10000 5 250 00:50 25.03.2020
5918 Clouds -4 1027 68 10000 5 250 00:26 25.03.2020
5919 Clouds -4 1027 62 10000 6 250 23:53 24.03.2020
5920 Clouds -3 1027 58 10000 6 250 23:28 24.03.2020
5921 Clouds -3 1027 63 10000 6 260 22:58 24.03.2020
5922 Clouds -4 1027 68 10000 7 260 22:38 24.03.2020
5923 Clouds -4 1027 68 10000 7 260 22:20 24.03.2020
5924 Clouds -4 1027 68 10000 7 260 22:20 24.03.2020
5925 Clouds -3 1027 63 10000 6 260 21:57 24.03.2020
5926 Clouds -3 1027 63 10000 6 260 21:39 24.03.2020
5927 Clouds -3 1028 63 10000 6 260 21:18 24.03.2020
5928 Clouds -3 1028 63 10000 6 260 20:57 24.03.2020
5929 Clouds -3 1028 63 10000 5 250 20:39 24.03.2020
5930 Clouds -3 1028 63 10000 5 250 20:21 24.03.2020
5931 Clouds -3 1028 63 10000 5 250 19:45 24.03.2020
5932 Clouds -3 1028 63 10000 5 250 19:20 24.03.2020
5933 Clouds -3 1028 63 10000 5 250 18:56 24.03.2020
5934 Clouds -3 1029 63 10000 5 260 18:37 24.03.2020
5935 Clouds -3 1029 63 10000 5 250 18:19 24.03.2020
5936 Clouds -3 1029 63 10000 5 250 17:56 24.03.2020
5937 Clouds -3 1029 63 10000 6 260 17:37 24.03.2020
5938 Clouds -2 1029 58 10000 6 250 17:19 24.03.2020
5939 Clouds -2 1029 58 10000 6 250 16:54 24.03.2020
5940 Clouds -2 1029 58 10000 7 260 16:36 24.03.2020
5941 Clouds -2 1029 58 10000 7 260 16:36 24.03.2020
5942 Clouds -2 1029 58 10000 7 260 16:18 24.03.2020
5943 Clouds -2 1029 58 10000 7 260 15:42 24.03.2020
5944 Clouds -2 1029 58 10000 7 250 15:23 24.03.2020
5945 Clouds -2 1029 58 10000 7 250 14:44 24.03.2020
5946 Snow -1 1028 54 10000 7 250 14:22 24.03.2020
5947 Snow -1 1029 54 10000 7 250 13:58 24.03.2020
5948 Snow -1 1029 54 10000 8 260 13:40 24.03.2020
5949 Clouds -1 1029 54 10000 8 260 13:21 24.03.2020
5950 Clouds -1 1029 54 10000 9 270 12:42 24.03.2020
5951 Clouds -1 1029 54 10000 9 270 12:24 24.03.2020
5952 Clouds -1 1028 54 10000 9 260 11:41 24.03.2020
5953 Clouds -1 1028 54 10000 9 260 11:21 24.03.2020
5954 Snow -1 1028 54 10000 8 250 10:59 24.03.2020
5955 Snow -2 1028 58 10000 9 260 10:40 24.03.2020
5956 Snow -2 1028 58 10000 9 260 10:18 24.03.2020
5957 Snow -2 1028 58 10000 9 260 10:18 24.03.2020
5958 Snow -2 1028 58 10000 8 250 09:46 24.03.2020
5959 Snow -2 1028 54 10000 8 250 09:26 24.03.2020
5960 Snow -3 1028 58 10000 8 250 08:57 24.03.2020
5961 Snow -3 1028 58 10000 7 250 08:37 24.03.2020
5962 Snow -3 1028 58 10000 7 250 08:18 24.03.2020
5963 Snow -3 1028 58 10000 7 250 07:44 24.03.2020
5964 Snow -3 1028 58 10000 7 260 07:22 24.03.2020
5965 Snow -3 1028 58 10000 7 260 07:22 24.03.2020
5966 Snow -4 1029 58 10000 8 260 06:40 24.03.2020
5967 Snow -5 1029 62 10000 6 250 06:18 24.03.2020
5968 Clouds -6 1029 62 10000 7 250 04:52 24.03.2020
5969 Clouds -7 1028 67 10000 5 240 03:32 24.03.2020
5970 Clouds -8 1029 72 10000 5 240 02:43 24.03.2020
5971 Clouds -8 1029 67 10000 5 240 00:57 24.03.2020
5972 Clouds -8 1029 67 10000 5 240 00:28 24.03.2020
5973 Clouds -8 1030 67 10000 5 240 23:58 23.03.2020
5974 Clouds -8 1030 67 10000 5 240 23:38 23.03.2020
5975 Clouds -8 1030 67 10000 5 240 23:19 23.03.2020
5976 Clouds -8 1030 67 10000 5 250 22:44 23.03.2020
5977 Clouds -9 1030 66 10000 4 240 22:23 23.03.2020
5978 Clouds -9 1030 66 10000 4 240 21:55 23.03.2020
5979 Clouds -9 1030 66 10000 4 240 21:37 23.03.2020
5980 Clouds -9 1030 66 10000 4 240 21:18 23.03.2020
5981 Clouds -9 1030 66 10000 4 240 21:18 23.03.2020
5982 Clouds -9 1031 66 10000 4 240 20:44 23.03.2020
5983 Clouds -9 1031 72 10000 4 240 20:26 23.03.2020
5984 Clouds -9 1031 72 10000 4 230 19:59 23.03.2020
5985 Clouds -9 1031 72 10000 4 230 19:41 23.03.2020
5986 Clouds -9 1031 72 10000 4 230 19:22 23.03.2020
5987 Clouds -9 1031 72 10000 3 220 18:54 23.03.2020
5988 Clouds -9 1032 72 10000 3 220 18:36 23.03.2020
5989 Clouds -9 1032 72 10000 3 220 18:18 23.03.2020
5990 Clouds -8 1032 72 10000 3 220 17:41 23.03.2020
5991 Clouds -8 1032 67 10000 3 230 17:20 23.03.2020
5992 Clouds -8 1032 67 10000 3 230 16:44 23.03.2020
5993 Clouds -8 1032 67 10000 3 230 16:26 23.03.2020
5994 Clouds -9 1032 66 10000 2 220 15:59 23.03.2020
5995 Clouds -8 1032 61 10000 3 240 15:39 23.03.2020
5996 Clouds -8 1032 61 10000 3 240 15:19 23.03.2020
5997 Clouds -7 1032 62 10000 4 240 14:37 23.03.2020
5998 Clouds -7 1032 62 10000 4 240 14:19 23.03.2020
5999 Clouds -7 1032 62 10000 5 250 13:57 23.03.2020
6000 Clouds -7 1032 57 10000 4 270 13:38 23.03.2020
6001 Clouds -7 1032 57 10000 4 270 13:38 23.03.2020
6002 Clouds -7 1032 57 10000 4 270 13:20 23.03.2020
6003 Clouds -7 1032 57 10000 5 290 12:43 23.03.2020
6004 Clouds -7 1032 57 10000 5 290 12:43 23.03.2020
6005 Clouds -7 1032 57 10000 5 290 12:23 23.03.2020
6006 Clouds -7 1032 57 10000 4 290 11:56 23.03.2020
6007 Clouds -8 1032 61 10000 4 290 11:37 23.03.2020
6008 Clouds -8 1031 61 10000 3 280 11:19 23.03.2020
6009 Clouds -8 1031 61 10000 3 280 10:56 23.03.2020
6010 Clouds -7 1031 57 10000 4 270 10:36 23.03.2020
6011 Clouds -7 1031 57 10000 4 270 10:18 23.03.2020
6012 Clouds -7 1031 52 10000 2 270 09:42 23.03.2020
6013 Clouds -8 1031 57 10000 2 290 09:20 23.03.2020
6014 Clouds -8 1031 52 10000 1 0 08:38 23.03.2020
6015 Clouds -8 1031 52 10000 1 0 08:20 23.03.2020
6016 Clouds -9 1030 56 10000 2 350 07:54 23.03.2020
6017 Clouds -10 1030 61 10000 2 330 07:34 23.03.2020
6018 Clouds -10 1030 56 10000 3 310 06:58 23.03.2020
6019 Clouds -10 1029 56 10000 3 320 06:40 23.03.2020
6020 Clouds -13 1029 78 10000 2 270 05:45 23.03.2020
6021 Clouds -15 1028 84 10000 2 300 04:41 23.03.2020
6022 Clouds -18 1027 84 10000 2 280 03:23 23.03.2020
6023 Clouds -18 1026 84 10000 1 300 01:50 23.03.2020
6024 Clouds -17 1026 84 10000 1 300 00:50 23.03.2020
6025 Clouds -17 1025 84 10000 3 280 00:31 23.03.2020
6026 Clouds -16 1024 84 10000 2 290 23:45 22.03.2020
6027 Clouds -16 1024 84 10000 2 290 23:25 22.03.2020
6028 Clouds -16 1024 77 10000 2 310 22:44 22.03.2020
6029 Clouds -16 1024 77 10000 2 310 22:22 22.03.2020
6030 Clouds -16 1023 77 10000 3 310 21:55 22.03.2020
6031 Clouds -15 1023 77 9000 3 320 21:36 22.03.2020
6032 Clouds -15 1023 77 9000 3 320 21:18 22.03.2020
6033 Clouds -15 1022 71 10000 3 320 20:45 22.03.2020
6034 Clouds -15 1022 71 10000 3 300 20:25 22.03.2020
6035 Clouds -16 1022 77 10000 3 290 19:58 22.03.2020
6036 Clouds -16 1022 77 10000 3 290 19:39 22.03.2020
6037 Clouds -15 1022 71 10000 3 290 19:20 22.03.2020
6038 Clouds -15 1021 71 10000 3 290 18:58 22.03.2020
6039 Clouds -14 1021 71 10000 4 290 18:40 22.03.2020
6040 Clouds -14 1021 71 10000 4 290 18:21 22.03.2020
6041 Clouds -14 1020 71 10000 4 300 17:57 22.03.2020
6042 Clouds -14 1020 71 10000 4 290 17:38 22.03.2020
6043 Clouds -14 1020 71 10000 4 290 17:20 22.03.2020
6044 Clouds -13 1020 71 10000 4 290 16:57 22.03.2020
6045 Clouds -12 1019 66 10000 4 310 16:39 22.03.2020
6046 Clouds -12 1019 66 10000 4 310 16:20 22.03.2020
6047 -273 0 0 0 0 0 16:20 22.03.2020
6048 Clouds -12 1018 66 10000 4 320 15:40 22.03.2020
6049 Clouds -11 1018 66 10000 5 320 15:21 22.03.2020
6050 Clouds -11 1017 72 10000 5 330 14:46 22.03.2020
6051 Snow -10 1017 72 8000 6 320 14:19 22.03.2020
6052 Snow -10 1016 78 6000 4 330 13:44 22.03.2020
6053 Snow -9 1016 66 9000 5 330 13:20 22.03.2020
6054 Clouds -9 1015 61 10000 6 310 12:59 22.03.2020
6055 Clouds -9 1014 61 10000 6 330 12:41 22.03.2020
6056 Clouds -9 1014 61 10000 6 330 12:19 22.03.2020
6057 Clouds -9 1014 61 10000 8 300 11:43 22.03.2020
6058 Clouds -9 1014 61 10000 8 300 11:43 22.03.2020
6059 Clouds -9 1014 61 10000 8 300 11:25 22.03.2020
6060 Clouds -9 1013 61 10000 6 300 10:58 22.03.2020
6061 Clouds -9 1013 56 10000 6 300 10:40 22.03.2020
6062 Clouds -9 1013 56 10000 6 300 10:22 22.03.2020
6063 Clouds -9 1013 56 10000 6 300 10:22 22.03.2020
6064 Clouds -10 1012 61 10000 6 320 09:46 22.03.2020
6065 Clouds -10 1012 61 10000 6 320 09:46 22.03.2020
6066 Clouds -10 1012 61 10000 6 320 09:27 22.03.2020
6067 Clouds -11 1012 61 10000 6 330 08:48 22.03.2020
6068 Clouds -11 1012 61 10000 6 330 08:48 22.03.2020
6069 Clouds -11 1011 61 10000 5 350 08:30 22.03.2020
6070 Clear -11 1011 61 10000 7 330 07:55 22.03.2020
6071 Clear -11 1011 56 10000 5 350 07:37 22.03.2020
6072 Clear -13 1010 65 10000 5 340 06:48 22.03.2020
6073 Clear -13 1010 71 10000 5 340 05:52 22.03.2020
6074 Clouds -15 1008 84 10000 5 340 04:39 22.03.2020
6075 Clouds -16 1007 84 10000 5 340 01:47 22.03.2020
6076 Clouds -15 1006 84 10000 4 350 00:50 22.03.2020
6077 Clouds -14 1006 77 10000 4 350 00:31 22.03.2020
6078 Clouds -14 1005 84 10000 4 360 23:46 21.03.2020
6079 Clouds -14 1005 84 10000 3 10 23:22 21.03.2020
6080 Clouds -14 1005 84 10000 3 360 22:58 21.03.2020
6081 Clouds -13 1005 78 10000 3 360 22:38 21.03.2020
6082 Clouds -13 1005 78 10000 3 360 22:19 21.03.2020
6083 Clouds -13 1005 78 10000 3 360 21:57 21.03.2020
6084 Clouds -13 1005 78 10000 3 360 21:38 21.03.2020
6085 Clouds -12 1005 78 10000 3 360 21:19 21.03.2020
6086 Clouds -12 1005 78 10000 4 10 20:42 21.03.2020
6087 Clouds -12 1005 78 10000 4 360 20:22 21.03.2020
6088 Clouds -11 1005 72 10000 4 360 19:55 21.03.2020
6089 Clouds -11 1005 72 10000 4 360 19:36 21.03.2020
6090 Clouds -11 1005 72 10000 4 360 19:18 21.03.2020
6091 Clouds -11 1005 72 10000 4 360 19:18 21.03.2020
6092 Clouds -11 1005 72 10000 4 350 18:41 21.03.2020
6093 Clouds -11 1005 72 10000 4 350 18:20 21.03.2020
6094 Clouds -11 1005 78 10000 4 350 17:58 21.03.2020
6095 Clouds -10 1005 66 10000 3 360 17:40 21.03.2020
6096 Clouds -10 1005 66 10000 3 360 17:22 21.03.2020
6097 Clouds -9 1004 66 10000 3 360 16:42 21.03.2020
6098 Clouds -9 1004 66 10000 3 360 16:23 21.03.2020
6099 Clouds -9 1004 66 10000 4 360 15:58 21.03.2020
6100 Clouds -9 1004 66 10000 4 360 15:40 21.03.2020
6101 Clouds -8 1004 61 10000 4 10 15:21 21.03.2020
6102 Clouds -8 1004 61 10000 4 10 14:56 21.03.2020
6103 Clouds -7 1004 57 10000 4 10 14:37 21.03.2020
6104 Clouds -7 1004 57 10000 4 10 14:19 21.03.2020
6105 Clouds -6 1004 53 10000 5 30 13:57 21.03.2020
6106 Clouds -6 1004 53 10000 5 30 13:57 21.03.2020
6107 Clouds -6 1004 53 10000 5 10 13:38 21.03.2020
6108 Clouds -6 1004 53 10000 5 10 13:38 21.03.2020
6109 Clouds -6 1004 53 10000 5 10 13:20 21.03.2020
6110 Clear -6 1003 57 10000 5 10 12:41 21.03.2020
6111 Clear -6 1003 57 10000 5 10 12:21 21.03.2020
6112 Clear -6 1003 57 10000 6 10 11:59 21.03.2020
6113 Clear -6 1002 57 10000 7 10 11:39 21.03.2020
6114 Clear -6 1002 57 10000 6 350 11:20 21.03.2020
6115 Clear -6 1002 57 10000 6 350 10:58 21.03.2020
6116 Clear -6 1002 57 10000 6 350 10:58 21.03.2020
6117 Clear -6 1002 57 10000 7 350 10:40 21.03.2020
6118 Clear -6 1002 57 10000 7 350 10:22 21.03.2020
6119 Clear -6 1002 62 10000 6 350 09:59 21.03.2020
6120 Clear -6 1002 67 10000 6 350 09:39 21.03.2020
6121 Clear -6 1002 67 10000 6 350 09:20 21.03.2020
6122 Clouds -5 1001 67 10000 6 350 08:55 21.03.2020
6123 Clouds -6 1001 73 10000 6 340 08:37 21.03.2020
6124 Clouds -6 1001 73 10000 6 340 08:19 21.03.2020
6125 Snow -5 1001 85 9000 6 340 07:37 21.03.2020
6126 Snow -5 1001 85 9000 6 340 07:19 21.03.2020
6127 Clouds -5 1000 92 10000 5 350 06:44 21.03.2020
6128 Clouds -5 1000 92 10000 5 350 06:24 21.03.2020
6129 Snow -3 999 92 9000 4 360 05:40 21.03.2020
6130 Snow -3 998 100 7000 5 330 03:49 21.03.2020
6131 Clouds -2 997 100 10000 4 340 02:37 21.03.2020
6132 Clouds -2 997 100 10000 4 330 01:44 21.03.2020
6133 Clouds -2 996 100 10000 3 340 01:23 21.03.2020
6134 Clouds -1 995 100 10000 3 340 00:39 21.03.2020
6135 Clouds -1 995 100 10000 3 340 00:21 21.03.2020
6136 Mist -2 995 100 1800 3 350 23:42 20.03.2020
6137 Mist -2 995 100 1800 3 350 23:22 20.03.2020
6138 Mist -2 995 100 2000 4 340 22:44 20.03.2020
6139 Fog -1 994 100 550 3 330 22:25 20.03.2020
6140 Fog -1 994 100 1000 2 330 21:58 20.03.2020
6141 Fog -1 994 100 1000 2 330 21:40 20.03.2020
6142 Fog -1 994 100 1100 2 340 21:20 20.03.2020
6143 Fog -1 994 100 800 2 330 20:58 20.03.2020
6144 Fog -1 994 100 350 2 340 20:40 20.03.2020
6145 Fog -1 994 100 350 2 340 20:20 20.03.2020
6146 Fog -1 994 100 900 2 340 19:48 20.03.2020
6147 Mist 0 993 98 4100 2 360 19:21 20.03.2020
6148 Fog 0 993 98 3800 2 340 18:58 20.03.2020
6149 Clouds 0 993 98 6000 2 340 18:38 20.03.2020
6150 Clouds 0 993 98 6000 2 340 18:20 20.03.2020
6151 Clouds 0 993 98 10000 3 340 17:56 20.03.2020
6152 Clouds 0 993 98 8000 2 350 17:37 20.03.2020
6153 Clouds 0 993 98 8000 2 360 17:18 20.03.2020
6154 Clouds 0 993 98 9000 2 360 16:41 20.03.2020
6155 Clouds 0 993 98 9000 2 360 16:21 20.03.2020
6156 Clouds 0 993 98 10000 2 350 15:45 20.03.2020
6157 Clouds 0 992 98 8000 1 10 15:23 20.03.2020
6158 Clouds 0 992 98 8000 2 30 14:59 20.03.2020
6159 Clouds 0 992 98 8000 2 30 14:59 20.03.2020
6160 Clouds 0 992 98 8000 2 30 14:41 20.03.2020
6161 Snow 0 992 98 5000 2 30 14:21 20.03.2020
6162 Snow 0 992 98 5000 2 30 14:20 20.03.2020
6163 Snow 1 992 100 3500 2 50 13:48 20.03.2020
6164 Snow 1 992 100 4000 2 50 13:24 20.03.2020
6165 Snow 1 992 100 4000 2 50 13:24 20.03.2020
6166 Snow 1 992 100 2300 2 40 12:58 20.03.2020
6167 Snow 1 992 100 3100 2 60 12:38 20.03.2020
6168 Snow 1 992 100 3100 2 60 12:19 20.03.2020
6169 Snow 1 992 100 6000 2 90 11:39 20.03.2020
6170 Snow 1 992 100 5000 2 100 11:20 20.03.2020
6171 Snow 1 992 100 5000 2 100 10:55 20.03.2020
6172 Snow 1 992 100 2400 2 110 10:37 20.03.2020
6173 Snow 1 992 100 2400 2 110 10:18 20.03.2020
6174 Snow 1 992 100 2400 2 110 10:18 20.03.2020
6175 Snow 1 992 100 2400 2 110 10:18 20.03.2020
6176 Snow 1 992 100 3000 2 110 09:45 20.03.2020
6177 Snow 1 992 100 3700 2 140 09:21 20.03.2020
6178 Snow 1 992 100 5000 2 150 08:57 20.03.2020
6179 Snow 1 992 100 5000 1.14 138 08:38 20.03.2020
6180 Snow 1 992 100 5000 1.6 140 08:18 20.03.2020
6181 Snow 2 993 100 10000 1.6 140 07:39 20.03.2020
6182 Snow 2 993 100 10000 1.6 140 07:21 20.03.2020
6183 Clouds 1 993 100 10000 2 260 06:42 20.03.2020
6184 Clouds 1 993 100 10000 2 230 06:18 20.03.2020
6185 Snow 0 993 97 3200 2 200 04:38 20.03.2020
6186 Mist 0 994 97 3200 1 200 02:51 20.03.2020
6187 Snow 0 994 98 5000 1 0 01:50 20.03.2020
6188 Snow 0 994 98 9000 2 200 00:45 20.03.2020
6189 Snow 0 994 98 9000 2 200 00:23 20.03.2020
6190 Snow 0 995 98 9000 2 210 23:42 19.03.2020
6191 Snow 0 995 98 9000 2 210 23:23 19.03.2020
6192 Snow 0 995 98 4300 2 230 22:41 19.03.2020
6193 Snow 0 995 98 4300 2 230 22:23 19.03.2020
6194 Snow 0 995 98 7000 3 230 21:58 19.03.2020
6195 Clouds 0 995 98 10000 3 240 21:38 19.03.2020
6196 Clouds 0 995 98 10000 3 240 21:19 19.03.2020
6197 Clouds 0 996 98 10000 3 230 20:44 19.03.2020
6198 Snow 0 996 97 10000 3 230 20:25 19.03.2020
6199 Snow 0 996 97 8000 3 230 19:59 19.03.2020
6200 Snow 0 996 97 9000 4 230 19:39 19.03.2020
6201 Snow 0 996 97 9000 4 230 19:39 19.03.2020
6202 Snow 0 996 97 9000 4 230 19:21 19.03.2020
6203 Snow 0 997 97 7000 3 240 18:58 19.03.2020
6204 Snow 0 997 97 10000 3 250 18:40 19.03.2020
6205 Snow 0 997 97 9000 4 230 18:22 19.03.2020
6206 Snow 0 997 97 4900 4 230 17:54 19.03.2020
6207 Snow 0 997 97 4900 4 230 17:36 19.03.2020
6208 Snow 1 997 100 4000 4 230 17:18 19.03.2020
6209 Snow 1 997 100 5000 4 220 16:41 19.03.2020
6210 Snow 1 997 100 5000 4 220 16:21 19.03.2020
6211 Snow 1 998 97 9000 5 230 15:42 19.03.2020
6212 Clouds 1 998 86 10000 6 230 15:23 19.03.2020
6213 Clouds 2 998 74 10000 5 230 14:43 19.03.2020
6214 Clouds 2 998 74 10000 5 230 14:23 19.03.2020
6215 Clouds 2 998 74 10000 4 230 13:57 19.03.2020
6216 Clouds 2 998 74 10000 3 210 13:37 19.03.2020
6217 Clouds 2 998 74 10000 3 210 13:18 19.03.2020
6218 Clouds 1 999 74 10000 3 230 12:41 19.03.2020
6219 Clouds 1 999 74 10000 3 230 12:23 19.03.2020
6220 Clouds 1 999 74 10000 5 230 11:58 19.03.2020
6221 Clouds 1 999 74 10000 5 210 11:40 19.03.2020
6222 Clouds 1 999 69 10000 5 220 11:22 19.03.2020
6223 Clouds 1 999 69 10000 5 220 10:42 19.03.2020
6224 Clouds 1 999 69 10000 5 220 10:21 19.03.2020
6225 Clouds 0 999 96 10000 5 230 09:58 19.03.2020
6226 Snow 0 999 96 10000 6 230 09:38 19.03.2020
6227 Snow 0 999 96 10000 6 230 09:19 19.03.2020
6228 Snow 0 1000 96 10000 6 230 08:46 19.03.2020
6229 Snow 0 1000 96 10000 6 240 08:21 19.03.2020
6230 Clouds -1 1000 74 10000 6 230 07:47 19.03.2020
6231 Clouds -1 1000 74 10000 6 230 07:28 19.03.2020
6232 Clouds -1 1000 74 10000 5 230 06:51 19.03.2020
6233 Snow -2 1000 79 10000 5 220 05:52 19.03.2020
6234 Snow -3 1001 86 9000 5 230 05:19 19.03.2020
6235 Snow -4 1001 92 3400 5 230 04:40 19.03.2020
6236 Snow -4 1001 79 10000 5 220 03:20 19.03.2020
6237 Snow -4 1002 73 10000 5 210 01:27 19.03.2020
6238 Snow -4 1003 73 10000 5 210 00:37 19.03.2020
6239 Snow -4 1003 73 10000 5 200 23:58 18.03.2020
6240 Snow -4 1004 73 10000 6 210 23:36 18.03.2020
6241 Clouds -4 1005 73 10000 5 210 23:18 18.03.2020
6242 Clouds -3 1005 63 10000 5 210 22:42 18.03.2020
6243 Clouds -3 1005 63 10000 5 210 22:22 18.03.2020
6244 Clouds -4 1006 68 10000 4 220 21:54 18.03.2020
6245 Clouds -4 1006 68 10000 5 210 21:36 18.03.2020
6246 Clouds -4 1006 68 10000 5 210 21:18 18.03.2020
6247 Clouds -4 1007 68 10000 5 220 20:41 18.03.2020
6248 Clouds -4 1007 68 10000 6 230 20:21 18.03.2020
6249 Clouds -4 1008 68 10000 6 230 19:58 18.03.2020
6250 Clouds -4 1008 62 10000 6 230 19:40 18.03.2020
6251 Clouds -4 1008 62 10000 6 230 19:21 18.03.2020
6252 Clouds -4 1008 62 10000 6 230 19:21 18.03.2020
6253 Clouds -4 1008 62 10000 6 230 19:21 18.03.2020
6254 Clouds -4 1009 62 10000 5 230 18:54 18.03.2020
6255 Clouds -4 1009 62 10000 5 230 18:36 18.03.2020
6256 Clouds -4 1009 62 10000 5 230 18:18 18.03.2020
6257 Clouds -4 1009 62 10000 4 230 17:41 18.03.2020
6258 Clouds -4 1010 68 10000 5 240 17:22 18.03.2020
6259 Clouds -4 1010 68 10000 5 240 16:59 18.03.2020
6260 Clouds -4 1010 68 10000 4 240 16:40 18.03.2020
6261 Clouds -4 1010 68 10000 4 240 16:20 18.03.2020
6262 Clouds -3 1010 63 10000 5 240 15:46 18.03.2020
6263 Clouds -3 1010 63 10000 6 250 15:27 18.03.2020
6264 Clouds -3 1010 68 10000 5 240 14:58 18.03.2020
6265 Clouds -2 1010 63 10000 5 240 14:40 18.03.2020
6266 Clouds -2 1010 63 10000 5 240 14:20 18.03.2020
6267 Clouds -2 1010 58 10000 9 250 13:40 18.03.2020
6268 Clouds -2 1010 58 10000 9 250 13:19 18.03.2020
6269 Clouds -2 1010 58 10000 9 250 13:19 18.03.2020
6270 Clouds -2 1010 58 10000 9 250 12:42 18.03.2020
6271 Clouds -1 1010 54 10000 7 250 12:21 18.03.2020
6272 Clouds -1 1010 54 10000 7 250 11:58 18.03.2020
6273 Clouds -2 1010 63 10000 7 250 11:37 18.03.2020
6274 Clear -1 1009 54 10000 8 260 11:18 18.03.2020
6275 Clear -1 1009 54 10000 8 260 10:55 18.03.2020
6276 Clear -1 1009 54 10000 8 260 10:36 18.03.2020
6277 Clear -1 1009 54 10000 8 260 10:18 18.03.2020
6278 Clear -2 1009 58 10000 7 280 09:41 18.03.2020
6279 Clear -3 1009 63 10000 8 280 09:22 18.03.2020
6280 Clear -3 1008 63 10000 8 280 08:40 18.03.2020
6281 Clouds -3 1008 63 10000 8 280 08:22 18.03.2020
6282 Clouds -3 1008 68 10000 8 290 07:59 18.03.2020
6283 Clouds -4 1007 68 10000 8 300 07:37 18.03.2020
6284 Clouds -4 1007 68 10000 8 300 07:19 18.03.2020
6285 Clouds -5 1006 73 10000 10 300 06:39 18.03.2020
6286 Clouds -5 1004 73 10000 8 300 05:37 18.03.2020
6287 Snow -4 1002 85 8000 10 300 04:38 18.03.2020
6288 Snow -3 1000 92 10000 9 300 03:21 18.03.2020
6289 Snow -3 998 100 1600 8 300 02:36 18.03.2020
6290 Snow -3 997 100 10000 8 300 01:42 18.03.2020
6291 Snow -3 995 100 4700 7 290 00:45 18.03.2020
6292 Snow -3 995 100 4700 7 290 00:21 18.03.2020
6293 Snow -3 995 100 5000 6 280 23:42 17.03.2020
6294 Snow -3 994 100 9000 5 280 23:20 17.03.2020
6295 Snow -4 994 100 9000 5 280 22:45 17.03.2020
6296 Snow -4 994 100 9000 5 280 22:26 17.03.2020
6297 Snow -4 994 100 7000 4 260 21:43 17.03.2020
6298 Snow -4 994 100 9000 3 250 21:23 17.03.2020
6299 Snow -5 994 100 7000 2 270 20:58 17.03.2020
6300 Snow -5 994 100 8000 2 270 20:38 17.03.2020
6301 Snow -5 994 100 8000 2 270 20:19 17.03.2020
6302 Snow -4 995 100 4500 1 0 19:42 17.03.2020
6303 Snow -4 995 100 3000 1 0 19:19 17.03.2020
6304 Snow -4 995 100 3000 1 0 18:57 17.03.2020
6305 Clouds -4 996 100 10000 1 0 18:39 17.03.2020
6306 Clouds -4 996 100 10000 1 0 18:21 17.03.2020
6307 Snow -4 996 100 3200 2 110 17:56 17.03.2020
6308 Snow -4 997 100 1800 2 140 17:37 17.03.2020
6309 Snow -4 997 100 1900 2 130 17:18 17.03.2020
6310 Snow -4 998 100 1100 3 140 16:41 17.03.2020
6311 Snow -4 998 100 1100 3 140 16:19 17.03.2020
6312 Snow -4 999 100 900 3 140 15:45 17.03.2020
6313 Snow -3 999 100 1400 3 150 15:22 17.03.2020
6314 Snow -3 1000 86 5000 4 150 14:44 17.03.2020
6315 Clouds -3 1001 86 10000 4 150 14:26 17.03.2020
6316 Clouds -3 1001 86 10000 5 150 13:58 17.03.2020
6317 Clouds -3 1002 86 10000 4 150 13:39 17.03.2020
6318 Clouds -3 1002 86 10000 4 150 13:21 17.03.2020
6319 Snow -3 1004 86 4700 5 160 12:44 17.03.2020
6320 Snow -3 1004 86 4700 5 160 12:24 17.03.2020
6321 Clouds -3 1006 73 10000 5 150 11:48 17.03.2020
6322 Clouds -3 1006 73 10000 5 150 11:30 17.03.2020
6323 Clouds -4 1007 79 10000 4 150 10:59 17.03.2020
6324 Clouds -4 1007 79 10000 4 150 10:59 17.03.2020
6325 Clouds -4 1008 73 10000 5 150 10:40 17.03.2020
6326 Clouds -4 1008 73 10000 5 150 10:22 17.03.2020
6327 Clouds -4 1008 73 10000 5 150 10:22 17.03.2020
6328 Clouds -5 1008 79 10000 5 140 09:59 17.03.2020
6329 Clouds -5 1009 73 10000 6 150 09:41 17.03.2020
6330 Clouds -5 1009 73 10000 6 150 09:20 17.03.2020
6331 Clouds -5 1009 73 10000 6 150 09:20 17.03.2020
6332 Clouds -6 1010 79 10000 5 150 08:50 17.03.2020
6333 Clouds -6 1011 73 10000 5 150 08:23 17.03.2020
6334 Clouds -6 1011 79 10000 6 180 07:57 17.03.2020
6335 Clouds -6 1012 73 10000 6 180 07:38 17.03.2020
6336 Clouds -6 1012 73 10000 6 180 07:19 17.03.2020
6337 Clouds -8 1013 78 10000 5 180 06:39 17.03.2020
6338 Clouds -9 1014 78 10000 5 180 05:58 17.03.2020
6339 Clear -12 1016 85 10000 5 200 03:58 17.03.2020
6340 Clear -12 1016 85 10000 5 200 03:58 17.03.2020
6341 Clear -12 1016 78 10000 4 190 02:54 17.03.2020
6342 Clear -13 1017 78 10000 4 190 01:49 17.03.2020
6343 Clear -13 1017 78 10000 3 190 01:25 17.03.2020
6344 Clear -12 1017 72 10000 4 190 00:47 17.03.2020
6345 Clear -13 1017 78 10000 4 200 23:50 16.03.2020
6346 Clear -13 1017 78 10000 4 200 23:32 16.03.2020
6347 Clear -13 1018 78 10000 3 190 22:42 16.03.2020
6348 Clear -13 1018 78 10000 3 190 22:24 16.03.2020
6349 Clear -13 1018 71 10000 2 190 21:58 16.03.2020
6350 Clear -13 1018 71 10000 2 190 21:40 16.03.2020
6351 Clear -13 1018 71 10000 3 200 21:22 16.03.2020
6352 Clear -12 1018 66 10000 3 200 20:56 16.03.2020
6353 Clear -12 1018 66 10000 3 200 20:37 16.03.2020
6354 Clear -12 1018 66 10000 3 200 20:19 16.03.2020
6355 Clear -12 1018 66 10000 3 220 19:41 16.03.2020
6356 Clear -12 1018 66 10000 3 210 19:20 16.03.2020
6357 Clear -13 1019 65 10000 3 200 18:43 16.03.2020
6358 Clear -13 1019 65 10000 3 200 18:22 16.03.2020
6359 Clear -13 1018 71 10000 2 210 17:56 16.03.2020
6360 Clear -13 1018 71 10000 2 210 17:37 16.03.2020
6361 Clear -12 1018 60 10000 3 240 17:18 16.03.2020
6362 Clear -12 1018 60 10000 3 240 16:45 16.03.2020
6363 Clear -12 1018 66 10000 3 250 16:27 16.03.2020
6364 Clear -12 1018 66 10000 3 250 15:46 16.03.2020
6365 Clear -12 1018 66 10000 3 280 15:28 16.03.2020
6366 Clear -12 1017 72 10000 4 280 14:49 16.03.2020
6367 Clear -10 1017 61 10000 4 290 14:28 16.03.2020
6368 Clouds -10 1017 61 10000 4 290 13:59 16.03.2020
6369 Clouds -10 1016 61 10000 5 300 13:41 16.03.2020
6370 Clouds -10 1016 61 10000 5 300 13:22 16.03.2020
6371 Clouds -9 1016 61 10000 6 290 12:45 16.03.2020
6372 Clouds -9 1015 61 10000 7 290 12:24 16.03.2020
6373 Clouds -9 1015 61 10000 7 290 11:56 16.03.2020
6374 Clouds -9 1014 66 10000 7 300 11:37 16.03.2020
6375 Clouds -9 1013 61 10000 6 310 11:18 16.03.2020
6376 Clouds -9 1012 66 10000 7 310 10:40 16.03.2020
6377 Clouds -9 1012 66 10000 7 310 10:19 16.03.2020
6378 Clouds -9 1011 66 10000 9 300 09:42 16.03.2020
6379 Clouds -8 1010 67 10000 7 300 09:24 16.03.2020
6380 Clouds -8 1010 72 10000 8 310 08:53 16.03.2020
6381 Snow -8 1009 72 10000 9 320 08:25 16.03.2020
6382 Clouds -9 1008 72 10000 8 310 07:49 16.03.2020
6383 Clouds -9 1007 78 10000 8 330 07:25 16.03.2020
6384 Snow -9 1006 78 8000 9 320 06:54 16.03.2020
6385 Clouds -8 1005 72 10000 9 320 06:25 16.03.2020
6386 Clouds -8 1002 78 10000 9 330 04:55 16.03.2020
6387 Snow -5 998 85 9000 7 340 02:44 16.03.2020
6388 Snow -4 995 100 2500 8 360 01:20 16.03.2020
6389 Snow -1 994 100 1800 6 10 00:39 16.03.2020
6390 Snow -1 993 100 1400 5 20 23:47 15.03.2020
6391 Snow 0 993 97 2100 5 30 23:20 15.03.2020
6392 Snow 0 992 97 2800 6 40 22:43 15.03.2020
6393 Snow 0 992 97 5000 7 50 22:23 15.03.2020
6394 Snow 1 992 86 9000 5 50 21:58 15.03.2020
6395 Snow 1 992 86 9000 5 50 21:38 15.03.2020
6396 Clouds 1 992 86 10000 6 50 21:18 15.03.2020
6397 Snow 1 993 80 10000 6 60 20:42 15.03.2020
6398 Snow 1 993 80 10000 5 60 20:21 15.03.2020
6399 Clouds 1 994 80 10000 6 60 19:58 15.03.2020
6400 Clouds 1 995 80 10000 4 70 19:39 15.03.2020
6401 Clouds 1 995 80 10000 4 70 19:20 15.03.2020
6402 Clouds 1 995 80 10000 4 70 19:20 15.03.2020
6403 Clouds 1 995 80 10000 5 80 18:55 15.03.2020
6404 Clouds 1 996 86 10000 5 80 18:37 15.03.2020
6405 Clouds 1 996 86 10000 5 80 18:19 15.03.2020
6406 Clouds 1 997 86 10000 4 70 17:41 15.03.2020
6407 Clouds 1 997 86 10000 4 70 17:21 15.03.2020
6408 Clouds 1 998 86 10000 5 60 16:58 15.03.2020
6409 Clouds 1 999 86 10000 4 70 16:39 15.03.2020
6410 Clouds 1 999 86 10000 4 70 16:21 15.03.2020
6411 Clouds 1 999 86 10000 4 70 15:46 15.03.2020
6412 Clouds 1 999 86 10000 3 70 15:28 15.03.2020
6413 Clouds 1 1000 86 10000 3 80 14:58 15.03.2020
6414 Clouds 1 1000 86 10000 3 80 14:38 15.03.2020
6415 Snow 1 1000 80 10000 2 60 14:19 15.03.2020
6416 Snow 2 1000 80 10000 3 60 13:54 15.03.2020
6417 Snow 2 1000 74 10000 1 50 13:36 15.03.2020
6418 Clouds 2 1000 74 10000 1 50 13:18 15.03.2020
6419 Clouds 2 1000 74 10000 1 50 13:18 15.03.2020
6420 Clouds 3 1001 69 10000 2 260 12:39 15.03.2020
6421 Clouds 3 1001 69 10000 2 260 12:21 15.03.2020
6422 Clouds 3 1001 69 10000 2 260 12:21 15.03.2020
6423 Clouds 2 1001 80 10000 3 280 11:43 15.03.2020
6424 Clouds 2 1001 80 10000 3 280 11:24 15.03.2020
6425 Clouds 3 1001 69 10000 5 250 10:57 15.03.2020
6426 Clouds 3 1001 69 10000 6 240 10:39 15.03.2020
6427 Clouds 3 1001 69 10000 6 240 10:21 15.03.2020
6428 Clouds 3 1001 69 10000 6 240 09:42 15.03.2020
6429 Clouds 3 1001 74 10000 7 240 09:23 15.03.2020
6430 Clouds 2 1000 80 10000 6 240 08:58 15.03.2020
6431 Clouds 2 1000 80 10000 6 240 08:40 15.03.2020
6432 Clouds 2 1000 80 10000 6 240 08:40 15.03.2020
6433 Clouds 2 1000 80 10000 7 250 08:18 15.03.2020
6434 Clouds 2 1000 80 10000 6 240 07:44 15.03.2020
6435 Clouds 2 999 74 10000 6 250 06:59 15.03.2020
6436 Clouds 2 998 74 10000 7 250 06:35 15.03.2020
6437 Clouds 1 997 86 10000 10 250 05:46 15.03.2020
6438 Clouds 1 997 86 10000 8 250 04:49 15.03.2020
6439 Clouds 1 996 86 10000 7 250 04:29 15.03.2020
6440 Clouds 1 996 86 10000 7 250 03:55 15.03.2020
6441 Clouds 2 994 80 10000 8 250 02:48 15.03.2020
6442 Clouds 2 993 92 10000 7 240 01:56 15.03.2020
6443 Rain 2 992 89 10000 7 250 00:51 15.03.2020
6444 Clouds 2 992 93 10000 6 250 00:28 15.03.2020
6445 Rain 2 991 93 10000 6 250 23:58 14.03.2020
6446 Clouds 2 991 93 10000 7 250 23:37 14.03.2020
6447 Clouds 2 991 93 10000 7 250 23:19 14.03.2020
6448 Snow 2 990 93 10000 6 240 22:44 14.03.2020
6449 Clouds 2 990 93 10000 6 240 22:26 14.03.2020
6450 Clouds 2 989 96 10000 6 240 21:57 14.03.2020
6451 Clouds 2 989 96 10000 6 240 21:37 14.03.2020
6452 Clouds 2 989 96 10000 6 240 21:19 14.03.2020
6453 Clouds 2 989 96 10000 6 240 21:19 14.03.2020
6454 Clouds 2 988 96 10000 6 240 20:59 14.03.2020
6455 Clouds 2 988 96 10000 6 240 20:41 14.03.2020
6456 Clouds 2 988 93 10000 5 240 20:20 14.03.2020
6457 Clouds 2 988 93 10000 5 240 19:58 14.03.2020
6458 Snow 2 987 93 10000 6 240 19:39 14.03.2020
6459 Snow 2 987 93 10000 6 240 19:19 14.03.2020
6460 Snow 2 987 100 10000 4 230 18:37 14.03.2020
6461 Clouds 2 987 100 10000 5 230 18:19 14.03.2020
6462 Clouds 2 987 100 10000 4 230 17:40 14.03.2020
6463 Snow 2 986 100 10000 4 230 17:21 14.03.2020
6464 Clouds 2 986 100 10000 4 230 16:42 14.03.2020
6465 Clouds 2 986 100 10000 4 230 16:24 14.03.2020
6466 Clouds 2 986 100 10000 4 220 15:59 14.03.2020
6467 Clouds 2 986 100 10000 4 210 15:27 14.03.2020
6468 Clouds 2 986 100 10000 4 210 14:59 14.03.2020
6469 Clouds 2 986 100 10000 4 210 14:37 14.03.2020
6470 Clouds 2 986 100 10000 4 210 14:19 14.03.2020
6471 Clouds 2 986 100 10000 5 210 13:54 14.03.2020
6472 Clouds 2 986 100 10000 5 200 13:36 14.03.2020
6473 Clouds 2 986 100 10000 5 200 13:18 14.03.2020
6474 Clouds 2 986 100 10000 5 200 12:42 14.03.2020
6475 Clouds 2 986 100 10000 5 200 12:23 14.03.2020
6476 Rain 2 986 100 9000 5 200 11:43 14.03.2020
6477 Rain 2 986 100 9000 5 200 11:43 14.03.2020
6478 Clouds 2 986 100 10000 6 200 11:25 14.03.2020
6479 Clouds 2 986 100 10000 5 200 10:47 14.03.2020
6480 Clouds 2 986 100 10000 5 200 10:47 14.03.2020
6481 Clouds 2 986 100 10000 5 200 10:28 14.03.2020
6482 Clouds 2 986 100 10000 5 190 09:59 14.03.2020
6483 Rain 1 987 100 6000 5 190 09:40 14.03.2020
6484 Rain 1 987 100 6000 5 190 09:21 14.03.2020
6485 Clouds 1 987 100 10000 5 190 08:46 14.03.2020
6486 Rain 1 987 100 7000 5 190 08:26 14.03.2020
6487 Snow 1 988 100 4800 5 200 07:40 14.03.2020
6488 Snow 2 988 97 9000 8 210 07:21 14.03.2020
6489 Clouds 2 989 97 10000 7 200 06:55 14.03.2020
6490 Clouds 2 989 97 10000 8 200 06:34 14.03.2020
6491 Clouds 2 989 94 10000 7 180 04:55 14.03.2020
6492 Clouds 2 991 80 10000 7 170 03:34 14.03.2020
6493 Clouds 2 991 80 10000 7 180 02:48 14.03.2020
6494 Clouds 2 992 80 10000 7 180 01:46 14.03.2020
6495 Clouds 2 994 80 10000 5 190 00:34 14.03.2020
6496 Clouds 2 995 80 10000 5 190 23:42 13.03.2020
6497 Clouds 2 995 80 10000 5 190 23:23 13.03.2020
6498 Clouds 3 996 74 10000 5 190 22:44 13.03.2020
6499 Clouds 2 996 80 10000 5 190 22:22 13.03.2020
6500 Clouds 3 997 74 10000 5 200 21:41 13.03.2020
6501 Clouds 3 997 74 10000 5 200 21:19 13.03.2020
6502 Clouds 2 997 80 10000 4 200 20:43 13.03.2020
6503 Clouds 3 998 94 10000 4 200 20:23 13.03.2020
6504 Clouds 3 998 98 10000 6 210 19:58 13.03.2020
6505 Clouds 3 998 98 10000 5 210 19:39 13.03.2020
6506 Clouds 3 998 98 10000 5 210 19:19 13.03.2020
6507 Clouds 3 998 98 10000 7 220 18:43 13.03.2020
6508 Clouds 3 998 98 10000 7 220 18:23 13.03.2020
6509 Clouds 3 998 98 10000 5 230 17:43 13.03.2020
6510 Clouds 3 998 98 10000 5 230 17:21 13.03.2020
6511 Clouds 4 998 80 10000 6 230 16:57 13.03.2020
6512 Clouds 4 998 98 10000 5 210 16:38 13.03.2020
6513 Clouds 4 998 98 10000 5 210 16:20 13.03.2020
6514 Clouds 4 998 98 10000 6 220 15:45 13.03.2020
6515 Clouds 4 998 98 10000 7 230 15:22 13.03.2020
6516 Rain 4 998 98 10000 9 220 14:58 13.03.2020
6517 Rain 4 998 98 10000 9 220 14:40 13.03.2020
6518 Clouds 6 997 56 10000 8 220 14:21 13.03.2020
6519 Rain 6 997 52 10000 9 210 13:42 13.03.2020
6520 Clouds 7 998 48 10000 8 210 13:24 13.03.2020
6521 Clouds 7 997 48 10000 8 210 12:59 13.03.2020
6522 Clouds 7 997 48 10000 7 210 12:38 13.03.2020
6523 Clouds 7 997 48 10000 7 210 12:38 13.03.2020
6524 Snow 7 998 45 10000 8 210 12:20 13.03.2020
6525 Snow 7 998 45 10000 8 210 11:56 13.03.2020
6526 Snow 7 997 45 10000 7 200 11:36 13.03.2020
6527 Snow 7 997 45 10000 7 200 11:36 13.03.2020
6528 Rain 7 997 45 10000 7 190 11:18 13.03.2020
6529 Rain 7 997 45 10000 7 190 10:46 13.03.2020
6530 Rain 6 998 48 10000 6 190 10:26 13.03.2020
6531 Rain 6 998 48 10000 6 190 09:49 13.03.2020
6532 Rain 5 999 56 10000 7 190 09:30 13.03.2020
6533 Rain 5 999 56 10000 6 190 08:59 13.03.2020
6534 Rain 5 1000 56 10000 6 190 08:41 13.03.2020
6535 Rain 5 1000 56 10000 6 190 08:22 13.03.2020
6536 Clouds 4 1000 60 10000 5 180 07:44 13.03.2020
6537 Clouds 4 1000 60 10000 5 190 07:25 13.03.2020
6538 Clouds 4 1001 60 10000 5 200 06:46 13.03.2020
6539 Clouds 4 1001 60 10000 5 200 06:23 13.03.2020
6540 Clouds 3 1001 64 10000 7 210 05:46 13.03.2020
6541 Clouds 3 1001 64 10000 8 210 04:57 13.03.2020
6542 Clouds 3 1001 64 10000 7 200 04:26 13.03.2020
6543 Clouds 3 1002 69 10000 6 210 02:43 13.03.2020
6544 Clouds 4 1002 64 10000 7 210 01:37 13.03.2020
6545 Clouds 4 1002 64 10000 7 210 01:18 13.03.2020
6546 Clouds 4 1002 69 10000 7 200 00:41 13.03.2020
6547 Clouds 4 1002 69 10000 6 200 00:19 13.03.2020
6548 Clouds 5 1002 65 10000 6 210 23:39 12.03.2020
6549 Clouds 4 1002 69 10000 5 210 23:19 12.03.2020
6550 Clouds 4 1002 69 10000 5 210 22:46 12.03.2020
6551 Clouds 4 1002 99 10000 5 200 22:28 12.03.2020
6552 Clouds 4 1002 99 10000 5 200 21:57 12.03.2020
6553 Clouds 4 1003 99 10000 5 210 21:39 12.03.2020
6554 Clouds 4 1003 99 10000 5 210 21:20 12.03.2020
6555 Clouds 4 1003 69 10000 5 200 20:42 12.03.2020
6556 Clouds 4 1003 69 10000 5 200 20:20 12.03.2020
6557 Clouds 4 1003 69 10000 5 200 19:56 12.03.2020
6558 Clouds 4 1003 69 10000 5 210 19:37 12.03.2020
6559 Clouds 4 1004 64 10000 5 200 19:18 12.03.2020
6560 Clouds 4 1004 64 10000 4 200 18:41 12.03.2020
6561 Clouds 4 1004 64 10000 6 200 18:22 12.03.2020
6562 Clouds 4 1004 64 10000 6 200 17:56 12.03.2020
6563 Clouds 4 1004 64 10000 6 200 17:37 12.03.2020
6564 Clouds 4 1005 64 10000 5 190 17:18 12.03.2020
6565 Clouds 4 1005 69 10000 5 200 16:41 12.03.2020
6566 Clouds 4 1005 69 10000 5 200 16:22 12.03.2020
6567 Clouds 3 1005 74 10000 4 190 15:49 12.03.2020
6568 Clouds 4 1006 69 10000 4 190 15:28 12.03.2020
6569 Clouds 4 1006 69 10000 4 190 15:28 12.03.2020
6570 Clouds 4 1006 69 10000 5 200 14:56 12.03.2020
6571 Clouds 4 1006 69 10000 5 200 14:56 12.03.2020
6572 Clouds 4 1006 69 10000 4 200 14:37 12.03.2020
6573 Clouds 4 1006 69 10000 4 200 14:18 12.03.2020
6574 Clouds 4 1006 69 10000 5 220 13:40 12.03.2020
6575 Clouds 4 1006 69 10000 5 220 13:21 12.03.2020
6576 Clouds 4 1006 69 10000 5 220 12:55 12.03.2020
6577 Clouds 4 1006 69 10000 5 220 12:55 12.03.2020
6578 Clouds 4 1006 99 10000 6 220 12:37 12.03.2020
6579 Clouds 4 1006 99 10000 6 220 12:37 12.03.2020
6580 Clouds 4 1006 99 10000 7 220 12:18 12.03.2020
6581 Clouds 4 1006 99 10000 7 220 12:18 12.03.2020
6582 Clouds 4 1006 99 10000 7 220 11:55 12.03.2020
6583 Clouds 4 1006 99 10000 6 210 11:36 12.03.2020
6584 Clouds 4 1006 100 10000 6 210 11:18 12.03.2020
6585 Clouds 3 1006 100 10000 7 210 10:43 12.03.2020
6586 Clouds 3 1006 100 10000 7 210 10:23 12.03.2020
6587 Clouds 3 1007 86 10000 6 200 09:55 12.03.2020
6588 Clouds 3 1007 86 10000 6 190 09:37 12.03.2020
6589 Clouds 3 1007 86 10000 6 190 09:19 12.03.2020
6590 Clouds 3 1007 93 10000 6 180 08:38 12.03.2020
6591 Clouds 3 1007 93 10000 6 180 08:18 12.03.2020
6592 Clouds 2 1008 100 10000 7 170 07:47 12.03.2020
6593 Clouds 2 1009 100 10000 6 180 07:22 12.03.2020
6594 Clouds 2 1010 100 10000 6 180 06:26 12.03.2020
6595 Clouds 1 1011 100 10000 6 190 05:35 12.03.2020
6596 Clouds 0 1012 96 10000 4 190 03:44 12.03.2020
6597 Clouds 0 1013 95 10000 4 200 01:58 12.03.2020
6598 Clouds -1 1013 100 10000 4 210 01:23 12.03.2020
6599 Clouds 0 1013 95 10000 3 210 00:42 12.03.2020
6600 Clouds 0 1013 95 10000 4 230 23:58 11.03.2020
6601 Clouds 0 1013 95 10000 4 240 23:29 11.03.2020
6602 Clouds 0 1013 93 10000 4 230 22:59 11.03.2020
6603 Snow 0 1013 93 10000 4 230 22:40 11.03.2020
6604 Snow 0 1013 93 10000 4 230 22:21 11.03.2020
6605 Clouds 1 1013 100 10000 4 230 21:58 11.03.2020
6606 Clouds 1 1013 100 10000 4 240 21:39 11.03.2020
6607 Clouds 1 1013 100 10000 4 240 21:21 11.03.2020
6608 Clouds 0 1013 93 10000 3 230 20:56 11.03.2020
6609 Clouds 1 1012 100 10000 4 240 20:37 11.03.2020
6610 Clouds 1 1012 100 10000 4 240 20:19 11.03.2020
6611 Clouds 1 1013 93 10000 4 240 19:42 11.03.2020
6612 Clouds 1 1013 93 10000 4 240 19:24 11.03.2020
6613 Clouds 1 1012 93 10000 5 250 18:57 11.03.2020
6614 Clouds 1 1012 100 10000 4 250 18:37 11.03.2020
6615 Clouds 1 1012 100 10000 4 250 18:18 11.03.2020
6616 Clouds 1 1012 100 10000 5 250 17:54 11.03.2020
6617 Clouds 1 1011 100 10000 5 260 17:36 11.03.2020
6618 Clouds 1 1011 100 10000 5 250 17:18 11.03.2020
6619 Clouds 1 1011 100 10000 5 250 16:41 11.03.2020
6620 Clouds 1 1011 100 10000 5 250 16:19 11.03.2020
6621 Clouds 1 1010 100 10000 6 260 15:43 11.03.2020
6622 Clouds 1 1010 100 10000 7 280 15:23 11.03.2020
6623 Clouds 1 1010 100 10000 7 280 15:23 11.03.2020
6624 Clouds 1 1009 100 10000 7 270 14:46 11.03.2020
6625 Clouds 1 1009 100 10000 6 250 14:25 11.03.2020
6626 Clouds 1 1008 100 10000 7 250 13:59 11.03.2020
6627 Clouds 1 1008 100 10000 7 250 13:40 11.03.2020
6628 Clouds 1 1008 100 10000 7 250 13:22 11.03.2020
6629 Clouds 1 1008 100 10000 7 240 12:56 11.03.2020
6630 Snow 1 1008 100 8000 7 240 12:37 11.03.2020
6631 Snow 1 1008 100 8000 7 240 12:18 11.03.2020
6632 Snow 1 1007 100 2600 6 240 11:40 11.03.2020
6633 Snow 1 1007 100 2600 6 240 11:20 11.03.2020
6634 Snow 0 1007 99 5000 7 230 10:47 11.03.2020
6635 Snow 0 1007 99 7000 7 230 10:20 11.03.2020
6636 Snow 0 1007 99 9000 7 230 09:58 11.03.2020
6637 Snow 0 1007 99 2500 7 230 09:38 11.03.2020
6638 Snow 0 1007 99 2500 7 230 09:19 11.03.2020
6639 Snow 0 1007 99 2000 6 230 08:42 11.03.2020
6640 Snow 0 1008 98 1400 6 220 08:23 11.03.2020
6641 Snow 0 1008 98 1100 6 220 07:47 11.03.2020
6642 Snow 0 1008 98 2300 6 220 07:20 11.03.2020
6643 Snow 0 1008 98 4400 6 220 06:49 11.03.2020
6644 Snow 0 1008 98 5000 7 210 06:30 11.03.2020
6645 Snow 0 1009 98 6000 6 220 05:32 11.03.2020
6646 Clouds 0 1011 97 10000 6 220 02:36 11.03.2020
6647 Clouds 0 1011 95 10000 6 220 01:51 11.03.2020
6648 Clouds 0 1011 95 10000 6 220 00:53 11.03.2020
6649 Clouds 0 1012 95 10000 6 220 00:31 11.03.2020
6650 Clouds -1 1012 86 10000 6 220 23:47 10.03.2020
6651 Clouds -1 1012 86 10000 6 220 23:22 10.03.2020
6652 Clouds -1 1013 86 10000 6 230 22:55 10.03.2020
6653 Clouds -1 1013 86 10000 6 230 22:36 10.03.2020
6654 Clouds -1 1013 86 10000 6 230 22:18 10.03.2020
6655 Clouds -1 1013 86 10000 6 230 21:55 10.03.2020
6656 Clouds -1 1014 86 10000 5 230 21:37 10.03.2020
6657 Clouds -1 1014 86 10000 5 230 21:18 10.03.2020
6658 Clouds -1 1014 86 10000 5 230 21:18 10.03.2020
6659 Clouds -1 1014 86 10000 6 230 20:41 10.03.2020
6660 Clouds -1 1014 86 10000 6 240 20:19 10.03.2020
6661 Clouds -1 1014 86 10000 6 240 19:58 10.03.2020
6662 Clouds -1 1014 86 10000 6 230 19:40 10.03.2020
6663 Clouds -1 1014 86 10000 6 230 19:21 10.03.2020
6664 Clouds -1 1014 80 10000 7 240 18:54 10.03.2020
6665 Clouds -1 1014 80 10000 7 240 18:36 10.03.2020
6666 Clouds -1 1014 80 10000 7 240 18:18 10.03.2020
6667 Clouds -1 1015 80 10000 6 230 17:40 10.03.2020
6668 Clouds -1 1015 80 10000 6 230 17:21 10.03.2020
6669 Clouds -1 1015 80 10000 8 230 16:40 10.03.2020
6670 Clouds -1 1015 80 10000 8 230 16:20 10.03.2020
6671 Clouds -1 1015 80 10000 6 230 15:58 10.03.2020
6672 Clouds -1 1015 80 10000 7 230 15:39 10.03.2020
6673 Clouds -1 1015 80 10000 7 230 15:19 10.03.2020
6674 Clouds -1 1015 74 10000 7 230 14:57 10.03.2020
6675 Clouds -1 1015 74 10000 7 230 14:39 10.03.2020
6676 Clouds -1 1015 80 10000 8 240 14:18 10.03.2020
6677 Clouds -1 1015 74 10000 8 240 13:42 10.03.2020
6678 Clouds -1 1015 74 10000 8 240 13:42 10.03.2020
6679 Clouds -1 1015 74 10000 7 230 13:24 10.03.2020
6680 Clouds -1 1016 74 10000 7 240 12:42 10.03.2020
6681 Clouds -1 1016 74 10000 8 240 12:21 10.03.2020
6682 Clouds -1 1016 74 10000 8 240 11:59 10.03.2020
6683 Clouds -1 1016 74 10000 7 240 11:41 10.03.2020
6684 Clouds -1 1016 74 10000 7 240 11:23 10.03.2020
6685 Clouds -1 1016 68 10000 8 230 10:54 10.03.2020
6686 Clouds -1 1016 68 10000 8 230 10:36 10.03.2020
6687 Clouds -1 1016 68 10000 8 230 10:18 10.03.2020
6688 Clouds -1 1017 68 10000 8 230 09:42 10.03.2020
6689 Clouds -2 1017 74 10000 7 230 09:19 10.03.2020
6690 Clouds -2 1017 68 10000 6 230 08:53 10.03.2020
6691 Clouds -3 1018 73 10000 7 230 08:33 10.03.2020
6692 Clouds -4 1018 73 10000 6 230 07:53 10.03.2020
6693 Clouds -4 1018 68 10000 5 220 07:34 10.03.2020
6694 Clouds -5 1019 67 10000 5 220 06:50 10.03.2020
6695 Clouds -7 1019 67 10000 5 220 06:31 10.03.2020
6696 Clouds -9 1020 72 10000 5 210 05:42 10.03.2020
6697 Clouds -9 1020 72 10000 5 210 04:53 10.03.2020
6698 Clouds -10 1020 72 10000 4 210 04:24 10.03.2020
6699 Clouds -11 1020 78 10000 4 230 02:46 10.03.2020
6700 Clouds -15 1020 84 10000 2 240 01:31 10.03.2020
6701 Clouds -14 1020 84 10000 2 250 00:50 10.03.2020
6702 Clouds -15 1020 84 10000 3 260 00:27 10.03.2020
6703 Clouds -15 1020 92 10000 3 280 23:41 09.03.2020
6704 Clouds -15 1020 92 10000 3 280 23:22 09.03.2020
6705 Clear -15 1020 84 10000 3 280 22:56 09.03.2020
6706 Clear -15 1020 84 10000 3 280 22:37 09.03.2020
6707 Clear -15 1020 84 10000 3 280 22:18 09.03.2020
6708 Clear -15 1020 84 10000 3 280 21:42 09.03.2020
6709 Clear -15 1020 84 10000 3 280 21:22 09.03.2020
6710 Clear -14 1020 77 10000 4 280 20:58 09.03.2020
6711 Clear -15 1020 77 10000 3 280 20:39 09.03.2020
6712 Clear -15 1020 77 10000 3 280 20:20 09.03.2020
6713 Clear -13 1019 78 10000 3 300 19:45 09.03.2020
6714 Clear -12 1019 72 10000 4 300 19:26 09.03.2020
6715 Clear -12 1019 72 10000 3 310 18:59 09.03.2020
6716 Clear -11 1019 72 10000 4 310 18:40 09.03.2020
6717 Clear -11 1019 72 10000 4 310 18:20 09.03.2020
6718 Clear -11 1019 72 10000 4 310 17:58 09.03.2020
6719 Clear -11 1018 72 10000 4 300 17:38 09.03.2020
6720 Clear -10 1018 66 10000 4 320 17:20 09.03.2020
6721 Clear -10 1018 66 10000 4 320 16:58 09.03.2020
6722 Clear -9 1017 66 10000 6 320 16:40 09.03.2020
6723 Clear -9 1017 66 10000 6 320 16:22 09.03.2020
6724 Clear -9 1017 66 10000 6 320 15:58 09.03.2020
6725 Clear -8 1017 61 10000 7 330 15:39 09.03.2020
6726 Clear -8 1017 61 10000 7 330 15:21 09.03.2020
6727 Clear -8 1017 67 10000 5 320 14:57 09.03.2020
6728 Clear -7 1016 62 10000 7 320 14:37 09.03.2020
6729 Clear -7 1016 62 10000 7 320 14:19 09.03.2020
6730 Clouds -7 1016 62 10000 6 320 13:55 09.03.2020
6731 Clouds -7 1015 67 10000 6 310 13:37 09.03.2020
6732 Clouds -7 1015 67 10000 6 310 13:18 09.03.2020
6733 Clouds -6 1015 62 10000 7 320 12:42 09.03.2020
6734 Clouds -6 1015 57 10000 5 320 12:22 09.03.2020
6735 Clouds -6 1015 57 10000 5 320 12:22 09.03.2020
6736 Clear -7 1014 62 10000 7 320 11:54 09.03.2020
6737 Clear -7 1014 57 10000 8 320 11:36 09.03.2020
6738 Clear -7 1014 57 10000 8 320 11:18 09.03.2020
6739 Clear -7 1014 62 10000 7 330 10:54 09.03.2020
6740 Clear -7 1014 62 10000 7 330 10:36 09.03.2020
6741 Clear -7 1014 62 10000 7 330 10:18 09.03.2020
6742 Clear -7 1013 62 10000 7 330 09:38 09.03.2020
6743 Clear -7 1013 62 10000 7 330 09:19 09.03.2020
6744 Clear -7 1012 67 10000 7 330 08:44 09.03.2020
6745 Clear -6 1012 62 10000 7 330 08:25 09.03.2020
6746 Snow -6 1011 67 10000 5 330 07:41 09.03.2020
6747 Snow -6 1011 62 10000 8 340 07:22 09.03.2020
6748 Snow -5 1011 62 10000 9 330 06:46 09.03.2020
6749 Clouds -3 1010 58 10000 7 330 06:25 09.03.2020
6750 Clouds -3 1010 58 10000 6 340 05:52 09.03.2020
6751 Clouds -3 1009 68 10000 6 340 05:34 09.03.2020
6752 Snow -3 1009 86 6000 6 340 04:43 09.03.2020
6753 Snow -3 1008 92 8000 4 330 04:22 09.03.2020
6754 Snow -3 1008 100 3000 4 300 03:20 09.03.2020
6755 Clouds -3 1008 100 10000 5 260 01:41 09.03.2020
6756 Clouds -2 1008 92